GFSMW_sfc_wetblb_000.txt.gz
Wetbulb
45.40 47.17 47.16 46.73 47.28 47.19 47.61 47.81 50.74 51.67 55.42 56.65 56.34 56.41 56.91 57.85 58.41 59.21 59.69 59.29 58.70 58.16 56.71 56.11 56.29 56.48 55.71 56.79 57.26 56.22 55.30 55.58 55.46 54.11 54.82 55.67 55.89 55.57 55.68 55.60 55.05 55.25 55.01
45.33 46.29 46.45 45.88 45.95 46.07 47.15 48.27 48.58 49.53 52.71 56.20 56.90 57.49 57.59 57.92 58.03 56.88 55.20 55.10 56.27 56.59 56.97 57.07 57.10 57.18 56.99 56.99 56.45 56.29 56.96 57.48 57.81 54.73 55.41 53.06 54.69 55.02 56.15 56.03 55.43 55.32 56.13
45.12 45.10 45.45 45.22 45.35 45.57 45.84 47.34 47.57 48.56 49.26 50.67 53.62 53.11 53.48 52.19 51.24 51.30 50.28 50.74 51.43 50.82 50.35 50.57 51.09 52.45 54.77 55.52 56.47 56.69 57.19 56.64 57.89 57.98 55.45 52.84 52.24 55.56 56.31 53.94 54.67 55.01 55.31
44.19 46.10 46.14 45.70 45.48 45.73 46.45 46.85 47.64 47.84 48.41 47.77 48.41 47.49 47.19 46.48 47.34 47.76 47.36 48.30 48.78 49.03 48.73 48.48 48.07 47.81 49.31 48.72 50.29 51.49 53.74 54.75 54.07 56.54 58.25 58.09 56.64 53.19 52.41 56.45 55.36 53.99 54.68
44.50 44.97 45.34 45.78 45.74 46.05 45.43 45.64 47.11 47.35 47.28 47.36 46.73 46.87 45.72 45.60 45.95 46.00 45.62 45.99 46.77 47.54 47.53 47.16 46.70 46.61 47.31 47.25 47.46 48.05 48.51 49.57 50.71 51.04 52.82 53.12 53.61 54.03 52.35 49.50 52.26 55.11 56.82
44.01 44.64 45.01 45.14 44.69 44.92 45.29 45.52 46.66 46.13 46.36 46.51 46.01 45.20 44.13 43.79 43.89 43.82 43.60 44.22 44.72 45.35 45.34 45.69 45.62 45.58 45.87 46.23 47.08 47.41 46.99 47.56 48.28 48.99 48.54 48.54 48.29 48.63 49.33 48.17 48.57 49.53 52.29
43.38 43.82 43.73 43.72 43.79 43.97 44.64 45.93 45.61 44.77 45.08 44.82 44.22 43.79 43.24 42.48 41.92 41.73 41.77 41.08 41.59 42.18 42.41 42.91 43.30 43.72 44.42 45.26 46.09 46.15 46.01 46.49 46.63 46.68 46.88 48.24 48.09 49.35 48.92 47.71 47.10 47.91 49.95
42.75 43.57 43.33 42.73 42.98 43.79 43.82 43.96 43.84 43.47 43.72 43.58 42.55 41.67 41.39 41.60 40.94 40.20 40.15 39.69 39.85 40.36 40.34 40.90 41.28 41.91 42.66 43.47 43.16 43.26 44.12 44.89 45.13 44.76 45.72 46.73 46.33 46.97 46.76 47.05 46.86 44.39 45.64
42.70 43.10 42.40 42.05 42.61 43.01 42.95 42.60 42.11 41.71 41.59 41.30 40.97 39.43 38.74 38.32 37.70 37.63 37.15 37.26 37.39 39.23 38.44 37.87 38.05 38.94 39.33 39.35 39.53 40.78 41.13 41.86 43.15 43.80 42.92 42.89 44.02 44.98 46.30 48.23 48.00 45.36 41.32
42.47 42.35 41.79 42.01 42.68 42.49 41.40 40.63 40.46 39.80 39.59 39.21 38.69 37.75 36.33 35.90 35.43 35.02 34.15 34.23 34.75 35.12 35.31 35.42 35.54 35.69 35.52 36.29 36.50 39.34 37.85 38.79 42.00 40.06 39.12 41.65 42.37 43.35 46.20 46.50 45.87 44.88 43.27
42.27 41.82 41.19 42.09 41.80 40.40 39.26 38.44 38.40 38.24 37.60 37.53 36.33 34.82 34.25 33.83 33.16 32.61 32.61 32.50 32.74 33.16 33.44 33.66 33.99 33.65 33.54 34.17 34.48 36.43 35.83 37.16 37.33 36.77 37.04 38.62 40.40 43.14 41.72 43.12 41.12 40.18 42.07
42.36 41.12 41.19 41.17 39.82 38.19 37.09 36.43 36.62 36.51 36.28 36.34 34.40 32.94 32.18 31.54 30.64 30.59 31.07 31.49 30.80 32.06 31.98 32.17 32.42 32.29 32.60 32.83 33.55 32.77 33.56 35.38 34.40 35.25 36.70 38.21 41.40 37.72 39.08 39.03 37.30 38.59 39.04
40.68 40.39 40.77 40.00 38.79 37.01 35.67 34.70 34.47 34.09 34.43 33.74 31.72 30.51 29.98 29.18 28.50 28.93 29.96 30.44 30.46 30.59 30.77 30.96 30.87 31.00 31.45 31.87 31.70 32.34 33.27 33.90 34.39 35.28 34.11 32.97 35.38 34.22 34.33 34.08 35.43 39.18 38.38
40.78 40.71 40.60 38.94 37.45 35.69 34.09 33.00 32.63 32.62 32.63 31.42 29.97 29.08 28.61 28.26 28.17 28.66 28.98 29.31 29.67 29.07 29.39 29.83 30.04 30.34 30.76 31.10 31.79 32.82 33.22 33.92 34.96 33.48 32.32 31.94 32.46 33.03 33.39 33.44 34.04 37.01 35.75
39.55 41.44 40.38 37.42 35.33 33.46 32.48 32.17 31.87 31.03 31.01 29.40 28.84 28.63 28.78 28.54 28.17 28.09 28.18 28.44 28.57 28.81 28.93 28.91 29.26 29.51 30.20 31.99 32.25 33.07 33.09 32.84 32.74 31.86 31.92 32.81 34.64 36.62 36.14 34.46 33.88 34.48 33.76
39.31 41.10 39.40 36.81 34.31 31.80 31.61 31.62 30.36 29.35 29.63 28.43 28.00 28.50 28.21 28.02 27.61 27.59 27.63 27.49 27.46 27.40 27.57 27.58 27.86 28.01 30.23 34.01 35.94 35.28 32.49 32.06 31.02 30.42 31.26 32.07 34.26 34.44 37.37 37.37 37.44 36.56 33.08
38.26 40.09 37.46 35.44 32.54 31.50 31.37 29.38 28.46 28.56 29.17 28.05 27.48 27.67 27.65 27.08 27.02 27.03 26.51 26.24 25.87 25.98 26.15 26.45 26.82 26.79 27.55 33.54 35.28 35.85 32.16 30.97 30.79 30.63 30.68 31.27 33.24 34.13 33.05 35.34 36.60 36.12 37.17
39.69 38.25 35.52 33.01 31.52 31.05 29.98 29.00 29.74 29.71 28.09 26.61 26.35 26.81 26.64 26.12 26.21 25.41 24.79 24.35 25.22 24.94 25.44 25.68 26.29 26.31 27.89 32.86 34.32 34.99 31.42 30.70 30.71 30.78 31.02 31.04 32.37 32.80 33.24 32.41 32.14 32.87 32.27
38.30 36.20 34.46 32.22 30.08 29.20 29.25 28.93 28.76 25.77 25.59 25.53 25.21 25.69 25.52 25.02 24.71 24.07 23.62 24.25 24.45 24.93 25.10 25.83 25.71 25.16 25.87 32.04 33.35 33.26 30.31 29.77 29.72 30.97 31.50 33.10 31.83 34.36 35.82 32.74 31.15 29.86 31.79
35.82 33.81 31.97 30.64 29.36 27.74 27.17 25.82 25.02 24.43 24.31 24.98 25.00 25.37 25.29 24.45 23.38 23.29 23.57 24.10 24.28 24.69 25.43 25.25 25.37 27.55 25.83 30.47 33.35 32.77 30.00 28.65 29.22 30.32 33.10 33.96 32.75 35.18 35.63 30.98 29.67 28.07 27.43
33.50 32.26 30.93 28.69 27.10 26.97 28.97 25.61 24.24 23.34 24.22 24.86 24.87 24.81 24.58 23.54 23.26 23.11 23.29 24.17 24.01 24.00 23.49 23.71 24.68 25.04 26.55 28.07 33.15 33.68 30.39 29.53 29.75 31.03 29.05 29.81 34.09 35.14 33.31 33.29 28.53 28.05 30.97
32.13 30.81 28.08 26.73 27.31 30.11 26.00 24.32 23.70 23.84 23.90 23.95 23.71 23.32 23.05 24.27 26.26 23.33 23.58 23.44 22.99 22.48 22.67 22.87 23.52 25.66 26.94 31.03 31.75 33.22 33.42 33.44 30.50 28.52 28.93 30.15 33.55 31.67 31.74 30.47 31.59 31.81 31.42
31.00 29.85 27.97 26.78 26.05 25.92 24.94 22.30 23.08 23.24 23.19 22.36 22.01 21.93 22.84 23.20 23.50 23.08 23.55 23.47 23.04 22.24 22.10 22.39 23.02 25.16 27.16 27.64 31.74 32.69 33.30 33.85 30.56 29.52 32.08 30.91 30.58 29.82 28.58 29.63 30.06 29.51 25.42
28.96 28.29 26.73 26.24 27.54 26.15 23.96 22.57 22.70 22.94 22.16 20.73 20.65 21.63 21.28 23.52 23.01 22.61 23.73 23.00 22.28 21.96 22.40 23.49 24.62 25.18 26.08 26.51 27.47 29.04 30.06 31.69 30.31 32.52 29.94 28.87 28.39 28.40 27.68 26.06 25.38 24.00 24.70
28.38 28.07 28.17 27.26 24.58 22.79 22.28 22.36 23.07 22.22 21.52 21.12 21.60 21.56 21.78 21.16 22.36 23.28 22.61 23.18 23.88 25.20 25.15 25.52 25.86 25.00 24.89 26.59 30.98 30.92 29.10 29.58 31.00 30.00 26.50 24.17 23.13 22.36 22.60 22.87 22.82 23.18 23.81
28.08 27.49 26.43 23.60 22.30 21.76 21.50 22.10 22.58 22.09 20.53 21.05 22.22 21.83 22.85 22.05 22.79 22.25 22.56 27.97 29.18 30.25 30.44 30.53 29.24 28.29 30.29 31.42 31.80 31.67 32.17 32.20 30.67 25.39 22.81 22.03 21.69 21.22 21.36 21.45 21.40 21.96 23.39

GFSMW_sfc_wetblb_003.txt.gz
Wetbulb
48.76 49.39 49.65 49.94 51.19 50.89 51.72 52.19 54.91 56.88 60.06 60.49 60.67 61.08 59.32 57.81 56.51 55.70 55.28 54.80 55.14 55.06 55.21 55.38 55.02 55.84 56.27 56.53 57.14 58.21 58.18 58.45 59.90 56.90 56.49 58.15 59.88 60.75 61.14 61.29 60.25 59.73 59.75
48.08 48.52 49.03 49.48 49.30 49.81 50.84 51.38 51.79 52.97 57.16 60.11 60.38 60.56 57.16 55.26 54.39 53.79 53.15 53.14 52.08 51.60 51.37 51.36 51.39 51.90 52.36 52.14 52.87 53.30 52.89 54.09 56.01 55.65 55.20 53.56 56.00 59.82 59.85 60.86 59.95 60.71 60.38
47.27 47.77 48.36 48.60 49.31 48.99 49.43 50.42 51.11 51.49 51.89 53.55 54.52 54.34 54.17 53.68 52.65 51.35 50.78 50.55 50.86 49.97 49.67 49.78 49.65 49.86 50.46 49.76 50.80 51.25 50.76 49.49 51.80 53.45 51.90 50.23 48.80 51.05 55.08 58.20 60.19 60.25 59.76
47.65 47.98 48.09 48.47 48.74 48.51 49.98 50.40 50.50 50.90 51.13 52.19 51.53 50.64 49.93 48.49 48.92 49.02 49.15 48.78 48.93 48.32 47.45 47.97 48.08 48.21 48.69 48.45 49.12 49.67 49.77 49.43 48.28 50.62 51.88 52.29 52.03 47.62 47.46 52.37 54.79 56.58 57.85
47.70 47.05 47.55 47.94 48.27 48.81 48.82 49.48 49.72 49.38 49.50 49.62 49.76 49.00 47.53 47.73 47.28 46.72 46.00 46.25 46.35 46.61 44.96 45.60 45.89 45.76 46.46 47.14 47.58 47.51 47.94 48.87 47.92 48.12 48.71 49.23 50.38 50.66 48.81 45.94 48.52 52.24 53.28
46.84 46.73 47.05 47.58 47.74 48.64 48.91 49.00 48.29 47.31 47.52 47.61 47.31 46.50 45.56 44.46 43.78 43.24 42.51 42.77 43.11 43.46 42.30 42.73 43.09 43.47 43.72 44.07 44.81 45.65 46.65 46.74 47.17 47.87 48.19 47.60 46.81 46.22 46.64 45.64 46.16 46.50 49.43
46.28 46.23 46.29 46.82 47.22 47.59 47.91 47.86 47.33 45.53 45.60 45.00 44.42 44.33 43.35 42.46 40.92 40.39 39.70 39.20 39.22 40.04 39.74 40.47 40.25 40.73 41.19 41.40 41.78 42.49 44.34 44.36 44.37 45.34 46.43 46.80 44.75 45.01 45.41 45.06 44.62 45.20 48.13
45.95 46.01 46.16 46.36 46.46 46.28 46.23 45.83 45.24 44.35 43.92 42.92 41.49 41.12 40.98 40.06 39.11 38.52 38.09 37.55 37.52 38.37 38.68 38.61 38.82 38.80 38.79 38.42 39.22 40.03 42.49 40.93 41.96 44.28 42.91 42.77 41.96 44.03 44.34 44.53 43.67 41.31 42.92
45.16 45.43 45.19 45.80 45.74 45.09 44.31 43.96 43.24 42.62 42.63 40.84 39.27 38.08 37.76 37.20 36.61 36.61 36.76 36.38 36.50 36.84 36.82 37.14 36.96 37.37 37.06 36.92 37.23 37.86 38.94 38.81 39.33 41.40 40.21 40.32 41.04 43.74 44.83 45.82 45.83 42.37 38.77
44.60 44.43 44.37 44.94 44.48 43.15 42.41 42.45 41.98 40.97 40.09 38.79 37.84 36.14 35.84 35.76 35.55 35.52 34.64 34.59 35.12 35.42 35.44 35.51 35.68 35.82 35.72 35.75 35.82 36.30 37.14 36.73 37.39 38.99 38.21 39.19 40.57 42.05 44.34 43.06 43.42 42.89 38.83
44.23 43.90 44.06 44.40 42.44 41.25 40.80 40.38 39.99 39.46 38.41 36.70 35.33 34.58 34.34 34.23 34.10 33.75 33.75 33.85 34.15 34.18 34.06 34.08 34.18 34.29 34.21 34.54 34.48 34.56 35.26 34.93 36.33 37.68 37.52 37.74 38.43 37.62 39.13 40.95 40.34 39.02 37.76
44.13 43.39 43.67 41.91 40.02 39.01 38.56 38.52 38.20 37.60 36.64 35.03 33.92 33.40 33.30 32.97 32.63 32.56 32.73 33.09 32.72 33.43 33.14 33.15 33.04 33.16 33.19 33.53 33.29 32.91 34.07 34.41 34.73 35.72 36.68 35.37 35.49 34.82 36.12 37.25 36.29 36.44 37.29
42.75 42.28 42.04 40.30 38.78 37.65 36.92 36.42 35.96 35.61 34.57 33.51 32.86 32.32 32.08 31.97 31.70 31.75 32.07 32.34 32.22 32.40 32.50 32.24 31.87 31.97 32.25 32.35 32.90 33.54 34.19 34.63 34.98 35.03 34.96 33.99 33.76 33.81 34.77 35.16 35.26 36.60 36.32
42.14 41.82 41.27 39.64 37.94 36.67 35.83 34.91 33.96 34.34 33.17 32.36 31.95 31.53 31.52 31.26 31.19 31.57 31.54 31.37 31.62 31.29 31.34 31.54 31.41 31.43 31.43 31.76 32.85 33.86 34.23 34.32 34.56 34.32 34.09 33.67 33.49 33.12 34.54 35.25 35.50 35.32 34.84
41.22 41.80 40.46 38.30 36.55 35.20 34.50 33.81 32.95 32.78 32.30 31.41 31.23 30.94 31.12 31.26 31.13 30.90 30.77 30.84 30.74 30.69 30.68 30.35 30.58 30.84 30.87 32.01 33.02 34.05 33.82 33.42 32.96 33.32 33.43 33.92 34.68 35.65 36.04 35.06 34.98 34.46 33.67
41.25 42.13 40.20 37.72 35.80 34.69 33.90 33.09 31.88 31.28 31.55 30.48 30.11 30.53 30.49 30.51 30.24 30.19 29.88 29.72 29.72 29.85 29.52 29.46 29.49 29.31 30.25 32.74 34.70 34.88 33.63 32.81 32.24 31.81 32.72 33.35 34.20 34.94 36.58 36.42 36.71 35.76 33.05
40.92 42.00 39.76 37.50 35.00 34.15 33.55 31.96 30.76 30.76 30.59 30.01 29.51 29.73 29.82 29.39 29.44 29.34 28.99 28.70 28.51 28.61 28.72 28.93 28.90 28.59 29.19 32.32 34.07 34.84 33.10 32.47 31.90 31.56 32.15 32.40 33.48 34.47 34.51 35.75 36.04 36.04 35.70
39.99 40.89 37.93 35.44 34.07 33.54 32.30 31.02 30.83 30.42 29.73 28.92 28.82 29.11 28.83 28.54 28.79 28.33 27.87 27.83 28.24 28.01 28.04 27.96 28.28 28.11 28.82 31.66 33.29 33.88 32.63 32.16 31.68 31.68 31.95 32.06 32.75 34.46 33.57 33.52 33.98 32.73 32.74
40.60 39.23 37.04 34.12 32.60 31.86 31.30 30.48 29.64 28.42 28.28 28.32 27.94 28.24 28.13 27.70 27.58 27.14 27.04 27.69 27.84 27.92 27.70 28.06 27.55 27.12 27.42 31.19 32.23 32.90 31.85 31.06 31.06 32.13 32.27 33.25 33.31 34.04 35.18 33.27 30.58 30.30 31.12
37.36 35.47 33.37 31.78 31.09 30.00 29.70 28.99 28.41 27.72 27.28 27.42 27.44 27.81 27.77 27.15 26.50 26.77 27.00 27.54 27.34 27.03 27.78 27.05 27.19 27.89 27.18 29.77 32.11 32.57 31.24 30.15 30.48 31.38 32.73 33.78 32.82 34.45 34.86 30.68 29.25 27.42 28.24
34.05 32.78 31.93 30.65 29.64 29.03 29.28 28.86 27.29 26.65 26.97 27.16 27.20 27.24 27.18 26.24 26.95 27.08 27.07 26.96 26.72 26.49 25.96 25.81 26.70 27.00 27.91 28.95 32.34 33.10 30.93 30.31 30.29 31.37 30.91 31.57 33.55 35.31 32.62 32.02 28.87 28.29 30.25
32.88 31.37 29.15 28.54 28.68 30.12 29.54 26.87 26.16 26.62 26.57 26.46 26.02 26.06 26.14 26.16 27.15 26.47 26.77 26.65 25.86 24.98 24.75 25.16 25.71 27.39 28.46 30.85 31.52 32.70 33.07 33.01 30.81 29.99 30.88 31.83 34.25 32.29 31.04 29.60 30.42 30.91 29.88
32.03 30.79 29.29 28.07 27.92 27.98 27.35 25.89 26.04 25.89 25.65 25.07 24.94 25.00 25.41 25.74 26.20 25.97 25.82 25.66 25.56 24.47 24.29 24.55 24.84 26.58 28.57 29.35 31.41 32.28 32.90 33.53 31.09 31.40 33.40 31.86 31.24 30.62 28.62 28.85 29.19 28.86 25.69
30.32 29.51 28.00 27.00 27.33 27.78 27.27 25.64 25.41 25.36 24.57 23.99 24.02 24.75 24.71 26.65 26.07 25.22 25.40 24.86 24.41 24.22 24.37 24.76 25.76 26.19 27.49 28.35 29.38 30.04 31.14 32.02 31.84 32.79 29.28 29.09 29.02 28.86 27.81 26.81 26.56 25.86 25.47
29.80 28.59 27.60 27.46 27.71 26.24 25.17 24.89 25.42 24.42 23.92 23.81 24.03 24.28 24.26 23.62 24.38 24.99 24.86 25.23 26.55 26.90 26.37 26.49 26.73 25.95 26.05 27.86 31.10 30.86 29.57 30.66 30.97 28.79 26.70 25.34 25.58 24.34 24.32 24.20 24.42 24.81 24.61
27.95 26.99 26.62 27.38 25.52 24.15 24.05 24.25 24.42 23.94 22.75 23.17 24.35 23.82 24.72 24.32 24.27 23.62 24.20 27.76 28.74 29.71 29.88 30.00 29.09 28.76 30.31 31.31 31.41 31.32 31.91 31.75 30.37 25.91 23.07 22.74 23.41 22.58 22.37 22.04 22.46 23.29 23.51

GFSMW_sfc_wetblb_006.txt.gz
Wetbulb
53.50 54.42 55.13 56.64 57.14 58.24 59.52 61.46 62.92 63.88 64.62 64.77 63.44 61.64 58.96 58.25 57.46 57.07 56.44 55.74 55.39 55.32 55.21 55.14 54.81 54.80 54.53 54.08 54.17 54.08 53.37 53.64 54.74 52.82 53.62 54.33 57.02 59.23 58.38 60.75 59.79 60.46 61.89
53.00 53.43 54.42 55.14 55.52 56.01 56.90 58.21 59.93 61.97 63.48 63.81 61.46 59.38 57.75 56.70 56.18 55.66 54.75 54.53 53.50 53.17 52.89 52.93 52.72 52.84 52.62 52.50 52.40 52.42 51.21 51.70 52.43 50.24 50.48 48.16 51.59 54.31 54.82 55.23 55.65 56.35 57.99
52.04 52.81 53.50 54.16 55.01 54.89 55.25 55.49 56.73 57.29 57.87 58.40 57.99 57.63 57.39 56.64 55.12 53.87 53.01 52.15 51.93 50.66 50.73 50.72 50.58 50.45 50.69 49.74 50.00 49.74 49.06 47.56 49.46 50.52 48.39 46.03 44.64 48.98 51.35 52.44 53.57 54.63 54.91
52.72 52.80 53.20 53.67 54.12 54.50 55.75 55.73 55.90 55.88 56.55 57.45 56.52 55.51 54.05 52.00 51.88 51.70 51.46 50.80 49.89 47.93 47.38 47.68 47.69 47.60 47.95 47.30 47.41 47.36 47.47 47.50 45.59 47.56 48.63 48.92 47.81 44.97 44.58 49.56 50.42 51.55 51.98
52.50 52.07 52.53 52.60 53.45 54.39 54.41 54.59 54.25 53.81 54.20 54.35 54.28 53.16 51.64 51.09 50.56 49.89 48.79 48.15 47.88 46.38 44.75 44.84 45.28 44.96 45.19 45.27 45.28 45.06 45.63 46.24 44.81 44.63 45.30 46.17 47.01 46.89 44.54 41.72 43.88 47.16 48.06
52.09 52.24 52.46 52.87 52.76 53.72 53.67 53.39 52.26 51.57 52.12 51.80 51.40 50.73 49.35 48.22 47.60 46.30 45.41 44.95 44.71 44.43 43.41 43.36 43.64 43.78 43.48 43.02 43.33 43.75 44.77 44.86 43.74 44.01 44.49 44.60 42.90 42.26 41.34 40.31 41.42 42.29 44.55
51.56 51.26 51.34 51.87 52.25 52.35 52.23 51.71 50.75 49.15 49.78 49.30 48.41 47.71 46.81 45.96 44.40 43.54 42.72 42.04 41.92 42.11 41.62 42.18 41.97 41.93 41.93 41.68 42.07 42.04 43.30 43.45 41.90 42.45 43.46 43.55 41.95 41.86 40.23 39.94 41.25 40.97 44.08
51.94 51.72 52.05 52.20 51.94 51.51 51.07 50.50 49.41 48.09 47.44 46.53 45.44 44.95 44.59 43.55 42.41 41.60 41.23 40.70 40.41 40.65 40.92 40.86 40.94 40.88 40.73 40.72 40.80 40.89 41.37 41.77 41.28 40.40 41.32 41.78 40.96 41.53 41.21 40.92 41.09 38.89 40.29
51.23 51.30 51.74 52.00 51.42 50.58 49.83 49.28 48.37 46.96 45.69 44.54 43.67 42.26 41.78 41.17 40.52 40.26 40.40 40.00 39.88 39.12 39.65 40.03 39.74 40.06 39.90 39.64 39.52 39.46 39.42 39.64 40.03 39.64 40.64 40.33 40.54 41.35 41.66 40.99 41.15 38.29 34.99
50.76 50.91 51.04 51.11 50.62 49.30 48.39 48.07 47.49 45.49 44.08 42.92 41.78 40.69 39.87 39.59 39.42 39.44 38.81 38.70 38.89 38.90 38.87 38.77 38.72 38.75 38.77 38.70 38.59 38.51 38.58 38.13 38.59 39.06 38.74 39.37 39.49 39.87 39.33 38.37 38.34 38.13 36.80
50.44 50.30 50.63 50.59 48.81 47.82 47.17 46.14 45.46 44.07 42.20 40.99 40.07 39.60 38.75 38.16 38.12 38.09 37.92 37.82 38.19 37.89 37.70 37.54 37.39 37.37 37.37 37.68 37.35 37.25 37.09 36.81 37.37 38.05 37.80 37.50 38.54 37.81 37.16 37.55 37.24 36.31 36.54
50.75 50.34 50.25 48.67 46.70 46.20 45.41 44.82 44.12 42.96 40.99 39.34 38.69 37.87 37.51 37.82 37.54 37.26 37.22 37.38 37.00 37.41 36.86 36.71 36.53 36.56 36.60 36.63 36.10 35.73 36.30 36.21 36.11 36.49 36.46 36.09 36.61 35.88 36.15 36.10 35.28 36.08 36.56
49.73 49.48 49.13 47.28 46.26 45.06 44.11 43.28 42.57 41.02 39.18 38.31 37.57 37.24 37.10 36.92 36.70 36.66 36.64 36.67 36.35 36.33 36.52 36.26 35.69 35.48 35.56 35.22 35.55 35.58 35.79 36.18 36.29 36.21 35.64 35.15 35.03 34.20 35.08 34.96 35.08 36.27 36.06
48.85 48.70 48.08 47.13 45.81 44.43 42.90 41.56 40.51 39.73 37.78 36.84 36.90 36.43 36.13 35.73 36.15 36.26 36.09 35.71 35.78 35.54 35.49 35.38 35.14 35.06 34.88 34.85 34.91 34.92 35.42 35.70 35.97 35.91 35.62 35.01 34.33 33.83 34.22 34.27 34.62 34.95 34.58
47.73 47.59 47.57 46.69 45.05 42.99 41.64 40.35 39.11 38.21 36.70 36.13 35.90 35.00 34.52 35.64 35.69 35.60 35.39 35.35 35.22 35.12 35.03 34.46 34.72 34.80 34.37 34.17 33.80 34.33 34.63 34.69 34.63 35.22 34.89 34.80 34.79 35.07 35.46 34.74 34.69 34.41 33.65
47.10 47.37 47.49 46.40 44.07 42.25 40.56 39.03 37.59 36.28 35.98 35.35 34.25 34.31 34.53 34.94 35.01 34.88 34.46 34.50 34.58 34.78 34.42 34.28 34.16 33.79 33.50 34.28 34.17 34.45 33.78 33.98 33.81 33.15 33.75 34.14 34.39 34.64 36.04 36.26 36.57 35.52 33.51
47.06 46.99 46.89 45.51 43.20 41.58 40.50 38.74 36.98 35.56 35.03 34.42 33.97 33.64 34.02 33.98 34.02 34.04 33.85 33.81 33.76 34.16 33.84 33.82 33.56 32.87 33.04 33.71 33.75 34.34 33.44 33.33 33.37 33.10 32.84 33.00 33.85 34.81 34.37 35.43 35.75 35.91 36.09
46.32 47.11 46.79 44.19 42.24 40.78 39.09 37.30 35.71 34.94 33.99 33.34 33.45 33.52 33.29 32.98 33.38 33.28 33.35 33.57 33.71 33.33 33.12 32.99 32.84 32.26 32.21 32.80 33.26 33.51 33.22 33.13 33.20 33.12 33.18 32.74 33.07 34.10 34.17 34.07 33.74 33.16 32.77
45.94 46.97 45.99 43.05 40.27 39.13 38.02 36.16 34.51 33.57 33.29 32.92 32.87 32.75 32.76 32.22 32.44 32.42 32.61 33.05 32.75 32.55 32.49 32.44 31.80 31.15 31.15 32.14 32.21 32.77 32.48 32.04 32.16 32.94 33.29 33.39 33.18 34.31 34.98 33.76 31.64 30.61 30.87
43.76 42.83 41.56 40.14 39.40 37.59 36.22 35.23 33.82 32.50 30.88 32.26 32.12 32.48 32.39 31.85 31.71 32.09 32.05 32.55 32.46 31.78 31.94 31.34 31.66 31.32 30.51 31.97 32.43 32.76 31.74 30.73 31.43 32.12 32.82 34.29 33.82 34.76 35.35 31.58 30.53 28.35 28.64
40.58 39.77 39.22 38.52 37.63 35.64 35.16 33.91 31.03 30.19 31.94 32.07 31.99 32.09 32.18 31.72 31.81 31.88 32.27 31.92 31.38 31.15 30.80 30.38 30.87 30.97 31.32 31.49 32.86 33.02 31.66 31.07 31.48 32.21 32.40 33.33 34.54 34.00 32.99 32.29 30.38 28.78 29.89
38.12 38.42 37.29 35.95 34.99 34.75 34.06 31.26 30.58 32.12 31.88 31.48 31.31 31.43 31.69 31.35 31.14 31.26 31.37 31.11 30.60 29.68 29.31 29.11 29.39 30.82 31.61 32.01 32.25 32.90 33.08 33.08 31.23 30.64 32.70 32.86 32.52 31.45 30.92 30.89 30.91 30.71 29.80
37.48 36.97 36.60 34.48 34.02 33.56 32.42 30.64 31.56 31.40 30.93 30.74 30.75 30.84 31.05 31.18 31.62 30.55 29.68 29.22 29.51 28.48 27.95 27.88 28.24 28.98 30.23 31.06 32.40 32.83 33.29 33.35 31.45 32.09 33.60 31.92 30.74 29.82 29.76 29.64 29.58 28.98 27.39
37.37 36.28 35.36 34.29 32.86 31.62 30.95 31.59 31.10 30.69 30.00 29.87 30.19 30.55 30.30 30.23 30.47 30.42 29.93 28.70 28.07 27.55 27.51 27.55 27.37 27.91 28.76 29.73 30.76 31.47 32.51 32.35 32.19 32.71 31.12 29.91 29.11 28.90 28.52 27.85 27.66 27.04 26.94
37.07 36.13 35.21 33.97 32.42 31.98 30.73 30.73 30.48 30.05 29.42 29.58 29.79 29.90 29.91 29.84 29.45 29.52 28.84 28.18 28.97 28.74 27.33 27.58 27.75 27.35 26.96 28.76 31.39 30.95 30.27 30.94 31.42 30.09 28.57 27.04 25.88 25.29 25.48 25.79 25.94 26.36 26.11
36.22 34.39 33.70 33.17 31.37 30.50 30.12 30.08 29.98 29.46 28.66 28.35 29.34 29.24 28.88 29.14 28.45 28.00 27.84 30.02 29.72 29.97 29.95 30.01 29.39 29.18 30.49 31.19 31.28 30.94 31.30 31.87 30.72 27.13 24.76 23.86 24.25 23.82 24.00 23.72 24.05 24.69 24.63

GFSMW_sfc_wetblb_009.txt.gz
Wetbulb
55.68 56.57 57.87 58.75 59.44 61.24 62.71 63.64 63.82 64.79 65.43 65.10 62.92 60.79 58.40 58.02 57.14 56.64 56.14 55.40 54.80 54.58 54.20 54.25 53.87 53.86 53.27 52.87 52.34 51.89 50.99 51.14 52.06 50.27 50.69 50.88 53.90 52.40 54.17 52.95 53.02 54.34 55.93
54.41 55.19 56.17 56.97 57.17 58.10 59.91 61.16 62.92 64.03 62.98 61.56 60.74 59.42 57.81 56.77 56.02 55.48 54.17 53.57 52.30 51.89 51.78 51.15 51.12 50.72 50.79 50.25 49.56 49.22 47.86 48.62 49.21 46.80 46.22 44.22 47.15 49.85 49.82 50.89 52.02 51.24 53.91
53.29 54.18 55.10 55.75 56.40 56.09 57.13 57.42 58.00 58.86 59.28 59.36 58.88 57.96 57.62 56.93 54.42 53.44 52.65 51.42 50.36 48.68 48.46 48.45 47.95 47.97 48.70 47.80 47.68 47.23 46.64 45.14 47.19 47.35 44.12 41.39 39.88 43.84 47.94 47.93 49.54 48.20 48.18
54.10 54.39 54.51 54.94 55.46 55.91 57.23 57.06 57.27 57.44 57.99 58.49 57.44 56.15 53.94 51.30 51.91 51.86 51.34 50.64 49.12 46.83 45.77 45.82 45.98 45.68 46.16 45.39 45.90 45.31 45.62 45.82 43.73 45.31 44.99 45.10 44.22 40.50 39.32 45.24 45.76 46.61 45.71
53.75 53.64 54.14 54.58 55.23 55.93 55.73 55.61 55.27 55.08 55.46 55.44 54.96 53.54 51.90 51.42 51.05 50.46 49.27 48.16 47.67 46.38 44.63 44.46 44.62 44.23 44.35 44.11 43.81 44.20 44.04 45.12 43.43 42.42 42.63 42.77 43.93 43.60 39.37 36.32 39.45 42.33 43.67
53.55 53.85 54.18 54.45 54.19 54.97 54.61 54.57 53.27 52.74 53.12 53.07 52.55 51.61 50.53 49.77 48.64 47.30 46.35 45.87 45.49 44.90 43.66 43.52 43.49 43.50 42.87 42.56 42.97 43.45 43.57 43.62 43.34 42.44 41.85 40.69 39.67 39.25 38.10 36.54 37.24 37.90 41.49
52.94 52.58 52.54 52.86 53.17 53.24 53.06 52.52 51.77 50.65 51.09 50.46 49.93 49.24 48.44 47.51 45.73 45.11 44.07 43.16 42.78 42.55 42.02 42.28 41.80 41.86 42.53 42.39 42.29 42.00 42.11 41.97 41.60 41.33 40.46 40.70 40.65 41.09 39.54 38.10 36.95 36.77 39.82
52.99 52.41 53.02 53.23 53.14 52.75 52.13 51.54 50.43 49.05 48.81 48.19 47.19 46.92 46.53 45.39 44.08 43.10 42.45 41.78 41.28 41.11 41.26 41.08 41.04 40.99 41.01 40.78 40.96 40.90 41.21 41.06 40.56 40.39 40.16 39.69 40.47 40.68 39.84 38.25 36.69 34.33 34.67
52.65 52.65 53.29 53.51 52.97 52.31 51.82 51.04 49.49 48.00 47.20 46.42 45.66 44.51 43.88 42.98 42.14 41.86 41.69 41.00 40.81 39.96 40.07 40.41 39.96 40.03 39.98 39.83 39.74 39.21 39.12 39.51 39.30 39.22 39.40 39.10 39.37 40.09 39.61 39.72 38.53 34.46 29.80
52.57 52.77 53.01 53.09 52.72 51.85 50.99 50.63 49.55 47.46 46.10 44.94 44.03 42.92 41.81 41.24 40.99 40.90 39.80 39.69 39.65 39.51 39.29 39.16 38.91 38.80 38.85 38.84 38.87 38.52 38.87 38.04 38.21 38.34 38.16 38.01 38.41 38.42 38.70 38.25 37.68 36.26 33.24
52.05 52.31 52.73 52.85 51.85 50.76 49.89 48.78 47.51 45.68 44.25 43.50 42.81 41.76 40.49 40.07 40.08 39.52 39.16 38.81 38.78 38.54 38.26 38.02 37.69 37.64 37.60 37.81 37.53 37.28 37.34 36.70 36.90 37.50 37.30 37.03 37.53 36.85 36.69 36.69 36.03 35.20 34.82
52.39 52.37 52.48 51.74 50.00 49.27 48.67 47.54 46.96 45.21 43.57 42.30 41.27 40.16 39.95 39.74 39.26 38.68 38.34 38.26 37.66 38.05 37.55 37.37 37.04 36.97 36.94 36.91 36.11 35.71 36.13 35.45 35.32 36.07 36.23 35.89 36.72 35.52 35.94 35.19 34.40 34.03 34.20
52.07 51.86 51.77 50.42 49.24 48.66 47.74 46.64 45.88 43.94 42.05 40.96 40.08 39.49 39.14 38.94 38.14 37.94 37.72 37.51 37.12 36.93 37.01 36.91 36.26 36.04 36.42 36.06 35.80 35.59 34.81 34.94 35.38 35.54 35.33 35.12 35.10 34.00 34.28 33.90 32.92 33.40 34.27
51.36 51.16 50.89 50.10 49.51 48.35 47.00 45.64 44.27 42.66 40.79 39.48 38.89 38.37 38.01 37.28 37.46 37.30 36.95 36.67 36.55 36.17 36.30 36.27 35.92 36.16 36.04 35.85 35.57 34.60 34.05 34.25 34.76 35.26 35.15 35.09 34.46 33.50 32.99 32.90 32.91 33.62 32.82
50.29 50.43 50.30 49.95 49.08 47.33 45.87 44.44 42.87 41.13 39.79 38.27 37.66 36.83 36.47 37.17 36.79 36.51 36.44 36.26 36.10 36.13 36.18 35.71 36.00 36.20 35.74 35.60 34.75 34.10 33.39 33.20 33.35 34.08 34.71 34.97 35.66 35.80 35.34 33.71 33.04 32.79 31.92
50.23 50.35 50.41 50.12 48.33 46.72 44.62 42.84 41.09 39.58 38.50 37.14 36.13 36.05 36.17 36.11 35.95 35.81 35.37 35.39 35.50 35.67 35.67 35.53 35.54 35.43 35.18 36.66 36.18 34.74 32.69 32.74 32.44 32.52 33.65 34.14 35.15 34.94 36.12 36.29 36.27 35.22 31.73
50.04 49.83 49.76 49.74 48.33 46.25 44.30 41.39 39.83 38.31 37.19 36.17 35.72 35.35 35.27 34.90 35.00 35.06 34.79 34.70 34.76 35.44 35.11 35.08 34.95 34.17 34.14 35.80 35.44 34.82 32.39 31.92 32.53 32.61 32.61 32.91 33.97 34.31 33.62 35.23 35.90 35.33 35.52
49.12 49.44 49.66 48.83 47.11 45.29 42.99 41.28 38.21 37.29 36.29 35.27 34.90 34.95 34.63 34.06 34.32 34.12 33.96 34.29 34.60 34.40 34.18 34.11 34.06 33.32 33.44 34.97 34.42 34.04 32.32 32.26 32.67 32.68 32.67 32.24 32.43 33.39 33.35 32.82 32.44 33.19 31.88
49.05 49.82 49.79 47.49 44.71 42.09 40.81 38.14 37.11 36.10 35.07 34.45 34.09 34.05 33.95 33.22 33.21 32.90 33.13 33.61 33.74 33.64 33.22 33.45 32.86 32.23 32.10 34.01 33.89 33.16 31.88 31.55 31.51 32.48 32.62 32.41 32.29 34.45 35.58 32.03 29.94 28.51 28.82
47.13 46.82 46.11 43.54 42.01 40.82 39.13 37.57 36.33 35.29 33.23 32.87 32.88 33.63 33.55 32.92 32.43 32.58 32.58 33.41 33.46 32.76 32.94 32.33 32.59 33.07 31.39 33.55 33.90 33.32 31.71 30.26 30.61 31.67 32.45 34.15 33.18 35.03 34.84 30.34 27.92 25.66 27.09
44.01 43.30 42.57 41.57 40.58 38.78 38.14 37.08 34.30 32.52 32.52 32.51 33.08 33.30 33.37 32.81 32.72 32.36 32.81 32.69 32.21 31.89 31.56 31.07 31.63 31.55 32.17 32.24 33.93 33.93 31.63 30.70 30.17 30.35 30.53 31.67 34.01 34.30 33.12 32.36 28.01 27.77 29.63
40.45 41.33 40.49 38.84 37.77 37.71 37.31 33.97 32.52 32.67 32.51 32.86 32.63 32.70 32.85 32.67 32.56 32.45 32.62 32.07 31.23 30.36 29.89 29.71 29.80 31.38 31.89 33.00 33.10 33.84 33.78 33.29 30.21 29.31 30.24 31.14 33.77 32.01 31.62 30.03 30.96 31.13 29.79
39.54 40.14 39.24 36.60 36.28 36.10 35.69 32.75 32.32 32.40 32.36 32.11 31.96 32.18 32.19 32.30 32.62 31.74 31.02 30.40 30.31 29.11 28.50 28.24 28.22 28.87 30.42 30.80 32.82 33.02 33.21 33.21 30.42 30.37 31.72 32.80 31.29 30.68 29.05 29.36 29.95 29.23 25.14
39.29 39.10 37.57 35.92 34.57 34.02 32.51 32.78 32.52 32.29 31.45 31.08 31.36 31.51 31.20 31.67 31.67 31.98 31.19 30.00 28.92 28.09 27.50 27.11 26.96 27.53 28.08 28.95 29.88 30.23 30.56 31.41 30.64 31.56 30.10 29.60 29.37 29.12 28.00 26.92 26.57 25.40 24.95
39.65 38.59 37.77 36.80 34.58 33.14 32.78 32.51 32.05 31.65 30.50 30.71 30.50 30.88 31.34 30.70 30.51 30.82 30.28 29.47 29.86 29.58 27.38 27.42 27.41 26.16 25.91 27.90 30.90 30.58 28.94 29.17 30.50 29.65 27.23 25.67 24.61 23.49 23.80 23.89 24.11 24.32 24.28
39.09 37.67 36.99 35.18 34.18 33.08 32.24 31.96 31.72 30.93 30.06 29.11 29.85 30.34 29.89 30.25 30.02 29.23 28.97 31.87 31.88 31.96 31.39 31.00 29.72 29.25 30.66 31.44 31.58 31.13 31.14 31.68 31.06 26.56 23.74 22.53 22.62 22.03 22.15 22.04 22.17 23.04 23.72

GFSMW_sfc_wetblb_012.txt.gz
Wetbulb
51.97 53.07 53.76 54.91 57.15 58.77 58.92 59.83 60.49 61.16 61.59 60.86 57.41 55.27 53.14 52.34 51.58 51.14 50.29 49.28 48.78 49.17 47.48 47.55 47.11 46.75 46.24 45.14 44.95 43.91 42.96 42.81 43.26 42.24 42.30 42.82 44.30 44.64 44.78 45.99 47.10 47.61 47.91
50.15 51.51 52.52 52.30 54.43 55.81 57.26 59.09 58.97 58.07 57.82 57.06 55.57 54.72 52.20 51.18 50.42 49.58 48.34 47.04 45.90 45.72 45.72 43.92 43.79 43.37 43.79 42.82 42.24 41.51 41.28 41.69 42.22 39.26 39.05 36.49 39.53 41.25 43.68 44.73 45.22 43.98 44.62
49.32 49.95 50.24 50.95 51.61 52.28 52.86 54.53 55.02 55.63 55.81 55.30 54.75 53.31 52.52 50.66 48.49 47.78 46.41 45.58 44.09 43.33 42.86 42.38 41.80 41.34 41.72 40.65 40.25 39.86 39.54 39.14 40.22 40.15 37.27 34.36 33.49 37.44 40.56 41.79 41.73 41.32 42.52
49.87 50.51 50.40 50.18 50.60 51.48 52.62 53.30 53.91 54.16 54.61 54.10 52.70 50.52 47.77 45.85 46.42 45.85 45.53 44.33 43.35 41.72 41.77 41.48 40.84 40.05 40.39 38.78 38.84 40.89 38.84 39.00 37.53 38.90 41.18 37.76 36.62 34.41 33.95 37.89 39.51 38.93 40.27
49.66 49.57 50.14 51.41 51.66 51.57 50.52 50.50 50.78 50.87 50.90 50.37 49.54 47.83 46.07 45.49 45.18 44.44 42.90 42.14 41.72 40.79 40.70 40.47 39.50 38.80 39.09 38.09 37.79 37.45 37.13 38.29 37.20 36.90 36.52 36.02 35.82 35.85 33.80 31.89 33.97 37.28 38.37
49.25 49.74 50.56 51.27 50.58 50.49 49.73 48.72 48.37 48.41 48.42 47.73 47.02 45.86 44.35 43.58 42.28 40.90 39.99 39.66 39.88 39.78 39.12 40.02 38.30 37.95 37.76 37.26 37.26 36.86 36.50 36.47 36.37 36.61 35.74 35.34 33.35 33.47 33.47 32.60 33.01 33.15 35.66
49.03 48.92 48.60 48.85 49.18 48.66 48.20 47.95 47.08 46.01 46.02 45.19 44.33 43.58 42.30 40.85 38.97 38.60 37.83 37.12 37.25 37.12 36.52 37.21 36.49 36.36 36.81 37.26 36.82 35.90 35.34 35.50 34.62 34.59 34.81 35.92 35.31 36.00 35.65 33.79 32.72 31.84 34.39
48.66 48.47 48.53 48.48 48.66 48.60 46.94 46.31 45.28 44.11 43.76 42.72 41.65 40.99 40.73 39.46 38.46 37.65 37.00 36.19 35.91 35.70 36.19 36.23 36.14 35.98 36.38 36.20 35.58 35.07 34.97 34.94 33.90 32.93 33.48 34.76 35.51 36.05 35.26 33.85 32.32 29.47 31.09
48.57 48.38 48.80 48.92 48.35 47.19 46.55 45.49 44.02 43.09 42.39 41.32 39.76 38.46 37.99 37.50 36.86 36.45 36.29 35.85 35.63 37.49 35.59 35.33 34.84 34.95 35.15 35.20 34.51 33.52 33.35 33.19 32.95 32.69 32.71 33.54 34.93 35.27 35.05 34.54 34.02 31.05 26.70
48.62 48.65 49.18 48.74 48.15 47.46 46.38 45.04 43.71 41.98 40.92 39.80 38.55 37.55 36.27 36.20 35.98 35.69 34.75 34.90 35.10 35.17 34.63 34.29 34.07 33.99 34.12 34.06 33.28 33.07 33.57 33.09 33.15 34.25 32.89 33.50 34.31 34.23 34.39 33.82 33.38 32.54 29.79
48.69 48.97 48.98 48.68 47.27 46.18 45.41 43.89 42.04 40.58 39.41 38.79 37.56 36.02 35.52 35.76 35.30 34.66 34.37 34.21 34.21 34.00 33.80 33.83 33.50 33.33 33.09 33.36 32.43 31.88 32.97 32.16 31.78 32.01 32.71 32.91 33.72 33.34 33.19 33.24 32.88 31.55 30.99
48.98 48.99 48.37 47.26 45.51 44.86 43.94 42.64 41.44 39.74 38.69 37.90 36.39 35.68 35.59 35.15 34.18 33.76 33.87 34.07 33.20 33.48 33.14 33.25 32.93 32.84 33.30 32.84 31.73 31.23 31.98 30.95 30.52 31.29 31.67 31.79 34.08 32.12 32.55 31.96 30.97 30.47 30.62
47.88 47.89 47.60 46.22 44.66 44.15 43.11 42.22 40.97 38.38 37.63 36.92 35.75 35.17 34.51 33.63 33.04 33.22 33.47 33.61 33.18 32.44 32.48 32.74 32.39 32.74 32.84 32.46 31.70 32.30 30.63 30.71 30.89 31.08 31.00 31.24 31.39 30.82 31.32 30.50 30.06 30.53 31.55
48.36 47.45 46.95 45.28 44.41 43.80 42.66 41.28 39.28 37.65 36.62 35.89 35.03 33.83 32.78 32.72 32.57 32.83 33.29 33.57 32.60 31.67 31.72 32.10 32.24 32.49 32.80 32.84 33.02 31.55 30.43 30.28 30.92 31.25 31.26 31.12 31.13 30.80 30.65 30.84 30.78 31.70 30.78
47.61 46.98 45.97 44.99 43.90 42.59 41.36 39.98 38.15 36.55 35.76 34.76 33.96 32.71 33.17 33.41 32.87 33.18 32.94 32.52 31.93 32.05 31.96 31.80 31.86 31.95 32.81 34.26 32.46 32.26 30.67 29.62 29.67 30.13 30.76 31.67 33.53 35.94 34.90 32.75 31.53 31.15 29.74
47.51 46.89 46.78 45.41 43.37 41.17 39.67 38.70 36.67 35.17 34.98 33.62 32.91 33.62 33.37 33.26 32.76 32.37 31.60 31.16 30.91 30.78 30.92 30.62 30.94 30.64 33.36 36.60 36.91 35.31 30.74 29.61 29.21 28.72 30.21 31.07 33.14 33.16 35.85 35.76 35.85 34.73 31.57
46.66 46.32 46.30 45.08 42.86 40.68 39.23 36.30 35.00 34.45 33.54 33.26 33.30 33.28 33.30 32.52 31.72 31.29 30.48 29.83 29.22 29.25 29.07 29.19 29.46 28.94 28.67 35.80 36.44 36.04 31.05 29.35 29.03 29.16 29.58 30.08 31.99 32.27 30.78 33.69 35.54 35.85 35.32
46.36 46.19 45.72 44.08 41.66 39.84 37.85 35.53 34.13 33.64 33.41 32.68 32.80 33.04 32.45 31.20 30.51 29.58 28.95 28.19 28.41 28.10 28.10 28.40 28.44 27.65 30.04 35.16 35.39 35.35 29.99 29.25 29.27 29.55 29.67 29.30 29.47 30.73 32.22 31.99 31.88 30.75 29.26
45.50 45.26 44.07 41.37 39.02 37.36 35.11 34.28 33.78 32.72 32.44 32.06 31.61 31.62 31.23 29.42 29.01 28.07 27.18 27.33 27.39 27.37 27.23 27.95 27.76 26.88 28.02 34.06 34.67 33.53 29.48 28.97 28.73 29.87 30.15 30.64 30.51 33.53 34.81 31.23 30.15 27.70 26.90
43.65 42.16 40.49 39.24 37.33 35.09 34.41 33.32 32.02 31.38 30.31 30.36 30.23 30.49 30.15 29.04 27.50 26.99 26.47 27.25 27.41 27.97 28.44 28.40 27.57 29.91 27.39 32.51 34.58 33.48 30.14 28.11 28.63 29.32 30.34 32.99 31.92 33.90 34.66 30.37 27.76 25.01 24.37
39.61 39.12 38.22 36.56 34.86 34.74 34.33 31.99 30.40 28.82 29.45 30.03 30.23 30.11 29.39 28.09 27.29 26.63 26.82 26.78 26.17 26.09 25.58 26.22 26.51 26.18 27.28 28.55 34.01 34.08 30.45 29.33 28.72 29.05 28.01 28.81 32.76 34.60 33.53 32.68 26.94 26.22 29.10
38.19 37.97 35.56 33.84 34.09 34.59 32.41 29.49 27.95 28.65 29.40 29.71 29.46 28.67 27.78 28.75 29.65 26.52 26.40 26.39 25.13 23.93 23.78 24.62 25.41 26.45 27.32 31.58 31.85 33.39 33.25 32.78 29.09 27.68 27.79 28.65 33.07 32.00 31.49 29.46 30.55 30.97 29.25
37.12 36.54 34.20 32.74 32.56 32.21 30.84 27.79 27.46 28.98 28.98 28.10 27.50 27.23 27.27 27.54 27.86 26.33 25.42 24.71 24.29 23.14 23.59 23.89 23.97 24.83 27.08 27.22 31.47 32.23 32.76 32.86 29.54 28.58 30.51 32.97 31.16 30.09 27.76 28.79 29.38 28.61 22.90
35.97 35.10 32.73 31.10 29.47 28.56 29.11 28.15 28.50 29.04 28.34 26.77 25.95 26.00 25.54 27.12 26.50 26.52 25.95 24.36 23.11 23.16 23.28 23.92 23.94 24.42 25.17 25.73 26.94 28.56 29.25 30.78 29.32 30.48 29.55 28.65 28.22 28.17 27.09 25.36 24.71 23.32 23.32
35.39 34.57 32.85 31.09 28.68 28.44 28.08 28.21 28.80 28.36 26.20 24.98 24.59 25.19 25.89 25.38 24.76 25.45 24.86 24.22 24.88 26.28 26.32 25.44 24.96 24.01 24.14 26.31 31.18 30.74 28.57 28.52 29.56 29.39 25.00 23.01 22.50 21.69 21.87 22.03 22.36 22.97 23.42
35.19 34.05 32.40 29.61 28.75 28.46 27.99 28.22 28.60 26.95 25.24 23.80 24.13 24.07 23.91 24.04 23.99 23.18 24.73 30.26 31.38 32.01 31.85 31.73 29.86 28.43 31.00 31.99 31.98 31.49 31.31 31.50 30.72 24.95 21.43 20.62 20.82 20.32 20.78 20.81 21.31 22.32 23.25

GFSMW_sfc_wetblb_015.txt.gz
Wetbulb
49.91 51.87 53.01 54.45 55.67 56.71 57.64 58.29 59.13 59.49 58.38 55.55 53.20 51.43 49.42 49.14 48.17 47.38 46.41 45.25 45.23 44.68 43.12 43.24 42.56 42.89 42.06 40.55 40.95 40.43 39.94 40.02 40.41 39.03 38.37 39.73 41.35 39.77 40.61 41.56 42.31 42.73 43.07
48.68 50.33 51.58 52.63 53.86 54.27 55.29 55.55 55.60 55.97 56.07 55.04 53.01 51.16 49.31 47.58 46.84 45.61 43.53 42.85 42.35 42.58 42.45 40.84 40.38 40.16 40.22 38.96 38.42 38.07 38.03 39.14 39.14 36.34 35.57 33.93 35.92 37.95 40.18 39.49 40.74 39.30 40.42
48.46 47.77 48.68 49.93 50.79 51.40 52.50 53.41 53.62 53.96 53.83 53.19 52.24 50.86 49.38 47.32 45.37 43.72 42.25 41.22 41.21 41.20 40.63 39.95 39.15 38.83 38.64 37.29 36.71 36.77 36.48 36.28 37.46 37.28 35.07 31.55 30.40 34.30 36.99 37.64 37.53 38.10 38.22
48.78 48.57 48.29 48.33 49.38 49.74 51.30 52.47 53.15 53.07 52.62 51.96 50.80 48.49 45.98 44.07 43.91 43.59 41.78 40.44 39.90 39.59 40.02 39.47 38.44 37.81 37.80 36.10 36.33 38.09 35.92 35.80 34.52 36.30 38.98 35.11 33.70 30.75 29.69 34.71 36.27 36.78 38.00
49.05 48.37 48.63 49.59 49.73 48.97 48.13 48.15 48.81 49.07 48.98 48.76 47.43 46.10 43.89 43.27 42.88 41.06 39.79 38.87 38.09 38.61 39.01 38.33 37.25 36.67 36.73 35.51 35.32 34.77 34.35 34.94 34.25 34.11 34.44 32.92 33.06 32.30 30.10 28.45 30.44 35.44 36.24
48.04 48.71 49.55 49.57 48.14 47.35 46.54 46.11 46.36 45.56 45.74 45.91 45.16 43.81 41.93 40.24 39.14 37.94 37.18 37.26 37.26 37.09 37.06 37.73 35.96 35.47 35.52 35.06 34.94 34.39 33.81 33.36 33.40 33.12 33.14 32.33 31.00 31.74 30.69 29.53 30.52 31.14 33.38
47.89 48.23 48.14 47.70 46.81 45.81 45.19 45.22 44.54 43.17 42.88 42.22 41.42 40.36 38.74 37.72 36.88 36.22 35.31 35.11 35.10 34.76 34.44 35.16 34.30 34.06 34.44 34.99 34.52 33.50 32.87 32.81 31.76 31.58 31.72 32.51 33.06 32.89 32.83 31.69 30.37 29.50 32.38
47.79 47.85 47.83 47.08 46.03 45.62 44.33 43.51 42.49 41.35 40.97 40.05 39.06 38.34 37.90 36.85 36.06 35.57 34.67 34.15 34.06 33.77 34.03 34.03 33.74 33.65 34.05 33.88 33.29 32.80 32.43 32.67 31.29 30.43 30.68 32.07 32.22 33.14 33.29 31.77 30.09 27.79 28.92
47.02 47.21 47.57 47.32 45.77 44.21 43.20 42.33 41.37 40.23 39.54 38.26 36.87 35.87 35.87 35.53 34.61 34.12 34.16 33.70 33.58 36.24 33.65 33.32 32.87 32.88 32.97 32.94 32.17 31.21 31.01 30.89 30.67 30.38 30.13 30.22 32.08 32.74 32.83 32.74 32.03 29.13 24.83
46.66 47.14 47.57 47.11 45.85 44.24 42.78 41.53 40.73 39.47 38.29 36.92 35.55 35.11 34.26 34.25 33.81 33.45 32.74 32.91 32.95 33.16 32.91 32.58 32.28 32.21 32.08 31.90 31.09 30.67 31.33 30.48 30.16 32.12 29.23 29.64 31.60 31.92 32.37 31.91 31.15 30.80 28.53
46.61 47.03 47.44 47.38 45.51 43.64 42.19 40.49 39.40 37.99 36.75 36.02 34.53 33.86 33.85 33.70 33.19 32.66 32.40 32.27 32.31 32.28 32.34 32.39 31.99 31.57 31.40 31.15 30.26 29.99 30.74 29.88 29.05 28.81 29.96 30.09 31.00 30.67 31.25 31.44 31.23 30.44 29.30
47.00 47.30 47.31 45.84 44.31 43.21 41.16 39.71 38.09 37.18 36.25 35.18 34.25 33.81 33.65 33.00 32.10 31.84 32.03 32.33 31.62 32.12 31.88 31.92 31.69 31.69 31.39 30.84 29.76 29.23 29.39 28.52 28.12 28.65 28.94 29.40 31.58 29.67 30.20 30.31 29.84 29.37 29.75
46.56 46.59 45.72 44.40 43.71 42.25 40.61 39.02 37.25 35.96 35.23 34.72 33.80 33.11 32.31 31.78 31.13 31.25 31.85 32.35 31.85 31.33 31.56 31.39 30.87 31.11 31.35 30.71 30.19 29.84 29.17 28.64 28.44 28.49 28.65 29.06 28.93 28.41 29.21 29.50 29.19 29.86 30.97
47.00 46.03 44.67 43.73 43.17 41.87 40.75 38.51 35.93 35.37 34.66 34.06 32.90 31.72 31.39 31.11 31.07 31.65 32.05 31.99 31.82 31.01 30.83 30.89 31.00 31.05 30.89 31.10 31.00 30.04 28.92 28.19 28.77 29.21 29.17 29.02 28.91 28.71 29.40 30.04 29.97 31.00 29.67
46.11 45.69 44.44 43.23 42.48 40.96 39.32 37.18 35.19 34.29 33.92 32.94 32.07 31.46 31.58 31.81 31.83 31.64 31.33 31.60 31.09 30.86 30.78 30.10 30.02 30.02 30.69 32.94 32.22 31.78 30.01 27.73 27.23 27.94 29.24 29.89 31.55 34.25 33.76 31.65 29.92 29.45 28.92
46.16 45.68 44.81 43.52 42.04 40.32 38.20 36.45 34.18 33.29 33.21 32.09 31.61 32.13 31.92 31.97 31.49 31.09 30.98 30.12 29.85 29.57 28.74 28.45 28.62 28.44 31.64 35.56 36.29 34.99 30.61 28.13 27.27 27.32 28.78 29.38 31.78 31.65 34.80 34.72 35.09 34.27 30.84
44.98 45.18 44.81 43.35 41.34 39.42 37.38 34.59 32.92 32.48 31.81 31.44 31.92 32.21 31.93 31.49 31.27 30.66 29.71 28.73 27.53 26.77 26.76 26.91 27.04 26.64 26.63 34.87 35.77 35.86 30.99 27.61 27.08 27.60 28.02 28.76 30.79 31.39 29.75 32.74 34.60 34.26 35.50
45.40 45.42 44.55 41.46 39.63 37.02 35.52 33.35 32.76 31.85 31.62 31.29 31.30 31.64 31.59 30.58 30.00 28.92 27.68 26.02 26.05 25.94 25.98 26.05 26.07 25.46 28.13 34.16 34.81 35.20 29.73 27.64 27.13 27.40 27.86 27.90 28.46 30.24 30.93 30.31 29.90 31.33 30.03
43.43 42.70 40.58 38.94 37.22 35.03 33.84 32.86 31.72 31.29 31.00 30.57 30.59 30.74 30.30 29.26 28.33 26.83 25.27 25.23 25.34 25.29 25.19 25.47 25.17 24.08 24.44 32.88 34.09 33.10 28.84 28.18 27.73 28.73 29.12 30.13 29.24 32.15 33.65 30.36 29.79 27.53 26.82
40.89 38.48 37.40 35.67 33.69 32.65 33.16 31.74 29.99 30.06 29.63 29.76 30.01 30.13 29.58 28.30 26.68 25.20 24.77 25.42 25.49 25.51 25.64 25.70 24.66 27.38 24.65 30.83 33.15 32.28 28.85 27.14 27.58 28.34 29.22 31.86 30.61 32.78 34.37 29.76 27.42 23.63 23.89
37.27 37.02 35.89 33.37 32.40 32.11 32.57 30.65 29.04 28.19 29.27 29.62 29.54 29.32 28.62 27.22 25.71 25.01 25.25 25.33 24.46 24.01 22.73 22.59 22.85 23.26 24.99 26.61 32.47 32.84 29.22 27.84 28.05 27.98 27.05 27.71 32.05 34.57 32.57 31.79 25.37 25.39 28.47
36.02 35.22 33.62 32.57 31.90 32.32 31.36 28.09 26.98 27.98 28.61 28.82 28.81 27.91 26.41 27.29 28.58 25.72 25.13 24.94 23.36 21.73 21.18 20.99 21.96 23.27 24.25 29.84 30.96 32.59 32.65 32.44 28.86 27.33 27.17 27.98 33.23 31.11 30.31 28.35 29.79 30.13 28.68
34.16 33.80 32.89 31.37 30.28 29.51 29.24 26.43 26.53 28.02 28.02 27.21 26.11 25.54 25.61 26.18 26.24 25.21 24.48 23.56 22.26 21.11 22.06 22.07 22.01 23.98 25.64 24.28 30.74 32.18 32.68 32.81 29.41 28.31 30.54 31.21 29.82 28.74 26.58 27.99 28.57 28.07 22.58
33.69 32.84 31.40 28.79 27.03 27.60 27.74 26.99 27.28 27.82 26.60 25.06 24.41 24.79 24.28 26.24 24.97 24.63 24.41 23.02 21.40 21.17 22.20 22.58 23.63 23.63 24.80 25.34 26.53 28.40 28.80 30.45 29.23 30.21 26.99 27.16 26.89 26.91 26.05 24.63 24.26 23.41 23.35
32.53 31.60 30.04 28.33 26.57 26.38 26.32 26.58 26.92 26.52 24.55 24.20 23.71 23.24 23.96 23.55 22.84 23.22 23.06 23.17 23.39 25.27 25.49 24.83 24.81 23.75 23.98 26.12 30.96 30.21 28.09 28.52 29.25 27.98 23.44 21.96 21.60 20.78 21.43 21.95 22.45 22.82 23.04
32.84 31.30 29.39 27.09 26.17 25.75 25.73 26.20 26.73 25.71 24.13 23.07 22.86 22.72 22.82 22.21 21.91 21.17 22.20 28.45 30.07 30.94 30.89 30.79 29.01 27.52 30.32 31.28 31.16 31.04 31.28 30.90 29.88 24.02 20.46 19.85 20.23 20.09 20.34 20.40 21.00 21.88 22.65

GFSMW_sfc_wetblb_018.txt.gz
Wetbulb
48.84 50.22 51.69 52.96 54.96 55.81 56.56 56.69 58.01 54.75 54.52 52.75 50.39 48.53 48.16 47.68 46.35 44.67 44.08 43.31 42.63 42.25 41.35 40.78 40.61 40.83 39.09 37.72 38.22 37.83 37.41 37.80 37.72 36.29 36.16 37.38 38.27 36.05 37.91 37.59 36.68 38.55 38.50
47.36 49.53 52.03 52.74 54.85 55.07 55.58 56.23 56.28 54.02 53.70 52.58 49.94 48.34 46.42 46.56 43.59 42.06 40.85 40.97 40.94 41.13 40.86 39.21 38.73 38.60 37.78 36.59 36.11 35.80 35.76 36.91 36.88 34.13 33.66 31.72 33.87 35.54 37.36 36.29 37.26 35.22 37.30
47.68 48.22 50.14 51.04 52.06 52.40 52.99 53.48 53.06 52.77 52.19 51.01 49.46 47.81 46.83 44.60 41.92 40.22 39.18 39.22 39.77 39.87 39.35 38.40 37.75 37.21 36.54 35.27 35.04 34.81 34.43 33.73 35.17 34.94 33.19 29.21 27.99 31.96 34.22 35.55 34.47 36.30 34.97
47.90 47.94 49.08 49.45 50.33 50.27 51.35 51.85 52.25 51.50 50.97 50.60 48.39 46.88 44.75 42.31 41.76 40.44 38.63 37.84 38.34 38.45 38.66 37.98 36.96 36.17 35.85 34.43 34.72 36.27 33.92 33.22 32.12 34.08 36.87 33.53 32.15 28.11 27.41 32.38 34.92 33.50 35.13
48.19 48.57 49.49 50.00 49.52 49.55 49.50 49.80 50.34 50.08 49.24 48.60 47.45 45.63 42.86 41.96 40.99 38.93 37.13 36.30 36.40 37.27 37.49 36.78 35.73 35.14 35.07 33.87 33.45 33.12 32.32 32.91 32.09 31.93 32.07 30.89 31.20 30.69 28.66 26.88 28.28 32.88 34.46
47.42 47.55 48.37 48.80 47.07 46.33 46.26 46.68 47.92 46.48 46.92 46.40 44.44 43.20 41.38 39.20 38.06 36.54 35.89 35.76 35.62 35.63 35.58 36.10 34.49 33.86 33.77 33.37 33.20 32.57 31.95 31.48 31.30 30.87 30.71 30.29 28.82 28.82 27.89 27.57 27.97 28.35 31.37
46.54 47.21 47.39 46.94 45.54 44.70 43.99 44.26 44.94 42.75 43.26 42.75 41.67 40.34 38.68 37.38 35.89 35.08 34.57 34.20 33.90 33.57 33.42 33.84 32.97 32.63 32.68 33.12 32.62 31.65 31.00 30.87 29.73 29.28 29.45 30.34 30.00 30.78 30.01 28.63 27.43 27.16 30.13
47.21 47.59 47.30 46.45 45.17 44.31 42.80 42.30 42.24 40.17 40.38 39.71 37.69 36.67 36.40 35.68 35.02 34.40 33.80 33.36 33.00 32.86 32.84 32.63 32.27 31.99 32.25 31.99 31.29 30.88 30.56 30.85 29.47 28.60 28.63 29.00 29.74 30.32 29.65 28.89 27.46 25.07 26.53
46.88 46.94 46.51 45.83 44.64 43.27 41.86 41.36 40.49 38.74 38.17 37.15 36.24 34.84 34.74 34.63 33.77 33.14 33.00 32.63 32.57 35.04 32.26 31.82 31.49 31.24 31.29 31.18 30.41 29.65 29.52 29.26 29.00 28.56 28.03 27.85 28.94 29.43 30.23 30.13 29.54 26.94 22.96
46.53 46.40 46.32 45.33 44.28 42.65 40.52 39.53 39.38 37.96 36.22 35.16 34.76 34.20 33.38 33.18 32.65 32.42 31.85 31.83 31.79 31.94 31.64 31.30 30.91 30.74 30.67 30.47 29.68 29.30 29.86 29.00 28.70 29.88 27.71 27.55 28.66 29.45 29.81 29.50 29.64 29.11 26.66
45.81 46.34 46.16 45.28 43.08 41.42 40.19 38.36 37.74 36.32 34.76 34.14 33.09 32.62 32.40 32.37 31.97 31.58 31.21 31.26 31.17 31.12 31.05 30.93 30.61 30.33 30.14 29.98 28.99 28.74 29.22 28.58 27.83 27.65 27.76 28.04 28.68 28.88 28.93 29.20 29.20 28.45 28.24
46.25 46.18 45.93 44.08 42.11 40.60 39.08 37.84 36.23 35.40 34.13 33.38 32.78 32.37 32.17 31.72 31.02 30.80 30.97 31.19 30.51 30.77 30.56 30.64 30.34 30.04 30.14 29.67 28.64 28.07 28.29 27.54 26.92 27.32 27.21 27.41 30.40 27.74 28.13 28.31 27.86 28.09 28.71
45.31 45.50 44.70 43.31 41.93 39.87 38.03 36.63 35.44 34.23 33.50 33.36 32.44 31.80 31.19 30.75 30.16 30.35 30.86 31.12 30.59 30.28 30.41 30.25 29.81 29.73 30.12 29.46 29.00 28.47 27.96 27.58 27.44 27.22 26.96 27.23 27.51 26.89 27.48 27.71 27.67 28.74 30.47
45.39 44.99 43.79 42.65 41.52 39.73 37.88 35.99 34.00 34.09 33.18 32.87 31.74 30.87 30.49 30.16 30.15 30.64 30.78 30.86 30.67 29.92 29.74 29.55 29.30 29.50 29.25 29.40 29.33 29.02 28.11 27.64 27.95 27.92 27.89 27.42 27.38 27.04 27.61 28.78 29.12 29.76 27.89
44.49 44.46 43.37 42.27 40.59 38.78 36.99 35.42 33.87 33.17 32.91 32.04 31.23 30.63 30.48 30.58 30.64 30.69 30.49 30.43 29.71 29.57 29.02 28.35 28.76 28.36 28.92 31.43 31.20 30.63 28.81 27.27 26.45 26.81 27.49 28.57 30.77 34.01 33.15 31.25 29.85 29.40 28.44
44.78 44.54 43.76 42.02 40.03 38.92 36.51 35.11 32.84 32.26 32.85 31.40 30.87 31.11 30.91 30.70 30.55 30.18 29.44 29.09 28.45 27.79 27.44 27.29 26.98 26.67 29.84 34.19 35.73 34.34 29.93 27.55 26.17 26.18 27.48 28.11 31.01 30.72 34.32 34.04 34.42 33.29 29.47
44.97 44.16 43.06 42.44 40.97 38.19 35.99 33.43 32.26 32.07 31.37 30.87 30.90 31.00 30.87 30.37 30.08 29.44 28.67 27.64 26.52 26.22 26.33 26.08 25.42 24.74 24.67 34.07 34.93 35.40 30.40 26.90 25.82 25.74 26.74 27.49 29.93 30.79 29.01 31.95 33.51 32.86 34.48
44.80 44.27 43.29 41.29 39.14 36.21 34.38 32.35 31.95 31.25 30.77 30.24 30.45 30.84 30.70 29.77 28.85 27.92 26.62 25.65 25.68 25.65 25.33 24.79 24.44 23.59 26.16 32.97 34.10 34.60 27.90 26.35 26.16 26.33 26.25 26.25 28.06 28.97 29.77 29.23 29.39 30.68 27.81
44.51 44.13 42.25 38.06 35.50 33.83 33.01 31.91 30.63 30.31 30.12 29.59 29.90 30.08 29.61 28.24 27.27 26.01 25.07 25.31 25.03 24.47 24.01 23.96 23.42 22.30 22.89 31.74 33.19 32.21 27.80 27.19 26.17 27.23 26.81 28.91 28.02 31.40 33.49 31.03 27.50 26.10 25.05
39.59 37.64 36.36 34.86 33.20 32.20 32.47 31.19 29.37 28.98 28.65 29.10 29.35 28.92 28.35 27.36 26.00 24.78 24.32 24.66 23.97 23.83 23.98 23.33 22.87 26.36 22.93 29.39 32.57 31.88 28.17 26.14 26.44 27.28 28.54 31.46 30.16 33.19 34.05 28.24 25.50 22.01 22.96
34.80 35.01 34.63 32.69 31.09 31.34 31.48 29.25 28.14 27.87 28.81 28.57 28.23 28.07 27.46 26.09 25.05 24.26 23.96 23.81 23.34 22.75 21.66 21.69 21.57 21.74 23.29 24.39 32.08 32.80 29.22 27.79 27.95 28.09 26.85 27.06 32.32 32.78 31.62 30.86 24.24 24.83 28.32
33.67 33.57 31.89 30.33 29.65 30.33 30.41 28.00 26.94 26.90 27.45 27.72 27.43 26.40 24.97 26.55 27.25 24.58 24.17 24.01 21.81 20.44 20.13 19.99 20.45 22.74 22.73 29.19 30.76 32.63 32.98 32.74 28.15 26.64 26.74 28.42 31.38 30.35 29.52 27.52 29.48 30.21 28.29
32.53 32.60 31.28 29.49 28.41 28.42 28.82 26.09 25.12 26.73 26.81 25.94 24.70 24.29 24.94 24.67 24.33 24.21 23.40 22.48 21.00 20.01 20.34 20.15 20.81 23.26 25.19 23.69 30.60 32.06 32.80 31.90 29.14 28.15 30.15 30.13 29.04 28.03 25.91 27.37 28.54 27.87 22.10
31.46 31.37 30.02 28.22 26.06 26.33 26.82 25.98 26.22 26.74 25.43 23.81 23.06 22.93 23.06 24.31 22.70 22.83 23.53 22.20 20.42 19.94 20.89 22.27 22.77 22.61 24.05 24.70 26.03 27.98 27.03 29.93 28.80 29.30 25.86 26.44 26.18 26.34 25.66 24.41 23.88 22.61 22.76
30.25 29.86 28.32 27.09 25.19 25.54 25.48 25.75 25.81 25.33 23.69 22.61 22.73 22.33 22.81 22.09 21.64 22.08 21.60 22.43 22.40 24.14 23.85 23.09 23.61 22.83 23.07 25.32 30.06 29.31 27.82 28.20 28.23 27.23 22.75 21.15 20.67 20.38 21.01 21.26 21.82 22.57 22.57
30.15 28.70 27.02 25.94 24.59 24.62 24.44 24.80 25.36 24.26 22.87 22.53 22.41 21.96 22.07 21.06 21.02 20.46 20.72 27.38 29.14 30.13 30.13 30.05 28.16 26.49 29.38 30.49 30.38 30.90 30.62 30.03 28.79 22.82 19.48 18.87 19.48 19.40 19.63 19.65 20.47 21.37 21.85

GFSMW_sfc_wetblb_021.txt.gz
Wetbulb
47.31 49.20 49.88 50.74 52.62 54.12 54.30 52.86 55.86 53.77 53.67 51.82 50.33 50.87 47.86 46.69 45.76 45.32 44.62 43.00 41.63 40.89 39.74 39.64 39.28 38.51 37.30 35.92 36.25 35.78 35.25 35.95 35.89 34.26 34.89 35.73 36.26 34.80 34.75 35.44 34.43 35.24 35.73
46.78 48.32 49.45 51.41 53.82 54.53 54.71 55.14 52.90 52.47 53.07 52.11 48.30 46.54 45.42 44.79 43.72 42.85 41.06 40.13 39.85 39.78 39.49 38.30 37.58 36.85 36.05 35.14 34.37 33.98 33.95 34.40 35.26 32.69 32.11 29.80 31.99 34.09 36.57 34.48 35.06 33.54 34.67
46.55 46.94 49.45 51.47 52.48 53.20 53.87 53.20 52.19 51.42 50.47 48.83 47.60 45.48 45.02 43.64 42.31 40.80 37.86 37.90 38.70 38.76 38.10 37.35 36.74 35.75 35.15 33.97 33.31 33.18 32.62 31.69 32.92 33.56 30.76 27.09 26.14 29.72 32.02 32.62 32.97 34.23 32.62
47.29 47.84 49.65 50.45 51.74 52.15 52.47 51.66 51.37 49.85 49.01 49.07 47.10 46.07 44.34 41.21 40.79 37.92 36.25 36.44 37.39 37.29 37.56 36.83 35.80 34.93 34.45 33.21 33.26 34.40 32.09 31.55 30.51 32.38 34.80 31.81 30.58 26.96 25.81 30.58 32.86 31.60 33.22
47.65 47.92 50.41 51.75 51.27 50.55 50.42 49.88 49.55 48.85 47.61 47.06 46.63 44.81 42.72 41.21 38.45 36.41 35.13 34.94 35.39 36.18 36.07 35.58 34.51 34.04 33.87 32.60 32.07 31.53 30.70 31.33 30.18 30.07 30.20 29.26 29.75 28.85 26.59 25.45 27.11 31.42 32.10
47.35 48.29 48.94 49.27 48.28 48.21 48.38 48.78 48.71 47.04 46.55 45.60 44.20 43.92 41.50 38.93 37.10 34.81 34.33 34.31 34.27 34.52 34.38 34.66 33.37 32.78 32.60 32.01 31.67 30.93 30.45 29.90 29.49 29.13 28.65 28.35 27.00 26.48 25.52 25.08 26.23 26.20 29.22
46.00 47.15 47.88 47.96 46.70 46.70 46.50 47.37 47.85 44.94 44.19 43.15 41.87 40.79 39.47 38.41 36.35 35.02 34.26 33.56 33.01 32.73 32.39 32.63 31.79 31.60 31.67 31.83 31.23 30.31 29.56 29.40 28.27 27.63 27.78 28.58 28.05 28.65 28.05 26.66 25.66 25.08 27.70
46.61 48.04 48.81 48.23 46.54 45.75 45.29 45.55 45.20 42.49 41.62 40.37 38.49 37.21 36.51 36.05 34.78 34.08 33.43 32.72 32.34 32.21 31.92 31.59 31.31 31.05 31.24 30.80 29.99 29.69 29.28 29.45 28.10 27.34 27.22 27.65 28.05 28.37 27.64 27.08 25.23 22.78 24.33
46.29 47.86 47.51 46.30 45.15 43.60 42.39 43.21 41.93 39.54 38.77 36.84 35.72 34.32 34.22 34.14 33.32 32.43 32.31 31.91 31.91 33.72 31.31 30.88 30.60 30.30 30.36 30.15 29.32 28.54 28.33 28.01 27.79 27.44 27.06 26.76 27.74 28.12 28.02 28.15 27.49 24.85 21.22
46.19 46.94 46.19 44.59 43.62 41.24 39.58 39.32 40.01 38.44 36.10 34.87 34.49 33.54 32.61 32.51 32.07 31.93 31.20 31.18 31.04 31.14 30.78 30.39 29.94 29.86 29.77 29.42 28.56 28.19 28.70 27.84 27.77 28.99 26.87 26.56 27.24 27.52 27.72 27.40 27.81 27.38 25.08
45.97 45.58 45.23 44.10 41.83 39.86 38.80 37.17 36.79 35.79 34.38 33.99 32.71 32.17 31.51 31.46 31.17 30.78 30.50 30.54 30.45 30.42 30.26 30.05 29.73 29.43 29.07 28.81 27.89 27.61 28.37 27.63 27.19 26.89 26.60 26.97 27.55 26.81 27.44 27.36 27.53 26.91 26.66
45.48 45.32 43.80 41.64 40.58 39.17 37.36 36.05 34.89 34.34 33.30 32.69 32.12 31.26 31.10 30.75 30.23 30.02 30.10 30.41 29.72 29.99 29.69 29.58 29.24 28.83 28.89 28.40 27.45 26.89 27.19 26.85 26.27 26.45 26.13 26.34 29.69 26.70 26.76 26.55 26.31 26.69 27.33
44.39 43.63 42.19 41.35 39.62 37.95 36.38 35.15 34.06 32.83 32.38 32.53 31.71 30.69 30.22 29.97 29.49 29.54 29.92 30.11 29.64 29.16 29.10 28.88 28.27 28.18 28.64 28.17 27.84 27.38 27.23 26.86 26.58 26.36 25.93 26.24 26.23 25.88 26.44 26.45 26.55 27.19 29.43
44.36 43.39 41.99 40.56 38.72 37.52 36.11 34.16 32.49 32.80 32.19 32.00 30.98 30.00 29.65 29.43 29.39 29.64 29.70 29.75 29.21 28.48 27.92 27.64 27.73 27.99 27.72 27.87 28.04 28.24 27.43 26.78 27.29 27.16 26.78 26.41 26.25 26.05 26.35 27.93 28.33 29.89 27.43
43.54 43.07 41.61 39.91 37.84 35.98 34.47 33.68 32.38 32.21 32.16 31.32 30.55 29.81 29.50 29.69 29.74 29.49 29.16 29.04 28.48 27.57 27.22 27.16 27.16 26.76 27.38 30.10 29.87 29.55 28.05 26.51 25.71 25.89 26.01 27.45 29.67 33.23 32.44 30.56 28.71 27.96 27.49
43.76 43.34 42.29 40.12 37.60 36.03 34.43 33.38 31.97 31.61 32.14 30.92 30.04 30.08 29.89 29.85 29.36 28.74 28.15 27.68 26.74 26.37 26.16 25.76 25.62 25.12 28.57 32.89 35.17 33.90 28.59 26.29 25.35 25.06 26.10 26.33 29.93 29.66 33.73 33.39 33.65 32.66 29.00
43.89 43.12 42.20 40.72 38.45 36.05 34.60 32.28 31.84 31.39 30.84 30.41 30.07 30.09 29.99 29.25 28.52 27.94 27.14 26.11 24.93 24.65 24.98 24.78 24.32 23.79 23.33 32.88 34.51 34.75 28.67 25.71 25.09 25.05 26.00 26.47 29.04 29.92 28.03 31.16 33.11 33.38 33.61
43.94 43.33 42.19 39.94 37.68 35.46 33.68 31.60 31.65 31.01 30.50 29.63 29.61 29.93 29.65 28.54 27.62 26.41 25.23 24.10 24.29 24.56 23.95 24.38 23.53 22.33 24.84 32.49 33.54 34.07 26.96 25.57 25.33 25.56 25.77 25.47 25.81 28.26 29.58 29.41 30.56 26.73 26.55
44.02 42.98 41.93 38.44 35.43 33.66 32.38 31.47 30.28 29.80 29.71 28.80 28.92 29.02 28.79 26.94 26.09 24.64 23.53 23.86 24.03 23.91 23.62 22.56 22.25 21.23 21.87 31.17 32.61 31.90 26.72 25.88 25.03 25.92 26.39 27.31 28.53 31.26 33.50 30.32 25.80 24.95 24.73
41.02 38.47 36.36 34.99 33.03 31.59 32.24 31.08 29.06 28.75 27.93 28.23 28.27 27.85 27.33 25.87 24.37 23.61 23.53 23.54 23.65 23.01 22.48 22.63 21.89 25.00 21.72 29.03 32.28 31.62 27.78 25.86 26.67 26.83 28.61 31.34 30.04 32.84 33.54 27.96 25.30 21.75 22.47
35.22 34.93 34.86 32.94 30.78 31.54 31.69 29.12 27.97 27.20 28.11 27.91 27.18 26.57 25.78 24.58 23.69 23.32 23.33 23.09 21.56 21.19 20.38 20.90 20.58 20.88 22.79 24.16 31.80 32.55 28.80 27.33 27.82 26.28 26.37 26.97 31.91 32.70 31.62 30.74 24.11 24.39 28.64
32.33 32.30 30.84 29.54 29.41 30.74 30.50 27.92 27.43 26.86 27.09 26.92 25.98 24.62 23.61 26.14 26.35 24.03 23.25 23.03 20.70 19.65 19.44 19.57 20.44 22.50 21.93 28.91 30.31 32.29 32.61 32.34 26.79 26.64 26.62 27.43 31.37 30.25 29.49 27.61 29.25 30.24 28.39
31.02 31.47 29.99 28.42 27.65 28.22 29.91 27.05 24.67 25.92 25.54 24.64 23.49 22.78 23.69 23.81 23.88 23.62 22.58 21.66 20.06 19.19 19.42 19.63 20.02 22.61 24.96 23.46 30.15 31.64 32.16 31.62 29.26 27.68 29.39 29.93 28.93 27.92 25.60 27.03 28.44 27.57 21.80
30.03 30.30 29.43 27.45 25.17 25.84 26.28 25.78 25.23 25.46 24.33 22.26 21.69 22.34 23.44 22.19 21.78 22.28 23.07 21.63 19.91 19.52 20.38 21.48 22.03 21.72 23.36 23.93 25.17 26.74 26.44 29.95 28.21 28.50 24.48 26.13 25.75 25.86 25.11 23.70 23.33 22.18 22.29
29.42 29.68 28.21 26.48 24.19 24.57 24.33 24.55 24.68 24.31 22.62 21.83 22.28 21.88 22.03 21.28 20.91 21.35 20.50 22.03 21.98 23.25 22.67 22.41 22.98 22.22 22.28 24.80 29.67 29.05 27.78 27.34 27.90 26.89 22.14 20.33 19.95 19.61 20.08 20.60 21.22 21.64 21.75
28.13 26.90 25.46 24.89 23.27 23.68 23.25 23.68 24.22 23.53 22.50 21.90 21.96 22.40 21.37 20.05 20.40 19.87 20.30 26.63 28.57 29.66 29.70 29.60 27.70 26.10 28.89 30.00 30.14 30.79 30.29 29.83 28.46 22.35 18.69 18.29 18.65 18.49 19.03 19.06 19.53 20.24 20.82

GFSMW_sfc_wetblb_024.txt.gz
Wetbulb
49.75 48.21 48.81 49.68 50.63 51.87 51.91 55.40 56.48 53.75 53.98 52.07 50.38 50.07 48.40 47.02 45.50 45.20 44.56 43.62 42.61 40.76 39.38 38.34 37.33 36.92 35.90 34.38 34.81 33.98 33.43 34.07 34.26 32.96 33.59 34.09 34.56 34.78 34.23 34.09 32.96 34.00 34.23
45.53 47.51 48.07 48.94 51.48 52.67 52.54 54.20 53.67 52.87 53.48 53.37 47.93 50.39 46.52 45.07 43.54 42.94 42.12 41.85 40.33 39.07 38.68 37.05 36.05 35.59 34.94 33.89 33.16 32.63 32.38 32.27 33.12 30.47 30.31 28.11 30.60 32.75 35.11 32.88 33.78 31.79 33.34
46.98 46.32 46.87 49.34 51.45 52.34 52.71 52.95 51.25 51.05 50.34 48.07 46.64 44.27 43.87 42.61 41.41 40.68 40.21 39.75 38.01 37.69 37.13 36.31 35.47 34.59 34.40 33.14 32.38 32.01 31.61 30.49 31.45 32.19 29.43 26.01 24.60 28.06 30.89 31.73 32.22 31.32 31.73
45.81 46.80 46.80 49.27 51.19 52.15 52.54 51.41 50.77 49.20 48.16 48.16 46.81 45.71 44.91 42.29 41.62 40.04 38.67 36.10 36.40 36.35 36.45 35.72 34.83 34.06 33.69 32.39 32.92 32.92 30.94 30.45 29.27 30.56 33.27 30.17 29.41 25.52 24.61 28.98 31.26 30.02 32.30
47.37 46.27 47.54 50.57 51.18 51.60 50.69 49.57 48.46 48.12 46.60 46.82 47.35 45.40 42.69 41.06 39.43 37.84 36.05 33.95 34.26 35.01 35.17 34.60 33.80 33.28 33.06 31.66 31.23 30.36 29.65 30.21 28.81 28.76 28.74 27.73 28.23 27.01 25.13 24.09 25.63 30.07 31.05
45.69 47.07 48.29 50.45 50.08 49.77 48.91 48.06 47.75 45.47 45.33 45.15 43.66 45.27 42.01 39.35 37.43 35.63 33.90 33.09 33.24 33.42 33.41 33.73 32.55 32.09 31.85 31.15 30.61 29.90 29.39 28.80 28.26 27.87 27.22 26.94 25.63 25.04 24.12 23.21 25.23 25.44 27.68
44.36 45.95 47.89 49.69 48.78 48.74 48.04 47.71 47.35 44.52 43.91 44.87 45.03 43.53 41.17 39.26 36.22 34.64 33.73 32.56 32.09 31.76 31.57 31.64 31.17 30.83 30.94 30.90 30.43 29.50 28.68 28.37 27.37 26.68 26.70 27.27 26.87 27.30 26.52 24.92 24.68 23.88 26.45
43.79 46.55 48.76 50.41 49.54 49.01 47.95 48.24 46.58 43.66 43.16 43.13 40.07 38.35 38.09 37.03 35.56 34.15 33.28 32.13 31.68 31.35 30.93 30.72 30.51 30.35 30.57 30.03 29.24 28.97 28.49 28.25 27.13 26.35 26.22 26.58 27.16 27.25 26.58 25.40 24.45 22.09 22.41
43.85 46.37 48.93 49.92 48.69 47.84 47.34 46.72 44.60 41.59 40.42 38.43 37.33 35.78 35.63 35.10 33.49 31.98 31.73 31.27 31.15 32.49 30.22 30.11 29.87 29.82 29.85 29.42 28.57 27.58 27.44 26.97 26.85 26.61 26.38 25.94 26.84 27.17 27.17 26.96 26.10 23.96 19.98
44.11 46.22 48.55 47.57 46.77 46.09 43.24 43.25 43.12 40.16 37.00 35.63 35.55 34.34 32.85 32.59 31.75 31.50 30.61 30.40 30.22 30.19 29.93 29.67 29.50 29.35 29.14 28.62 27.62 27.21 27.64 26.86 26.90 28.26 26.28 25.71 26.23 26.50 26.73 26.32 26.69 26.00 23.99
44.47 46.39 46.43 44.24 41.91 41.20 41.58 39.37 38.87 36.35 34.67 33.93 32.95 32.47 31.54 31.19 30.60 30.29 29.74 29.67 29.57 29.62 29.56 29.48 29.13 28.77 28.19 27.69 26.83 26.47 27.40 26.62 26.46 26.46 26.07 26.14 26.53 25.89 26.08 26.06 26.38 25.61 25.50
45.12 45.40 43.47 41.14 40.85 39.05 38.72 37.97 37.29 34.75 33.36 32.72 32.09 31.12 30.81 30.23 29.64 29.09 29.10 29.51 28.86 29.12 29.00 28.89 28.50 27.95 27.89 27.06 26.05 25.90 26.43 26.05 25.68 25.94 25.48 25.47 28.96 25.58 25.80 26.06 25.53 25.46 26.44
42.66 40.95 40.49 40.35 38.48 37.40 35.83 36.01 35.06 32.63 32.19 32.21 31.36 30.34 29.49 29.18 28.41 28.50 28.92 29.12 28.68 28.29 28.29 28.13 27.59 27.21 27.41 26.66 26.31 26.31 26.34 26.25 25.95 25.59 25.09 25.10 24.96 24.48 25.35 25.48 25.36 26.29 28.04
42.52 41.81 40.72 38.85 37.25 36.18 34.52 33.49 31.87 32.39 31.73 31.45 30.74 29.53 28.69 28.36 28.32 28.58 28.64 28.68 28.22 27.60 27.23 27.08 26.91 26.82 26.44 26.69 26.89 27.60 27.08 26.31 26.19 26.01 25.73 25.36 25.21 24.90 25.69 26.23 26.67 28.68 26.49
42.06 41.20 39.51 37.39 35.66 34.19 32.92 32.26 31.54 31.51 31.65 30.84 30.11 28.79 28.41 28.65 28.59 28.30 28.08 27.98 27.80 27.11 26.96 26.44 26.04 25.58 26.34 29.22 29.00 29.20 27.75 25.96 24.81 25.29 25.66 26.33 28.48 32.72 32.15 30.07 28.27 27.63 26.80
43.06 41.65 39.54 37.21 35.17 33.76 32.40 32.04 30.99 30.69 31.62 30.56 29.22 29.13 29.07 28.72 28.09 27.54 27.35 27.35 26.91 26.22 25.84 24.91 24.83 24.53 27.73 32.25 34.72 33.61 27.78 26.35 25.53 24.50 25.72 25.54 29.25 28.64 33.49 33.31 33.53 32.63 29.60
43.18 41.42 39.33 37.71 35.58 34.00 32.99 31.42 30.95 30.78 30.37 29.83 29.37 29.24 28.93 28.04 27.49 27.23 26.96 26.53 25.27 24.71 23.75 23.53 23.29 22.58 22.56 32.30 34.33 34.63 28.39 26.16 24.72 24.69 25.22 26.06 28.57 29.47 26.61 30.61 33.08 33.27 32.84
43.42 42.05 40.08 36.98 35.00 33.54 32.22 30.79 31.06 30.49 30.02 29.20 28.90 28.82 28.37 27.17 26.80 26.05 25.71 24.78 23.70 23.13 22.77 22.56 22.26 21.41 24.03 32.16 33.36 33.82 26.96 25.32 24.81 25.01 24.71 24.55 25.24 26.46 29.57 29.16 30.89 26.60 26.44
44.09 42.34 40.36 36.91 34.28 32.59 31.76 31.03 29.99 29.60 29.45 28.33 28.12 27.85 27.29 26.12 25.94 24.97 24.09 22.81 22.72 22.42 21.67 21.71 21.25 20.46 21.40 31.01 32.46 31.73 25.95 25.02 24.82 25.76 25.12 25.26 27.47 31.21 33.29 30.44 26.41 25.17 24.80
42.03 39.24 36.66 34.84 32.13 31.14 31.91 30.67 29.07 28.80 27.86 27.68 27.23 27.01 26.92 25.97 24.37 23.64 22.85 22.33 21.88 21.75 21.69 22.08 21.19 24.56 20.80 28.94 31.94 31.43 26.91 23.69 25.99 25.83 26.38 30.41 30.11 32.58 33.77 28.12 25.34 22.15 22.64
36.49 35.54 34.88 32.92 30.84 31.83 31.73 29.15 28.37 27.34 27.22 27.20 26.73 26.10 25.43 24.19 23.03 22.51 22.06 21.50 20.65 20.45 19.71 20.61 20.21 20.86 22.55 23.78 31.48 32.34 28.17 26.58 27.09 25.93 26.41 27.08 31.39 32.42 31.45 30.84 24.23 24.21 28.49
33.16 32.66 31.35 29.77 30.49 31.41 30.58 28.30 26.93 26.04 26.91 26.44 25.44 23.93 23.49 26.21 25.44 23.12 22.49 21.83 19.89 19.02 18.87 19.46 20.54 22.27 21.56 28.09 29.92 31.94 32.17 31.75 26.57 26.56 26.44 26.76 31.22 30.22 29.42 27.54 29.08 30.21 28.30
30.44 30.62 29.38 28.16 27.91 29.19 30.46 26.83 24.37 26.40 25.65 24.18 22.53 22.45 23.08 23.00 23.53 23.01 21.98 20.88 19.33 18.76 19.17 19.48 19.73 21.88 24.69 22.90 29.74 31.21 31.68 31.55 29.05 27.58 29.11 30.14 28.99 27.75 25.24 26.66 28.16 27.36 21.16
29.32 29.92 29.31 27.55 25.34 26.32 26.91 26.06 25.81 25.44 23.84 21.43 21.35 22.32 21.88 21.38 21.04 21.77 22.85 21.03 19.48 19.06 20.01 20.80 21.51 20.84 22.68 23.16 24.67 25.42 25.92 29.86 28.03 28.63 25.26 26.24 25.43 25.41 24.60 22.95 22.70 21.69 21.48
29.42 29.73 28.28 26.30 24.22 25.40 24.76 24.69 24.14 23.81 22.32 21.41 21.72 21.28 21.34 20.51 20.28 20.70 20.10 21.43 21.18 21.93 21.87 22.04 22.57 21.58 21.66 24.50 29.30 28.78 27.49 27.22 28.06 27.13 22.08 19.73 19.33 18.96 19.27 19.84 20.55 20.99 21.14
28.04 26.58 25.47 24.55 23.60 23.84 22.86 22.72 23.24 23.02 21.97 21.26 21.83 21.46 20.48 19.45 19.91 19.41 19.73 26.42 28.04 29.36 29.41 29.11 27.28 25.75 28.39 29.66 29.83 30.56 30.27 29.87 28.73 22.27 18.17 17.64 18.16 17.83 18.14 18.25 18.77 19.62 20.50

GFSMW_sfc_wetblb_027.txt.gz
Wetbulb
52.22 53.57 53.48 53.68 53.60 54.55 55.88 57.44 61.15 62.85 60.03 57.14 55.89 54.38 52.99 50.89 49.40 47.17 45.93 45.18 45.57 43.24 43.03 43.45 42.75 42.64 41.61 41.08 41.09 41.49 40.19 39.98 40.46 40.42 41.06 42.28 41.89 43.01 43.51 41.43 41.66 41.20 40.53
50.41 51.62 51.82 52.50 52.86 54.71 55.48 57.83 60.36 58.79 58.89 58.83 56.58 54.71 52.93 50.08 46.61 44.75 44.59 44.52 43.87 42.42 42.93 42.69 41.66 41.45 40.92 40.46 39.89 40.09 39.84 39.17 39.29 37.31 37.65 36.21 39.45 40.91 40.82 41.05 40.54 40.03 40.15
48.80 50.92 51.17 51.66 53.30 54.07 55.18 56.83 56.86 56.58 56.21 52.64 49.86 47.55 48.05 46.52 42.78 42.16 42.63 42.35 41.63 41.07 41.97 41.53 41.08 40.89 41.00 39.54 39.00 39.13 38.85 37.34 38.00 38.29 37.12 35.12 33.83 34.62 38.95 39.27 39.45 38.90 38.33
47.91 50.29 51.20 51.01 52.46 54.62 55.80 56.16 54.83 54.01 52.07 52.50 51.08 49.96 49.71 47.43 43.80 42.23 40.35 40.39 40.48 40.88 40.76 40.69 40.49 40.07 39.63 39.17 38.56 38.25 38.13 38.23 35.93 37.78 37.04 37.56 36.35 32.75 31.67 36.88 37.55 37.38 36.15
47.81 49.20 50.65 51.60 53.18 54.57 55.43 54.60 53.49 52.31 50.96 52.49 52.35 52.25 50.82 46.22 41.02 39.70 38.17 37.94 39.52 40.30 39.96 39.90 39.46 38.89 38.54 37.93 37.73 37.05 37.02 37.06 36.40 35.99 35.68 35.15 35.38 34.65 31.78 29.65 32.79 34.93 36.21
47.80 49.83 50.93 51.78 52.58 54.30 53.95 52.72 51.92 50.27 50.04 50.79 51.80 50.12 45.98 40.16 38.56 37.92 37.11 38.24 38.24 38.47 38.50 38.21 38.27 38.06 37.69 37.32 36.87 36.43 36.10 35.88 35.40 35.40 34.69 34.10 32.78 32.21 31.17 29.83 30.99 30.88 33.36
46.71 47.94 48.34 50.34 51.70 52.86 52.24 51.12 50.65 48.01 48.33 48.31 48.80 46.85 42.67 41.37 39.54 38.25 37.74 37.20 37.00 37.05 36.84 37.06 36.78 36.83 36.75 36.42 36.48 36.08 35.69 35.49 35.13 34.41 34.47 34.22 33.37 33.45 32.39 31.03 30.08 29.34 31.71
46.36 46.88 48.87 50.86 51.92 52.69 51.20 51.02 49.46 46.71 47.49 48.09 46.21 43.66 42.12 40.75 39.00 38.90 37.81 38.06 37.55 36.71 36.37 36.01 36.21 35.88 35.79 35.58 35.67 35.90 35.66 35.20 34.89 33.29 33.50 33.40 33.68 33.61 32.87 31.33 29.42 27.67 29.65
45.79 46.48 48.77 51.02 51.99 52.00 50.92 50.10 48.48 46.73 46.77 44.75 41.68 40.09 39.26 39.65 38.68 37.76 37.90 37.14 36.39 35.59 35.50 35.70 35.31 35.24 35.13 35.00 34.69 34.99 34.46 34.17 34.10 33.86 33.54 32.83 33.49 33.49 33.30 32.82 31.89 28.77 24.76
44.16 46.53 48.75 50.83 51.63 51.73 50.27 49.26 47.60 45.45 43.61 41.29 40.40 38.68 38.24 38.35 37.18 36.98 35.92 35.84 35.51 35.14 34.93 34.82 34.87 34.63 34.43 34.11 33.95 33.84 33.61 33.33 33.83 33.85 32.79 32.75 32.94 32.83 33.09 32.62 32.15 31.24 28.38
44.13 46.46 49.10 49.93 49.51 47.76 47.56 45.76 43.79 41.38 39.77 38.89 37.23 37.26 36.40 35.90 36.08 35.39 34.98 34.81 34.69 34.72 34.49 34.36 34.03 33.76 33.47 33.25 33.18 32.59 32.73 32.10 32.38 32.87 32.23 31.62 32.30 31.95 32.09 32.19 31.68 30.56 29.95
44.41 47.06 46.27 44.35 45.12 44.61 43.65 42.98 41.49 39.48 38.13 37.20 36.64 35.55 34.95 34.76 34.40 34.01 33.91 34.41 33.79 34.19 33.86 33.57 33.16 32.87 32.51 32.26 31.72 31.38 31.91 31.73 31.47 31.50 31.01 30.73 31.47 30.96 31.28 30.86 30.11 30.01 30.65
42.34 41.81 42.47 43.30 43.00 42.87 40.78 40.25 39.32 36.07 35.32 35.84 34.93 34.31 33.73 33.75 33.31 33.17 33.34 33.49 33.20 32.93 32.86 32.86 32.27 31.69 31.38 31.16 31.26 31.57 32.15 32.01 31.57 31.00 30.30 30.32 29.99 29.37 29.96 30.03 29.92 30.40 30.29
41.15 41.25 40.97 40.29 39.80 39.57 38.63 37.62 35.46 35.19 34.63 34.90 34.26 33.40 33.15 33.01 32.93 32.82 32.69 32.65 32.61 32.06 31.96 31.69 31.18 30.64 30.50 30.59 31.37 32.51 32.82 32.18 31.78 30.93 30.86 30.24 29.85 29.42 30.00 30.38 30.42 30.76 30.26
41.70 40.86 38.87 37.90 37.09 36.48 36.46 35.77 34.38 34.15 34.24 33.82 33.51 32.43 32.24 32.50 32.25 31.90 31.80 31.57 31.80 31.50 31.23 30.53 30.01 29.91 30.29 31.23 33.29 33.84 33.13 31.90 31.10 30.91 30.69 30.97 31.60 33.24 33.28 31.76 31.13 30.41 30.04
42.59 40.80 38.77 37.21 36.00 35.35 34.85 34.30 33.00 33.29 34.39 33.33 31.93 31.92 31.97 31.75 31.23 30.99 30.62 30.83 30.56 30.46 30.11 29.31 29.06 28.86 29.61 32.20 34.69 34.86 33.08 31.81 30.54 29.82 30.46 30.66 30.97 31.07 33.06 33.29 33.59 32.93 30.55
42.84 39.87 38.08 37.53 35.84 35.00 34.74 34.18 33.24 33.50 33.03 32.00 31.77 31.70 31.52 30.62 30.37 30.14 30.09 29.78 29.53 29.45 28.80 28.43 27.87 27.48 27.90 32.34 34.15 34.47 32.86 30.97 30.52 30.06 29.90 29.66 30.32 31.41 30.19 31.62 33.15 33.56 34.51
42.32 40.29 38.79 36.40 35.19 34.75 33.90 32.81 33.11 32.82 32.05 31.58 31.27 31.26 30.72 29.63 29.41 29.41 29.09 28.82 28.85 28.51 28.10 27.41 26.97 26.89 27.77 31.77 33.25 33.64 31.95 30.84 30.54 30.22 29.92 29.27 29.27 30.13 30.65 31.22 31.91 31.21 29.87
42.90 40.96 38.78 36.23 34.88 33.69 33.32 32.64 32.06 31.88 31.69 30.95 30.69 30.32 30.00 28.79 28.77 28.34 28.07 28.06 28.10 27.37 26.84 26.72 26.24 26.21 27.57 30.48 32.22 32.50 30.91 30.06 29.84 30.12 30.12 29.66 29.78 31.80 33.29 31.39 29.06 27.89 27.94
41.14 38.30 36.59 35.21 33.62 32.90 33.47 32.43 31.28 31.40 30.48 30.32 29.73 29.68 29.49 28.84 28.03 27.80 27.48 26.93 26.76 26.49 26.55 26.36 26.48 26.87 26.42 29.05 31.77 32.03 30.46 28.94 28.96 30.07 29.94 30.92 30.93 32.38 33.44 29.85 28.08 25.35 25.41
37.64 36.70 35.82 34.52 32.83 33.33 33.32 31.30 31.20 29.91 29.40 29.42 29.08 28.66 28.23 27.48 27.54 26.96 26.77 25.92 25.59 25.51 25.01 25.63 26.16 26.29 26.84 28.09 31.21 31.92 30.39 29.33 29.06 28.29 28.67 29.31 31.35 32.54 31.66 31.04 27.11 25.78 29.28
33.89 33.68 32.58 31.74 32.58 33.50 32.82 30.81 28.23 28.33 28.94 28.63 27.49 26.76 27.39 28.35 27.57 26.87 26.11 25.25 24.74 24.33 24.34 24.67 25.72 26.91 26.93 28.63 29.99 31.55 31.98 31.97 28.87 28.27 28.70 29.16 31.51 30.28 29.55 28.27 28.75 30.13 28.99
31.41 32.05 30.63 29.71 30.66 32.08 31.73 27.69 26.77 28.39 27.59 26.86 25.92 25.95 26.50 26.63 26.95 26.47 25.67 25.25 24.26 23.78 24.10 24.41 24.54 25.47 27.14 27.17 29.58 30.94 31.46 31.50 30.00 29.40 30.03 30.49 29.24 27.94 26.10 26.64 28.08 27.25 23.50
29.73 30.63 30.01 28.51 27.20 28.74 28.76 27.92 27.72 27.75 26.50 25.02 24.89 25.30 25.22 24.74 24.88 25.52 26.09 24.85 24.07 23.90 24.47 24.66 24.54 24.79 25.50 26.08 27.37 28.31 29.39 30.41 29.45 29.65 28.32 27.29 26.01 25.46 25.09 23.85 23.98 23.63 23.37
29.85 29.90 28.55 26.85 25.84 27.21 26.70 27.08 26.47 26.37 25.07 24.81 25.13 25.09 24.93 24.21 24.17 24.49 24.72 25.50 25.44 25.70 26.16 25.82 25.56 24.45 24.25 26.18 29.78 29.46 28.68 29.14 29.10 28.25 24.68 22.03 21.26 20.82 21.09 21.56 22.08 22.52 22.53
28.20 27.22 26.72 26.16 25.43 25.69 24.95 24.85 25.44 26.13 25.21 24.20 24.35 24.27 23.92 23.75 23.78 23.55 23.81 27.05 28.18 28.80 28.91 28.75 27.91 27.32 28.58 29.43 29.80 30.19 30.47 29.90 28.73 24.06 20.18 19.41 19.80 19.31 19.43 19.37 19.98 21.07 21.95

GFSMW_sfc_wetblb_030.txt.gz
Wetbulb
55.22 56.80 58.29 59.54 60.01 60.34 60.58 61.11 61.52 63.50 65.50 66.17 66.56 66.11 62.65 61.08 59.40 56.44 55.37 51.72 52.43 49.03 46.65 49.39 48.58 48.68 47.58 46.47 46.21 45.62 44.94 44.36 44.55 44.89 46.23 46.67 46.17 46.07 47.13 47.00 45.46 44.73 44.19
52.68 54.66 56.38 58.13 58.85 59.29 60.19 60.97 61.91 63.98 65.48 65.86 64.63 64.68 62.16 57.83 55.07 52.50 53.51 50.99 46.73 45.54 46.23 48.72 47.78 47.07 46.21 45.46 44.95 45.22 44.57 43.88 43.61 41.88 42.96 42.15 43.55 44.96 45.11 45.16 44.53 43.55 44.03
50.17 52.04 54.12 56.33 58.15 58.56 59.85 60.24 62.11 64.15 64.90 64.29 63.33 58.66 53.17 48.82 47.29 47.00 47.61 46.72 45.53 45.47 47.21 46.12 47.16 46.74 46.41 44.70 44.17 44.19 43.37 43.09 43.03 42.12 40.90 40.03 39.79 39.66 43.43 43.18 42.57 42.72 41.93
50.27 51.03 52.22 54.07 56.53 58.23 60.47 60.64 62.19 62.95 63.57 62.31 58.31 56.23 55.77 50.25 51.73 49.45 45.35 44.73 44.31 43.74 44.36 46.03 46.43 45.86 45.18 44.21 43.15 43.10 43.00 43.27 41.43 42.79 40.86 40.96 39.58 37.10 36.53 41.44 41.34 41.57 40.00
49.86 50.27 51.71 52.79 55.06 58.47 59.85 60.42 61.53 61.77 60.70 59.52 59.98 59.26 57.16 55.10 50.92 47.11 44.54 42.10 42.68 45.59 44.72 45.68 45.21 44.49 44.22 43.32 42.47 42.04 41.94 42.14 41.49 40.77 40.31 39.84 39.47 38.90 35.98 34.34 37.79 39.71 40.75
50.33 51.13 52.34 53.85 54.46 57.53 59.59 59.99 59.81 59.56 59.07 59.98 59.38 59.81 56.70 49.68 45.84 42.69 40.22 39.72 41.92 44.50 44.59 44.30 44.32 43.70 42.99 42.28 41.83 41.41 40.63 41.36 40.76 40.47 39.34 38.02 36.78 36.29 35.77 34.69 35.39 35.44 38.03
49.33 49.52 51.46 53.53 54.58 55.80 58.28 58.77 58.59 57.62 57.82 58.86 58.74 57.74 52.22 50.78 46.99 44.25 40.33 40.37 41.58 43.28 42.96 43.24 42.72 42.33 42.05 41.45 41.36 40.94 40.84 40.58 39.99 39.11 38.56 38.42 37.43 37.37 36.39 34.93 34.20 33.89 36.35
51.68 50.13 50.86 52.86 54.45 55.89 57.64 58.01 57.55 56.13 56.66 57.64 57.07 52.74 49.18 49.48 44.81 40.79 39.90 41.56 43.02 43.05 42.89 42.42 41.96 41.10 40.65 40.55 40.58 40.82 40.87 40.37 39.58 38.01 38.08 37.61 37.59 37.59 36.79 34.95 33.18 31.29 33.51
51.02 50.63 51.58 52.99 54.59 56.09 57.39 57.55 57.02 55.74 55.53 55.69 52.28 47.04 44.18 43.08 40.70 41.25 42.71 41.01 42.28 41.42 41.65 41.41 40.60 40.27 40.08 39.74 39.56 40.34 39.56 38.85 38.83 38.17 37.88 37.08 37.36 37.43 37.23 36.55 35.38 32.34 28.54
50.84 50.90 51.04 52.88 55.00 56.58 57.56 57.92 56.94 54.57 54.88 53.59 51.30 46.04 42.26 40.49 41.56 40.20 39.68 41.83 40.85 40.96 40.63 40.25 39.91 39.49 39.14 38.86 39.06 39.01 38.40 37.59 38.25 37.35 37.01 36.73 36.99 36.66 36.63 36.12 35.51 34.61 31.89
49.78 50.23 50.74 53.48 55.26 56.60 56.75 55.74 54.64 53.32 51.42 49.80 46.71 43.78 40.54 39.17 41.41 41.17 40.75 41.37 41.03 40.50 39.84 39.50 38.99 38.60 38.11 38.15 38.24 37.45 36.96 36.05 36.48 36.91 36.15 35.44 35.93 35.29 35.38 35.34 34.71 33.51 33.06
48.73 49.89 51.01 52.87 54.21 54.61 54.29 53.55 52.06 50.26 48.49 45.20 43.84 39.57 38.98 39.54 40.80 39.72 40.90 40.72 39.86 39.85 39.13 38.67 38.10 37.57 37.14 37.09 36.49 35.93 36.24 35.71 35.45 35.58 35.14 34.58 34.75 33.95 34.21 33.91 32.97 32.70 33.29
48.07 48.07 48.32 49.79 51.64 52.35 51.93 50.82 49.59 45.98 43.37 42.38 39.32 38.20 38.67 40.53 40.37 40.05 39.57 39.59 38.98 38.36 38.02 37.81 37.16 36.28 35.88 35.66 35.65 35.65 35.89 36.07 35.81 35.37 34.46 34.03 33.41 32.62 33.21 33.06 32.75 33.23 33.15
47.17 46.99 47.25 48.63 50.20 50.82 49.70 47.82 43.23 41.15 40.51 38.17 38.51 38.13 40.14 40.11 39.45 38.84 38.46 38.35 38.22 37.32 37.11 36.83 35.88 35.23 35.03 34.68 34.85 35.62 36.22 36.20 35.76 35.31 34.58 33.94 32.99 32.55 32.70 32.88 33.02 32.83 31.98
46.75 44.40 45.61 46.68 47.52 45.87 43.33 40.87 38.43 37.85 38.07 37.42 37.65 39.29 38.88 38.78 37.97 37.66 37.27 37.20 37.06 36.68 36.24 35.42 34.82 34.76 34.65 34.40 35.47 36.42 36.36 35.64 34.97 34.87 34.37 34.02 33.74 33.51 33.94 32.74 32.21 31.90 31.02
46.98 44.80 44.38 44.86 43.51 41.05 38.32 36.96 35.77 35.98 38.27 37.83 36.89 37.54 37.21 36.84 36.71 36.30 36.14 36.20 35.83 35.55 35.12 34.49 33.87 33.71 33.34 32.14 34.43 35.33 35.29 35.01 34.09 33.07 33.48 33.76 33.56 33.34 34.02 33.98 33.96 32.95 31.06
46.47 45.70 44.00 43.62 40.74 38.66 37.07 35.31 35.84 37.22 37.29 36.68 36.86 36.18 36.14 35.50 35.49 35.43 35.47 35.15 35.00 34.97 34.29 33.43 33.20 33.02 33.06 31.99 33.96 34.46 34.67 34.10 33.38 32.96 32.75 32.44 32.95 33.09 32.08 32.70 33.81 34.25 34.78
47.49 45.37 44.48 40.01 38.75 38.38 37.12 36.60 37.44 36.78 37.04 35.29 35.30 35.70 35.42 34.46 34.57 34.75 34.63 34.51 34.83 34.30 33.72 32.96 32.57 32.53 32.38 31.40 32.94 33.82 34.17 33.70 33.35 33.16 32.80 32.24 32.07 32.18 31.89 31.51 32.41 32.74 32.05
47.59 45.05 42.89 37.51 37.89 37.82 37.31 37.50 36.80 36.72 35.73 35.41 34.93 34.97 34.68 33.78 34.07 33.77 34.04 33.99 33.87 33.06 32.91 32.41 31.85 31.48 32.27 30.63 32.00 32.98 33.16 32.81 32.63 32.87 33.01 32.49 31.62 32.65 33.38 31.95 31.20 29.74 30.08
44.40 42.63 41.12 40.55 39.89 38.75 39.05 37.45 36.63 35.55 34.61 34.76 34.40 34.58 34.58 34.33 33.89 33.82 33.30 32.61 33.14 32.02 32.43 31.70 32.11 30.18 30.99 30.73 31.56 32.48 32.35 31.55 31.58 32.35 32.58 32.88 32.27 32.80 33.41 31.06 29.24 27.73 27.94
39.79 39.53 39.65 38.58 37.22 37.65 38.07 36.17 35.76 34.09 34.41 34.17 33.98 33.84 34.00 33.69 33.56 33.06 32.64 32.29 32.04 31.88 31.71 31.20 31.86 31.02 30.75 30.98 31.20 31.90 31.69 31.13 30.44 30.56 30.70 31.53 32.37 32.84 32.47 31.73 28.66 27.52 29.87
37.11 37.60 35.78 34.39 35.62 37.02 36.94 35.46 33.12 33.18 33.47 33.14 32.52 32.07 32.52 32.08 32.38 32.26 31.73 31.41 31.68 31.20 30.75 30.36 30.76 31.63 31.23 30.33 30.61 31.45 31.89 32.16 30.20 29.58 30.73 31.06 32.03 31.38 30.65 29.59 29.30 30.23 30.10
37.25 37.74 36.53 35.73 36.67 37.36 35.91 31.92 32.12 32.76 32.12 31.75 31.36 31.65 32.08 32.29 32.42 32.18 31.42 31.45 30.95 30.19 29.69 29.44 29.09 29.51 30.30 30.67 30.41 31.15 31.74 32.02 30.98 30.90 31.31 31.79 30.61 29.46 27.93 28.09 28.63 28.16 26.62
34.27 35.42 35.04 34.18 33.78 35.00 33.08 31.41 31.69 32.20 32.00 31.25 31.36 31.77 31.49 31.07 31.35 31.62 31.32 30.80 30.27 29.47 29.23 28.61 28.08 28.50 28.90 29.44 30.14 30.47 30.86 31.42 31.01 31.05 30.83 29.64 28.49 27.64 27.31 26.59 26.84 26.68 26.26
33.84 34.44 33.34 32.24 31.67 32.74 31.57 31.38 31.79 32.89 31.85 31.53 31.37 31.71 31.28 31.02 30.37 30.38 30.67 30.54 30.54 29.56 28.54 28.65 28.15 27.16 26.79 28.20 29.97 30.14 29.39 30.43 30.23 29.61 27.50 25.79 24.90 24.31 24.47 24.90 25.35 25.73 25.56
32.66 31.97 31.56 31.28 30.99 31.03 30.41 31.30 32.78 33.14 32.06 30.59 30.62 30.83 30.48 30.20 30.29 30.13 29.76 28.04 28.11 28.45 28.30 28.30 28.06 28.40 29.09 29.48 29.77 30.00 30.63 30.24 29.63 25.77 23.69 23.14 23.37 22.63 22.63 22.41 22.95 23.90 24.66

GFSMW_sfc_wetblb_033.txt.gz
Wetbulb
55.78 57.14 58.28 59.34 59.42 60.42 61.24 61.66 62.20 62.80 63.93 65.57 66.85 68.00 66.93 66.12 65.96 67.37 64.42 61.63 58.54 54.96 53.50 51.48 50.41 51.74 50.64 49.62 48.90 47.56 47.01 45.79 45.69 46.51 47.65 48.04 46.88 46.33 47.39 47.97 46.88 46.60 45.88
53.06 54.65 56.43 57.60 58.53 59.40 60.68 60.94 61.80 62.49 63.90 66.02 67.51 68.34 65.80 63.56 62.86 61.33 60.33 57.93 54.36 52.26 50.70 50.10 48.63 50.17 48.84 48.05 47.55 47.58 45.84 45.07 44.88 42.47 44.76 43.53 44.55 45.37 46.29 46.69 44.70 44.36 45.15
50.76 52.25 53.65 56.00 58.46 58.67 60.29 61.02 61.88 63.16 64.68 66.13 67.16 66.91 59.93 55.33 52.81 52.75 52.94 51.34 51.30 50.83 50.15 49.86 49.73 49.63 49.48 47.62 47.26 46.63 45.77 44.34 44.13 43.25 41.00 41.15 40.63 40.20 45.20 44.61 44.51 43.46 43.75
50.76 51.80 52.73 54.03 56.21 58.65 61.15 61.59 62.24 63.22 65.11 66.65 65.25 63.39 57.36 53.72 52.77 50.61 49.94 49.45 47.93 47.99 48.33 48.00 47.64 48.38 48.11 46.62 45.75 45.26 44.76 44.65 42.33 43.48 41.71 41.44 39.99 37.10 36.44 43.12 42.92 43.43 40.90
51.08 50.99 52.13 53.62 55.20 57.51 60.66 61.85 62.23 62.99 65.03 65.19 64.55 61.50 57.37 57.07 52.63 49.13 46.23 46.89 46.23 45.71 46.74 47.07 47.50 47.21 47.25 45.58 44.31 43.99 43.34 42.90 41.68 41.14 40.66 40.63 40.54 39.80 36.95 34.46 38.22 40.72 41.57
49.99 51.06 52.52 53.15 54.29 56.39 58.61 61.59 61.56 62.38 64.10 64.41 61.73 59.74 60.13 55.32 49.90 46.38 44.70 45.05 45.65 46.65 46.78 46.30 47.17 46.46 45.32 44.37 43.90 43.33 42.76 41.79 40.97 40.48 39.81 38.55 37.08 36.60 36.17 34.97 35.64 35.48 38.18
51.02 52.18 51.77 51.38 53.55 55.23 56.39 60.19 60.71 61.23 62.67 61.89 60.95 60.37 59.80 53.36 50.78 47.28 45.82 43.98 44.74 44.72 45.04 46.05 45.02 44.65 44.63 43.69 43.21 42.54 41.91 41.26 40.38 40.12 39.15 39.12 38.13 38.08 36.85 35.47 34.36 33.68 36.29
51.57 52.31 53.42 53.49 53.27 55.67 56.73 58.57 59.78 60.36 60.55 60.42 60.97 61.70 56.61 53.27 49.65 48.17 46.50 44.57 44.65 44.59 43.66 45.14 44.64 43.23 42.55 42.22 42.25 41.80 41.35 40.86 40.31 39.73 39.26 38.31 38.32 38.31 37.30 35.64 33.65 30.98 32.78
51.04 52.04 53.47 53.81 52.43 54.31 56.33 58.13 59.34 59.78 59.39 60.29 60.57 59.31 53.83 51.07 48.09 48.17 46.12 43.50 44.00 44.32 43.53 43.85 42.67 41.96 41.64 41.52 41.12 40.56 39.88 39.51 39.62 39.29 39.40 38.05 38.20 38.39 37.91 37.16 35.87 32.51 28.11
50.11 51.36 52.66 53.30 53.54 54.64 56.72 58.76 59.21 58.74 58.40 59.44 58.56 55.24 50.93 45.45 44.77 44.68 43.65 42.04 42.30 43.37 42.58 42.20 41.56 41.05 40.70 40.33 40.00 39.60 39.38 38.21 38.75 38.57 37.41 37.52 37.62 37.33 37.09 36.45 35.94 34.79 31.80
49.49 50.38 52.12 53.22 53.91 55.49 56.79 58.13 58.53 57.36 57.44 56.93 52.25 47.91 45.20 43.93 42.21 42.66 39.78 42.77 41.41 40.96 41.88 41.21 40.63 40.12 39.61 39.35 38.91 38.33 37.79 37.05 37.45 37.84 37.11 36.42 36.73 35.74 35.59 35.39 34.80 33.51 32.83
49.73 50.62 51.30 53.35 54.51 55.88 57.25 57.63 57.45 56.04 56.51 53.42 48.68 44.51 42.30 40.76 41.91 39.93 42.26 40.59 39.92 41.74 41.02 40.44 39.71 39.19 38.70 38.17 37.41 36.81 37.18 36.68 36.29 36.49 36.10 35.34 35.65 34.92 34.53 34.06 33.29 32.83 33.10
49.18 50.17 50.70 51.23 53.59 55.02 55.66 55.87 55.28 53.90 52.05 48.60 45.56 42.09 40.55 40.43 40.00 39.32 41.98 40.51 40.45 40.00 39.69 39.33 38.54 37.91 37.24 36.75 36.46 36.43 36.59 36.80 36.66 36.28 35.44 34.75 34.29 33.28 33.33 33.14 32.53 32.97 33.71
48.10 49.10 49.12 50.25 51.90 52.92 53.66 53.18 51.71 49.41 47.51 45.24 42.81 40.89 40.24 40.01 38.80 40.33 39.88 39.93 39.72 38.78 38.62 38.29 37.48 36.69 36.15 35.68 35.51 36.42 36.58 36.87 36.71 36.46 35.81 34.82 33.91 32.83 32.56 32.06 32.15 32.52 31.29
47.54 47.92 48.02 48.71 49.62 50.76 51.34 48.78 45.90 44.97 43.73 42.23 41.03 39.85 39.45 39.83 39.33 39.62 39.53 38.82 38.72 37.93 37.43 36.70 36.27 35.75 35.59 35.30 34.90 36.00 36.16 35.77 35.57 35.66 35.25 34.97 35.27 34.96 34.58 32.72 32.03 31.44 30.15
46.42 47.68 46.49 47.55 48.27 48.05 45.11 42.96 41.44 40.73 40.38 39.71 38.86 38.68 38.16 38.20 38.46 37.85 37.68 36.25 36.92 36.60 36.45 35.92 35.50 34.98 34.29 32.88 34.32 35.01 34.41 34.54 34.33 33.67 33.86 34.17 34.73 34.34 35.16 35.20 34.92 33.67 30.39
47.12 47.58 45.18 46.10 45.19 40.98 39.49 37.82 38.23 38.65 37.25 36.57 36.80 36.35 36.81 35.71 35.45 36.57 36.39 36.48 35.88 35.98 35.32 34.62 34.30 33.80 33.92 32.36 33.85 34.55 33.72 33.36 33.84 33.21 32.94 32.76 33.49 33.89 32.51 33.35 34.43 33.96 34.75
46.99 47.26 45.28 42.97 40.35 37.86 36.92 37.80 37.63 36.77 35.76 35.19 35.26 35.47 35.66 34.78 36.22 36.29 35.93 35.70 35.65 35.30 34.65 33.69 33.34 33.18 33.47 31.51 32.79 33.83 32.98 33.44 33.60 33.50 33.14 32.31 32.16 32.59 32.34 31.67 30.62 31.41 31.98
48.07 46.42 43.57 39.22 37.09 36.04 37.23 36.79 35.47 35.89 35.30 33.93 34.43 35.66 35.63 35.45 34.85 35.07 34.94 35.17 34.49 33.91 33.33 33.07 32.61 32.43 32.72 31.41 31.98 32.68 32.08 32.13 32.23 33.27 33.08 32.79 32.06 33.68 34.29 31.03 29.76 29.32 29.04
45.47 39.94 38.21 36.70 36.21 36.49 36.85 35.86 35.20 35.08 34.52 35.22 36.14 36.32 36.45 35.81 35.04 34.85 34.14 34.43 34.40 32.85 32.65 32.05 32.68 32.12 31.05 32.29 31.82 32.20 31.13 30.28 31.02 31.76 32.10 33.92 33.00 34.08 33.95 30.91 28.79 26.46 27.00
39.17 38.80 38.51 37.01 37.12 38.17 38.41 37.21 37.10 35.42 36.23 36.32 36.00 35.28 35.29 34.85 34.46 33.87 33.73 33.36 32.79 32.40 32.19 31.76 32.81 32.32 32.09 31.31 31.86 32.29 30.62 30.30 29.95 29.71 29.96 31.27 33.50 33.46 33.74 33.13 28.70 27.35 29.24
39.60 40.06 39.17 38.98 40.32 40.53 39.03 36.69 34.36 34.57 34.78 34.47 33.84 33.37 33.23 33.65 33.68 33.23 33.05 32.77 32.30 31.84 31.71 31.34 31.36 32.17 32.19 32.23 31.82 31.81 32.13 32.39 29.88 29.06 30.26 30.77 32.77 33.01 32.36 30.65 30.50 30.89 30.67
36.06 37.03 36.39 36.11 36.94 37.14 35.61 32.57 33.04 33.59 32.45 31.87 31.89 32.33 33.02 33.33 33.61 32.93 32.29 31.54 31.67 30.95 30.46 29.83 29.49 29.84 30.77 30.96 32.16 32.12 32.58 32.61 30.65 30.86 31.65 32.47 32.01 31.33 29.23 29.28 30.00 29.69 26.15
38.01 38.26 37.66 36.35 34.19 33.62 32.51 31.39 31.57 32.27 32.04 31.69 32.14 32.36 31.90 32.01 32.36 32.31 32.00 31.52 30.91 30.01 29.35 28.85 28.37 28.51 28.88 29.40 29.94 29.78 30.08 31.26 30.63 31.00 29.82 30.03 29.93 29.41 28.34 27.17 26.83 26.30 25.93
36.77 36.98 35.64 34.02 32.23 31.93 31.11 31.65 32.17 33.14 32.33 32.16 31.84 31.96 32.05 31.85 31.13 31.39 31.18 30.51 30.82 29.22 27.80 27.80 27.25 26.33 25.94 27.58 30.05 29.72 28.86 29.15 30.19 29.65 27.08 25.50 24.84 24.13 24.32 24.52 24.78 25.07 24.99
35.00 34.01 33.56 32.75 31.60 31.01 31.03 32.53 34.32 34.32 32.83 31.48 31.56 31.65 31.23 31.24 30.84 30.27 29.89 29.36 28.61 28.45 28.72 28.54 27.65 27.51 29.03 29.75 29.94 30.10 30.56 31.09 30.66 25.97 23.27 22.83 23.08 22.51 22.51 22.32 22.47 23.23 24.13

GFSMW_sfc_wetblb_036.txt.gz
Wetbulb
52.38 53.08 53.90 54.47 54.26 54.32 54.63 58.67 57.89 57.70 58.26 58.94 64.13 65.21 64.67 64.87 65.64 65.71 64.96 61.00 58.14 55.31 51.22 48.87 48.03 47.43 45.70 44.43 43.40 42.69 41.69 39.46 39.68 39.68 40.22 40.94 40.49 40.80 41.07 41.41 40.95 40.48 40.89
49.75 51.74 52.22 53.18 54.08 54.18 54.56 55.20 57.11 58.56 59.28 59.93 61.39 63.81 62.90 61.74 60.46 61.67 60.85 57.35 53.38 50.85 48.47 47.02 46.48 46.38 46.13 44.94 42.41 42.16 40.58 39.40 38.83 36.38 36.94 36.06 37.88 39.23 40.45 40.57 39.80 38.11 38.78
48.16 49.74 50.38 51.41 53.19 54.44 55.03 55.28 56.49 57.05 59.50 59.99 62.47 60.13 55.66 54.41 53.08 55.11 53.82 52.58 51.38 50.32 48.03 47.13 46.65 46.15 45.45 43.94 42.63 41.35 40.78 38.50 38.01 37.29 35.42 33.36 32.87 33.30 37.57 38.35 37.82 37.33 36.89
47.92 48.91 49.51 49.07 50.27 53.01 55.61 55.46 56.45 56.81 58.38 60.74 62.20 60.37 59.68 56.03 51.72 50.47 51.19 50.15 51.11 49.22 48.42 48.24 48.05 46.05 44.53 42.11 41.14 41.94 39.48 38.80 36.92 37.42 39.17 35.69 34.23 31.02 29.93 35.32 35.81 36.86 36.22
45.88 46.33 47.18 48.70 49.58 49.89 52.49 56.13 56.15 56.43 58.27 61.63 62.64 60.15 56.23 52.35 50.34 48.74 47.45 47.33 48.13 47.33 47.20 46.82 46.52 45.70 44.72 41.39 40.11 39.13 38.19 37.49 36.52 35.93 35.19 34.15 34.26 33.73 30.88 28.60 31.14 33.96 35.17
44.29 46.24 47.82 48.41 48.38 49.11 49.93 53.53 55.64 56.18 58.91 61.22 61.57 57.67 54.47 49.86 47.88 45.68 44.81 44.52 44.86 46.42 46.00 46.68 45.89 44.27 41.86 40.44 39.64 38.30 37.57 36.32 35.95 35.53 34.71 33.78 32.01 30.77 29.68 27.93 28.40 29.08 32.09
43.76 46.18 47.25 48.96 48.28 47.95 49.41 50.54 55.23 55.12 58.91 60.13 59.33 56.60 55.16 49.94 47.03 45.65 44.53 43.79 43.31 44.53 45.13 44.45 42.99 41.44 41.55 40.01 39.26 38.05 36.98 36.36 35.24 34.60 33.96 34.08 33.25 33.24 31.92 29.95 28.42 27.66 29.79
45.06 46.59 48.26 49.20 49.55 48.83 49.42 49.94 54.15 55.24 58.18 59.31 57.40 56.50 51.72 49.30 47.01 46.47 45.24 44.40 44.13 44.32 44.56 43.47 41.78 41.38 39.63 39.06 38.59 37.61 36.82 36.16 35.04 34.14 33.84 33.60 33.49 33.53 32.33 30.82 28.34 26.97 26.77
46.13 46.39 47.99 48.88 49.26 48.59 49.88 50.70 53.78 55.59 57.45 57.89 57.13 55.14 50.75 49.15 46.82 44.67 44.99 44.66 44.07 44.46 43.81 42.58 39.26 39.95 38.21 38.12 37.59 36.27 35.46 34.91 34.60 33.58 33.24 33.01 33.20 32.98 32.43 31.95 30.75 27.28 24.77
45.60 46.02 46.79 48.14 50.55 49.54 49.55 51.28 54.22 55.21 56.05 56.69 55.76 51.81 49.18 46.69 45.53 45.50 43.33 43.38 43.53 42.86 41.43 38.87 38.49 37.07 37.00 36.67 36.33 35.54 35.33 34.14 33.37 33.86 32.37 32.19 32.42 31.78 31.30 30.75 30.61 29.43 26.35
46.16 46.08 46.78 48.20 50.48 49.45 49.35 51.61 54.01 54.71 55.72 55.46 52.48 45.48 43.18 44.25 44.26 42.95 42.77 42.22 41.71 41.44 39.70 39.69 36.90 36.35 36.02 35.50 35.01 34.27 34.12 33.37 32.98 32.87 32.56 32.34 32.18 30.67 30.06 29.80 29.57 28.44 27.38
46.24 46.59 47.05 47.92 48.69 50.23 50.54 52.08 53.97 55.53 52.89 48.24 43.97 40.94 41.11 42.33 41.11 41.60 40.46 41.26 41.26 40.38 38.76 39.14 38.27 37.12 35.34 34.49 33.95 33.67 33.40 33.08 32.44 32.27 31.77 31.45 34.05 29.82 29.62 28.49 27.92 27.50 27.73
44.53 46.02 46.71 46.90 47.52 50.68 52.94 54.13 54.74 53.39 47.37 42.96 40.70 40.16 40.43 40.51 40.41 39.13 40.45 40.44 39.70 39.91 38.74 38.06 36.05 35.92 34.81 34.17 33.54 33.22 33.38 33.36 33.22 32.34 31.32 30.75 30.19 28.56 28.16 27.76 27.07 27.74 30.70
44.30 45.80 45.88 45.89 47.10 51.39 52.08 51.95 48.17 46.36 42.99 40.40 39.22 39.17 39.40 39.87 39.30 39.29 39.70 39.15 39.10 37.86 35.38 36.41 35.71 34.87 34.61 33.93 33.60 34.15 33.73 33.48 33.52 33.35 31.88 30.86 30.03 28.82 27.37 28.31 27.60 29.16 27.12
42.07 45.40 45.06 44.79 46.64 49.45 48.54 45.49 44.49 42.18 40.03 38.73 38.60 38.84 38.68 39.24 38.78 38.49 38.28 37.73 37.41 36.25 35.97 34.55 34.44 34.26 34.16 34.58 33.00 33.71 33.14 32.23 31.34 31.27 31.61 31.27 32.82 35.91 34.57 31.71 27.93 27.77 26.90
43.38 44.83 44.83 44.53 46.93 44.85 42.09 41.04 39.12 38.74 39.09 37.97 37.66 38.17 37.93 37.95 37.32 37.24 36.36 35.79 35.03 34.60 33.76 33.29 33.66 32.57 33.83 34.92 34.80 34.71 32.10 31.20 30.05 29.18 29.58 30.06 33.52 32.51 35.56 35.55 35.50 33.74 29.43
44.04 45.34 45.16 45.79 41.07 40.08 39.78 37.11 36.39 37.30 37.75 37.42 37.20 36.95 36.37 36.06 35.42 35.50 35.33 34.24 33.55 33.69 32.24 31.35 32.17 31.46 31.69 34.24 33.70 34.35 31.57 29.90 28.90 28.46 28.51 29.23 32.14 32.12 29.15 32.47 34.31 33.40 34.55
44.34 45.68 44.42 39.82 37.98 37.69 37.49 37.22 37.14 36.82 35.97 35.32 35.12 35.08 35.01 34.66 35.09 34.93 34.18 33.53 32.46 31.67 31.19 30.84 31.49 31.40 32.67 33.35 32.67 33.59 29.48 28.59 28.34 28.46 28.27 27.46 27.43 28.65 30.84 29.13 25.02 27.34 28.24
46.32 43.75 39.24 36.60 36.09 36.55 36.73 35.76 35.52 35.55 35.27 34.68 34.39 34.96 35.17 34.57 34.43 33.52 32.22 31.16 31.90 31.10 30.90 31.51 30.41 29.94 28.59 32.50 31.99 31.63 28.22 27.23 26.29 28.43 28.21 28.73 27.83 32.82 34.91 29.89 26.44 27.17 27.00
38.22 36.19 35.64 36.22 35.96 35.74 36.42 35.50 35.03 35.64 35.35 35.41 35.35 35.84 35.39 34.19 32.20 31.09 30.37 31.53 31.21 30.87 30.90 29.97 28.73 31.50 26.45 32.42 32.19 31.43 27.92 24.99 25.84 26.85 27.78 32.60 31.55 34.32 34.53 30.20 28.65 25.63 25.11
35.74 36.16 36.16 35.17 35.72 37.13 37.25 35.59 35.29 34.39 35.11 35.36 35.16 34.08 33.19 31.50 31.68 30.58 30.95 31.00 30.26 29.51 27.90 27.11 27.07 27.29 28.11 27.26 32.57 32.75 28.05 26.61 26.67 26.10 25.81 26.79 33.08 33.84 34.17 34.07 27.58 26.38 28.83
38.21 38.04 36.92 37.38 38.65 38.99 37.61 35.71 34.46 35.38 34.86 33.09 32.37 31.75 31.55 32.91 32.22 30.37 29.37 28.50 27.46 26.63 26.02 25.94 25.37 26.08 26.19 31.83 31.52 32.81 32.58 32.10 26.73 25.69 25.79 26.39 32.90 33.17 32.74 31.07 31.18 31.58 31.08
37.58 38.73 38.33 38.04 38.64 37.70 34.18 31.07 31.11 31.23 31.11 31.17 30.94 31.40 31.85 31.14 30.18 27.87 26.91 26.33 26.81 25.19 24.15 23.41 22.99 23.55 25.44 25.00 32.15 32.33 32.36 31.84 28.70 27.76 30.17 32.23 31.95 31.27 28.66 29.37 30.52 29.66 23.29
34.66 34.79 32.97 31.49 30.54 31.45 31.26 30.81 31.50 32.25 31.69 30.70 30.36 28.58 27.95 28.08 28.05 27.91 27.03 25.40 24.54 23.96 23.63 23.17 22.50 22.37 23.01 23.42 24.40 26.40 25.24 29.37 28.13 29.26 26.05 29.14 29.09 28.83 27.53 25.66 24.52 23.42 23.34
34.41 33.15 30.38 28.97 28.48 30.22 30.69 31.65 32.31 32.45 30.65 29.01 27.58 27.53 27.65 26.44 25.16 25.25 25.14 24.48 25.01 25.37 23.05 22.56 22.64 21.07 20.52 23.61 29.25 28.89 26.98 26.50 28.78 29.60 24.25 22.43 21.23 21.15 21.76 22.10 22.35 22.74 22.84
32.06 30.48 29.28 28.82 29.57 30.65 31.26 32.16 32.75 31.81 29.47 27.27 25.85 26.09 24.98 24.78 24.22 23.66 23.74 30.10 29.29 29.14 28.85 28.47 26.27 24.90 28.00 29.71 29.95 30.13 30.78 31.37 31.08 24.70 20.23 19.18 20.08 20.11 20.47 20.52 20.80 21.60 22.49

GFSMW_sfc_wetblb_039.txt.gz
Wetbulb
50.41 50.34 50.73 51.07 50.32 50.93 51.92 54.96 57.25 64.80 66.05 65.98 65.75 65.22 62.60 64.61 64.89 65.10 63.85 60.63 57.61 54.58 52.60 50.44 47.46 45.99 44.67 42.93 42.04 40.77 39.68 38.18 37.68 38.25 38.35 39.73 38.86 39.75 39.78 39.78 39.24 39.55 39.41
47.11 48.26 49.56 49.69 50.75 52.17 51.54 51.29 54.74 60.54 64.33 65.49 66.05 64.58 62.12 61.64 63.44 64.07 62.05 59.94 55.99 53.28 51.53 48.85 45.92 45.05 43.74 42.28 41.96 42.55 41.21 38.12 37.15 36.22 36.19 34.97 36.85 37.95 38.47 38.86 38.80 36.59 37.64
46.37 46.38 46.37 47.38 48.25 49.86 51.22 52.65 52.78 55.25 58.44 59.37 60.16 57.45 57.46 56.53 56.58 56.75 56.76 54.69 52.75 51.93 49.63 46.81 45.64 43.83 43.15 41.93 41.18 41.57 40.61 39.19 37.56 35.67 36.02 33.46 33.06 32.07 35.86 36.63 36.13 35.56 35.24
44.65 45.32 45.91 45.69 45.60 47.41 50.39 52.45 53.24 54.18 55.95 56.60 59.79 59.64 60.14 59.38 55.38 52.07 51.59 50.79 49.36 49.68 49.94 46.06 45.43 44.59 44.52 43.51 42.12 40.91 39.77 39.63 37.14 36.90 37.87 34.30 33.38 31.29 30.37 33.94 34.27 34.60 35.24
44.70 45.66 45.22 46.47 47.79 47.01 47.83 50.55 53.06 53.42 55.18 57.12 60.13 60.56 59.74 54.96 51.78 50.14 49.64 48.38 49.72 50.41 49.24 47.57 48.43 46.13 45.23 43.06 42.05 39.00 38.48 38.66 37.57 36.78 34.93 33.24 32.95 31.84 30.24 28.52 30.47 32.12 33.23
42.14 43.62 44.72 46.05 45.99 45.96 45.96 48.83 51.80 52.24 53.49 57.35 60.17 60.74 54.78 51.36 50.37 47.89 46.86 47.43 47.53 47.63 48.15 47.19 46.75 45.32 43.37 42.43 42.06 39.03 37.00 36.04 35.65 35.13 34.24 33.44 31.68 30.06 28.95 27.28 27.11 27.71 30.37
43.18 44.42 45.60 46.85 47.63 47.66 47.82 46.95 48.68 51.51 53.38 56.64 59.78 57.50 54.29 52.62 51.51 48.08 47.17 45.32 44.01 45.45 45.61 45.73 44.86 44.66 43.42 42.66 41.49 38.24 36.39 35.67 35.28 34.50 33.75 33.47 32.63 32.52 31.09 29.20 27.58 26.91 28.58
43.29 45.22 45.55 46.32 46.79 47.77 47.86 47.52 47.17 50.03 53.55 57.82 57.29 55.69 51.83 51.39 50.09 48.80 46.66 45.73 45.45 45.22 44.95 44.51 43.72 42.90 42.69 41.07 38.04 38.50 35.56 34.97 34.23 33.38 33.52 33.30 33.21 33.03 31.76 30.52 27.93 24.85 25.56
43.04 44.03 44.69 45.74 46.27 46.95 47.63 47.44 47.52 50.95 55.24 57.40 56.31 51.91 51.03 49.67 48.25 46.31 46.04 44.51 44.84 44.24 43.76 43.17 42.18 41.88 40.93 39.34 38.57 35.38 33.91 33.67 33.50 32.93 32.84 32.41 32.43 32.08 31.41 30.88 29.79 26.52 22.81
42.41 44.06 45.02 46.06 47.01 47.47 48.40 47.42 47.55 51.75 55.69 56.31 53.29 50.04 49.03 47.28 46.08 44.66 43.24 43.33 43.81 44.27 42.63 41.65 41.23 41.12 39.75 38.19 37.07 33.94 33.61 32.93 32.34 33.15 31.67 31.36 31.53 31.11 30.37 29.72 29.41 28.21 25.57
44.18 44.54 45.30 46.28 47.11 47.19 47.85 48.14 48.35 52.61 53.93 51.69 50.11 48.37 46.30 45.11 44.05 43.87 42.93 43.78 43.77 42.33 41.36 40.66 39.97 38.84 37.77 36.35 35.13 33.46 33.09 32.34 32.31 32.41 31.93 31.80 31.26 29.90 29.32 28.89 28.53 27.28 25.77
43.46 44.18 45.17 46.18 46.57 46.68 48.42 49.82 50.16 52.67 51.64 48.53 47.22 45.02 44.30 43.41 42.27 42.57 42.54 43.10 41.08 41.04 39.97 40.20 38.53 38.07 36.74 35.84 34.99 34.46 32.30 31.99 32.42 31.82 31.29 31.24 33.35 29.48 28.84 27.72 27.14 26.25 26.21
42.74 43.55 44.92 45.52 45.87 46.99 50.86 51.16 49.79 44.96 45.09 43.36 42.38 42.50 41.70 41.40 40.45 39.97 41.00 41.43 40.60 39.86 39.82 39.50 37.81 36.43 35.56 33.57 33.98 34.08 33.28 33.48 32.47 32.34 31.48 31.25 30.33 28.96 27.53 26.96 26.06 26.59 29.30
43.59 43.71 44.31 45.45 46.37 48.59 46.54 45.35 43.50 42.61 42.66 42.24 41.44 39.91 39.89 39.09 40.22 40.04 40.38 39.97 40.27 39.01 38.16 36.86 35.95 35.69 35.06 34.70 34.55 34.23 33.67 32.59 33.38 33.13 32.38 31.19 29.87 28.29 27.10 27.08 26.82 27.77 25.81
42.58 44.28 43.93 43.96 44.57 43.85 43.35 42.01 42.83 42.30 41.95 41.08 40.00 38.67 39.05 39.00 39.50 39.04 38.71 38.70 37.70 36.82 36.17 35.35 34.71 34.51 34.47 34.83 33.94 34.22 33.03 32.07 31.87 31.89 31.14 30.92 31.81 35.58 34.00 31.12 27.24 26.44 25.63
43.49 43.11 43.41 43.30 39.02 37.76 40.10 40.33 40.91 40.63 40.31 39.53 37.72 38.56 37.54 37.86 37.14 36.76 36.27 35.95 35.48 35.11 34.71 33.72 33.72 32.63 34.57 36.81 36.71 34.32 32.19 31.50 30.29 28.98 29.11 28.93 32.71 31.89 35.32 35.50 35.55 33.72 27.89
42.15 43.08 42.16 37.93 37.57 38.69 38.66 37.94 38.58 39.09 38.09 36.92 37.35 36.21 36.77 35.69 35.69 35.60 35.25 34.57 33.92 33.74 32.62 32.39 32.50 31.57 32.44 35.67 35.23 34.90 31.40 29.65 27.96 27.28 26.88 27.78 30.89 31.26 27.77 31.68 34.53 33.80 34.72
42.69 43.10 37.65 36.01 35.43 36.93 36.95 36.95 36.92 36.15 35.79 34.79 34.77 35.28 35.18 34.92 35.07 34.66 33.97 33.59 33.64 32.93 31.58 31.15 31.28 31.15 33.20 34.69 34.24 34.09 27.80 26.73 26.55 26.75 26.52 25.82 25.93 27.11 30.34 28.24 26.53 27.76 27.25
41.31 36.58 35.62 35.31 36.05 35.65 35.80 35.23 34.87 34.70 34.53 34.48 35.04 35.46 35.67 35.29 35.28 34.52 34.29 34.12 32.92 31.05 30.10 30.17 30.13 28.69 29.69 33.53 33.09 30.66 27.13 25.99 25.41 27.14 27.07 28.07 26.95 32.16 34.50 30.00 25.94 25.84 26.25
35.51 35.25 35.91 35.87 35.22 35.54 36.32 35.53 34.95 34.84 34.65 35.49 35.95 36.72 36.77 35.75 34.60 33.88 31.81 31.05 30.19 29.18 30.81 30.05 28.14 31.08 25.68 33.18 32.67 30.76 26.98 24.44 25.90 25.82 26.73 31.82 30.88 33.51 34.38 30.42 27.86 25.20 24.57
35.15 35.73 35.39 34.78 35.45 36.82 36.94 35.57 35.60 34.25 36.37 36.95 36.44 35.66 34.65 32.27 30.04 29.84 30.53 29.84 29.83 29.14 26.94 26.27 25.46 25.69 26.56 26.30 32.61 33.12 26.71 26.12 25.67 25.75 25.41 25.97 32.25 33.58 34.08 33.56 26.62 26.27 28.90
36.17 36.86 35.89 36.26 37.31 37.53 36.44 35.06 33.56 35.37 35.50 34.51 33.12 32.30 32.07 32.63 31.57 29.50 29.09 27.48 25.70 24.47 23.89 23.64 23.41 23.86 24.16 31.49 31.58 33.55 33.17 32.04 26.07 25.12 24.76 25.34 32.26 32.65 32.14 29.89 30.84 31.44 29.72
37.88 38.11 37.56 36.94 36.27 37.07 37.07 33.92 33.35 33.08 32.22 31.53 30.83 30.79 30.90 30.64 29.20 26.58 25.59 25.04 24.74 23.20 22.13 21.52 21.19 21.67 23.77 22.88 30.75 31.29 31.79 31.12 27.75 26.48 29.11 32.15 31.30 29.77 26.82 28.70 29.62 28.75 22.45
35.51 37.02 35.19 33.27 32.25 32.84 32.58 31.58 31.16 31.54 31.56 30.58 30.29 29.39 28.11 26.66 26.33 26.21 25.42 23.66 22.45 21.81 21.15 21.13 20.32 20.03 21.22 22.28 23.37 25.54 24.68 28.69 27.96 28.87 25.83 28.00 27.07 26.98 26.24 24.59 23.95 22.73 22.42
32.49 32.06 30.44 29.42 29.22 30.49 30.68 31.59 31.98 32.03 30.21 29.64 28.24 26.37 26.47 25.07 24.04 24.08 23.67 23.36 23.33 23.19 20.99 21.25 21.86 20.52 20.16 23.37 28.81 28.60 27.07 27.01 29.10 28.21 22.67 20.82 20.71 20.44 20.96 21.43 21.75 22.07 22.20
30.43 29.53 29.39 29.39 29.77 30.55 30.78 31.40 32.05 31.43 29.83 26.06 25.23 24.89 23.56 22.75 22.26 22.22 22.61 30.34 29.60 30.05 29.45 28.80 25.95 24.67 27.83 29.80 30.11 30.43 31.03 30.93 29.73 21.87 19.43 18.87 19.34 19.17 19.60 19.59 19.73 20.52 21.64

GFSMW_sfc_wetblb_042.txt.gz
Wetbulb
49.13 48.62 48.94 48.66 48.42 48.90 49.25 51.39 59.90 64.09 65.89 65.19 64.52 63.76 63.47 63.63 63.31 63.42 62.72 60.98 58.83 56.37 54.58 51.87 48.50 46.09 45.12 42.95 41.52 39.95 38.62 37.37 36.96 38.12 38.80 39.72 38.54 38.65 38.41 38.31 37.49 38.79 38.39
45.68 46.57 47.85 48.43 48.95 49.57 49.00 48.93 52.77 61.55 64.75 65.88 66.01 65.36 64.30 62.55 63.06 63.37 62.61 60.97 57.97 56.00 55.01 51.15 48.19 45.77 43.23 41.70 41.08 41.06 38.84 37.86 36.33 36.43 36.58 35.91 38.46 38.79 37.77 38.15 38.41 36.07 37.18
45.75 47.02 44.86 46.01 47.19 47.45 49.07 50.57 50.42 54.73 62.82 65.48 63.33 58.79 58.69 57.86 57.96 58.88 59.83 59.72 57.27 56.22 55.36 50.47 48.76 45.03 44.26 42.41 41.15 40.65 40.51 37.45 36.08 35.74 37.43 34.94 34.95 33.18 36.08 35.97 35.29 34.95 34.78
44.54 45.02 45.82 44.57 45.33 46.43 47.47 49.25 50.89 51.76 56.36 59.70 61.28 61.91 61.11 59.37 60.10 60.42 57.77 53.89 53.89 55.11 52.16 49.07 47.21 47.49 43.85 41.64 41.00 41.80 42.06 38.53 36.07 35.76 37.53 34.78 34.52 32.40 31.81 34.60 34.71 34.18 34.60
41.91 43.17 42.87 44.47 45.17 45.11 44.47 46.11 48.60 50.33 52.43 55.27 60.70 61.24 62.07 62.02 54.00 52.42 53.06 51.33 52.21 53.27 51.77 48.78 46.61 46.47 44.89 45.14 44.59 43.10 42.12 39.79 37.82 36.30 34.22 33.14 32.87 31.78 30.86 29.43 30.87 32.66 32.86
40.83 41.56 43.13 44.94 45.95 45.43 45.01 45.07 46.70 48.40 50.22 52.44 56.14 59.91 60.90 53.23 52.04 50.81 49.45 49.22 49.37 50.25 49.43 48.86 47.39 46.59 45.47 44.71 43.63 42.28 41.97 40.25 37.49 35.53 33.54 33.02 31.97 30.78 29.95 28.27 27.70 28.22 30.66
40.38 42.98 44.65 46.05 46.56 46.27 46.51 47.23 46.68 47.49 48.68 50.20 53.67 58.11 58.13 54.94 53.83 51.90 50.71 48.05 46.87 46.28 46.49 47.32 45.55 44.46 43.88 43.55 41.98 40.60 39.33 38.31 36.85 34.98 33.98 32.49 31.86 31.72 30.52 29.20 27.64 27.07 29.08
39.44 43.12 43.63 45.29 45.41 45.24 46.13 47.08 47.59 47.03 47.31 48.82 53.72 57.22 57.06 55.83 54.23 53.06 51.23 49.74 48.61 47.42 46.57 45.99 45.83 43.85 43.62 42.31 41.64 40.55 39.76 38.20 35.22 35.03 33.86 32.02 31.98 31.95 30.84 29.92 27.76 25.04 25.47
41.65 42.27 44.04 45.03 45.29 45.58 46.20 47.02 47.64 47.42 46.77 48.67 55.93 55.37 54.19 53.34 51.06 48.53 48.75 47.59 46.78 46.67 45.36 45.84 44.55 43.54 41.86 41.00 40.26 39.62 38.85 36.60 35.35 33.62 31.96 31.68 31.49 31.17 30.80 30.47 29.47 26.62 22.73
42.64 43.37 44.30 45.35 45.97 46.13 46.16 46.67 47.53 46.99 46.87 52.30 54.84 51.80 51.44 51.77 49.70 47.65 46.72 46.98 45.98 45.54 44.91 43.92 42.15 40.13 40.55 40.04 39.14 38.23 36.15 35.42 34.26 34.23 30.92 30.74 30.60 30.11 29.52 29.18 28.87 27.90 25.66
42.23 44.21 44.51 44.90 46.20 46.04 45.63 46.57 48.72 48.53 50.05 51.90 49.22 48.48 47.78 47.22 47.37 46.84 45.75 45.05 45.36 44.81 44.11 42.73 40.87 39.98 39.09 38.70 37.41 36.11 35.01 33.98 33.64 31.96 30.98 31.09 30.69 30.19 28.79 28.30 27.99 26.86 25.33
46.36 47.26 45.32 45.43 45.96 45.55 45.78 47.90 50.13 48.99 50.69 48.61 47.88 46.20 45.25 45.49 45.22 44.26 44.05 44.45 42.64 42.34 41.99 40.89 39.67 38.97 38.40 37.36 36.23 34.95 34.48 33.72 33.06 32.91 32.05 31.14 33.45 29.16 28.55 27.48 26.69 26.03 25.69
44.80 46.02 43.86 45.74 45.94 46.15 47.27 48.32 47.02 46.45 45.80 44.81 43.82 43.62 43.38 44.27 43.46 42.95 42.35 40.39 40.66 39.67 39.55 38.92 37.26 36.36 35.82 35.31 34.79 34.38 34.06 33.41 33.64 33.12 32.72 31.43 30.65 30.34 28.56 27.36 26.10 25.88 28.55
43.71 44.40 44.43 45.42 45.41 45.99 43.11 41.43 40.15 40.97 42.01 42.50 42.38 41.52 42.40 42.65 42.36 41.97 40.27 39.76 39.52 38.71 38.32 37.79 36.72 35.84 35.13 34.80 34.77 34.87 34.27 33.92 33.76 33.55 32.87 32.20 31.09 28.76 28.15 27.84 27.27 27.66 25.89
43.39 44.14 44.88 44.49 42.38 39.73 38.85 38.82 39.26 39.96 42.10 41.67 40.15 39.45 38.61 39.91 39.96 39.26 38.80 38.27 37.60 37.14 36.54 35.54 35.01 34.81 35.13 35.79 34.99 35.14 33.93 32.61 31.71 31.97 31.52 31.30 31.43 35.03 34.02 31.23 27.99 26.80 25.97
44.30 44.32 43.86 40.63 37.79 36.41 36.12 38.15 38.73 41.16 43.41 41.01 39.36 39.10 38.71 38.39 37.02 36.32 36.14 35.81 35.22 35.21 35.15 34.36 34.11 34.36 35.92 37.86 37.01 34.23 32.34 31.56 30.58 29.42 29.07 29.28 32.14 31.41 35.41 35.78 35.57 33.61 27.22
40.62 43.94 42.81 37.52 35.13 35.10 35.86 36.08 38.04 39.30 37.73 37.11 37.40 36.69 36.01 35.37 35.51 35.99 36.06 35.65 34.90 34.77 33.80 33.26 33.70 33.80 35.04 36.52 36.02 35.22 31.39 29.35 27.42 26.76 26.38 27.04 29.75 29.58 27.24 31.32 34.22 33.61 34.86
40.56 42.29 35.71 32.99 32.79 34.21 35.48 36.54 36.56 35.85 35.31 34.81 34.99 35.60 35.64 35.49 35.69 35.20 34.49 34.19 34.32 33.99 33.92 33.45 32.58 32.19 34.04 36.42 35.52 33.94 27.72 26.80 25.92 25.94 25.97 25.24 25.77 26.57 29.94 28.33 25.97 27.55 27.68
34.70 33.36 33.43 33.05 33.28 34.59 35.35 34.97 34.77 35.08 34.96 34.80 35.46 36.27 36.50 35.86 35.56 34.59 34.39 34.60 33.90 32.81 31.59 31.86 31.01 30.94 32.38 35.02 34.22 30.66 26.35 25.87 25.58 26.24 25.86 27.22 26.32 31.59 34.03 29.17 25.94 26.03 26.27
35.35 34.91 35.33 35.59 35.31 35.48 35.84 34.92 34.54 34.89 34.81 35.76 36.53 37.34 37.12 36.19 35.22 35.06 34.37 32.81 31.97 30.35 30.37 29.95 29.55 31.77 26.64 33.93 33.46 31.24 26.00 23.74 25.27 24.80 26.23 30.78 30.05 32.85 33.77 30.34 27.03 24.19 24.29
35.13 35.81 35.74 35.17 36.10 37.07 36.63 35.15 35.09 33.78 35.74 37.27 36.96 36.13 36.29 35.39 34.62 32.94 31.98 30.19 28.91 28.94 27.57 26.27 25.10 24.85 25.33 25.16 32.94 33.45 26.09 25.95 25.60 25.26 24.73 25.51 31.54 33.23 33.80 33.00 25.22 25.42 28.24
36.21 36.70 36.10 36.02 36.79 36.99 36.09 34.20 32.12 33.75 34.88 33.85 33.27 32.77 32.68 33.34 31.56 29.48 28.70 28.26 26.70 24.56 22.92 22.15 21.94 22.75 22.42 31.56 32.07 32.59 32.13 31.47 25.92 25.06 24.82 25.06 31.85 32.14 31.35 28.72 29.88 30.90 29.38
37.01 37.47 36.09 35.98 37.10 36.96 35.89 32.75 32.61 33.97 33.57 32.92 31.98 30.49 30.14 29.42 29.45 26.46 24.15 23.15 23.10 22.27 21.45 21.57 21.02 21.35 23.26 22.39 29.42 30.77 31.43 30.81 27.43 26.55 28.94 31.58 30.35 28.75 25.94 27.81 28.87 28.16 21.61
37.47 37.08 35.84 34.34 33.22 34.38 34.49 33.61 33.56 33.40 31.69 30.02 29.33 28.75 26.58 24.95 24.67 24.58 24.47 22.73 21.93 21.36 21.39 21.14 19.69 19.29 21.01 22.03 23.61 25.81 24.74 28.89 28.29 28.73 24.59 26.48 26.07 26.07 25.42 23.95 23.28 22.46 21.93
32.81 31.35 30.51 30.36 30.44 31.50 31.45 32.06 31.84 31.80 29.72 27.50 26.01 25.47 25.28 23.68 23.07 23.27 23.13 23.11 22.11 22.12 20.37 20.45 21.58 20.21 19.84 23.46 28.60 28.32 26.80 26.59 28.56 24.64 21.21 19.90 19.87 19.47 19.94 20.60 21.09 21.38 21.48
30.23 28.71 29.25 29.39 29.69 30.30 30.39 30.98 31.74 31.13 28.28 24.88 24.11 23.84 23.02 22.23 22.34 22.43 22.43 30.77 30.34 30.60 29.91 29.12 25.76 24.64 27.94 30.02 30.12 30.26 30.36 29.32 28.84 21.06 18.30 17.76 18.11 18.02 18.55 18.83 19.02 19.71 20.69

GFSMW_sfc_wetblb_045.txt.gz
Wetbulb
48.50 47.27 47.82 48.32 48.07 47.92 47.57 49.24 57.22 63.02 65.84 65.61 65.25 64.68 63.68 64.01 62.95 63.27 63.16 61.70 59.60 57.79 57.24 54.36 50.46 48.79 46.68 44.67 42.06 39.68 38.81 37.26 36.68 37.78 37.62 38.20 37.39 37.42 37.35 38.03 37.86 38.58 37.96
44.51 45.47 46.49 47.04 47.61 48.71 48.49 46.88 50.75 60.61 64.41 65.53 65.55 65.09 64.46 64.39 64.48 63.54 62.60 61.69 59.47 58.01 56.49 53.72 50.85 48.95 44.46 41.93 40.89 40.65 38.42 37.15 36.33 36.96 36.12 35.35 36.36 36.83 36.60 36.97 38.15 36.67 37.35
45.24 46.38 44.55 45.13 46.32 46.28 47.87 49.21 48.27 52.08 62.19 65.22 64.49 59.43 59.77 58.57 58.36 58.95 61.32 60.72 59.12 57.74 57.59 54.13 51.81 48.51 47.12 44.56 42.47 41.03 40.38 37.35 35.32 35.44 38.07 33.81 34.44 32.92 34.17 34.62 34.53 34.62 34.59
42.51 43.71 44.57 43.51 43.34 44.76 46.21 47.58 49.01 49.61 53.20 62.07 63.76 62.65 61.71 60.61 61.65 62.43 62.13 58.50 57.97 57.40 57.24 55.22 51.31 49.69 48.63 45.22 46.01 44.78 42.75 39.90 37.11 37.46 36.97 33.88 34.53 33.98 31.16 32.80 32.97 32.73 33.81
39.83 41.35 42.09 43.05 44.02 44.06 43.89 44.89 46.25 47.67 49.59 54.36 62.07 62.50 62.19 61.42 60.37 60.28 60.54 55.98 53.90 57.04 55.41 53.05 51.82 50.14 48.72 48.53 47.12 45.83 44.03 41.97 39.58 38.92 36.37 35.01 33.67 33.72 30.78 29.59 30.18 32.11 32.37
39.58 40.82 41.19 42.76 44.50 44.56 44.09 43.94 44.40 45.80 47.35 49.17 54.42 60.80 62.02 56.39 54.38 53.03 56.91 53.91 52.51 53.54 52.75 52.03 50.78 50.24 48.33 46.90 46.19 45.44 43.89 42.40 41.43 38.86 36.88 35.99 34.78 30.62 30.12 28.10 27.56 27.79 29.73
38.61 40.23 42.87 44.87 45.77 45.20 45.86 46.51 46.39 46.93 47.02 47.25 48.71 55.67 59.94 55.98 56.14 55.56 56.25 52.78 51.43 49.50 49.81 48.96 48.09 48.09 48.30 46.68 44.87 43.13 42.42 41.38 39.91 38.91 36.26 35.63 34.54 31.48 32.30 29.01 26.82 26.59 27.74
39.27 41.74 43.25 43.98 43.94 44.45 44.75 45.37 46.37 46.96 47.57 46.92 46.78 50.75 55.54 57.82 57.27 55.35 54.84 53.99 53.76 53.75 48.91 49.23 47.94 47.14 46.32 45.17 43.08 42.56 40.92 39.88 38.60 35.65 36.22 34.78 34.24 33.97 32.83 29.88 27.66 24.73 24.83
41.81 42.89 43.87 44.30 44.51 44.48 45.12 45.38 46.01 47.05 47.71 47.61 46.70 50.01 54.69 56.22 55.23 54.17 53.60 53.24 51.14 48.94 48.25 47.18 45.70 45.12 44.45 42.86 41.21 39.93 39.25 38.65 38.29 35.19 35.07 34.14 33.89 32.88 32.74 30.33 29.25 27.24 23.18
40.68 41.68 42.45 43.45 44.41 44.99 45.31 45.05 45.98 47.01 48.30 47.91 47.24 50.74 53.89 55.02 54.50 50.85 49.53 47.95 46.97 47.70 46.05 45.42 44.77 42.88 41.89 40.72 39.91 38.70 37.55 36.33 35.83 35.33 34.33 33.51 32.97 32.05 31.28 29.09 28.70 27.80 26.04
43.17 44.16 42.03 43.38 44.20 45.41 45.43 44.58 45.77 48.02 48.76 48.92 49.64 49.18 48.42 47.70 46.62 46.82 46.07 45.90 46.02 44.82 45.09 43.75 42.54 40.80 39.63 38.88 37.45 36.25 35.94 34.76 34.21 33.69 33.44 32.85 32.69 31.74 29.11 28.28 28.31 28.66 26.17
46.58 45.27 45.65 45.91 45.95 44.08 45.76 46.03 48.71 48.07 48.30 48.57 46.19 45.23 45.08 44.80 44.30 44.25 44.75 45.26 44.67 45.96 43.49 42.88 40.78 39.26 38.20 37.60 36.29 36.07 35.88 34.94 34.27 33.90 32.97 32.71 33.73 31.51 30.73 30.78 29.82 27.85 26.43
44.51 43.96 44.48 44.41 42.23 44.99 46.72 45.08 41.69 41.59 43.30 44.56 43.24 42.48 42.73 43.34 44.18 45.15 45.65 44.22 43.69 43.44 42.08 40.28 38.36 37.48 36.74 36.01 35.45 34.91 34.23 34.07 33.90 33.60 32.97 32.91 32.85 32.20 31.14 29.90 27.81 26.76 28.23
45.58 44.98 44.02 43.23 45.81 43.84 40.96 38.54 38.51 39.77 41.25 41.67 42.12 41.70 42.36 44.05 43.91 42.37 43.58 42.58 40.84 39.74 38.08 37.48 36.63 35.89 35.65 35.51 35.39 35.36 35.18 35.47 34.96 34.62 34.05 33.26 32.41 30.76 29.17 28.17 27.91 28.24 26.23
42.45 43.77 44.02 42.24 41.97 39.41 37.59 37.95 39.25 39.76 39.41 40.35 40.41 40.30 41.65 41.78 40.86 39.68 40.09 38.48 38.03 36.89 36.18 35.85 35.76 35.91 36.09 36.58 36.12 36.31 35.73 34.81 33.59 32.97 32.00 31.77 32.33 34.54 34.27 31.58 28.24 27.32 26.19
37.90 38.44 43.50 41.01 37.35 33.66 34.76 36.39 36.77 38.61 40.42 39.53 38.82 38.53 38.24 37.94 38.22 37.92 36.60 35.82 35.84 35.65 35.30 34.82 35.50 36.27 37.92 39.65 38.35 34.72 32.61 31.81 30.83 30.03 29.59 29.30 30.84 31.03 33.97 34.71 35.33 33.65 26.85
35.32 37.84 42.11 37.63 34.89 33.43 34.25 34.00 35.13 37.12 36.37 36.09 36.37 36.01 36.45 36.46 36.84 36.51 35.67 35.16 34.53 34.58 34.17 34.46 35.62 35.86 37.29 39.34 38.13 35.91 31.98 30.24 28.51 27.35 27.20 27.90 29.68 29.12 26.85 30.73 33.83 33.05 34.72
33.65 34.49 34.73 32.53 31.69 32.38 34.05 36.34 36.49 36.21 35.93 35.63 35.79 36.35 36.60 35.80 36.07 35.98 35.33 35.21 34.95 34.23 34.17 34.48 34.75 34.74 36.48 37.76 37.01 34.13 28.66 27.42 26.10 26.17 25.76 24.74 25.80 26.69 29.35 27.96 25.62 27.05 27.32
34.58 34.02 33.18 32.28 34.26 34.68 35.67 35.73 35.58 35.85 35.88 35.78 36.12 36.18 35.98 35.74 35.74 34.99 34.70 34.84 34.29 33.58 32.60 32.27 31.81 31.95 33.64 35.77 35.66 30.54 27.61 26.64 25.24 25.76 25.26 26.29 26.11 30.73 33.27 28.79 25.87 26.54 26.59
35.24 34.97 35.59 35.76 35.17 35.23 35.98 35.23 34.90 35.31 35.32 36.28 36.64 37.25 37.20 36.31 35.12 34.56 33.57 33.96 34.18 32.35 32.65 31.81 30.92 32.89 29.85 34.72 34.23 31.07 26.58 23.67 25.51 24.73 26.21 29.96 29.24 32.39 33.50 29.63 26.13 22.58 23.04
35.37 36.28 36.28 35.72 36.39 36.85 36.33 34.59 34.16 33.77 36.33 36.59 35.89 36.06 36.10 35.15 34.68 33.99 33.64 32.61 30.94 29.88 28.08 26.45 25.64 25.16 26.40 26.13 33.24 33.96 26.14 25.80 26.01 25.58 24.74 25.66 31.36 32.96 33.17 32.50 23.86 24.60 27.48
36.14 36.55 35.84 35.75 36.35 36.42 35.10 33.22 32.12 34.17 35.01 35.29 34.74 34.72 34.65 34.57 32.86 30.48 28.80 28.27 27.34 25.57 23.54 21.92 21.45 22.21 21.89 31.64 31.79 31.95 31.43 30.86 26.19 25.22 24.87 25.08 31.73 31.71 30.94 28.57 29.51 30.39 28.97
36.88 37.12 36.60 36.05 36.42 35.90 34.97 33.22 33.46 34.72 34.12 32.74 31.24 30.37 29.89 29.07 28.00 25.42 23.54 22.16 21.65 20.75 20.28 20.62 20.08 20.86 22.92 22.29 29.62 30.36 30.99 30.71 27.36 26.88 29.16 30.64 29.69 28.45 25.70 27.49 28.83 28.15 21.03
36.71 36.50 35.58 34.43 34.01 35.03 34.66 33.91 34.06 33.73 32.01 29.56 27.74 26.72 24.69 23.40 23.14 23.63 24.01 22.10 21.15 20.56 20.85 20.78 19.40 18.93 20.98 21.90 23.57 25.77 24.35 28.54 27.65 27.66 23.13 25.48 25.45 25.46 24.89 23.39 22.83 21.84 21.58
33.52 33.58 32.35 33.44 32.71 34.01 33.71 33.96 31.78 29.65 27.02 25.52 24.89 23.66 23.39 22.63 22.44 22.87 22.07 21.54 20.27 21.21 19.63 19.59 21.01 19.80 19.61 23.62 28.74 28.45 26.77 25.65 27.43 23.76 20.43 19.22 18.89 18.52 19.02 19.80 20.43 20.77 20.85
28.37 28.74 29.83 30.09 30.18 30.49 30.18 30.50 29.91 28.35 26.75 24.44 23.77 23.71 22.56 22.07 22.02 21.99 22.03 31.39 30.74 30.99 30.23 28.80 25.70 24.87 27.97 29.84 29.81 29.61 29.47 28.49 28.47 20.69 17.50 16.88 17.18 17.18 17.80 18.22 18.49 19.04 19.93

GFSMW_sfc_wetblb_048.txt.gz
Wetbulb
47.70 47.23 47.36 47.88 47.59 47.71 47.06 48.11 50.58 60.89 66.41 66.91 65.91 65.25 64.07 64.71 63.86 63.66 63.02 60.44 59.59 59.29 58.98 58.04 56.03 53.53 51.56 48.18 44.21 39.99 38.87 37.30 37.65 37.65 37.20 37.43 36.75 36.21 36.49 37.06 37.08 37.75 37.42
44.93 44.69 45.54 45.74 46.30 47.47 47.16 46.44 48.22 53.61 61.87 65.87 65.95 65.49 65.37 65.19 64.67 63.74 63.01 62.25 59.48 58.63 58.47 57.80 55.04 52.93 49.59 44.19 42.88 41.07 38.81 37.88 37.79 37.70 36.49 35.25 36.24 36.06 36.04 36.09 36.98 35.70 36.31
42.13 43.89 42.91 43.78 44.04 44.29 46.04 47.49 47.07 49.85 58.01 64.31 65.03 59.96 60.77 60.22 62.82 61.40 62.01 62.10 60.12 58.77 58.65 56.74 55.05 52.14 50.12 46.79 44.42 42.96 42.45 39.27 35.74 35.99 38.68 33.83 35.06 33.31 33.46 34.02 34.20 33.52 33.79
39.47 40.52 41.62 41.83 42.28 43.64 44.24 45.85 47.48 47.87 50.84 60.56 63.21 62.63 62.39 61.65 62.28 62.70 62.57 61.61 59.90 58.49 58.33 56.84 55.19 52.71 50.72 48.98 46.44 46.38 47.16 47.90 41.73 37.76 36.84 34.27 36.79 36.49 31.80 32.34 32.56 32.36 32.90
38.16 39.81 39.89 40.84 42.33 42.70 42.58 43.32 44.59 46.78 48.60 52.28 62.58 61.98 61.65 61.99 59.26 61.02 60.25 59.70 57.91 58.70 58.40 56.89 54.71 51.61 49.59 49.56 47.95 46.40 45.74 46.73 43.39 41.26 39.54 37.30 35.21 33.72 33.90 30.97 32.56 31.51 31.56
39.01 40.44 42.77 44.48 44.54 44.89 44.75 44.29 43.07 44.08 45.37 47.75 53.28 60.60 61.19 61.03 56.27 56.54 59.46 56.40 55.24 56.76 57.29 56.33 53.95 51.86 49.43 48.14 49.32 47.57 45.91 44.98 43.60 41.58 40.12 38.19 36.22 34.62 33.39 32.50 31.48 30.10 29.70
40.25 41.75 42.51 43.16 43.90 44.02 43.90 44.59 45.55 45.86 46.01 45.53 46.20 52.20 59.35 59.83 56.84 57.85 58.79 57.16 54.87 54.78 54.95 54.20 52.65 50.77 50.09 49.28 48.72 46.94 46.36 44.67 42.13 41.13 39.79 38.55 36.69 35.27 33.73 32.13 30.12 27.60 29.97
39.67 41.30 42.48 42.81 43.03 43.91 44.02 44.09 44.18 44.89 46.26 46.40 45.96 46.32 49.69 55.28 57.34 56.92 57.66 57.06 55.48 55.30 55.40 53.81 52.34 50.16 49.55 47.90 46.53 46.14 44.78 42.62 40.90 38.90 38.03 36.49 35.48 34.87 34.20 33.22 31.64 28.34 26.48
39.39 40.78 42.19 43.04 42.95 43.35 44.50 43.88 44.28 44.78 45.57 46.48 46.53 45.64 46.70 49.89 54.91 55.77 56.32 56.45 54.86 54.21 52.66 51.65 50.16 50.88 48.37 46.34 45.66 43.33 39.96 39.48 38.10 36.48 36.06 34.92 34.44 34.34 34.13 33.49 32.57 29.44 24.02
40.65 41.64 42.93 43.26 42.88 44.39 45.69 44.63 44.56 44.47 45.50 47.40 47.60 47.62 47.33 49.91 53.02 52.91 52.19 50.78 48.96 48.55 48.93 48.84 48.40 47.11 45.86 44.92 43.25 39.95 38.68 37.31 36.51 36.12 35.00 34.43 34.01 33.45 33.13 32.81 31.84 30.77 28.79
43.93 44.06 43.82 44.05 44.61 45.95 44.67 43.96 43.78 45.69 47.10 47.51 48.33 47.82 47.60 48.69 48.45 47.82 46.05 45.41 45.65 45.58 46.37 44.87 44.68 44.15 42.50 41.56 39.40 37.74 37.02 35.86 35.04 35.02 34.56 33.51 33.29 32.34 31.79 31.74 31.06 30.19 29.75
45.16 43.18 42.81 43.42 44.50 42.17 42.71 44.01 42.10 43.20 43.39 44.64 45.08 44.88 47.66 47.70 46.40 44.45 43.85 44.73 44.28 45.13 44.91 44.22 42.56 41.80 40.45 39.04 37.73 36.30 35.72 34.77 34.06 34.62 34.44 33.43 34.58 32.33 31.62 31.46 31.29 30.58 29.77
42.98 43.21 43.61 43.10 42.75 41.84 40.28 40.02 39.94 40.37 42.04 43.22 43.09 43.29 45.10 45.76 45.96 45.72 45.72 45.08 45.12 44.13 43.15 41.64 39.83 38.49 38.45 37.64 36.96 36.61 35.81 35.04 34.42 34.06 33.61 33.24 33.91 33.88 33.54 32.39 30.84 30.10 30.08
41.59 41.63 39.87 41.73 40.81 39.86 39.51 38.84 39.97 40.21 40.76 41.26 41.75 43.01 44.00 44.47 43.80 43.81 42.96 42.43 41.92 40.61 39.63 39.09 37.84 37.29 36.35 35.88 35.54 35.33 35.19 35.47 35.62 35.60 34.92 34.21 33.43 32.82 32.07 31.52 30.33 29.60 27.92
36.91 36.88 35.99 40.84 39.17 37.18 37.44 36.64 37.64 38.15 38.16 37.77 38.45 39.81 41.05 40.60 40.77 40.25 39.48 38.59 37.88 37.70 37.17 36.71 36.58 36.63 36.67 36.94 36.71 37.31 36.38 35.40 34.12 33.80 33.40 33.14 33.02 34.22 33.84 32.46 30.02 28.66 27.06
35.33 35.63 36.42 38.89 36.30 34.10 33.37 34.06 34.01 35.68 37.09 37.24 36.41 37.28 37.45 37.57 37.24 37.25 36.91 36.86 37.05 37.74 37.31 37.57 37.03 37.32 38.84 40.74 39.88 35.78 33.50 33.30 32.85 31.73 30.99 30.38 31.30 32.11 32.79 33.67 34.62 32.72 26.99
34.41 33.64 33.90 33.96 34.34 32.71 33.64 33.39 35.58 36.85 36.59 36.33 36.55 36.82 36.61 36.01 35.93 35.79 35.53 35.29 36.51 36.30 36.52 36.86 37.59 37.72 38.67 40.41 39.55 37.52 33.38 31.69 30.50 28.89 28.11 28.85 29.90 29.14 27.60 30.57 33.29 32.74 34.41
33.88 32.52 32.97 32.71 30.65 32.61 35.90 36.78 37.07 36.87 36.60 36.30 36.42 36.77 36.76 36.21 36.10 35.53 35.05 34.99 35.38 35.28 35.29 35.46 36.03 36.69 38.25 39.34 36.90 33.89 29.41 28.23 27.60 27.48 26.83 26.40 25.85 26.56 28.84 27.62 26.12 27.23 27.11
34.87 34.72 34.97 32.81 33.84 35.23 36.12 36.04 35.87 36.27 36.39 35.97 36.12 36.57 36.53 35.64 34.57 33.05 32.72 32.24 34.00 33.44 33.05 33.23 33.24 34.08 35.21 37.08 34.43 30.16 28.55 27.39 26.80 27.03 25.75 26.00 25.71 30.02 32.70 28.55 25.74 26.60 26.13
35.41 35.25 35.91 35.94 35.48 35.77 36.79 36.25 36.02 36.09 35.78 36.26 36.50 36.93 36.51 35.52 34.55 34.43 34.08 34.24 33.86 32.63 33.11 32.37 32.49 35.01 32.61 35.89 34.39 30.05 26.98 23.38 25.63 24.78 26.10 29.69 28.70 32.18 33.32 30.17 27.09 22.28 22.29
36.13 36.62 36.40 35.54 35.72 36.43 35.90 34.43 34.38 34.69 35.89 36.48 36.26 35.76 35.47 34.44 33.52 32.44 32.70 31.99 31.50 30.54 27.85 26.19 26.05 26.71 27.85 29.35 35.07 32.68 26.32 26.11 26.07 25.76 24.78 25.78 31.14 32.64 32.88 32.15 23.51 24.11 26.54
35.54 36.60 35.78 35.43 36.19 35.98 35.20 33.87 32.86 34.86 35.81 35.42 34.56 34.50 34.86 35.54 33.86 31.17 29.94 28.63 27.18 24.78 22.21 21.09 21.80 22.36 22.15 31.70 32.17 32.21 31.51 30.45 26.33 25.39 24.77 25.19 31.49 30.97 30.28 27.78 29.08 30.06 27.64
36.46 37.21 36.32 35.62 35.74 35.62 35.48 33.84 33.96 35.14 34.40 33.21 31.30 31.29 30.83 29.40 27.68 25.25 23.62 21.72 21.06 20.47 20.24 20.47 20.05 20.53 22.81 22.29 30.58 30.79 31.00 30.58 27.37 27.21 29.04 29.19 28.55 27.41 24.63 26.84 28.04 26.62 20.49
36.11 36.37 35.65 34.91 34.50 35.02 34.73 34.29 34.33 33.74 31.09 27.75 25.71 24.83 23.47 22.25 22.02 22.70 23.19 21.22 20.31 19.86 20.21 20.23 19.12 18.98 21.03 22.09 23.44 25.58 24.10 28.33 27.50 26.23 22.22 24.86 24.38 24.20 23.72 22.33 21.95 21.33 21.10
34.50 35.22 35.03 34.22 33.92 34.48 33.85 32.53 31.74 29.02 25.62 24.83 23.85 22.66 22.30 21.72 21.76 21.98 20.88 20.44 18.86 20.66 19.12 19.11 20.60 19.44 19.59 23.85 28.74 28.21 26.62 25.23 26.65 23.33 19.61 18.10 17.70 17.55 18.30 19.17 19.80 20.17 20.20
31.25 31.38 31.83 32.19 32.13 32.20 31.18 28.54 27.95 26.83 25.09 23.41 23.04 22.82 22.18 21.64 21.92 22.11 22.57 31.79 30.97 31.20 30.07 28.57 25.72 24.77 28.33 29.66 29.56 29.13 28.83 27.64 27.70 19.48 16.41 15.56 15.93 16.28 17.11 17.65 17.93 18.38 19.20

GFSMW_sfc_wetblb_051.txt.gz
Wetbulb
48.21 49.76 50.59 51.15 51.37 51.89 51.25 51.52 52.84 60.59 67.37 66.36 65.85 65.76 64.43 64.70 64.91 65.63 65.24 64.00 63.48 63.47 63.54 63.46 63.16 62.42 61.36 59.34 55.34 50.50 47.26 45.50 45.84 45.19 44.95 45.22 45.00 44.83 45.60 47.25 47.27 46.43 45.84
46.17 46.38 47.16 48.38 49.12 50.33 50.99 50.93 51.14 53.38 60.91 66.62 66.67 66.41 65.96 65.54 65.81 65.37 65.02 64.53 62.86 62.71 62.98 62.75 62.10 61.14 60.07 58.08 53.91 49.66 46.16 45.60 45.05 45.83 44.76 43.90 44.02 43.82 43.77 44.38 44.91 45.10 44.75
42.03 43.69 44.29 44.95 46.65 47.12 48.33 49.76 50.70 51.66 54.69 63.36 66.59 65.79 65.05 64.22 64.96 64.44 64.10 64.27 63.36 62.15 62.41 62.21 61.80 60.17 59.26 56.60 53.44 49.79 48.89 45.18 43.37 43.98 47.17 41.90 44.44 42.58 41.91 42.15 43.14 43.02 43.24
41.30 43.42 45.67 46.34 45.74 46.64 47.05 47.31 48.42 49.99 51.77 57.32 63.96 64.48 62.58 62.11 63.58 64.39 64.62 63.96 63.95 61.73 61.49 61.19 60.90 59.52 58.51 56.93 53.59 50.00 50.15 48.67 45.20 42.61 40.02 40.06 42.70 41.89 40.31 39.38 39.78 40.62 40.99
42.48 44.49 45.75 47.16 48.28 48.71 48.57 47.96 47.04 47.39 49.62 51.79 59.74 63.92 63.25 63.51 64.60 64.50 64.19 63.92 63.03 62.45 60.99 61.19 59.70 58.37 57.59 57.01 53.36 50.35 50.00 50.62 48.09 46.19 39.28 39.32 39.19 38.11 39.72 36.99 36.87 37.62 37.66
43.54 45.21 46.17 47.03 48.08 48.78 48.99 48.85 49.07 49.24 48.64 49.30 51.65 60.93 63.10 63.16 62.46 62.33 62.75 63.12 62.03 61.35 60.70 60.51 59.86 58.80 56.97 55.63 52.85 52.25 51.03 49.97 50.16 48.11 43.29 42.83 40.90 39.04 37.40 37.16 35.71 37.14 35.23
43.57 44.98 45.65 46.38 48.05 47.91 47.92 48.58 48.58 48.80 49.57 50.03 49.56 50.61 57.45 62.54 61.91 62.17 61.60 61.97 59.14 58.72 59.45 59.86 59.04 58.26 56.43 55.21 54.19 51.97 51.22 50.25 48.70 46.09 42.75 42.25 40.94 39.75 38.13 37.52 35.67 34.65 34.89
42.74 44.43 45.43 46.42 47.31 47.50 47.37 48.18 48.56 48.83 48.97 49.21 50.04 50.34 50.19 52.48 59.30 61.34 61.51 61.41 61.01 59.91 60.27 59.08 59.33 58.13 56.14 54.45 53.66 52.25 51.36 50.14 48.34 44.49 41.01 39.36 37.94 37.84 37.20 36.02 34.93 31.37 31.27
43.52 44.87 45.96 46.77 46.91 47.30 47.79 48.22 47.82 47.98 48.47 48.57 50.08 50.94 50.73 50.43 51.50 55.42 59.13 60.47 60.64 59.23 58.43 57.97 56.98 56.12 54.11 53.06 52.25 51.51 49.47 47.79 44.26 40.94 39.16 38.10 36.60 37.15 35.79 36.45 35.56 36.72 30.53
45.50 46.46 46.51 46.37 46.89 47.14 47.29 47.45 46.77 46.59 47.81 49.70 50.26 50.88 50.93 51.04 51.61 52.67 54.60 57.12 57.75 56.58 55.68 54.86 53.23 51.40 51.00 50.20 50.15 47.86 45.29 42.61 40.41 38.88 36.79 36.45 35.84 35.56 35.91 34.60 34.38 33.92 32.45
45.86 45.60 45.83 46.01 46.50 45.68 44.82 44.86 45.12 45.85 46.44 47.40 48.51 48.75 48.92 50.02 50.60 51.74 52.75 53.08 52.20 52.27 52.36 51.88 50.64 48.92 47.81 47.62 45.54 42.93 42.12 38.19 37.43 36.81 35.82 34.61 34.89 33.65 33.25 33.84 33.84 32.55 32.42
45.44 44.90 44.79 44.69 45.00 43.23 42.11 41.94 42.41 42.97 43.93 45.28 46.47 46.96 48.94 48.74 49.12 48.62 48.52 48.48 48.58 49.43 48.96 48.34 47.34 45.58 44.07 42.33 40.54 39.11 38.47 36.52 35.55 34.92 34.33 33.80 34.81 33.32 33.60 33.39 32.70 32.61 31.82
43.41 41.64 41.15 40.30 42.61 40.68 40.88 41.39 41.81 41.37 42.60 43.57 44.80 45.73 46.59 47.10 47.21 47.19 46.96 47.04 46.70 46.56 46.27 45.10 43.24 40.99 39.91 39.15 38.23 37.29 36.54 36.38 36.16 35.48 34.55 33.70 33.83 34.02 34.31 34.06 33.23 32.69 32.83
39.58 38.37 37.86 37.93 40.82 39.28 39.35 39.54 39.75 40.24 40.28 40.47 41.06 42.56 43.13 43.31 43.44 42.89 43.10 43.19 43.42 41.84 41.57 40.39 39.01 38.32 37.96 37.47 36.80 36.31 36.47 35.84 35.96 36.18 35.88 35.51 35.32 34.38 33.22 33.62 32.82 32.33 31.29
37.40 36.19 36.45 38.46 38.06 37.37 37.13 36.77 37.13 38.11 38.86 38.24 38.36 38.44 38.78 39.27 39.56 38.45 38.56 38.55 38.12 37.79 37.60 37.01 36.98 37.16 37.21 37.40 36.98 36.79 36.48 35.83 34.91 34.87 34.48 33.66 33.69 34.43 33.68 32.80 32.12 31.37 30.41
36.06 35.74 34.69 35.14 35.42 35.63 35.33 35.51 36.27 37.37 38.50 37.74 37.19 37.33 37.33 37.35 37.30 37.39 37.75 37.72 37.78 37.83 37.94 38.34 38.70 38.47 39.32 40.84 40.12 37.33 35.35 34.73 33.47 32.01 31.98 32.29 33.46 34.06 35.29 35.23 35.20 34.47 31.36
34.75 33.70 33.43 33.42 34.38 34.78 35.67 36.20 37.13 38.14 37.32 37.23 37.19 36.97 36.68 35.89 36.03 36.28 36.59 36.50 37.12 38.24 38.13 38.82 39.32 38.95 39.66 41.23 40.20 37.88 34.04 32.53 31.65 30.84 30.03 30.68 31.89 31.26 30.12 31.20 32.67 33.05 33.84
34.44 33.97 33.35 34.11 34.18 35.62 37.28 37.62 37.83 37.68 37.29 36.89 36.97 37.25 36.88 36.05 35.62 35.35 35.30 35.81 36.15 36.21 36.41 36.70 37.33 37.52 37.86 38.21 36.75 34.08 30.31 29.55 29.59 29.66 29.53 29.72 29.50 29.58 31.12 30.84 31.07 31.20 31.17
35.02 35.10 35.73 35.11 35.80 36.17 36.69 36.70 36.92 36.78 36.68 36.01 36.06 36.53 35.95 35.15 34.75 33.14 33.00 33.19 33.83 33.33 32.71 33.06 33.21 34.08 33.75 35.37 34.05 31.14 29.99 29.13 28.52 29.08 28.91 29.88 29.52 30.63 32.58 31.72 29.97 30.40 29.95
35.95 36.07 36.49 36.57 36.25 36.33 37.37 36.67 36.04 35.98 35.61 36.12 36.42 36.77 36.72 36.08 35.26 34.51 33.01 32.57 33.35 32.17 32.46 32.19 33.80 35.93 34.11 34.87 33.70 29.89 28.67 27.64 28.37 28.92 28.78 29.92 30.74 32.27 33.23 32.13 29.71 26.27 27.07
36.18 36.82 36.40 35.38 35.68 36.44 36.55 35.27 35.37 34.88 36.23 36.61 36.34 35.93 35.14 34.39 34.54 32.78 32.85 32.06 31.10 30.53 29.28 28.81 29.17 29.33 31.05 33.68 34.69 32.67 29.46 28.95 28.52 28.01 28.03 28.96 31.54 32.20 32.11 31.54 27.31 27.05 29.81
36.21 36.62 35.90 35.51 36.09 36.13 34.59 34.38 33.52 35.53 36.03 35.63 34.55 34.75 34.90 35.00 33.52 32.10 30.77 29.39 27.59 25.92 25.06 25.22 25.23 25.69 27.07 32.77 33.14 33.05 32.03 31.34 28.82 27.91 28.64 29.04 30.46 29.73 29.08 28.13 28.54 29.58 28.06
36.69 36.91 35.75 35.52 35.53 35.38 35.40 34.27 34.20 35.20 33.90 33.29 32.89 31.79 30.52 28.61 27.79 26.93 25.83 25.09 25.31 24.66 23.97 24.10 23.73 24.04 25.45 27.23 31.49 31.75 31.33 30.84 29.06 29.75 29.51 28.33 27.22 26.46 25.02 26.16 27.21 26.18 24.35
35.60 36.67 36.04 35.20 34.43 35.12 34.99 34.54 34.64 33.07 30.87 28.07 26.55 26.04 25.62 24.98 25.29 26.07 26.05 24.87 24.35 24.04 24.07 23.84 22.97 23.55 24.97 26.45 27.42 28.32 27.93 29.26 28.14 26.36 25.48 25.27 24.52 23.98 24.26 23.75 23.91 23.98 24.06
36.07 36.11 35.96 35.01 34.21 34.74 33.35 33.34 32.03 29.49 27.11 26.33 25.88 25.17 24.93 24.51 24.64 24.64 24.62 24.34 23.56 24.69 23.53 23.27 23.96 23.43 24.29 26.95 29.97 29.27 28.33 27.99 27.86 24.80 22.59 21.19 20.63 20.77 21.35 22.17 22.50 22.79 22.70
34.15 34.12 34.87 35.16 34.62 34.66 31.83 30.25 29.37 28.22 26.70 25.17 24.96 25.26 25.03 25.33 25.98 26.55 26.74 32.19 31.50 31.16 30.07 28.63 26.85 27.06 28.86 29.55 29.17 28.60 28.37 27.12 26.75 21.46 19.14 18.93 19.30 19.37 19.86 20.16 20.69 21.31 21.45

GFSMW_sfc_wetblb_054.txt.gz
Wetbulb
53.54 53.29 53.85 54.36 54.86 55.96 57.09 57.62 57.98 59.69 63.77 67.25 67.11 66.96 65.83 66.52 66.60 67.55 69.38 68.78 67.92 67.45 66.70 66.21 65.83 65.88 65.33 64.98 64.26 61.67 57.88 54.77 55.41 51.33 50.53 50.00 49.98 49.73 50.03 51.93 52.05 51.54 51.32
49.82 49.77 50.58 50.94 51.75 53.05 54.80 56.23 57.07 57.78 59.26 63.27 66.81 67.95 67.52 67.70 67.93 67.49 66.90 66.96 67.86 67.07 66.85 66.07 65.76 65.53 64.98 64.70 63.98 61.74 57.12 56.52 53.43 52.90 52.98 49.57 48.35 48.01 48.85 49.60 50.16 50.41 50.18
48.53 50.90 52.08 52.16 52.21 52.31 52.64 53.12 54.42 56.10 56.91 58.43 62.52 66.22 67.51 68.32 66.99 66.71 65.98 66.12 66.35 67.67 67.20 66.20 66.22 65.60 65.22 64.36 64.41 62.05 57.36 54.82 52.27 53.79 55.20 50.20 50.50 47.80 47.77 47.11 47.57 48.95 48.79
50.62 51.30 51.99 52.58 53.38 53.83 54.72 53.89 52.96 53.33 54.34 56.09 57.58 61.66 63.72 63.58 64.95 65.54 66.45 66.72 65.93 64.92 65.23 65.42 65.75 65.51 65.00 63.66 63.67 61.86 59.26 58.40 51.61 50.40 49.42 48.59 50.32 47.27 43.67 42.82 45.50 46.26 45.44
50.57 51.25 52.05 52.71 54.23 54.57 54.50 54.97 54.61 53.99 53.11 53.91 55.19 57.62 61.77 63.43 64.16 65.06 65.51 66.17 66.31 65.32 63.65 63.44 64.45 64.05 64.16 63.47 62.52 60.53 58.52 58.79 57.04 51.75 48.24 46.92 46.64 44.96 46.82 44.14 40.58 40.87 43.01
51.25 52.39 53.22 53.67 53.88 54.90 54.86 55.09 55.11 54.95 54.81 54.03 53.97 55.02 57.42 61.35 62.82 64.05 64.45 65.53 65.99 64.32 63.39 62.84 62.92 63.14 63.14 62.19 62.22 60.55 58.54 58.09 58.20 53.94 50.19 48.57 48.06 46.60 45.71 46.19 42.91 41.52 38.74
50.44 51.08 51.40 52.08 52.69 52.99 53.69 53.92 54.00 53.96 55.03 54.60 54.37 54.37 54.51 57.31 61.25 62.56 63.21 63.73 63.66 62.93 61.85 61.95 61.86 62.15 62.42 62.37 61.86 60.03 57.60 57.27 56.45 54.40 51.59 50.13 48.64 45.52 44.84 47.05 41.58 38.67 37.77
50.21 50.82 51.08 51.47 51.60 51.90 52.33 52.63 52.90 52.75 53.84 54.35 54.43 54.93 55.32 55.32 55.79 58.18 61.14 62.33 62.81 63.93 63.53 61.59 61.51 61.62 61.67 60.89 60.31 59.13 57.75 56.58 53.99 53.46 52.50 48.41 44.39 42.16 40.71 41.46 38.58 36.69 34.12
50.22 50.20 50.67 50.78 50.80 51.37 51.24 51.23 51.31 51.77 52.78 53.15 54.43 55.24 55.89 55.93 55.85 56.25 56.86 58.33 60.55 61.65 62.94 62.42 60.45 60.60 60.30 59.11 57.97 56.23 55.25 54.93 54.80 54.35 51.66 46.45 41.83 40.07 40.02 40.22 39.72 39.44 31.91
50.22 49.67 49.92 49.92 50.76 50.89 50.24 50.71 50.97 51.13 51.97 52.73 53.88 54.01 54.69 55.14 55.56 56.32 56.57 57.12 57.93 59.25 60.60 59.84 59.44 59.07 57.56 55.75 54.94 53.70 53.25 51.45 50.25 45.77 41.28 38.55 37.74 37.78 37.43 37.84 35.71 37.61 35.03
49.24 48.55 48.70 48.69 50.12 50.16 49.02 48.82 48.90 49.14 49.54 50.40 51.62 52.77 53.37 53.55 53.56 52.60 53.19 54.33 55.71 56.87 56.99 56.95 56.42 54.56 53.45 52.62 51.60 49.52 48.09 46.08 43.51 42.44 40.13 39.33 37.14 35.30 35.15 35.73 36.62 34.91 35.48
47.92 46.58 46.67 46.92 48.55 47.65 47.50 47.49 47.45 47.38 47.80 48.54 49.75 50.63 51.57 52.27 52.82 52.72 52.50 52.19 52.80 53.25 53.47 53.94 52.91 51.40 50.49 49.67 48.09 45.13 44.70 40.35 39.78 37.64 38.49 34.60 35.63 34.89 35.24 35.90 34.87 34.24 34.54
45.65 45.04 45.26 45.18 46.53 45.54 45.57 45.49 45.65 45.56 45.76 46.24 47.18 47.82 48.03 48.77 47.86 47.24 48.64 49.20 48.59 48.80 48.85 48.72 48.21 47.12 46.02 44.36 42.74 40.98 38.72 37.54 36.50 36.45 35.67 34.76 34.99 34.63 34.72 34.90 34.54 33.61 33.79
42.45 42.48 43.87 44.56 44.48 43.56 43.34 43.08 43.59 44.14 44.09 44.16 44.24 43.85 43.98 44.40 43.48 42.05 41.51 41.11 41.46 41.87 42.39 42.09 41.48 40.65 39.76 38.94 37.99 37.02 36.40 36.37 36.34 36.81 36.10 36.24 36.14 35.33 34.58 33.96 33.48 34.27 33.68
41.29 40.79 40.94 42.15 42.37 41.52 42.08 42.28 42.75 43.01 43.23 42.67 42.05 41.00 40.74 40.21 39.52 39.09 39.13 39.12 39.12 38.95 39.04 38.50 38.44 38.25 38.20 38.04 37.48 37.26 36.95 36.86 36.21 35.82 35.75 35.43 36.19 36.90 35.61 34.63 33.27 32.94 32.52
39.86 39.20 38.77 39.74 40.40 40.97 41.09 41.56 41.67 41.63 42.03 41.48 40.39 39.75 39.04 38.21 37.88 38.27 38.28 38.75 38.76 39.04 39.22 38.90 38.92 38.77 39.26 40.67 40.02 37.65 35.70 35.05 34.40 32.38 32.18 33.03 34.73 35.70 36.67 36.74 36.05 35.62 33.42
38.62 38.00 37.51 38.41 39.15 39.97 40.91 41.00 40.57 40.21 40.61 40.29 40.27 39.58 38.63 36.87 36.53 37.08 37.41 37.81 38.48 39.28 39.01 39.40 39.91 40.18 40.21 41.25 40.31 38.15 34.13 32.65 31.87 31.35 31.24 32.11 33.52 32.69 31.90 32.02 32.87 33.32 33.61
38.31 38.34 38.70 38.50 38.97 40.48 40.82 40.49 39.22 39.76 39.87 38.56 38.46 38.19 36.45 35.56 35.63 35.32 34.88 34.79 35.96 35.88 35.29 34.30 34.92 34.66 36.70 38.94 38.63 36.19 31.82 31.05 30.99 30.62 31.93 31.70 31.46 31.39 31.66 31.74 31.74 32.31 33.23
39.17 39.16 38.53 37.67 38.69 39.11 39.00 39.20 38.01 37.95 38.07 37.40 36.92 36.88 36.47 35.80 35.66 34.52 34.08 33.10 33.43 33.02 32.62 33.15 32.88 32.96 33.77 35.62 34.20 32.39 31.80 31.11 31.18 31.31 31.26 30.87 29.96 30.34 32.55 32.62 31.81 31.85 32.49
39.36 39.53 38.93 37.69 37.82 38.08 39.63 37.93 36.74 36.65 36.11 36.79 36.60 37.01 36.99 35.94 35.01 34.75 34.40 33.50 34.47 32.67 33.23 32.59 34.41 34.72 33.52 34.71 33.30 32.59 31.64 30.24 30.01 30.26 30.03 30.38 31.57 32.27 33.14 32.89 31.42 29.07 29.76
39.07 39.37 39.00 38.21 37.31 38.95 38.91 36.84 36.36 35.56 36.75 37.24 36.60 36.20 36.22 35.47 35.10 34.45 34.40 34.33 33.14 33.14 33.00 31.87 33.00 34.46 35.61 34.50 34.06 33.00 31.92 31.04 30.42 30.08 30.40 31.19 31.58 32.07 31.72 31.32 30.68 28.77 30.38
38.43 38.77 38.46 37.53 37.54 38.44 37.18 35.22 35.08 36.53 36.65 36.13 35.95 35.70 35.74 35.58 35.67 34.07 32.07 31.99 31.55 30.96 30.53 30.27 30.25 31.28 33.00 33.55 33.55 33.24 32.55 31.55 30.21 29.30 30.35 30.93 30.28 29.48 28.75 28.50 28.34 29.75 29.64
38.84 39.17 38.37 36.72 36.91 36.90 37.27 35.42 35.61 35.75 35.23 34.76 33.87 32.98 33.33 33.17 32.89 32.13 31.51 31.44 31.83 31.12 30.34 30.07 29.30 28.86 29.85 31.31 31.65 31.98 31.69 31.56 30.21 30.71 29.70 28.33 27.45 26.90 26.75 26.46 27.64 27.86 27.72
37.78 39.19 38.56 37.19 36.44 37.41 36.93 36.35 35.53 34.94 34.08 34.31 33.03 32.25 31.61 31.17 31.73 32.08 31.86 31.74 31.33 30.73 30.03 28.75 28.22 28.64 29.57 30.59 31.46 30.88 31.24 29.67 29.62 28.21 28.87 26.14 25.12 24.50 25.40 25.93 26.68 27.24 27.34
37.25 38.92 39.27 38.25 36.19 36.44 36.29 35.74 33.88 35.71 33.80 32.35 31.53 31.23 31.27 31.14 30.44 30.60 30.60 30.13 29.55 30.08 29.11 28.56 28.52 28.21 28.58 29.92 30.63 29.93 29.74 29.79 28.95 27.59 26.18 25.05 24.75 24.80 25.46 25.92 26.19 26.50 26.17
37.02 37.54 39.20 38.83 37.85 38.28 37.64 36.31 35.25 33.83 32.16 30.78 30.57 30.88 31.37 31.75 32.21 32.09 31.51 32.38 31.76 31.17 30.40 28.91 29.24 29.78 29.57 29.53 29.05 28.65 28.52 27.53 27.38 24.96 23.08 23.16 23.53 23.34 24.00 24.07 24.83 25.69 25.37

GFSMW_sfc_wetblb_057.txt.gz
Wetbulb
53.97 55.30 55.53 56.20 56.42 57.39 57.93 58.51 58.65 59.67 60.61 63.50 66.47 68.28 67.01 67.12 67.11 69.37 70.43 69.89 69.46 69.01 68.32 67.48 66.76 66.47 65.72 65.77 64.52 64.35 62.09 59.64 59.84 55.66 53.28 53.51 53.15 51.95 52.41 53.73 53.38 53.23 52.79
52.40 52.92 52.64 53.02 53.09 54.24 55.59 56.90 57.99 58.79 59.42 60.72 63.30 68.21 67.45 66.90 67.08 67.29 68.16 69.36 69.72 69.32 68.44 67.55 66.90 66.59 65.58 65.43 64.68 64.22 61.76 59.48 58.63 53.63 53.27 49.93 49.82 50.05 50.56 50.83 51.24 51.58 51.28
49.68 51.75 52.89 53.33 53.72 54.19 54.72 54.22 55.18 56.77 58.55 59.75 60.63 63.01 67.37 67.94 67.85 68.07 67.81 67.05 67.09 68.61 68.57 67.83 67.24 66.76 66.00 64.83 65.00 63.94 62.11 58.03 56.58 55.73 55.34 52.05 50.21 47.91 49.26 48.61 49.26 49.81 49.75
51.52 52.15 52.83 53.50 54.11 54.55 56.00 55.75 55.31 54.60 55.45 57.09 57.33 57.84 60.13 62.67 65.39 66.02 67.12 67.26 67.22 65.34 65.90 66.60 66.54 66.09 65.91 65.14 64.91 64.51 62.65 59.63 55.13 53.45 54.75 56.04 52.42 49.06 42.95 46.59 47.44 48.32 48.00
51.70 52.13 52.89 53.70 54.98 55.82 55.93 56.58 56.33 55.49 55.83 55.00 55.49 56.20 57.13 60.49 64.00 64.95 64.78 65.17 66.50 66.73 65.86 64.99 64.89 64.82 65.03 64.16 64.90 64.18 63.11 59.97 57.86 52.71 52.80 51.58 49.48 49.48 49.65 42.76 42.02 45.11 46.22
52.03 53.00 54.09 54.66 54.72 55.85 55.96 56.22 55.77 55.93 56.50 55.98 55.52 54.86 55.55 56.46 59.23 62.12 62.78 63.86 65.05 66.12 66.27 64.36 63.60 63.53 63.27 63.83 63.25 63.52 62.95 60.46 59.33 55.77 54.46 51.11 49.41 46.81 46.47 47.95 45.01 42.44 42.80
51.40 51.96 52.40 52.82 53.40 53.57 54.23 54.57 54.68 54.77 55.72 56.11 55.80 55.39 55.40 55.50 56.30 58.46 61.04 62.19 63.05 64.28 64.97 63.81 62.89 62.31 62.49 62.72 62.42 61.69 61.34 60.26 58.52 58.34 54.60 53.93 52.62 53.28 49.98 48.56 42.44 41.94 38.22
51.73 51.81 52.02 52.34 52.47 52.87 53.08 53.14 53.08 53.12 54.19 54.87 55.26 55.84 56.09 55.80 55.86 56.22 57.39 59.77 61.46 62.49 64.17 64.10 62.74 62.10 61.70 61.62 61.46 60.81 60.39 59.41 58.67 58.32 58.01 54.68 53.39 48.83 46.47 46.12 41.07 37.19 34.63
51.16 51.15 51.68 51.92 51.99 52.12 51.81 51.90 52.12 52.69 53.47 54.07 55.00 55.49 56.04 56.20 56.09 56.70 56.96 56.80 57.36 58.55 60.18 61.92 62.87 61.16 60.89 60.79 60.37 59.49 58.67 57.76 57.01 56.97 57.13 53.34 50.41 45.91 43.66 43.33 42.47 43.07 36.01
50.86 50.56 50.82 50.64 51.47 51.90 51.35 51.49 51.48 51.23 51.88 52.46 53.39 54.02 54.84 55.00 55.20 55.20 55.26 56.13 57.17 57.84 58.00 58.84 60.30 59.95 58.96 59.46 58.60 57.21 56.03 55.04 54.33 53.50 52.70 42.52 40.72 40.50 41.07 39.63 38.79 39.62 38.09
49.75 49.35 49.42 49.55 50.82 51.00 50.43 50.36 50.02 49.96 49.90 50.46 51.53 52.43 52.82 53.50 54.29 54.40 54.28 53.99 53.85 54.75 55.15 56.06 56.56 56.49 56.27 55.94 55.11 53.99 52.80 52.25 47.75 44.72 42.11 40.60 39.32 39.34 37.79 38.53 37.52 37.45 38.33
48.71 47.87 47.98 48.35 49.40 48.70 49.08 48.67 48.51 48.32 48.20 48.57 49.44 50.03 50.36 50.87 50.19 49.52 50.65 51.97 51.88 52.88 52.65 52.81 53.20 53.50 53.24 52.53 51.64 48.36 47.48 45.49 44.15 42.37 40.90 37.58 37.60 36.90 37.35 36.32 36.15 35.53 36.06
46.72 46.47 46.84 47.00 47.85 47.18 46.99 46.58 46.84 46.57 46.79 46.96 47.07 46.89 46.62 46.71 45.90 45.52 45.45 45.52 46.04 47.11 46.94 46.37 45.21 45.47 45.35 45.12 44.52 42.35 39.38 38.62 38.02 37.61 36.38 36.35 35.85 35.74 36.22 36.35 34.97 34.62 34.61
44.77 44.79 45.73 46.47 46.36 45.46 45.12 45.22 45.60 45.96 45.84 45.59 44.94 43.86 43.35 43.08 42.65 42.32 42.06 41.34 41.03 40.41 40.49 40.17 39.34 39.71 39.04 38.63 38.43 37.51 36.74 36.72 36.58 36.41 36.41 36.70 36.15 36.04 35.51 34.37 33.72 33.67 32.99
44.07 43.23 43.30 44.27 44.95 44.59 44.75 44.87 44.88 44.74 44.83 44.06 43.01 41.95 42.04 41.63 41.04 40.10 39.71 39.79 39.59 39.53 39.57 39.05 39.00 38.94 38.85 38.44 37.79 37.74 37.16 36.99 36.03 36.09 36.29 36.59 37.34 37.84 36.78 34.20 32.67 32.56 32.74
43.04 42.02 41.74 42.27 42.68 43.21 43.38 44.00 43.57 42.98 43.34 42.44 41.88 41.54 40.88 40.02 39.26 39.37 39.61 40.05 39.92 40.31 40.17 39.66 39.35 39.16 39.68 40.60 39.93 37.66 35.89 35.21 34.28 32.37 32.61 33.73 35.97 37.32 37.87 37.77 36.74 35.94 33.68
42.21 41.32 40.90 41.09 41.62 42.17 43.00 42.42 42.35 42.71 42.16 41.55 40.99 40.16 39.34 38.07 37.52 37.55 37.43 37.24 36.34 36.39 35.55 35.48 38.13 38.93 39.73 41.03 39.83 37.41 33.55 32.41 32.00 32.08 32.44 32.67 33.39 33.21 32.68 33.33 33.55 34.01 34.45
41.67 41.31 41.44 41.13 41.32 42.22 42.15 41.92 41.49 41.01 40.05 39.03 38.82 38.77 37.68 36.65 36.74 36.32 35.81 35.63 35.34 34.73 34.25 34.06 34.22 34.00 35.77 37.92 36.96 35.61 31.84 31.43 32.02 32.40 32.26 31.89 31.72 31.68 31.99 31.69 32.06 32.19 32.56
41.99 41.68 41.45 39.78 40.07 41.06 41.01 40.67 39.47 38.80 38.01 37.29 36.97 37.00 36.46 36.38 35.78 34.83 34.27 33.69 33.81 33.03 32.62 32.84 32.55 32.57 33.60 35.51 34.85 33.13 32.11 31.60 31.19 31.74 31.77 31.42 30.31 31.04 32.73 32.46 31.78 31.11 31.48
41.74 41.45 41.11 40.15 40.23 40.15 40.91 39.40 38.05 37.27 36.60 36.94 36.71 37.28 36.96 35.42 35.28 35.21 34.68 34.37 33.92 33.02 33.62 33.17 34.85 34.66 33.31 34.16 34.14 33.48 32.33 30.43 30.11 30.12 30.01 31.32 31.99 32.89 33.47 32.09 30.81 28.46 28.45
41.38 41.50 41.08 39.96 39.31 40.35 39.95 37.24 36.31 34.90 36.71 37.14 37.08 36.73 36.38 35.64 35.42 35.29 35.14 33.69 33.18 33.66 33.52 33.48 35.04 35.37 34.79 34.04 34.62 34.08 31.75 30.54 29.71 29.41 29.32 30.47 32.16 32.30 31.72 31.36 28.77 27.90 29.30
40.35 40.89 40.26 38.98 39.92 39.45 37.61 35.70 35.56 36.99 37.19 37.07 36.59 36.32 36.42 36.24 36.29 35.09 34.54 34.34 33.36 32.23 31.62 31.49 31.32 32.37 32.91 33.86 33.67 33.51 32.67 32.28 29.65 28.72 29.35 30.12 30.29 29.46 28.88 28.22 28.98 29.85 29.79
39.88 40.96 40.10 38.12 37.83 37.63 37.91 35.91 36.21 36.79 36.75 36.62 35.80 35.54 35.97 34.83 34.16 33.29 32.93 32.66 32.88 32.06 30.91 30.24 29.35 28.78 30.17 31.16 31.68 31.74 31.65 31.49 29.29 29.73 29.11 28.79 28.11 27.75 27.47 27.23 28.03 28.34 26.62
39.63 40.09 39.28 37.55 36.34 37.99 38.09 37.30 36.96 37.23 36.39 36.66 35.40 33.95 32.83 32.58 32.94 32.84 32.90 32.77 31.96 31.03 29.90 28.63 28.36 28.50 29.29 30.20 31.08 30.65 30.57 30.42 29.76 29.11 28.81 27.15 26.36 26.60 25.89 26.25 26.64 26.53 26.18
39.86 39.77 39.99 39.28 38.13 38.29 37.85 37.72 36.83 37.29 36.80 34.31 33.03 32.70 32.36 32.04 31.16 31.40 31.42 30.20 29.87 30.29 29.18 28.45 28.22 27.73 28.11 29.20 30.12 29.27 28.52 28.53 28.43 27.42 25.97 24.52 24.11 23.87 24.67 25.27 25.64 25.83 25.66
38.90 38.27 40.20 39.68 38.74 38.46 38.03 37.11 37.20 38.10 34.16 32.25 31.50 31.62 31.55 32.38 32.63 31.79 30.65 32.48 31.85 31.50 31.09 30.46 29.58 29.52 29.38 29.83 29.48 29.16 29.23 28.61 28.04 24.57 23.13 22.57 23.04 22.92 23.57 23.86 24.25 25.13 25.83

GFSMW_sfc_wetblb_060.txt.gz
Wetbulb
49.96 50.33 51.10 51.29 50.95 51.37 52.12 53.04 54.14 55.32 55.81 56.34 59.74 66.14 65.77 65.17 66.12 67.40 67.48 67.89 66.60 64.86 64.34 63.86 62.63 62.15 61.93 61.93 61.79 61.29 58.50 56.09 54.84 51.04 47.96 47.55 47.95 47.39 48.08 48.42 48.55 49.80 50.09
46.59 48.77 49.85 48.96 48.98 49.06 50.16 51.31 52.14 53.89 55.09 55.57 56.06 61.34 65.80 65.99 66.04 65.62 66.89 66.86 65.95 66.05 64.55 63.35 63.18 62.57 61.24 60.70 61.74 61.45 59.30 56.24 54.97 49.08 46.19 43.49 45.35 46.13 46.85 46.84 48.29 47.93 48.62
45.70 48.43 48.98 49.54 49.75 50.58 51.22 51.72 51.22 51.19 51.90 53.27 54.45 54.91 60.73 64.12 63.44 63.60 64.79 65.56 66.37 65.60 66.17 65.33 64.02 62.60 62.89 61.63 60.65 61.53 60.08 57.87 54.32 51.83 49.12 46.26 44.59 42.65 44.78 45.79 46.17 46.49 46.26
47.64 49.22 49.48 49.68 50.46 51.41 52.78 53.04 52.58 51.73 51.50 51.48 51.35 51.28 51.36 54.02 61.32 63.49 65.24 65.86 65.52 64.27 64.37 63.07 64.65 64.50 64.60 63.82 62.60 62.44 61.05 59.14 54.13 52.12 53.22 51.63 47.90 43.50 39.58 42.87 44.34 45.71 45.53
47.70 48.76 49.41 50.76 51.80 52.13 51.75 52.51 53.09 52.61 52.05 51.67 50.65 49.82 50.17 51.78 53.72 57.69 60.54 61.57 62.25 63.88 63.31 63.43 62.94 64.05 63.82 64.05 63.50 62.43 61.71 61.47 58.37 53.93 50.89 51.73 46.33 43.98 43.13 38.28 40.22 43.15 43.83
47.98 49.17 50.47 50.96 50.81 51.28 51.31 51.49 51.91 51.98 52.54 52.01 51.56 50.22 49.36 49.60 49.87 51.44 55.92 58.55 59.71 61.02 63.15 63.04 63.82 63.59 63.23 63.00 62.51 62.98 62.30 61.51 60.68 56.50 53.21 51.28 50.83 48.36 45.34 45.77 41.05 40.69 41.62
47.60 48.07 48.24 48.67 49.13 49.18 49.66 50.49 50.10 50.09 51.07 50.88 51.34 51.14 50.28 50.13 49.62 50.16 51.85 54.51 56.95 58.57 60.26 61.82 61.50 61.87 62.60 62.44 62.21 62.23 62.22 61.97 59.49 57.90 53.96 52.82 52.52 51.99 49.35 48.49 44.19 41.01 37.47
47.52 47.57 47.30 47.88 47.99 48.65 48.35 48.49 48.84 49.05 50.16 50.32 50.44 50.72 51.03 50.82 50.92 50.94 51.04 51.28 52.21 53.66 56.02 60.30 60.05 59.75 61.18 61.17 61.40 61.28 61.06 60.57 59.90 58.67 57.81 53.98 53.32 52.09 50.44 49.48 46.49 38.21 37.41
47.35 46.77 46.46 47.49 47.53 47.73 47.45 47.44 47.44 47.97 48.77 49.05 49.61 49.99 50.79 50.85 50.74 51.08 51.58 52.18 52.79 54.70 54.19 54.24 55.92 59.01 60.53 60.39 60.00 60.00 59.76 59.54 59.15 58.21 57.34 56.59 51.63 47.12 46.97 46.86 46.19 45.63 38.15
47.28 46.72 46.72 46.42 47.42 47.51 47.10 46.96 46.87 46.58 46.89 47.08 47.55 49.02 49.18 49.93 50.31 50.60 50.15 50.46 50.77 51.64 52.24 52.81 53.14 53.71 55.74 57.95 58.22 57.66 57.03 56.10 55.05 54.29 53.89 47.33 44.66 43.85 43.10 42.28 42.32 43.70 42.05
46.17 45.31 45.18 45.54 47.08 46.63 46.02 45.69 45.33 45.25 44.65 44.97 45.78 46.14 46.45 47.16 46.55 45.85 46.36 47.37 48.68 49.66 50.12 50.61 51.13 51.59 52.93 54.67 54.45 54.52 54.00 53.16 48.82 46.38 44.77 40.97 41.54 39.87 40.53 40.72 41.47 41.02 39.93
45.48 44.19 44.12 44.48 45.18 44.54 44.26 43.71 43.69 43.34 43.36 43.77 43.74 43.49 43.83 43.65 42.49 42.03 41.87 42.11 42.12 45.02 46.39 46.39 46.75 46.51 48.40 48.17 49.01 47.70 46.58 45.84 43.83 42.41 40.07 38.92 39.40 38.30 38.65 38.86 38.67 37.54 37.79
43.82 43.39 43.49 43.59 43.34 43.03 42.67 42.50 42.49 42.01 42.64 42.72 41.98 41.22 40.68 40.21 39.39 39.32 39.83 39.97 39.70 40.37 41.11 40.79 40.18 39.64 39.75 39.78 39.70 39.65 39.28 38.98 38.45 38.29 37.41 36.81 37.14 36.28 36.82 36.70 36.31 35.17 35.18
43.41 42.11 42.49 42.94 42.30 41.90 41.67 41.66 41.56 41.69 42.04 41.67 40.28 39.26 38.85 38.81 38.54 38.45 38.93 39.97 40.24 39.61 39.58 39.41 39.23 39.08 38.87 38.68 38.34 37.90 37.23 36.97 36.82 37.23 37.20 37.07 36.76 36.14 35.48 34.91 34.05 34.31 33.32
42.25 40.82 40.22 40.18 41.00 40.60 40.70 41.16 41.00 40.76 40.73 40.31 39.15 38.36 38.45 39.17 39.70 39.55 39.29 40.07 40.05 39.84 39.78 39.43 39.45 39.51 39.24 38.90 37.83 37.62 36.99 36.25 36.20 36.79 37.17 37.21 37.94 38.37 37.32 34.66 33.31 33.33 32.60
41.78 40.61 40.04 38.87 39.85 38.89 39.78 40.86 39.85 40.19 40.89 39.45 38.39 38.46 37.82 38.35 38.11 39.07 38.50 37.76 37.18 37.00 38.92 39.60 39.42 39.25 39.78 40.76 39.67 36.36 34.26 33.99 33.42 32.50 32.70 33.55 36.99 38.77 39.24 38.07 36.94 35.53 33.34
40.81 39.87 38.68 38.03 38.03 38.60 39.68 38.15 38.68 39.60 39.07 39.70 39.36 37.57 37.21 36.24 36.88 37.28 36.89 36.10 35.63 35.76 35.26 35.21 36.02 36.25 37.96 39.90 38.79 36.81 33.16 32.39 32.19 32.17 32.40 32.65 33.31 33.03 32.20 34.34 34.87 34.69 35.15
40.55 39.72 38.53 38.00 37.98 38.59 38.48 38.40 38.35 39.73 38.95 38.14 37.42 36.72 36.72 36.27 36.22 35.95 35.21 34.77 34.71 34.17 34.16 33.93 34.37 35.14 36.78 38.06 37.31 35.95 32.06 31.70 31.70 31.83 32.13 31.71 31.59 31.84 32.28 30.83 30.77 29.82 30.49
39.16 38.38 37.29 36.64 37.04 37.40 37.88 37.30 36.58 37.61 37.25 36.27 35.63 35.89 36.49 35.85 35.65 34.45 33.87 33.32 33.06 32.73 31.69 32.22 32.05 32.04 31.99 35.93 35.50 32.69 30.27 29.86 29.82 30.66 29.74 29.48 28.73 32.27 33.57 30.87 29.53 28.53 28.20
39.50 38.36 37.30 37.43 36.76 36.70 37.35 36.24 36.91 36.19 36.27 36.49 36.09 36.12 36.40 35.95 35.06 34.71 33.49 33.40 33.39 32.52 32.86 30.05 28.78 33.80 29.11 35.48 35.01 32.00 28.56 25.97 27.23 26.54 27.58 32.77 31.49 33.54 33.74 28.92 26.23 24.58 24.40
38.91 39.10 37.85 36.19 35.93 37.11 36.96 36.02 35.79 35.25 36.61 37.10 36.69 36.59 36.18 35.58 35.36 34.55 33.89 32.99 27.80 24.52 24.19 28.49 28.88 28.63 30.32 30.63 35.20 34.71 27.74 26.32 26.10 25.74 24.79 27.25 32.16 31.53 31.12 30.58 23.92 24.73 26.35
38.59 39.17 36.83 36.14 36.59 36.87 36.98 36.06 35.14 36.90 37.34 37.03 36.42 35.78 35.22 35.79 34.68 32.09 30.60 30.23 28.54 26.02 25.60 25.77 25.21 25.86 27.91 33.46 33.33 33.56 32.86 31.86 25.77 25.27 24.97 25.95 30.38 29.68 29.40 27.13 28.99 29.75 28.93
38.57 39.35 37.47 36.25 37.51 37.44 37.25 35.70 35.90 37.00 36.86 36.16 35.36 33.74 34.17 32.43 31.23 27.39 26.42 25.73 26.26 25.00 23.88 23.15 22.12 22.41 25.18 26.09 32.16 32.09 31.70 31.02 26.11 26.37 27.91 29.26 28.76 28.30 25.85 28.42 28.82 28.56 22.98
37.61 38.40 37.64 36.64 35.41 36.88 37.66 36.96 36.96 37.12 36.58 34.95 32.18 29.98 28.20 27.97 27.38 27.80 27.17 25.48 24.61 23.97 22.98 22.63 21.95 21.86 23.62 24.98 25.33 26.04 24.56 29.55 27.12 27.61 24.50 27.42 27.27 27.48 25.98 25.44 24.79 23.88 23.00
38.24 39.13 38.43 36.89 36.28 37.19 37.57 37.37 37.12 36.88 33.66 30.48 28.01 28.03 28.38 27.35 25.75 26.97 27.59 23.81 25.10 26.80 22.56 22.18 23.06 22.51 22.47 26.16 28.88 27.83 26.18 24.96 26.89 25.98 22.59 20.57 20.41 20.29 21.20 22.11 22.74 23.04 23.31
37.64 38.38 39.04 38.61 37.56 37.76 37.44 37.30 36.64 34.67 30.70 27.46 26.73 26.91 26.46 26.55 26.90 26.51 26.20 32.63 31.59 31.82 31.46 30.87 27.57 26.40 29.00 29.96 29.74 29.40 29.25 29.22 28.52 22.73 19.60 18.00 18.32 19.00 20.42 21.37 21.66 22.54 23.70

GFSMW_sfc_wetblb_063.txt.gz
Wetbulb
48.22 47.94 47.94 47.17 48.09 47.97 48.21 49.01 50.80 51.66 53.44 57.46 64.33 63.62 64.66 63.94 63.76 66.04 66.77 65.84 65.93 64.46 62.59 62.56 61.44 61.26 61.40 61.02 60.52 59.45 57.93 55.97 53.84 50.53 48.18 46.62 46.38 46.69 47.37 47.31 48.11 51.53 53.49
45.66 47.38 48.10 47.39 48.13 48.99 49.66 49.85 49.20 49.25 50.53 52.33 53.06 61.71 64.74 65.06 66.18 65.89 65.49 65.76 65.57 64.67 65.20 62.61 61.31 60.95 60.13 59.54 59.97 59.91 58.00 56.85 54.46 50.63 45.96 43.90 44.72 45.85 46.33 46.17 47.42 47.60 49.34
45.60 46.38 48.02 49.02 49.88 49.90 49.93 50.92 50.22 50.20 49.92 50.17 51.20 52.15 56.19 62.57 62.80 62.65 63.07 64.46 64.87 64.61 64.27 64.10 63.51 61.70 61.45 59.99 59.22 60.04 59.05 57.91 55.00 52.26 49.49 43.74 42.66 42.40 44.08 45.91 46.33 46.80 47.01
46.32 47.99 49.04 49.33 50.20 50.24 51.12 51.58 52.00 51.01 51.09 50.19 48.94 48.43 48.80 49.40 56.15 61.64 63.32 63.75 63.80 63.43 63.75 63.15 63.01 61.96 61.54 61.82 62.45 61.76 61.17 59.34 56.56 54.14 54.23 51.34 47.62 43.17 41.75 43.66 45.61 47.05 46.75
45.91 47.46 48.92 50.23 51.18 51.14 50.89 50.87 51.45 51.40 50.98 50.68 49.78 47.64 47.14 48.26 49.78 50.74 53.51 58.63 62.79 63.62 63.38 63.01 61.84 61.32 60.97 61.65 62.25 61.21 61.22 60.93 60.34 56.50 54.42 52.84 51.08 47.60 43.88 41.67 43.68 45.49 46.55
46.28 47.82 49.06 49.71 49.17 49.36 49.44 49.57 49.69 50.39 50.74 50.04 49.80 48.95 47.50 47.38 47.66 48.14 48.66 51.05 55.83 58.70 61.05 61.88 61.44 61.37 62.40 62.09 61.37 61.90 60.84 60.49 60.84 59.73 57.28 54.28 52.82 51.33 47.11 44.56 42.65 44.15 43.80
45.91 46.38 47.00 47.45 47.82 47.56 47.75 49.12 48.42 48.64 49.33 49.51 49.59 49.32 48.78 48.19 48.01 48.18 48.43 49.00 51.37 53.95 54.44 58.00 59.79 60.06 60.63 60.64 61.58 61.68 61.49 60.88 59.97 60.02 56.77 55.73 54.09 54.27 52.00 48.61 45.14 42.79 41.06
45.95 46.44 46.91 46.33 46.48 46.70 46.29 46.51 46.56 47.11 47.93 48.27 48.87 49.51 49.87 50.08 50.17 50.03 50.12 50.17 50.38 51.11 52.07 52.90 53.89 57.21 58.71 59.21 60.70 60.53 60.50 60.63 59.93 58.54 58.49 55.27 54.79 53.76 51.59 50.43 48.90 40.67 38.35
45.93 46.06 46.05 45.92 46.12 45.54 45.69 45.46 45.50 45.69 45.89 46.07 46.73 47.57 48.14 48.41 48.58 48.78 49.19 49.40 49.65 51.81 51.12 51.48 51.56 52.67 55.93 57.58 57.72 59.05 58.64 59.11 58.78 58.92 57.67 57.06 54.27 52.33 51.92 50.77 50.20 48.97 43.65
45.28 45.17 44.92 44.81 45.94 45.46 45.18 44.58 44.67 43.93 43.84 44.25 45.26 45.71 45.40 45.12 44.47 44.26 43.65 44.90 46.80 48.59 49.02 49.04 49.48 50.12 51.51 52.40 52.77 54.79 55.66 55.86 55.15 54.24 54.39 49.90 46.48 45.97 45.47 44.87 44.73 44.79 44.27
43.94 43.21 43.39 44.05 45.40 44.66 43.92 43.00 42.92 42.67 42.49 43.05 42.98 42.47 42.48 42.22 41.69 40.94 40.37 40.21 41.82 43.20 44.16 44.47 45.33 45.62 46.74 47.04 48.98 49.43 50.58 51.99 49.55 46.88 45.28 42.00 42.38 42.16 41.10 41.80 42.01 41.71 42.43
42.92 42.42 42.65 43.10 43.00 42.18 41.74 41.34 41.59 41.59 41.69 41.93 41.11 40.53 40.43 39.75 38.80 38.43 38.70 39.08 38.33 39.16 39.25 39.70 39.98 39.84 41.36 41.72 42.08 42.60 42.92 44.07 43.78 42.27 41.71 40.02 40.48 39.38 39.85 40.14 39.69 39.65 39.38
42.16 41.54 41.82 41.81 41.28 40.32 40.48 40.68 40.61 40.39 40.88 40.43 39.43 38.92 38.55 38.04 37.26 37.29 37.99 38.59 38.34 38.60 39.65 40.07 39.50 39.23 39.57 39.14 39.23 39.02 38.48 38.28 38.32 38.37 38.31 38.24 38.22 37.33 37.69 37.44 36.41 36.00 36.27
42.28 40.92 41.31 41.14 40.16 40.33 40.56 40.27 39.65 39.88 40.07 39.24 38.26 37.43 37.28 37.45 37.42 37.90 38.09 38.67 39.21 39.49 39.53 39.63 39.38 39.16 38.80 38.77 38.45 38.18 37.57 37.49 37.44 37.59 37.34 37.16 36.89 36.19 35.41 35.07 34.69 34.83 34.19
40.98 40.29 39.90 39.34 39.08 38.98 39.26 39.40 39.23 39.55 39.38 38.40 37.49 36.78 37.16 39.07 39.75 39.74 38.35 38.07 38.18 40.06 40.18 39.78 39.81 38.59 38.40 38.04 35.92 36.08 35.90 35.46 34.87 35.41 37.24 38.42 39.18 39.59 38.25 35.26 33.86 33.82 33.16
41.01 40.11 40.00 39.35 38.30 37.72 38.67 39.20 38.83 39.04 38.89 37.45 36.59 36.87 37.41 37.88 37.97 37.85 37.50 37.21 36.95 37.02 37.50 37.69 38.20 38.32 38.71 39.61 38.83 35.23 34.20 34.14 33.63 32.82 33.21 34.28 35.28 37.46 40.12 38.93 37.78 35.77 33.41
39.85 38.96 38.37 37.39 37.21 37.91 38.27 37.27 37.68 38.21 38.06 38.45 37.72 36.97 37.38 37.06 37.04 37.12 36.51 35.79 35.66 35.91 35.43 36.02 36.88 37.49 38.67 39.88 38.61 36.75 32.94 32.78 32.44 32.22 32.27 32.57 33.96 33.49 32.50 34.24 34.20 34.38 35.51
39.63 38.66 37.36 36.96 37.36 37.49 37.47 37.35 37.64 39.02 38.17 37.10 36.51 37.16 36.81 36.28 36.36 35.96 35.01 34.43 34.18 33.71 33.51 33.48 34.50 35.75 37.30 38.49 37.53 35.48 27.88 25.86 27.62 28.10 28.74 29.21 28.93 30.72 31.38 29.92 29.35 29.76 29.74
38.51 37.57 36.65 36.24 36.30 36.63 36.75 36.28 36.07 37.54 36.91 35.63 35.64 36.44 36.24 35.92 35.61 34.38 33.57 33.04 32.89 32.33 32.06 30.76 27.28 27.27 29.78 35.93 35.37 30.98 26.87 26.24 26.35 27.02 27.61 27.44 26.95 33.49 34.84 28.42 27.79 27.38 26.17
38.43 36.62 36.25 36.54 35.95 35.78 36.07 35.16 36.07 36.68 36.16 35.70 35.67 36.46 36.71 35.99 34.89 34.06 33.38 33.80 33.17 31.21 26.69 24.46 25.60 33.53 28.09 36.07 35.27 29.55 25.67 23.70 25.11 24.16 26.15 33.40 30.92 33.79 33.12 26.07 24.08 22.67 23.15
38.23 37.51 36.48 35.21 34.83 35.58 35.78 35.34 35.86 35.69 36.78 36.75 36.78 36.71 36.47 35.79 35.11 34.08 33.95 26.93 21.98 21.24 21.77 26.50 26.10 27.22 29.17 30.14 34.96 34.10 27.43 25.54 25.44 25.07 24.36 26.51 31.97 31.21 30.72 30.11 22.81 24.02 25.50
38.16 37.50 35.16 34.87 35.15 35.42 35.39 35.63 35.21 37.04 37.23 36.88 36.03 35.26 35.65 35.70 34.75 32.25 29.30 28.37 26.74 24.85 24.11 23.91 23.23 25.11 26.37 32.39 32.93 33.30 32.52 30.35 25.45 25.01 24.68 25.05 30.21 29.74 29.53 27.24 28.79 29.60 28.39
37.47 38.21 35.73 34.91 35.08 35.92 37.44 35.80 36.06 37.28 36.84 36.19 35.71 35.14 34.28 33.19 32.61 28.64 27.16 25.64 24.74 23.11 22.22 21.78 21.03 21.69 24.71 24.93 32.73 32.99 32.22 31.41 25.98 26.47 28.69 30.24 29.41 28.41 25.42 27.35 28.99 28.24 22.47
37.04 37.42 36.82 36.08 34.56 36.78 37.45 36.99 37.14 37.33 36.56 35.65 33.21 31.78 28.77 26.97 26.73 26.95 26.31 24.61 23.05 21.96 21.85 21.61 21.25 20.79 22.96 24.45 24.62 25.31 23.99 28.43 26.64 27.45 23.86 26.66 26.98 27.34 25.97 24.78 24.20 23.43 22.57
37.59 37.41 36.67 36.39 35.85 36.62 37.15 37.23 37.39 37.21 35.75 32.60 28.52 25.94 26.04 25.11 25.02 27.10 25.31 24.56 25.36 25.43 21.97 21.96 22.80 22.29 22.37 25.69 28.78 27.80 26.26 24.97 27.36 25.66 21.69 20.34 19.92 19.94 20.67 21.60 22.16 22.53 22.97
37.28 36.57 38.11 36.67 36.64 36.85 37.36 37.43 37.67 36.97 32.49 27.50 25.17 24.83 24.24 23.98 24.71 25.30 26.29 32.16 31.61 32.04 31.69 31.16 26.88 26.66 29.36 30.17 29.99 29.76 29.67 29.71 29.82 22.74 19.54 17.61 17.88 18.37 19.76 20.45 20.96 21.59 22.36

GFSMW_sfc_wetblb_066.txt.gz
Wetbulb
45.50 46.28 45.77 45.42 46.33 47.78 47.42 47.56 49.42 49.70 56.97 62.86 62.97 62.55 63.01 63.71 63.24 64.25 65.74 65.55 65.43 64.47 62.54 61.85 61.18 60.78 60.35 60.90 59.85 58.43 57.29 56.86 53.65 52.27 50.36 47.41 47.65 46.32 47.02 46.46 48.46 55.65 55.99
43.97 45.59 45.38 47.59 48.42 47.99 48.18 48.12 48.21 48.19 49.10 50.96 52.40 61.40 63.04 63.43 64.06 64.11 64.56 64.46 64.32 64.49 63.88 62.05 61.48 60.77 60.70 59.52 59.19 58.84 56.99 56.47 54.12 52.66 49.15 49.03 48.97 46.15 47.25 45.82 46.99 48.08 54.46
44.58 45.40 46.38 47.72 48.77 48.69 49.31 50.44 50.25 49.07 48.73 48.95 49.64 50.74 53.00 61.10 61.76 61.89 62.40 63.90 64.32 63.82 63.45 63.47 62.52 61.23 59.86 60.21 58.71 58.25 57.63 58.61 54.41 53.20 54.61 46.10 46.48 43.39 44.74 45.29 46.83 46.72 47.07
44.42 46.43 47.68 48.69 49.63 49.58 49.81 50.52 50.96 50.52 50.18 49.27 48.03 47.54 48.12 48.64 54.40 56.35 60.16 61.67 62.86 62.90 62.83 62.56 62.70 62.19 60.38 60.18 60.22 59.58 59.01 57.88 56.68 53.80 55.59 51.93 48.82 45.30 44.88 43.46 45.89 47.32 47.46
45.31 46.50 47.70 49.63 50.09 50.06 48.55 48.30 49.35 49.97 49.77 49.41 48.58 46.91 46.33 47.02 48.28 48.75 49.32 50.48 54.46 59.74 62.24 61.77 61.01 60.85 60.57 60.15 60.10 59.48 58.50 59.14 59.06 55.55 54.49 54.93 52.61 49.86 45.82 49.84 45.14 46.68 48.24
44.93 46.56 47.79 48.70 47.82 48.05 48.00 48.02 48.44 48.51 48.91 48.87 48.53 47.88 47.16 46.07 46.48 46.92 47.31 48.48 51.27 54.95 53.93 56.70 59.68 60.06 59.55 59.89 59.54 59.72 58.71 59.27 59.45 59.16 58.30 56.07 52.84 52.12 50.07 46.40 44.89 45.57 46.98
45.03 45.66 46.01 46.21 46.47 46.23 46.46 47.70 47.55 47.50 48.21 48.62 48.69 48.85 48.71 47.94 48.46 48.29 48.70 49.00 49.57 49.92 50.80 52.47 53.30 56.04 58.28 59.18 59.00 58.49 58.22 58.45 59.08 58.48 57.80 57.87 56.81 56.46 54.38 52.18 50.68 44.75 43.51
44.52 45.51 45.89 45.78 45.83 45.76 45.41 45.38 45.76 45.39 45.81 46.23 47.43 47.80 48.23 48.47 48.44 48.28 48.46 48.39 48.76 49.55 50.14 50.61 51.11 52.07 55.31 56.61 56.89 56.92 58.43 59.24 58.73 57.71 56.05 57.51 56.88 56.20 53.83 52.70 49.90 42.36 40.73
44.74 45.15 45.26 45.26 45.34 44.93 44.57 44.15 44.01 43.49 43.78 45.02 45.44 44.72 44.50 44.27 43.97 43.94 44.64 46.17 46.88 49.64 48.26 48.64 49.16 49.90 51.21 53.37 55.00 56.82 55.19 54.22 53.48 53.56 55.56 56.28 55.78 53.82 53.71 52.72 51.12 49.63 44.19
44.60 44.35 44.32 44.71 44.97 44.57 43.57 43.31 43.14 42.40 42.68 43.25 43.28 42.78 41.99 41.64 41.06 40.50 39.76 40.27 41.97 43.67 44.05 45.17 45.43 46.06 46.17 46.93 48.55 48.59 48.90 49.47 50.83 51.04 50.97 48.29 46.19 45.49 45.47 46.73 46.25 46.70 47.19
43.73 43.29 43.07 44.05 44.37 43.33 42.19 41.75 41.74 41.75 41.65 41.58 41.00 40.18 39.73 39.46 38.95 38.49 38.39 38.26 38.80 39.25 39.65 39.97 39.85 39.99 40.79 41.62 43.20 43.34 43.51 46.33 45.63 44.21 43.89 41.98 42.49 41.95 42.24 43.14 43.21 43.37 43.54
43.12 42.26 42.23 43.03 42.32 41.11 40.66 40.50 40.71 40.70 40.61 40.33 39.39 38.81 38.68 38.07 37.31 37.30 37.59 38.25 37.54 38.24 38.26 38.58 38.35 38.26 38.53 38.25 38.75 39.44 39.51 39.89 40.23 40.14 40.33 39.44 40.77 39.47 39.94 40.24 39.55 39.95 39.50
41.38 40.70 40.54 41.14 40.55 39.59 39.90 39.81 39.82 39.62 39.50 39.09 38.18 37.70 37.41 37.06 36.76 36.91 37.67 38.18 37.76 37.64 38.35 38.52 38.54 38.03 38.17 37.67 37.48 37.83 38.34 38.11 38.02 38.11 37.95 37.95 38.21 37.13 36.92 36.59 35.81 35.80 36.49
41.54 40.68 40.06 39.51 38.85 38.76 39.35 38.87 38.54 39.05 38.66 37.90 36.98 36.25 36.29 38.86 39.56 37.28 37.46 37.84 38.36 38.25 38.27 38.57 38.49 37.82 36.79 36.48 36.38 36.39 36.57 37.33 37.45 37.83 37.60 37.25 36.68 36.05 34.82 35.10 34.89 35.00 34.53
40.54 40.40 39.79 38.79 37.99 38.10 38.33 38.34 38.44 38.27 37.69 36.84 36.22 35.79 37.94 39.30 39.02 38.46 37.70 38.30 38.25 38.98 39.56 38.55 38.62 38.49 38.19 37.39 34.20 35.08 35.40 35.68 35.11 35.17 36.18 38.18 39.81 40.18 37.75 35.11 33.87 34.26 33.44
40.72 40.06 39.79 39.01 38.19 37.73 37.97 38.49 37.84 37.46 37.36 36.06 35.49 36.06 38.01 38.25 37.84 37.46 37.29 37.35 36.86 37.07 37.48 37.89 38.44 37.64 38.58 39.44 38.94 34.68 33.30 33.88 33.46 32.51 32.82 33.93 35.54 35.91 39.95 39.61 38.96 36.85 33.46
40.33 39.19 38.80 38.37 37.72 37.75 38.14 37.19 37.26 37.46 36.54 36.83 37.29 37.40 37.68 37.04 37.01 36.71 36.08 35.48 35.37 35.56 35.16 36.03 37.22 37.83 38.78 39.87 38.32 36.38 32.40 31.66 31.47 30.35 28.64 31.42 32.72 32.40 30.21 33.23 34.01 33.49 35.16
39.90 38.78 37.42 37.12 37.54 37.60 37.32 37.24 37.29 37.33 37.83 37.11 37.10 37.25 37.04 36.49 36.29 35.49 34.58 34.10 34.04 33.63 33.62 34.01 34.17 35.04 35.23 36.94 36.26 34.17 21.29 23.92 25.63 21.83 23.06 22.25 25.23 28.61 29.32 27.97 27.72 27.60 27.36
39.07 38.14 36.78 36.25 36.08 36.50 36.57 36.45 35.80 36.49 36.97 36.03 36.58 36.54 36.50 35.98 35.29 33.85 33.27 32.92 32.86 31.45 26.57 25.04 24.48 25.55 27.01 35.66 34.47 29.37 24.99 24.48 24.09 26.16 26.81 26.99 27.12 34.16 33.80 26.98 25.66 24.71 24.61
37.72 36.66 36.39 36.25 35.66 35.76 35.68 35.06 35.26 36.64 35.80 35.82 36.06 36.84 36.86 36.01 34.46 33.77 33.66 33.45 29.30 24.70 23.68 23.43 25.05 33.27 27.72 35.84 33.94 28.47 24.94 22.46 24.52 23.92 26.23 33.02 30.60 32.68 32.44 25.16 23.23 22.41 22.87
37.23 36.71 36.12 35.33 35.39 35.60 35.29 34.30 35.40 36.05 36.87 36.67 36.61 36.73 36.62 35.65 34.37 34.16 30.80 24.11 20.66 20.57 20.45 24.95 25.03 26.23 28.47 28.99 34.57 33.81 27.11 25.40 25.30 25.00 24.50 26.34 32.27 31.46 30.93 30.13 22.56 23.64 25.03
37.54 36.85 35.36 34.72 35.27 35.52 35.13 33.82 34.90 36.99 36.92 36.80 36.33 35.70 35.73 35.83 34.80 30.56 27.58 27.04 25.45 25.25 24.14 23.72 23.60 24.61 24.75 32.33 32.58 33.20 32.28 29.76 25.51 24.91 24.53 24.86 30.52 30.07 29.60 27.27 29.06 29.84 27.46
37.77 37.36 35.58 34.78 34.83 35.16 35.00 33.69 36.33 37.01 36.65 36.11 35.11 34.98 35.40 32.59 31.54 28.89 28.00 27.21 25.64 23.80 23.44 22.58 21.50 22.05 24.63 24.42 31.99 31.99 32.58 31.74 25.94 26.48 28.48 29.84 30.12 28.88 25.67 27.81 29.07 27.84 22.37
36.76 36.59 35.24 34.98 33.49 34.62 35.90 36.41 37.44 37.31 36.45 35.07 35.00 34.39 31.86 29.87 28.74 26.19 25.45 23.76 22.47 22.31 22.58 22.01 22.14 21.44 23.20 24.74 24.96 25.89 24.24 28.32 27.07 27.65 23.21 26.24 26.33 26.72 25.56 24.02 23.73 23.12 22.36
37.20 36.87 35.79 35.22 35.09 35.38 36.91 37.09 37.67 37.28 35.87 35.36 31.54 29.73 27.98 27.73 23.58 23.95 22.91 23.30 23.48 23.94 22.09 22.71 22.89 22.14 22.41 25.48 29.10 28.18 26.49 25.03 27.79 26.06 21.70 19.75 19.47 19.51 20.11 20.97 21.70 22.27 22.83
37.13 36.75 36.41 36.21 35.52 36.55 36.71 37.10 37.37 36.79 35.83 33.03 28.10 25.14 23.66 22.94 23.69 25.17 24.89 31.31 31.43 32.53 31.76 30.66 26.57 26.30 29.46 30.94 30.85 30.39 30.10 30.29 30.61 22.88 19.17 17.62 17.59 17.83 19.17 19.65 20.00 20.69 21.46

GFSMW_sfc_wetblb_069.txt.gz
Wetbulb
43.87 44.48 44.30 44.60 46.75 46.48 46.68 47.02 49.83 49.28 60.47 62.83 62.61 62.03 62.51 63.21 62.68 64.08 65.30 64.96 64.89 63.41 61.82 61.38 60.70 60.26 59.00 59.08 58.18 57.43 56.83 56.26 54.11 52.36 51.38 50.56 51.14 50.36 48.55 47.24 46.70 53.83 57.08
43.93 44.18 46.29 45.93 46.94 46.74 46.95 47.38 47.60 47.66 48.27 51.47 55.67 61.69 62.23 62.73 62.96 63.07 63.58 64.24 64.13 64.01 63.02 61.72 61.63 61.12 60.51 59.54 58.89 58.11 56.20 55.57 53.87 53.56 50.07 52.24 51.99 47.26 48.69 46.81 47.87 47.18 53.18
43.79 44.32 45.75 46.60 47.52 47.85 48.36 49.31 49.23 48.26 47.73 47.76 48.26 49.57 51.35 60.05 60.81 61.07 61.58 62.51 63.40 63.47 63.38 63.39 62.39 61.19 59.66 59.47 58.64 57.58 57.14 58.95 55.83 54.57 56.40 49.31 47.94 45.99 46.44 45.61 46.04 47.10 46.04
43.13 45.21 46.47 47.50 48.15 48.66 49.08 49.24 49.57 49.33 49.33 48.67 47.34 46.49 46.93 47.87 51.18 52.25 54.55 52.29 56.39 59.70 61.47 61.84 61.85 61.70 60.37 59.10 59.18 58.77 57.88 56.74 57.13 53.10 54.34 54.75 49.39 49.01 49.30 45.87 45.68 46.66 46.64
43.54 44.96 46.85 48.50 49.04 48.42 47.57 47.47 48.19 48.32 48.06 48.14 47.41 46.48 46.16 46.81 47.89 48.18 48.61 49.10 50.78 55.07 54.67 57.97 59.83 59.89 59.74 59.28 59.04 58.31 57.13 57.40 56.88 55.25 54.19 53.77 53.93 50.24 48.53 50.56 49.95 48.06 47.66
43.92 45.46 47.14 47.72 46.84 46.56 46.82 46.96 47.62 47.63 48.22 48.17 47.53 46.82 46.27 45.71 46.41 47.48 48.23 48.81 50.34 51.43 51.84 53.06 54.06 57.59 58.32 58.26 58.41 58.15 57.69 57.30 57.27 57.08 57.80 56.42 53.88 52.16 50.92 49.18 49.34 47.88 47.68
43.34 44.81 45.50 45.34 45.61 45.15 45.41 46.54 46.36 45.45 46.53 47.82 48.09 48.26 47.76 47.50 47.21 47.36 47.63 48.02 49.04 49.05 49.26 50.19 50.64 51.91 54.64 56.61 57.04 56.81 56.51 56.35 55.92 55.91 56.77 56.52 57.39 56.54 55.81 52.87 52.25 48.53 45.27
43.76 44.59 44.98 44.98 44.88 44.72 44.30 44.76 44.36 43.89 45.26 46.24 45.76 45.65 46.63 47.07 46.62 46.18 46.71 46.42 46.82 47.95 48.00 48.42 49.39 50.20 51.35 55.69 58.03 57.30 55.92 54.86 53.66 52.77 52.76 54.98 55.47 55.56 54.76 53.60 51.30 46.56 42.73
43.56 44.35 44.62 44.79 44.36 43.81 43.46 43.48 42.65 42.37 43.82 44.10 43.46 42.29 41.94 41.94 41.37 40.94 41.40 43.08 43.46 46.65 45.09 46.18 46.09 46.57 46.93 48.78 50.25 51.09 51.81 52.56 51.67 52.07 52.07 52.05 49.87 49.03 49.51 50.83 51.19 50.03 46.42
44.01 44.02 43.79 44.06 43.93 43.37 42.44 42.06 41.84 41.58 41.90 41.68 41.41 40.48 39.72 39.51 39.16 38.90 38.15 38.49 38.84 39.88 40.36 41.12 41.29 42.03 42.35 43.89 45.37 45.06 45.76 48.27 47.88 47.63 46.84 44.88 44.52 44.43 44.34 44.78 45.75 46.18 46.00
43.47 43.35 42.86 43.63 43.43 42.28 41.36 40.77 40.92 41.13 40.65 40.38 39.68 38.77 38.36 38.20 37.95 37.53 37.51 37.30 37.84 38.17 38.45 38.78 38.63 38.56 38.33 39.23 40.66 40.97 41.63 44.08 43.48 43.29 42.59 41.54 42.12 41.50 41.70 42.23 42.36 42.50 42.31
43.08 42.36 41.99 42.59 41.38 40.33 39.85 39.82 40.03 39.88 39.60 39.25 38.40 37.87 37.88 37.60 36.89 36.84 37.30 37.58 37.11 37.84 37.84 38.02 37.85 37.72 37.60 37.16 37.38 37.45 37.74 37.75 37.76 38.28 39.23 38.23 39.78 39.20 39.24 39.27 38.16 38.15 38.37
42.38 41.11 40.34 41.10 40.23 39.12 38.92 38.85 39.12 38.63 38.52 38.32 37.57 37.15 37.03 36.94 36.39 36.60 37.44 38.00 37.71 37.84 38.16 38.06 37.03 36.50 36.65 36.34 36.27 36.33 36.14 36.62 37.42 37.85 37.49 37.49 37.90 36.72 36.72 34.98 35.88 36.13 36.75
41.79 40.34 39.76 40.39 39.72 39.01 39.03 38.41 38.12 38.28 37.66 37.14 36.52 36.02 36.32 39.79 38.87 36.29 36.52 37.30 38.09 37.71 37.22 37.12 37.29 36.77 35.44 35.09 35.21 35.28 35.59 36.79 36.99 37.91 37.97 37.38 36.33 35.29 33.86 33.47 32.32 35.21 34.91
40.53 40.10 40.22 39.89 39.11 38.53 38.71 38.38 37.97 37.65 37.15 36.38 35.53 35.64 38.74 39.12 38.86 38.38 38.25 38.32 38.20 38.12 38.48 38.23 37.98 38.06 37.87 36.86 34.06 35.36 35.64 35.35 34.69 34.90 35.90 37.56 39.48 40.03 38.37 35.74 34.42 34.33 34.01
41.06 40.25 40.37 39.69 38.21 37.69 37.87 38.28 37.76 37.06 36.90 35.72 35.18 36.23 38.37 38.34 37.68 37.67 37.51 37.07 36.81 37.12 37.72 38.11 38.34 38.40 38.33 39.35 38.32 34.73 33.45 33.06 32.60 31.73 32.59 33.91 34.12 33.68 38.26 38.07 37.99 36.74 31.55
41.42 40.29 39.63 38.93 38.00 37.71 37.93 37.23 36.96 36.61 35.82 35.58 36.09 37.65 37.80 37.18 36.81 36.52 35.83 35.37 35.27 35.85 35.77 36.17 36.94 36.99 38.12 38.81 37.54 35.41 31.75 29.87 26.02 24.18 24.38 28.14 29.86 29.87 27.99 32.42 33.91 33.20 35.42
41.04 39.91 38.97 38.19 38.06 38.09 37.79 37.49 37.20 36.90 36.62 36.30 37.00 37.45 37.09 36.48 36.06 35.44 34.47 34.12 34.26 34.04 33.66 32.39 31.01 30.53 33.28 36.05 35.10 32.73 18.33 20.53 19.66 19.51 20.82 21.74 25.88 29.58 28.71 26.79 27.16 25.51 26.18
39.54 38.70 37.43 36.85 36.84 36.96 36.86 36.67 36.15 36.28 36.14 36.22 36.90 37.00 36.87 36.07 35.27 33.94 33.24 33.06 32.97 29.68 24.61 23.33 21.91 24.75 26.86 35.31 33.87 28.42 23.94 23.81 23.60 25.63 26.38 27.35 27.33 33.88 33.66 26.21 25.04 24.22 24.74
38.48 37.16 36.36 36.23 36.01 35.87 36.34 35.21 35.17 35.18 34.99 36.17 36.40 37.01 37.06 35.98 34.54 33.89 33.47 29.12 27.91 24.08 22.33 22.42 23.56 32.77 27.00 35.40 33.90 28.02 24.65 22.35 24.77 23.94 25.53 31.75 30.70 32.98 32.48 24.89 22.73 21.16 22.26
36.89 36.74 36.41 35.68 35.62 35.77 35.59 34.56 34.53 34.44 36.83 36.96 36.86 36.90 36.93 35.55 34.62 34.19 32.67 22.02 26.58 20.99 19.38 23.29 23.97 25.64 28.41 28.51 34.53 33.48 26.88 25.67 25.57 25.48 24.70 26.05 31.38 31.62 31.44 30.84 22.74 23.31 25.42
37.21 36.69 35.54 35.18 35.14 35.45 34.98 33.76 33.83 36.98 37.09 36.53 36.44 36.15 35.88 35.50 34.86 31.77 26.67 26.40 24.84 24.32 23.11 22.72 23.05 24.11 24.62 32.23 32.66 33.77 32.45 30.12 25.69 24.92 24.64 25.20 31.08 31.57 30.17 27.46 29.49 30.47 27.28
37.41 37.08 35.83 34.97 34.78 35.05 35.03 33.61 34.38 37.00 36.49 36.11 35.38 35.32 35.51 34.71 34.04 27.88 26.82 25.83 24.16 22.72 22.24 21.86 20.72 21.51 25.14 24.52 31.35 31.53 31.58 30.97 26.48 26.61 28.56 29.34 29.39 28.68 25.72 27.98 29.52 27.72 22.20
37.53 36.92 35.52 34.70 34.70 34.52 34.93 34.63 36.37 37.20 36.40 35.41 34.87 34.80 34.16 31.91 29.29 28.65 28.17 26.45 23.45 22.15 21.38 20.93 20.96 20.49 22.14 24.07 25.09 26.22 24.70 28.35 27.61 28.08 23.39 25.74 25.77 26.33 25.27 23.87 23.49 22.72 22.12
37.29 36.58 35.62 35.02 34.83 34.86 34.92 35.73 37.58 37.17 35.77 35.21 34.46 33.62 33.16 32.40 27.54 25.50 23.13 23.30 22.04 22.92 20.84 20.96 21.91 21.00 20.97 24.64 28.31 27.90 26.18 25.08 27.88 25.51 21.81 19.60 19.33 19.18 19.64 20.23 20.96 21.51 22.11
37.23 36.78 36.43 35.68 35.39 35.49 36.04 37.01 37.87 37.18 35.60 34.22 33.40 31.69 28.98 25.87 23.65 23.13 23.95 30.45 30.49 33.30 33.64 31.11 25.76 25.33 29.30 30.85 31.82 31.40 30.72 30.52 30.73 23.91 20.10 18.35 17.91 17.55 18.60 19.08 19.36 19.87 20.77

GFSMW_sfc_wetblb_072.txt.gz
Wetbulb
43.60 43.58 43.55 44.37 45.76 46.31 46.81 47.11 54.56 50.62 61.83 62.35 61.90 61.64 62.19 62.43 62.83 63.64 64.47 64.37 63.41 62.58 61.84 61.48 59.86 58.73 58.06 58.68 57.93 57.82 57.57 56.58 54.99 55.12 55.48 53.01 52.30 51.77 52.27 53.00 49.31 49.24 53.90
41.57 42.34 43.49 44.09 46.51 46.02 46.06 46.70 47.00 47.04 48.40 54.56 58.92 61.15 61.24 61.70 62.22 62.40 62.89 63.61 63.98 63.94 63.06 61.21 60.52 59.77 59.22 58.57 58.04 56.87 55.47 55.28 55.16 56.14 52.37 53.04 54.30 49.13 49.94 48.35 47.79 47.17 48.96
42.74 42.14 43.85 44.99 46.37 47.01 47.71 48.65 48.04 47.48 47.36 47.09 47.66 48.76 50.39 58.06 59.73 60.25 60.72 60.98 61.83 62.53 62.65 62.87 62.32 61.06 60.07 59.83 58.74 57.46 56.98 56.87 55.38 56.00 56.91 52.37 50.40 49.19 50.27 48.91 46.59 45.97 44.84
41.89 43.52 45.11 45.74 46.42 47.43 48.41 48.79 48.80 48.55 48.69 47.79 46.69 45.86 46.06 46.82 49.01 50.18 50.78 49.97 51.72 55.27 57.10 59.76 61.55 61.83 60.05 59.13 58.93 58.29 57.12 57.03 56.82 52.86 54.44 53.02 52.39 51.45 51.24 49.68 47.62 47.66 45.86
41.75 43.46 45.24 46.87 47.62 46.96 46.33 46.92 47.76 48.06 47.90 48.11 47.29 46.53 45.71 45.80 46.43 47.03 47.70 48.49 50.90 52.06 52.54 53.19 55.04 60.30 60.30 58.97 58.69 57.78 56.64 56.05 55.69 53.74 53.68 54.58 53.61 51.06 50.12 51.24 49.87 48.18 47.87
41.20 43.74 46.10 46.69 45.52 45.65 45.90 46.38 46.89 47.05 48.17 48.36 47.83 46.99 46.21 45.44 46.31 47.62 48.35 48.88 49.65 50.08 49.88 50.82 50.98 52.68 56.52 59.34 59.35 57.99 57.61 56.40 56.95 57.78 57.60 56.05 54.16 52.54 50.25 48.97 49.97 50.60 51.23
41.89 43.83 44.99 44.63 44.53 44.19 44.53 45.88 45.45 44.95 46.87 47.07 47.13 47.54 47.16 46.96 46.70 46.95 47.00 47.14 47.81 48.10 47.70 48.69 49.10 50.06 52.65 57.14 58.37 58.54 58.13 57.77 57.49 57.11 56.92 57.26 57.02 56.20 54.81 53.16 51.85 50.11 47.43
42.20 44.35 44.52 44.22 43.90 43.78 43.54 43.67 43.38 43.89 45.40 44.87 43.86 43.66 44.51 44.81 44.08 43.64 44.77 44.59 45.43 46.60 45.84 46.48 47.04 47.34 48.40 50.32 53.87 57.08 55.86 55.39 54.44 53.82 53.73 53.81 53.18 52.88 52.95 52.42 50.91 48.31 44.61
42.60 43.62 43.75 43.79 43.31 42.91 42.79 42.48 42.05 42.91 43.30 42.75 41.94 40.77 40.53 40.53 39.97 39.81 40.06 40.86 40.40 43.33 41.88 42.67 43.16 43.50 44.18 46.48 48.24 48.08 49.45 51.79 50.94 50.33 50.80 51.05 48.38 47.75 47.57 48.01 48.82 48.10 44.36
42.52 43.09 43.20 43.31 42.99 42.55 41.95 41.43 41.47 41.59 41.31 40.90 40.32 39.32 38.57 38.49 38.34 38.25 37.52 37.70 38.01 38.87 39.29 39.47 39.50 39.73 40.26 42.07 43.49 43.56 45.77 47.12 47.02 46.86 45.70 44.82 44.46 44.19 44.25 44.69 45.05 45.50 45.01
42.55 42.59 42.57 43.06 42.66 41.29 40.49 40.05 40.47 40.61 39.90 39.46 38.67 37.91 37.57 37.44 37.15 36.89 36.82 36.85 37.24 37.63 37.78 37.99 38.06 37.74 37.53 38.30 39.47 39.75 40.80 44.67 43.44 43.31 42.69 41.52 41.83 40.93 41.08 41.99 42.08 41.95 41.44
42.58 42.32 41.92 41.92 41.19 40.00 39.45 39.36 39.41 39.29 38.92 38.49 37.70 37.20 37.27 36.84 36.24 36.24 36.67 36.95 36.69 37.33 37.28 37.40 37.15 36.92 36.97 36.55 36.54 36.50 36.56 36.60 36.44 37.00 36.73 36.51 38.75 36.52 38.75 38.75 37.62 36.77 37.93
42.15 41.16 40.62 40.91 40.11 39.12 38.70 38.51 38.61 37.98 37.76 37.37 36.53 36.16 36.18 35.92 35.22 35.33 36.26 36.97 36.88 36.73 37.01 36.76 35.98 35.45 35.64 35.31 35.16 35.29 35.90 36.48 36.41 36.87 36.70 35.17 37.01 36.25 36.11 35.48 32.87 30.48 34.17
41.71 40.26 39.70 40.45 39.63 38.72 38.51 38.25 37.65 37.44 37.12 36.71 35.79 35.36 36.06 39.34 37.94 35.88 37.92 38.64 37.91 36.24 36.39 37.06 37.52 36.07 34.43 35.66 36.43 36.80 36.68 36.75 36.63 37.74 38.58 37.72 36.09 34.86 35.07 34.96 33.91 33.83 32.52
40.63 40.05 39.52 39.47 39.17 38.40 38.60 38.14 38.14 37.28 36.79 35.87 35.72 36.06 38.40 39.17 38.86 38.42 38.28 38.33 38.49 38.29 38.43 38.10 38.09 38.16 37.83 36.33 35.49 35.59 35.23 34.88 34.42 34.67 35.32 35.84 38.20 40.39 38.88 35.79 34.04 30.61 29.45
40.97 40.39 40.45 39.95 38.79 37.99 38.31 38.17 37.68 37.24 37.23 36.30 35.76 36.80 38.56 38.30 37.90 37.91 37.36 37.19 37.08 37.57 38.10 38.43 38.66 38.01 38.17 38.96 37.35 34.78 32.96 32.38 31.76 30.75 29.09 31.27 31.39 32.24 36.62 36.41 36.34 35.85 28.95
41.59 40.62 40.08 39.83 38.70 38.40 38.70 37.76 37.41 36.80 35.97 35.74 35.96 37.15 38.09 37.34 36.92 36.68 36.18 35.77 35.69 36.22 35.54 35.33 35.30 35.86 36.28 37.69 36.76 34.23 27.69 24.72 21.18 20.20 22.32 27.71 30.12 29.25 26.74 31.84 32.70 33.07 35.20
41.65 40.93 40.05 39.26 38.23 37.85 37.73 37.61 36.63 35.91 35.71 35.59 36.04 37.42 37.38 36.58 36.18 35.47 34.73 34.60 34.73 33.72 32.40 29.59 30.02 30.56 33.10 35.65 34.07 31.30 14.85 15.22 16.55 18.20 20.40 22.13 25.85 29.60 27.27 26.04 25.97 25.18 25.98
41.42 40.30 38.77 38.09 38.04 38.02 37.64 37.21 36.35 36.12 35.80 35.51 36.38 37.30 37.16 36.05 35.46 34.42 33.71 33.26 32.83 29.78 24.76 24.56 23.81 25.78 27.30 34.78 33.15 27.70 23.13 23.39 23.46 25.56 26.45 27.49 26.93 33.19 32.92 26.02 24.16 23.13 24.64
38.71 37.56 36.86 36.54 36.71 36.43 36.97 36.06 35.00 34.82 34.79 35.63 37.00 37.26 37.28 36.03 34.65 34.23 33.58 31.47 29.07 26.39 23.29 24.16 24.11 32.45 26.35 35.04 33.37 27.56 24.79 23.02 25.40 24.38 25.63 31.40 30.01 32.66 32.49 24.69 22.75 20.97 21.73
36.79 36.26 36.16 35.87 36.36 36.18 36.02 34.66 34.16 33.73 35.47 37.03 37.08 37.05 36.98 35.58 34.68 33.99 30.54 25.92 28.83 23.57 19.95 23.61 23.68 24.45 27.29 27.31 34.54 33.13 26.24 25.81 25.86 25.59 24.66 26.03 32.05 32.25 31.49 30.25 23.38 23.67 24.86
36.77 36.53 35.76 35.70 35.54 35.72 35.41 34.13 33.57 35.44 36.21 36.84 36.58 36.41 35.94 35.54 34.79 32.89 28.34 26.83 25.34 24.86 23.33 22.32 22.59 23.67 23.42 31.38 32.67 33.86 32.50 30.11 25.57 24.75 24.94 26.06 31.01 31.11 30.50 27.35 30.08 30.75 26.66
36.46 36.27 35.54 35.04 35.07 35.49 35.88 34.37 34.31 35.88 35.74 36.09 35.72 35.62 35.51 34.61 33.65 30.33 27.58 25.79 24.46 23.78 22.50 21.84 20.70 21.11 23.97 23.53 31.17 31.67 31.49 30.71 26.42 26.49 28.57 29.06 28.88 28.28 25.65 28.19 29.46 27.31 21.85
36.71 36.36 35.36 34.71 34.26 34.74 35.24 34.99 35.10 36.10 36.05 35.42 35.09 35.11 34.39 33.33 32.13 28.72 28.35 26.24 24.20 22.45 21.73 21.44 21.40 20.11 21.32 22.63 24.38 25.79 24.23 28.15 27.83 28.35 23.77 25.69 25.65 26.15 24.85 23.41 23.13 22.47 21.70
39.38 38.44 37.08 35.86 35.17 35.26 35.33 35.42 36.30 36.29 35.63 35.36 34.65 34.09 34.09 34.21 31.59 27.98 26.38 25.82 24.22 24.29 22.06 21.38 21.72 20.44 20.23 23.46 27.66 27.22 26.11 24.42 27.52 25.64 22.06 19.67 19.22 19.22 19.45 19.89 20.31 20.72 21.38
38.20 37.28 36.99 35.97 35.39 35.32 35.29 35.64 37.11 36.57 35.77 34.57 34.02 33.63 33.25 32.15 30.83 26.42 24.32 30.50 30.82 31.55 32.54 31.58 25.64 24.85 28.96 30.64 31.87 32.65 31.83 31.26 31.12 23.78 20.14 17.90 17.31 17.39 18.17 18.55 18.83 19.23 19.96

GFSMW_sfc_wetblb_075.txt.gz
Wetbulb
49.43 48.56 48.87 49.15 50.08 50.77 53.10 57.56 63.70 63.11 65.97 65.68 65.46 65.35 65.08 66.05 66.19 66.44 66.43 65.95 65.44 65.35 65.90 65.69 65.14 64.12 63.35 63.79 63.22 62.56 61.61 61.67 61.46 59.75 60.67 61.05 61.48 59.61 59.54 61.98 60.82 59.18 57.63
47.71 47.81 47.85 49.02 49.76 49.75 50.01 50.89 53.02 53.13 58.85 64.15 65.11 65.48 65.52 65.82 66.29 66.43 66.44 66.69 66.74 66.64 65.95 65.06 64.60 64.04 62.69 62.09 62.07 61.32 60.70 60.18 59.93 59.77 57.98 57.20 59.39 58.89 58.36 58.10 56.59 57.02 55.47
47.19 46.79 47.71 48.65 49.47 50.01 50.74 50.98 50.61 50.63 50.98 51.48 52.95 53.94 55.70 60.93 63.02 63.83 64.04 59.29 60.58 63.19 64.62 65.33 65.30 64.77 63.31 63.35 63.28 61.86 60.47 60.47 60.12 59.79 58.68 55.73 54.23 53.12 57.17 56.32 54.89 54.71 53.93
45.08 46.34 46.96 48.02 49.07 50.23 51.30 51.20 51.20 51.19 51.13 51.20 50.75 50.78 51.38 51.85 53.09 53.46 53.19 53.03 55.36 55.93 56.61 57.90 60.85 63.01 63.06 62.21 62.82 62.35 61.58 60.45 59.43 57.59 57.78 58.26 55.55 53.70 53.26 55.02 54.49 52.41 54.38
45.53 45.83 47.18 48.61 49.74 49.77 49.95 50.14 50.55 50.54 50.62 50.73 50.68 50.47 49.76 49.88 50.25 51.05 51.70 52.27 54.01 53.75 53.76 54.48 55.40 58.21 60.92 61.81 61.92 61.73 60.38 60.49 60.10 58.73 57.59 57.36 56.10 55.25 53.24 51.72 54.55 56.71 56.13
44.94 45.64 47.76 48.82 48.12 48.55 48.87 49.69 49.87 49.79 50.82 51.18 50.97 50.45 49.83 49.35 50.46 51.22 51.49 51.84 52.48 52.26 51.50 52.32 53.37 54.48 56.52 58.23 59.93 60.29 59.63 59.89 59.20 59.21 58.44 57.93 56.00 54.63 52.59 51.35 51.79 54.07 56.14
43.93 45.26 47.20 47.24 47.09 47.15 47.96 48.09 48.69 48.42 49.25 49.44 49.66 50.02 50.01 50.21 49.98 49.86 49.73 49.81 50.44 50.30 48.88 49.96 50.65 51.46 52.43 54.99 58.09 59.26 59.05 59.11 58.86 58.58 58.07 58.51 57.74 57.20 55.87 54.50 53.44 53.20 53.60
43.22 45.64 47.70 47.15 46.70 46.58 47.15 46.82 47.17 47.21 47.46 47.07 46.36 46.46 47.06 47.07 46.23 46.03 47.25 46.52 47.06 47.61 46.45 47.17 47.92 47.78 49.05 51.14 53.99 57.15 56.45 56.23 55.84 54.93 54.61 54.26 52.26 52.12 51.75 52.18 51.44 49.28 49.64
43.28 45.78 46.33 46.44 46.06 45.99 46.21 46.07 46.40 46.10 45.96 45.24 44.57 43.66 43.77 43.64 43.15 42.74 43.24 43.38 42.95 44.35 43.84 44.13 44.55 44.81 45.75 47.77 49.89 51.20 52.51 52.78 51.84 51.80 52.19 50.74 48.63 48.46 48.55 49.15 49.51 48.84 45.24
43.75 45.24 45.65 45.69 45.57 45.59 45.20 44.87 45.53 45.21 44.42 43.76 43.46 42.14 41.61 41.53 41.45 41.53 40.96 41.10 41.41 41.89 42.09 42.30 42.39 42.52 43.16 44.74 46.34 47.67 48.74 48.76 48.74 48.57 47.84 47.32 46.54 46.06 46.40 46.56 46.47 46.84 46.42
44.15 45.03 45.05 45.20 45.01 44.30 43.79 43.40 43.82 43.35 42.57 42.11 41.31 40.90 40.34 40.14 40.11 39.92 39.81 39.94 40.39 40.64 40.72 40.83 40.82 40.62 40.94 41.79 43.20 43.51 45.05 45.59 44.72 44.60 44.24 42.40 42.55 41.88 42.60 44.14 43.97 42.64 42.81
44.19 44.37 44.49 44.25 43.28 42.95 42.41 42.62 42.58 42.48 41.93 41.18 40.45 39.85 39.64 39.46 39.25 39.13 39.32 39.91 39.76 40.05 39.63 39.61 39.42 39.42 39.51 39.87 40.06 39.67 39.87 40.20 39.94 39.98 40.29 39.63 40.26 40.31 40.35 39.77 38.25 38.07 40.06
43.64 43.54 43.40 43.44 42.97 42.16 41.70 41.58 41.62 41.29 40.58 40.19 39.79 39.38 39.04 38.78 38.28 38.62 39.24 39.44 39.23 39.01 39.03 38.66 38.09 37.83 38.04 38.30 38.79 39.00 38.96 39.16 38.91 38.73 38.35 38.37 38.63 37.87 37.59 37.56 37.67 38.35 38.32
43.58 43.00 42.38 42.82 42.57 41.77 41.30 40.92 40.68 40.41 39.69 39.19 38.80 38.75 39.78 40.24 39.15 39.05 39.25 39.52 39.17 38.81 39.02 39.19 38.12 36.97 37.22 37.81 38.01 37.96 37.87 37.91 37.96 38.61 38.94 38.64 38.27 37.59 37.47 36.91 36.68 36.98 37.83
42.68 42.58 41.97 42.32 42.02 40.90 40.55 40.26 40.14 39.34 39.05 38.33 38.15 38.52 40.12 40.35 39.83 39.31 38.99 39.13 39.06 39.01 39.14 38.84 38.96 38.70 37.83 37.11 36.56 36.63 36.50 36.41 35.72 35.61 35.80 36.88 39.23 39.75 39.00 37.40 36.45 35.09 34.61
42.99 42.50 42.00 41.58 41.52 40.69 40.41 39.87 39.48 38.72 38.77 37.93 37.73 38.65 39.38 39.31 39.11 38.66 38.09 37.94 38.02 38.61 39.17 39.07 38.77 38.42 38.22 38.74 37.96 36.02 34.98 34.72 33.97 31.86 31.84 33.52 32.89 34.45 36.60 36.17 36.52 36.63 33.71
43.00 42.53 42.34 42.12 41.59 40.92 40.82 39.67 39.17 38.62 37.99 37.62 37.58 38.59 39.04 38.31 38.08 37.54 37.06 36.76 36.71 37.01 36.43 36.61 37.27 36.77 37.61 38.20 36.37 32.99 30.27 29.32 29.15 29.64 31.63 32.21 32.44 31.47 31.18 33.00 33.16 34.70 35.31
42.97 42.99 42.56 42.02 41.44 40.52 40.09 39.66 38.72 37.91 37.49 37.15 37.30 38.25 38.46 37.36 36.87 36.25 35.81 35.75 35.62 34.31 33.68 33.43 33.92 34.39 35.08 35.34 34.23 31.41 27.92 28.12 27.79 28.81 29.81 31.18 31.68 32.68 29.72 29.40 29.73 29.73 31.02
43.38 43.27 42.51 41.17 40.02 39.71 39.43 38.75 37.34 37.11 36.95 36.76 37.21 38.06 38.04 36.74 36.07 35.09 34.79 34.29 33.60 31.91 30.11 30.10 30.66 31.59 33.52 34.49 33.04 29.60 28.46 28.12 28.52 29.57 31.12 31.78 31.66 33.48 32.04 28.66 26.75 26.38 28.03
41.99 40.42 39.40 38.92 39.08 38.81 39.09 37.92 36.97 36.68 36.39 36.86 37.48 38.44 37.91 36.67 35.62 35.06 34.37 33.41 31.67 29.59 29.64 29.42 29.80 33.04 31.63 34.36 32.84 29.38 28.38 27.68 28.24 28.61 28.91 31.43 32.40 32.59 32.34 28.69 27.01 25.41 26.88
38.11 37.70 38.00 38.12 38.32 37.92 38.15 37.13 36.66 36.39 37.20 37.66 38.03 37.85 37.63 36.44 35.78 34.91 32.91 30.87 29.90 28.20 27.71 29.01 28.61 29.33 30.74 32.20 35.19 32.56 29.26 28.76 28.10 27.96 28.09 29.29 32.05 32.50 31.76 29.70 27.60 27.79 28.69
37.04 37.02 36.67 36.55 36.92 37.46 37.60 36.29 35.77 37.10 37.29 37.57 37.43 37.05 36.61 36.12 35.30 33.63 30.11 30.50 29.03 28.37 27.40 27.04 27.01 28.07 28.36 32.11 33.79 34.45 32.58 31.61 28.42 27.40 28.41 29.42 30.65 30.37 29.94 28.74 30.42 31.18 27.96
37.29 37.80 37.47 36.35 36.57 37.20 37.60 36.14 36.27 36.93 36.72 36.86 36.45 36.42 35.96 35.39 34.86 32.82 30.11 28.98 28.03 27.90 26.78 26.20 25.68 25.88 26.97 27.75 32.34 32.57 32.53 32.12 29.35 29.01 29.53 29.35 28.49 27.99 26.77 28.47 29.55 27.31 26.41
37.29 37.03 36.42 36.00 35.55 36.13 36.56 37.21 36.68 37.38 36.65 36.10 35.98 35.84 35.03 34.24 33.55 32.62 31.30 29.39 27.51 27.05 26.47 25.58 25.75 25.43 25.27 26.01 27.79 28.99 29.43 30.05 29.91 29.73 28.43 27.60 26.90 26.31 26.21 25.22 25.22 25.72 25.80
39.03 38.35 37.45 37.12 36.74 36.48 36.55 36.89 36.67 37.04 36.04 36.00 35.61 35.10 34.99 35.09 32.82 31.97 30.23 29.76 28.65 28.48 26.71 26.46 26.13 24.63 24.32 26.13 28.71 29.02 27.79 28.23 29.15 28.59 26.02 24.48 23.35 23.32 23.17 23.45 23.74 24.23 24.54
39.73 39.44 39.42 38.73 38.41 37.01 36.44 36.46 37.00 37.13 36.22 35.33 34.95 34.66 34.49 34.85 33.38 32.33 30.46 33.22 32.91 32.87 33.65 32.76 27.98 26.91 29.66 30.79 32.37 32.64 32.84 32.87 32.30 27.18 24.85 23.12 22.55 22.02 21.99 21.84 22.29 22.78 23.45

GFSMW_sfc_wetblb_078.txt.gz
Wetbulb
54.52 54.28 53.74 54.13 60.80 63.03 64.33 67.54 67.80 69.25 69.63 69.13 68.68 68.85 68.74 69.57 69.93 70.22 70.30 69.93 69.19 68.51 68.50 68.90 68.92 68.83 67.70 67.54 67.67 67.03 65.94 65.61 66.34 64.11 64.09 64.74 65.26 64.70 64.98 65.36 65.16 64.84 64.13
54.21 54.00 54.18 53.32 54.65 59.67 60.06 62.29 65.75 67.53 68.58 69.08 69.22 69.34 69.29 69.52 69.83 70.38 69.79 69.78 69.52 69.49 69.20 68.87 68.45 68.30 67.42 67.31 66.64 65.72 64.64 64.42 65.13 62.72 61.84 58.98 60.50 62.38 63.45 63.57 62.82 62.32 62.48
53.43 52.93 53.37 53.62 54.37 54.93 55.75 56.86 58.53 60.06 61.97 65.03 64.88 64.23 64.99 66.58 67.26 68.03 68.12 64.51 64.29 64.82 65.33 66.06 66.00 66.06 66.24 65.11 65.59 65.49 64.14 62.93 64.26 63.53 61.89 58.03 55.59 59.27 61.73 61.17 61.53 60.46 60.51
53.77 51.03 50.79 52.81 54.00 55.06 55.97 55.79 55.35 55.53 55.54 55.88 57.16 58.67 60.56 60.47 60.41 60.73 59.69 58.48 58.53 58.90 59.38 60.02 61.33 63.73 64.38 64.15 64.55 64.74 63.60 63.02 61.59 61.81 61.59 62.11 58.94 55.82 54.36 59.32 60.51 59.68 59.90
55.05 51.90 50.62 51.61 53.37 54.70 55.27 55.51 55.29 55.15 55.35 55.69 55.73 56.04 54.77 55.39 55.31 55.50 55.18 56.22 57.34 56.71 56.45 57.11 57.97 59.21 61.00 61.18 62.12 62.58 62.48 61.77 60.75 60.92 60.45 59.54 59.93 57.90 55.83 53.66 56.87 59.14 59.00
53.27 52.36 52.28 52.18 52.93 53.80 53.94 54.74 54.63 54.28 55.22 55.69 55.65 55.47 55.09 54.17 54.53 55.23 55.64 56.17 56.68 56.13 54.56 54.79 55.84 57.13 58.30 58.83 59.68 60.97 61.97 61.63 61.63 61.85 61.24 59.66 57.59 56.54 55.75 53.52 54.22 54.39 56.52
53.79 53.36 50.73 51.34 51.75 51.90 52.81 53.63 54.13 53.45 54.34 54.64 54.84 54.96 54.81 54.62 54.23 54.40 54.72 54.31 54.96 54.75 53.00 53.04 53.49 54.27 54.78 56.22 58.22 59.74 60.37 60.76 60.43 60.18 59.51 59.54 58.71 58.19 56.48 55.69 54.48 52.86 54.44
53.35 52.33 51.51 51.80 52.06 51.95 52.41 52.44 52.93 52.16 52.79 53.08 52.54 52.90 53.05 53.49 52.67 51.98 52.64 52.21 52.22 51.72 50.30 50.49 51.06 50.92 51.69 53.49 55.86 58.43 59.01 58.02 58.05 57.75 57.90 55.23 53.40 53.42 53.25 53.26 51.85 49.69 51.07
47.45 47.51 50.29 52.22 51.92 51.77 51.71 51.92 51.91 51.40 51.37 50.89 50.93 50.40 50.65 50.17 49.81 48.73 49.53 49.72 49.07 48.29 48.47 48.62 48.73 48.90 49.37 50.87 52.96 55.20 54.99 55.02 54.72 53.21 53.53 51.65 50.79 51.37 51.88 52.05 51.73 49.36 46.35
46.56 47.63 49.47 51.06 51.54 52.00 51.46 51.45 51.62 50.64 50.30 50.01 49.71 48.70 47.84 47.66 47.73 48.01 47.12 46.81 47.16 46.87 46.89 46.92 46.95 47.09 47.67 48.80 50.21 51.83 51.03 51.42 51.31 51.59 51.24 51.38 50.74 50.51 50.69 50.78 49.80 49.78 48.07
46.90 48.19 49.52 50.04 50.05 50.94 50.34 50.29 50.28 49.43 49.00 48.50 47.68 47.04 46.34 45.70 45.97 46.09 45.54 45.46 45.54 45.47 45.29 45.32 45.29 45.19 45.59 46.68 48.27 48.46 48.82 48.98 47.83 47.62 47.58 46.04 46.24 46.27 47.15 47.76 47.63 47.70 46.40
47.84 49.48 50.18 49.41 48.26 48.62 48.79 49.26 49.30 48.85 48.38 47.33 46.61 45.77 45.18 44.95 44.96 44.67 44.34 44.65 44.56 44.47 44.18 44.07 43.89 43.81 43.83 44.72 45.30 44.76 45.43 45.45 44.67 44.69 45.14 43.81 44.09 44.18 44.53 43.93 43.28 43.26 42.72
48.20 49.26 49.70 49.36 49.59 49.05 48.34 48.22 48.30 48.20 47.12 46.42 45.96 45.07 44.56 44.49 43.99 43.66 43.48 43.44 43.32 43.24 43.19 42.91 42.31 41.88 41.86 42.30 42.72 43.11 43.39 43.30 43.07 43.00 42.67 42.24 42.44 41.90 41.88 41.96 42.71 43.19 42.80
48.42 49.10 49.31 49.80 49.79 49.21 48.61 48.25 47.61 47.28 46.03 45.40 45.26 44.72 44.63 44.52 43.95 43.19 42.44 42.27 42.80 42.72 42.60 42.25 40.95 39.91 40.10 40.24 40.19 40.56 40.84 40.70 40.66 40.90 41.28 41.16 40.97 40.44 40.70 40.47 40.13 40.38 42.24
48.23 48.76 48.81 49.44 49.34 48.68 48.29 47.86 47.45 46.22 45.52 44.55 44.18 44.11 44.56 44.31 43.59 42.97 42.15 41.50 40.92 41.08 41.04 40.99 40.26 39.83 39.46 38.83 38.64 38.95 38.96 38.73 37.99 38.44 38.77 38.85 38.95 39.13 39.17 39.64 39.11 38.95 39.14
48.50 49.10 49.30 49.42 49.32 49.10 47.77 46.70 46.03 45.01 44.54 43.87 43.42 43.38 43.35 42.99 42.33 41.46 40.44 39.68 39.43 40.02 40.16 40.13 39.50 39.10 39.06 39.47 39.19 38.97 38.40 38.02 37.20 34.95 35.46 35.76 35.11 36.21 36.83 36.57 37.23 37.03 35.60
48.13 49.48 49.59 49.57 49.81 49.22 48.37 46.51 46.07 45.20 43.73 43.26 42.83 42.51 42.41 41.62 40.87 39.80 38.99 38.41 38.50 38.92 38.93 39.37 39.10 38.47 38.37 38.26 36.43 35.38 35.24 33.96 33.91 34.53 35.28 34.62 34.70 33.58 33.99 33.87 34.56 35.56 35.14
47.62 49.20 50.51 50.38 50.11 49.51 48.02 47.40 45.65 43.65 43.08 42.44 41.88 42.03 41.62 40.58 39.42 38.31 37.74 37.60 37.43 36.78 36.72 37.10 37.10 36.90 36.37 35.55 34.18 33.18 33.12 33.05 33.27 33.76 34.37 34.49 34.70 34.75 32.65 32.18 32.38 33.05 33.76
48.18 49.83 50.78 50.21 49.42 47.75 46.96 45.27 43.67 43.22 42.39 41.66 41.38 41.55 41.24 39.91 38.15 37.05 36.71 36.09 35.29 34.43 35.67 35.73 36.17 35.57 34.97 34.82 34.09 33.24 33.60 32.83 32.65 33.81 34.49 34.10 34.11 33.77 32.08 31.53 29.61 29.95 31.23
48.32 48.51 48.20 46.70 47.08 46.18 45.28 43.94 42.81 42.20 41.47 41.73 41.36 41.75 41.41 39.96 37.59 36.90 36.16 35.55 34.62 33.44 34.59 33.53 34.28 34.74 34.96 34.52 33.31 32.05 32.79 31.49 31.44 31.80 31.97 32.14 33.82 32.73 32.38 31.85 30.39 29.07 30.55
44.42 45.15 45.15 45.14 45.65 44.66 44.15 42.82 42.49 41.36 42.39 41.95 41.62 41.17 40.67 38.97 37.68 36.75 35.77 33.75 33.24 33.98 33.90 33.95 34.25 34.63 35.39 35.38 34.06 32.37 32.03 31.51 30.96 30.97 31.20 32.08 32.20 32.28 32.44 30.72 30.67 30.46 31.94
41.82 43.47 43.57 42.96 42.78 43.15 43.12 42.45 41.48 42.46 41.41 40.93 40.03 39.82 38.88 37.43 36.62 35.46 33.38 32.86 32.64 33.12 32.51 32.48 31.90 32.82 33.93 34.45 35.91 35.48 33.61 32.38 31.05 30.24 31.46 32.22 30.62 30.41 30.21 30.31 30.42 31.54 30.42
41.74 42.18 42.48 41.77 41.96 42.36 42.74 40.94 40.70 41.24 40.71 40.22 39.47 38.82 37.58 36.61 36.21 34.33 32.69 32.28 33.41 32.49 31.72 30.72 30.90 31.10 31.38 33.02 34.81 35.18 34.68 33.93 31.24 31.37 31.43 29.88 28.87 28.47 28.26 28.34 29.85 29.43 29.33
42.34 42.47 41.99 41.17 40.14 41.09 41.04 41.44 39.67 40.45 40.21 39.32 39.03 37.95 36.46 35.60 35.69 35.12 34.13 34.03 32.14 31.35 31.33 30.54 29.79 30.73 30.12 30.46 31.82 33.14 33.38 32.96 32.04 30.87 31.94 29.82 28.48 27.01 27.50 27.24 27.52 28.13 28.72
41.57 41.61 40.70 39.44 39.54 40.13 39.45 39.38 38.60 38.98 38.16 39.27 38.76 37.09 36.28 36.40 34.94 34.91 34.47 34.28 34.42 33.93 32.41 31.98 31.38 30.52 29.81 30.36 31.92 31.64 31.01 31.27 31.29 30.99 30.33 29.10 27.73 27.21 27.04 26.95 27.00 27.35 27.18
43.69 43.11 42.65 40.95 39.98 38.56 37.97 38.39 38.50 38.51 38.44 37.89 37.94 37.10 35.75 36.24 35.44 34.70 33.45 35.82 35.27 34.68 34.48 33.80 32.36 31.60 32.55 31.47 32.58 32.85 32.82 32.35 32.12 30.62 28.68 28.67 27.49 26.64 26.57 25.82 26.08 26.46 26.05

GFSMW_sfc_wetblb_081.txt.gz
Wetbulb
57.23 56.04 55.74 56.82 63.29 67.98 68.89 69.26 69.17 69.65 69.86 69.55 69.01 68.93 68.39 69.72 70.21 70.59 70.60 70.58 70.40 69.84 69.08 68.88 68.79 68.64 67.87 67.77 67.37 67.08 66.14 66.00 66.79 64.33 64.16 64.47 65.60 65.24 65.11 65.26 64.90 64.65 64.94
56.12 55.57 55.48 55.63 56.64 63.26 64.81 67.25 68.32 69.05 69.31 69.41 69.60 69.90 69.73 69.95 70.08 70.79 70.27 70.12 69.76 69.40 68.68 68.38 67.98 68.51 67.67 66.83 66.72 66.34 65.11 64.83 65.47 62.51 61.96 59.08 60.95 61.96 62.68 64.15 63.43 62.87 63.18
55.45 55.76 54.96 55.46 55.76 58.36 60.63 61.78 64.86 67.88 67.91 69.09 68.95 67.12 67.70 68.19 67.99 68.39 67.93 66.92 65.94 66.14 65.63 65.44 65.78 65.99 65.98 65.15 65.14 65.15 64.34 62.46 63.83 63.36 61.27 58.19 55.63 58.90 61.59 62.15 62.14 61.71 61.44
55.66 56.52 53.94 53.34 55.34 56.14 58.07 57.67 58.74 60.04 60.77 62.40 64.31 64.82 64.83 64.44 63.95 64.08 63.88 61.52 60.38 60.46 60.41 60.83 61.72 62.73 64.43 64.12 63.94 64.22 64.33 63.83 61.63 63.70 62.15 61.65 60.19 57.07 55.58 60.19 60.50 60.86 60.06
55.43 56.11 53.74 53.59 54.99 56.86 56.82 57.10 56.82 56.74 56.84 57.23 57.91 58.05 57.19 57.45 56.96 56.22 56.29 56.65 57.62 57.36 57.19 57.59 58.21 58.76 60.00 61.34 61.02 61.30 61.24 63.05 61.72 61.55 61.17 60.23 59.54 58.87 56.08 54.25 55.86 59.76 59.03
54.97 56.94 55.63 54.03 54.12 55.95 56.23 56.50 55.77 55.60 56.33 56.66 56.62 56.60 57.42 56.08 55.25 55.89 55.89 56.28 56.75 56.41 55.65 55.62 56.25 57.20 57.53 58.31 59.27 59.44 59.90 60.66 60.79 61.14 60.92 59.22 57.76 56.82 55.50 54.53 54.53 54.96 56.29
54.49 56.63 54.33 52.54 53.51 53.88 54.53 55.03 55.12 54.56 55.81 56.25 56.21 56.20 56.24 56.14 55.75 55.49 55.47 55.10 55.20 55.19 54.07 53.68 53.88 54.10 54.35 55.12 56.57 58.10 59.14 59.56 59.08 59.28 59.63 60.49 58.67 58.20 56.99 55.44 54.71 53.38 53.91
54.37 55.76 55.13 53.52 53.72 53.57 53.52 53.88 54.33 53.94 54.76 54.98 54.62 54.96 54.98 54.53 53.91 53.55 53.70 53.25 52.88 52.78 51.79 51.64 51.94 51.81 51.88 52.60 54.18 56.40 57.67 58.11 57.13 56.85 57.02 55.42 53.71 53.90 53.58 53.99 52.64 50.83 51.94
51.70 51.47 54.04 53.55 53.99 53.37 53.41 53.21 53.73 53.23 53.39 53.24 53.07 52.69 52.62 52.35 51.39 50.99 51.22 51.00 50.41 49.42 49.29 49.89 49.76 50.02 50.04 50.71 51.81 53.99 54.53 55.15 55.28 54.17 53.24 51.82 51.45 51.76 52.30 52.50 52.98 51.25 47.17
49.89 49.65 50.19 52.25 53.58 53.49 53.53 53.72 53.48 52.29 52.17 52.09 51.98 51.08 50.11 49.95 49.54 49.47 48.74 48.35 48.43 48.19 48.19 48.31 48.33 48.31 48.54 49.00 50.10 51.68 51.22 51.91 51.09 52.08 51.90 51.09 50.86 50.87 51.05 51.08 50.92 50.89 49.38
48.77 49.48 50.47 52.55 52.78 52.74 52.28 52.15 52.04 51.42 50.75 50.63 49.68 49.16 48.28 47.84 47.76 47.54 47.05 46.82 46.86 46.60 46.57 46.51 46.51 46.44 46.57 47.32 48.20 48.71 49.23 49.70 48.52 48.23 48.06 46.81 47.85 47.52 48.07 49.05 48.57 48.09 47.34
48.86 49.72 50.61 51.45 51.34 51.08 50.99 50.98 51.13 50.53 50.10 49.65 48.94 48.27 47.35 46.83 46.62 46.21 45.81 45.85 45.80 45.67 45.17 45.16 45.12 45.04 45.04 45.63 45.99 45.91 46.70 46.64 45.91 46.06 46.30 45.11 45.50 45.44 45.34 44.93 44.11 43.98 44.09
49.20 50.05 50.39 49.95 50.10 50.03 50.02 50.15 50.21 49.89 49.33 48.60 48.17 47.19 46.71 46.52 46.08 45.37 44.96 44.76 44.58 44.45 44.37 44.00 43.49 43.18 43.07 43.45 43.93 44.50 44.49 44.33 43.99 43.96 43.65 43.21 43.68 42.52 42.74 43.14 42.82 42.88 43.18
49.34 49.99 50.22 50.33 50.65 50.98 50.36 49.85 49.42 49.62 48.16 47.80 47.53 46.85 46.54 46.45 45.86 45.02 44.27 43.80 43.94 43.73 43.60 43.32 42.26 41.37 41.35 41.28 41.37 42.10 41.87 41.54 41.37 41.57 41.80 41.42 40.93 40.48 40.79 40.57 40.32 40.46 41.46
49.09 49.82 50.15 50.81 51.10 50.64 50.43 50.25 49.88 48.79 47.69 46.47 46.38 46.36 46.77 46.78 45.75 44.75 43.82 43.12 42.69 42.36 42.28 42.03 41.19 40.62 40.33 39.86 39.70 40.09 39.93 39.42 38.89 39.05 38.54 38.54 38.63 38.85 38.76 39.22 38.66 38.60 38.75
49.02 50.00 50.60 51.22 51.17 50.88 50.33 49.81 49.04 47.97 47.49 46.44 45.74 46.13 45.79 45.19 44.37 43.75 42.74 41.82 40.87 40.79 40.71 40.75 40.06 39.40 39.65 40.10 40.08 39.86 39.15 38.88 37.64 35.52 35.75 35.79 35.53 36.72 37.03 37.35 37.50 36.34 34.65
48.87 50.08 50.79 51.35 51.89 51.65 51.16 49.45 48.87 48.01 46.24 45.89 45.63 44.84 44.72 43.89 43.29 42.49 41.43 40.32 39.63 39.96 39.90 39.87 39.56 38.67 38.62 38.75 38.61 38.70 37.51 35.58 35.12 35.19 34.97 34.29 34.13 33.92 33.88 34.45 35.58 35.45 35.59
49.11 49.74 51.26 52.36 52.65 52.94 51.87 50.81 49.37 47.37 45.68 45.39 44.84 44.28 43.86 42.94 42.13 40.83 39.91 39.33 38.92 38.34 38.10 38.58 38.93 38.55 37.17 36.06 35.48 35.10 32.59 32.90 33.93 34.57 34.50 34.47 34.64 33.51 32.77 31.92 31.72 32.12 32.81
48.91 49.28 50.94 52.51 52.99 52.08 51.21 49.57 47.55 46.14 45.02 44.45 44.07 43.69 43.33 42.03 40.59 39.25 38.58 37.79 37.16 36.29 36.65 37.07 36.86 35.89 34.87 35.08 34.67 33.98 33.81 33.00 32.96 33.63 34.14 33.95 33.89 34.00 32.87 31.41 29.24 29.11 30.06
48.27 49.70 51.24 51.92 51.68 50.77 49.52 47.38 45.85 45.17 44.12 44.20 43.85 43.88 43.19 41.81 39.91 39.11 37.82 36.87 35.90 34.28 34.87 35.16 35.19 35.59 34.80 34.91 34.08 32.42 32.06 31.03 30.67 31.27 31.62 32.87 33.76 33.08 32.79 31.26 29.26 27.89 29.04
47.14 49.17 49.56 49.08 49.37 48.87 47.47 46.06 45.68 44.44 45.15 44.87 44.08 43.33 42.71 41.40 40.68 38.74 37.12 34.69 33.91 33.94 34.79 33.89 34.60 34.79 35.53 34.56 34.38 33.25 31.49 30.60 30.03 29.58 29.55 30.64 32.46 32.46 33.03 31.55 29.25 29.49 30.52
44.49 46.28 46.37 45.99 46.05 46.31 45.65 44.83 44.11 45.01 44.58 43.56 42.60 42.03 41.42 39.88 38.44 36.46 34.56 33.75 32.92 32.94 33.61 33.21 32.97 33.59 34.55 35.56 36.14 34.95 33.92 32.90 30.01 29.09 29.53 30.61 31.02 30.86 30.83 30.13 30.53 31.68 31.35
43.30 44.71 44.45 43.50 43.88 44.62 45.13 43.72 44.00 43.59 42.52 41.85 41.12 40.88 39.69 38.44 37.09 34.96 33.42 32.68 32.64 33.32 33.20 31.82 31.28 30.96 31.54 32.88 35.84 36.48 36.35 34.95 31.10 30.28 31.12 30.71 29.77 29.45 28.72 28.90 30.04 31.02 28.30
43.87 44.18 43.73 43.06 42.34 43.36 43.26 44.04 42.92 42.02 40.93 40.11 40.82 40.12 37.90 36.91 36.15 34.99 34.02 33.36 32.80 33.88 32.32 30.97 30.00 30.58 30.16 30.37 31.78 33.38 33.68 34.89 33.01 31.31 30.77 30.69 29.34 28.79 28.14 26.99 27.42 26.93 26.90
43.65 43.35 43.21 42.61 42.25 42.12 41.59 42.77 41.60 40.98 39.20 39.48 39.75 39.18 37.88 37.09 35.18 34.89 34.43 34.20 36.33 35.71 32.37 31.75 31.06 30.01 29.32 29.74 32.17 31.84 31.12 31.40 31.69 30.99 29.34 27.86 26.84 25.91 25.84 25.74 25.82 26.14 26.05
43.83 44.16 44.25 42.36 40.70 38.88 38.39 38.58 38.86 39.04 38.44 37.78 38.28 38.11 37.40 36.93 35.41 34.53 34.39 37.62 37.81 37.44 37.30 36.97 33.75 31.49 33.79 33.44 34.26 34.04 34.04 33.78 33.23 29.41 27.54 27.10 27.02 25.75 25.59 24.94 25.05 25.27 25.83

GFSMW_sfc_wetblb_084.txt.gz
Wetbulb
54.49 53.74 53.67 53.18 61.14 65.33 65.94 65.34 65.95 66.44 67.57 66.97 66.61 65.87 66.50 67.04 67.51 68.08 67.89 68.30 68.08 68.11 66.39 65.73 66.68 66.12 65.63 65.24 65.17 64.33 64.24 62.40 63.00 61.37 60.98 61.54 62.14 62.09 62.23 61.95 61.11 60.54 61.35
51.19 52.27 52.74 52.68 54.09 62.56 64.21 64.80 65.82 66.11 66.12 67.09 66.57 66.33 66.81 66.63 67.81 68.11 67.71 68.17 68.32 67.42 67.20 66.63 66.31 66.27 65.86 65.75 65.16 64.72 63.26 63.33 63.21 61.50 60.23 57.50 57.24 59.28 59.20 59.61 59.18 57.73 57.76
51.78 51.23 51.81 51.91 51.93 55.26 60.71 61.94 64.01 65.41 65.36 66.02 65.63 64.70 64.53 65.35 65.18 65.74 65.67 61.61 63.21 62.91 62.66 63.61 64.28 64.45 64.61 64.12 64.15 63.78 62.84 61.75 62.64 62.34 59.75 54.17 52.32 54.77 57.05 57.72 57.59 56.61 55.77
53.40 52.90 51.50 51.72 51.95 52.74 55.11 55.40 57.72 59.98 59.71 61.22 63.16 62.00 61.78 62.05 58.86 59.83 60.62 57.29 57.65 57.32 57.47 57.40 58.10 58.09 61.51 63.09 62.75 62.91 62.44 62.19 58.32 59.29 61.02 59.39 58.10 53.41 52.90 56.36 56.16 55.94 56.43
51.10 52.89 50.82 51.01 52.43 53.94 54.07 53.66 54.15 54.87 54.69 54.73 56.43 57.67 54.30 52.99 52.83 52.64 53.10 54.06 54.53 54.62 54.73 54.91 55.17 55.57 56.34 57.17 57.44 57.25 57.38 57.75 58.15 58.87 58.86 56.95 57.02 57.28 55.82 52.94 54.47 55.91 56.44
50.19 51.45 51.42 51.06 52.51 53.58 53.67 53.31 52.61 52.56 53.24 53.18 52.96 52.45 51.49 50.65 50.53 51.23 51.38 52.38 53.40 53.27 53.10 53.84 53.37 53.89 53.91 53.92 55.01 56.24 57.04 57.52 58.70 58.65 58.56 57.14 56.29 55.41 55.62 54.38 54.09 53.76 54.72
49.17 50.48 48.84 48.56 50.44 52.07 52.95 52.94 52.44 51.77 52.83 52.75 52.86 53.11 52.71 52.24 51.85 52.03 51.87 51.88 52.16 52.01 49.85 50.98 50.51 50.40 50.48 51.29 52.27 53.31 54.85 55.89 57.26 57.91 58.17 58.85 58.21 56.42 55.29 54.91 53.57 52.83 52.62
48.23 49.83 49.14 49.11 50.11 51.37 51.87 52.13 51.94 51.91 52.72 52.59 52.13 52.18 51.97 50.96 50.20 50.02 49.99 49.01 48.57 48.27 48.27 48.26 48.50 48.69 48.91 49.26 50.20 51.69 53.47 54.57 55.47 54.77 55.23 54.68 53.56 54.04 54.10 53.94 52.65 49.87 49.71
45.78 49.10 49.97 50.08 50.29 50.12 50.66 50.57 51.28 51.37 51.77 51.09 50.44 49.83 49.97 49.51 48.26 47.65 47.70 47.18 47.05 47.31 46.39 47.07 46.73 47.03 47.32 47.80 48.52 49.63 49.92 50.91 53.43 50.75 52.26 51.38 51.16 51.42 51.65 51.85 51.90 50.20 45.53
43.33 45.44 46.90 48.55 50.20 51.37 50.53 50.71 50.59 50.16 49.93 49.90 48.93 48.53 47.67 47.42 47.11 46.56 45.28 44.92 44.86 44.94 44.95 44.91 45.10 45.04 45.48 45.91 46.31 47.44 48.84 50.02 49.36 49.88 50.98 49.75 49.71 49.37 49.31 49.19 49.24 48.95 47.57
43.83 44.59 45.73 47.75 49.25 50.58 50.98 50.39 49.75 49.33 48.39 47.71 47.31 46.26 45.75 45.69 45.11 44.33 43.94 43.51 43.73 43.61 43.59 43.70 43.50 43.33 43.26 43.65 44.00 44.59 45.30 47.31 47.79 47.04 46.69 45.89 46.87 46.30 46.74 47.31 46.53 46.30 45.16
44.36 45.05 46.49 47.63 47.98 47.93 49.24 50.17 49.83 49.06 48.38 47.32 46.42 45.19 44.63 44.43 44.07 43.39 43.14 43.41 42.55 42.62 42.02 42.39 42.21 42.04 42.26 42.26 42.10 42.59 43.22 43.71 43.09 43.32 45.03 43.78 45.14 43.26 43.29 43.07 41.61 40.50 39.90
43.85 44.94 45.75 46.19 46.74 46.93 46.92 46.94 47.37 47.06 46.69 46.05 45.79 44.70 43.81 43.48 42.84 42.38 42.38 42.45 41.79 41.39 41.39 41.40 40.74 40.41 40.64 40.54 40.62 41.16 40.87 40.54 40.35 41.04 41.81 41.23 42.63 41.34 40.34 41.65 41.20 41.15 42.07
45.83 45.26 45.06 45.16 45.45 46.49 46.44 46.33 46.10 46.29 45.82 45.42 44.45 43.48 43.29 43.66 43.04 42.58 42.31 42.16 41.60 40.98 40.71 40.45 39.79 39.39 39.37 40.67 40.93 41.61 41.05 40.63 40.25 40.13 39.86 39.52 39.44 39.31 39.71 39.06 36.21 37.80 40.17
45.49 45.62 45.52 45.24 45.63 45.59 45.53 45.87 45.59 44.61 44.26 43.98 44.03 43.88 44.03 43.80 43.11 42.34 41.27 40.82 40.27 39.94 40.09 40.73 40.62 40.19 40.20 40.01 39.71 40.20 39.74 39.07 38.08 38.22 37.85 37.80 38.59 39.40 38.80 35.47 33.36 33.91 34.33
44.24 46.48 46.96 46.72 46.27 45.58 45.33 45.69 44.68 44.03 43.98 43.00 42.63 43.37 43.76 43.17 42.26 41.50 40.48 39.55 38.59 38.54 39.41 40.26 39.76 39.34 39.53 40.49 40.73 39.83 38.59 38.30 36.27 32.75 32.25 32.57 35.29 36.28 38.06 38.24 37.80 35.48 30.90
44.97 45.16 46.65 46.93 46.69 46.44 46.38 44.76 44.10 43.93 42.93 42.57 42.78 42.84 42.76 41.74 40.80 40.56 40.46 39.79 37.70 38.89 39.42 39.25 39.25 38.32 38.48 40.00 40.32 40.21 36.35 33.02 32.01 31.42 30.90 32.16 33.01 32.71 31.58 35.61 36.10 35.83 36.55
45.37 45.34 46.20 47.29 47.77 47.68 46.78 45.74 44.74 43.12 42.50 42.14 42.05 42.08 41.80 40.81 40.13 39.57 39.64 38.31 37.98 38.23 38.29 38.25 38.36 38.08 36.87 37.72 37.51 36.23 31.25 30.32 29.45 29.06 29.93 31.15 31.29 31.45 30.47 28.84 28.83 28.38 29.40
44.27 44.07 44.34 45.98 47.76 47.59 46.76 45.45 43.56 42.48 42.02 41.72 41.40 41.39 41.16 39.87 39.75 39.08 38.26 35.91 37.33 36.60 36.08 36.37 34.88 32.21 31.81 35.92 35.58 32.25 30.08 29.34 29.86 31.28 31.66 31.03 31.06 34.36 33.61 29.08 26.45 25.76 27.03
43.78 44.10 45.39 45.87 46.96 46.26 45.85 43.88 42.32 41.49 41.15 41.86 41.59 41.34 40.90 39.67 39.75 38.64 37.78 35.65 35.85 34.13 34.30 34.11 33.80 35.05 31.42 35.90 35.28 32.41 28.88 28.07 28.07 28.83 29.73 33.89 31.94 33.84 33.19 28.02 24.94 24.70 25.38
42.76 43.96 44.20 44.34 44.61 44.62 44.43 42.66 41.32 40.50 42.03 42.61 41.74 41.05 40.31 39.84 39.95 38.58 37.21 34.49 33.59 33.20 33.27 32.73 31.62 31.94 32.67 32.60 35.56 34.36 29.45 27.68 26.80 26.26 25.83 28.46 33.11 32.92 33.39 31.86 25.43 27.07 27.51
42.35 43.51 42.07 41.49 42.56 43.12 43.13 41.75 40.45 41.77 41.95 41.61 40.86 39.85 39.06 39.80 38.71 36.87 34.54 34.06 33.24 32.56 32.67 31.84 30.44 31.13 31.66 35.65 36.00 35.22 33.88 32.87 27.45 26.38 25.99 28.25 32.06 31.57 31.54 29.56 30.98 31.86 31.43
41.33 42.67 41.71 41.22 41.91 42.37 42.59 41.04 40.44 41.11 40.50 39.88 39.07 38.54 38.39 38.12 37.30 34.55 33.51 32.55 32.54 32.41 32.30 30.76 28.75 28.37 29.73 30.87 37.35 37.76 36.91 35.82 29.74 27.56 30.47 32.53 31.11 30.48 28.98 29.81 30.29 31.64 26.60
40.22 40.98 40.66 39.95 40.48 41.33 41.56 41.39 40.73 40.30 39.46 39.59 39.61 39.36 37.78 36.76 36.03 35.13 34.01 33.03 32.17 32.13 32.30 28.98 27.52 27.04 27.52 27.80 29.32 31.81 32.64 35.73 33.34 31.80 28.18 30.05 29.19 29.64 27.95 27.16 26.87 25.85 24.62
41.28 41.15 40.08 39.09 38.69 39.25 39.25 39.98 39.99 39.01 38.43 39.24 39.25 38.52 37.47 37.02 35.07 34.63 33.88 33.47 34.25 34.64 33.44 29.34 28.39 27.41 26.10 26.89 30.72 30.93 30.18 29.56 31.16 29.54 26.87 26.10 24.91 23.84 23.51 23.49 23.63 24.07 24.31
42.93 42.32 42.10 39.17 38.05 37.65 38.64 38.79 39.53 39.61 38.74 38.08 38.20 37.86 36.94 36.60 35.18 34.17 33.80 37.47 37.28 38.38 39.00 37.12 32.55 30.35 33.38 34.96 34.98 34.76 34.65 34.87 34.70 29.01 25.90 24.94 24.63 23.98 23.57 23.29 23.23 23.83 25.16

GFSMW_sfc_wetblb_087.txt.gz
Wetbulb
52.09 51.75 53.51 56.32 60.71 63.74 65.41 66.57 66.56 65.96 66.58 65.66 65.21 65.03 64.89 66.06 66.71 67.17 67.63 67.54 67.52 67.29 66.29 65.69 65.82 66.03 65.22 64.98 64.95 64.01 63.97 63.32 63.39 62.39 61.34 60.67 61.29 61.28 61.07 61.03 60.63 60.20 59.17
49.69 50.34 51.12 51.38 55.47 62.91 64.67 64.95 66.28 65.17 66.26 66.97 66.21 64.91 64.69 65.52 66.68 67.00 66.63 67.58 67.04 66.87 66.53 66.22 65.96 65.81 65.44 65.25 64.91 64.46 63.39 62.98 63.00 60.91 60.33 55.76 55.71 56.92 57.04 57.76 58.01 57.74 57.99
48.52 48.83 49.23 50.44 50.88 57.99 62.27 64.09 64.94 64.85 65.08 65.73 65.78 64.15 64.26 64.27 64.50 64.82 61.81 61.50 62.35 61.65 61.65 61.88 63.53 63.92 64.02 63.65 63.79 63.56 62.66 61.35 62.21 62.46 59.89 54.47 51.30 53.37 55.77 56.50 56.26 56.45 55.47
48.80 49.29 49.09 49.03 49.54 52.79 57.39 58.35 62.18 64.14 63.70 65.16 63.93 62.97 62.56 62.18 60.89 64.21 60.08 59.07 57.80 56.58 56.41 56.16 56.58 57.08 57.47 58.79 59.97 61.12 59.86 61.08 59.03 59.42 59.09 57.78 58.20 54.91 51.77 54.66 55.21 55.49 56.55
47.79 48.97 49.25 50.74 50.32 52.47 53.14 54.21 55.69 57.14 57.08 58.91 62.10 61.76 57.15 55.51 54.93 55.28 55.53 54.30 54.14 54.20 54.27 54.06 54.19 54.56 55.07 55.19 55.52 55.54 55.50 55.55 55.24 56.29 57.37 57.28 57.63 55.66 53.60 50.46 52.55 54.77 54.83
47.87 48.59 50.21 50.14 50.64 52.01 52.58 52.41 52.80 52.12 54.74 53.77 54.49 54.23 51.68 50.47 50.03 50.20 50.54 51.95 52.49 52.11 52.06 52.70 52.01 52.11 52.07 52.04 52.81 54.32 54.41 54.32 54.72 55.63 57.59 56.20 55.17 53.11 53.22 52.32 51.61 53.82 52.90
46.89 47.30 47.17 47.39 50.12 50.26 51.69 52.14 52.90 52.92 54.09 52.35 52.09 51.53 50.63 50.23 50.56 50.77 50.74 51.18 51.24 50.19 49.18 49.84 49.45 49.40 49.46 49.55 50.05 50.71 51.74 53.15 53.70 54.02 56.03 57.02 55.17 55.24 55.74 54.97 53.32 50.95 50.90
44.67 46.32 47.25 46.99 49.61 50.87 50.93 50.50 50.98 51.89 52.77 51.35 51.31 51.31 51.15 51.00 50.27 50.46 49.36 48.49 48.53 47.70 47.60 47.51 47.53 47.34 47.43 47.66 48.42 49.26 51.45 51.93 52.71 53.26 53.95 54.19 52.99 53.57 53.75 54.48 53.38 50.12 50.59
43.17 45.70 46.28 47.75 48.65 49.42 50.25 50.78 50.56 50.94 51.52 51.33 50.56 49.49 49.00 48.70 48.14 47.85 47.19 46.22 45.62 46.11 45.57 45.73 45.64 45.68 45.94 46.32 46.56 47.30 48.63 48.92 50.04 50.06 51.79 51.55 51.09 51.33 51.63 51.98 52.02 50.64 46.03
42.47 43.96 45.55 46.48 48.42 49.15 49.39 49.63 51.21 50.66 50.37 50.17 49.13 48.27 47.77 47.31 46.84 45.45 45.02 44.51 44.73 44.91 44.06 43.93 43.88 43.81 43.91 44.20 44.38 45.69 47.41 47.27 47.45 49.05 48.57 48.24 49.44 48.92 48.82 48.95 49.06 48.85 48.06
41.58 42.39 43.89 46.36 47.61 48.09 48.36 48.18 49.19 49.65 48.94 48.42 47.16 46.34 45.63 45.24 44.64 43.87 43.54 43.94 43.31 43.13 42.79 42.93 42.76 42.40 42.26 42.19 42.51 43.35 44.02 44.94 46.96 46.35 45.59 45.96 46.82 46.03 46.52 46.54 46.42 45.70 45.88
42.70 42.78 43.43 45.89 46.52 46.95 47.65 48.13 49.31 49.14 47.75 46.59 46.13 45.25 44.77 43.86 42.73 42.68 43.04 43.29 42.53 42.69 41.66 41.64 41.52 41.22 40.89 40.83 40.67 41.41 41.97 42.58 42.43 42.78 43.73 43.79 44.18 42.81 43.18 43.05 42.22 41.98 41.82
42.58 43.24 43.81 44.78 45.18 45.61 46.39 46.79 47.31 47.82 46.38 45.55 45.74 44.53 44.22 43.69 43.00 42.65 42.65 42.50 41.87 41.00 40.85 40.71 40.03 39.67 39.79 39.48 39.44 39.87 39.38 39.24 39.21 40.79 41.70 42.20 42.32 41.17 41.11 41.61 41.24 39.79 41.00
43.69 42.99 43.27 43.84 44.30 44.92 45.56 45.76 45.48 46.02 45.40 44.76 43.52 43.37 43.10 43.00 42.47 41.52 41.10 41.04 40.52 39.98 39.74 39.56 39.29 38.95 38.71 39.42 39.39 39.83 40.07 39.42 38.81 39.12 39.51 39.39 39.41 39.41 39.71 38.25 36.65 38.99 40.19
43.34 43.43 43.35 43.58 43.75 44.04 44.03 44.23 44.08 43.79 43.66 43.35 42.69 42.14 42.39 42.42 41.80 41.21 40.55 40.45 39.98 39.43 39.35 38.93 38.82 39.65 40.08 40.09 39.92 40.57 39.94 38.82 37.96 37.94 37.78 38.26 39.35 40.26 39.29 34.66 32.30 34.00 34.47
43.62 44.45 45.03 44.58 44.08 43.68 43.74 44.11 43.29 42.86 43.07 42.30 42.03 42.54 42.56 42.02 41.07 40.42 39.35 38.64 37.87 37.93 38.59 38.64 38.70 39.35 39.67 40.84 41.22 40.21 38.61 37.73 36.13 34.36 33.25 33.43 35.71 36.81 38.88 38.44 37.94 34.67 31.45
42.64 42.98 44.52 45.43 45.50 45.22 45.62 44.25 43.61 42.86 41.94 41.61 41.73 41.97 41.67 40.74 40.03 39.47 38.83 37.95 37.02 37.54 37.24 38.60 39.15 38.24 38.86 41.06 41.86 40.69 37.05 35.07 33.32 29.38 29.16 30.18 32.75 32.59 31.62 36.14 36.56 36.89 37.20
41.96 43.16 43.26 45.46 45.70 46.02 45.87 44.66 43.86 42.98 41.92 41.22 41.24 41.47 40.99 39.97 39.15 38.31 37.71 37.71 35.82 35.64 37.48 38.47 38.42 37.82 37.63 39.25 39.78 37.44 32.47 28.68 26.02 27.47 28.90 29.60 29.47 30.00 30.42 29.26 29.26 28.55 29.09
41.63 41.80 42.45 43.63 45.61 46.15 46.15 45.04 43.18 42.25 41.70 41.17 40.81 40.91 40.48 39.01 38.09 36.83 36.71 37.39 34.70 34.78 34.90 37.05 36.23 35.16 34.18 37.55 37.38 32.17 28.84 29.02 29.52 30.46 30.28 31.17 30.87 34.14 33.96 28.40 26.56 26.50 27.55
40.85 41.82 43.03 43.96 43.57 45.27 45.69 44.24 42.37 41.56 41.04 40.79 40.50 40.70 40.18 39.11 37.84 36.67 37.91 37.18 34.72 32.28 34.89 34.32 34.35 34.49 30.23 36.61 36.21 32.39 29.05 27.81 28.28 28.63 29.57 35.03 32.32 34.76 33.76 26.77 25.18 23.88 25.43
40.60 41.91 41.49 41.63 42.62 43.91 44.89 42.90 41.36 40.97 41.42 41.60 40.91 40.29 39.77 38.74 38.13 36.82 37.67 35.95 33.77 33.85 33.72 33.43 33.51 33.29 31.02 31.55 36.67 35.56 28.73 27.45 26.35 26.63 26.62 29.45 34.95 34.53 34.05 31.53 25.69 26.92 27.42
40.45 41.57 40.35 40.06 40.87 42.06 42.72 40.55 40.17 40.91 41.68 40.89 40.04 39.13 38.23 39.11 38.34 37.41 35.87 35.12 34.10 33.23 32.83 32.24 31.58 31.22 30.26 35.32 36.65 36.14 34.58 32.52 27.74 26.88 26.48 27.96 33.83 33.35 33.52 30.96 31.83 32.83 31.54
39.70 40.63 39.78 39.81 40.61 41.65 42.08 40.77 40.59 41.06 40.40 39.56 38.47 37.93 37.85 37.51 37.57 35.86 34.54 33.42 33.37 32.80 32.33 31.69 30.81 28.16 29.24 29.82 36.92 36.99 35.93 35.62 28.48 27.72 29.15 32.60 33.35 32.51 31.04 31.71 31.92 32.30 27.01
38.93 39.72 39.25 38.70 38.82 40.56 41.55 41.20 40.40 40.11 39.32 38.40 37.69 37.48 36.08 36.85 36.52 35.70 34.62 33.57 32.73 32.54 32.54 31.51 30.19 27.59 27.27 27.22 28.78 32.81 34.69 37.03 33.90 32.20 30.41 31.49 30.32 29.99 27.72 28.09 28.28 26.67 26.06
39.76 39.92 39.90 39.65 38.95 39.22 39.43 40.39 39.80 39.16 38.16 38.14 38.26 37.29 37.76 37.15 35.56 35.23 34.53 33.81 34.54 34.63 33.14 32.34 30.70 27.61 25.47 27.55 30.98 31.49 30.45 30.47 32.23 30.12 26.96 27.02 25.69 24.72 24.39 24.17 23.71 23.83 24.19
41.09 41.25 40.45 39.27 38.25 38.11 38.55 39.40 40.04 39.66 38.91 38.25 38.49 38.03 37.17 36.91 35.61 34.56 34.09 37.75 37.30 37.88 38.23 37.74 33.19 30.01 33.48 34.57 35.20 35.31 35.37 35.58 35.93 30.70 26.05 25.47 25.83 25.09 24.50 23.97 23.62 23.60 25.14

GFSMW_sfc_wetblb_090.txt.gz
Wetbulb
50.55 51.26 58.19 61.16 62.99 64.97 64.60 65.31 65.40 65.90 66.20 65.37 65.84 64.25 65.47 65.66 65.45 64.97 66.33 66.20 66.10 65.45 64.95 64.62 64.31 65.31 64.76 64.45 64.37 63.73 63.26 63.44 63.48 62.42 60.91 59.57 60.71 60.01 60.24 60.07 59.77 59.57 58.72
50.48 49.86 50.67 55.31 60.30 63.02 64.63 64.79 65.44 65.63 65.78 65.82 65.90 64.91 64.83 64.17 65.18 66.25 66.27 67.27 67.29 66.85 65.98 65.51 65.50 65.80 65.45 65.08 64.73 64.39 63.40 62.88 62.91 60.21 59.32 54.78 55.42 56.00 56.23 56.22 56.96 55.89 56.92
48.75 49.72 48.29 49.31 51.71 61.13 63.34 64.78 65.49 64.98 65.52 65.92 65.43 63.60 63.96 63.93 63.78 62.99 62.09 63.35 63.40 62.77 62.85 63.44 64.24 64.06 64.04 63.66 63.70 63.47 62.66 61.27 61.62 60.54 58.12 55.28 51.56 53.01 55.48 55.33 54.99 55.62 55.52
47.63 48.88 49.05 48.07 48.24 54.30 61.57 63.26 64.02 64.23 65.20 64.69 64.40 62.64 62.42 61.63 62.43 63.25 60.47 60.30 59.70 58.32 57.85 57.02 56.46 56.92 57.52 57.49 57.98 58.85 57.74 57.61 56.18 56.58 57.99 57.31 58.74 55.17 52.40 54.11 53.84 54.40 54.20
46.99 48.28 48.07 49.26 50.04 49.93 56.37 59.16 61.47 62.13 62.34 63.51 64.00 63.28 61.05 61.46 58.47 59.13 57.88 57.23 55.06 54.56 54.48 54.51 54.44 54.14 54.78 54.75 55.20 55.02 54.75 54.85 54.38 54.87 55.02 56.10 55.96 54.34 55.21 52.37 51.85 52.62 50.80
46.04 46.71 48.85 48.32 47.60 49.40 52.04 53.76 56.49 57.50 56.88 57.60 61.02 60.92 59.09 54.52 54.75 53.72 53.77 52.63 52.25 51.99 52.29 52.30 51.95 52.02 51.70 51.31 51.43 51.81 52.49 53.41 53.87 54.02 53.92 53.68 52.22 52.81 53.45 52.46 51.17 50.06 49.31
44.68 45.49 46.32 45.87 47.32 49.09 50.15 51.17 51.81 52.57 55.21 53.92 56.06 56.33 55.59 54.61 54.40 53.84 53.74 52.75 52.49 50.03 49.71 49.86 49.52 49.07 48.98 49.33 49.71 50.08 50.78 51.40 52.16 52.27 52.63 53.02 53.03 55.20 54.92 53.31 52.39 53.12 49.19
43.61 45.01 46.03 45.59 47.70 49.12 49.54 49.92 50.91 51.40 52.34 53.46 54.40 55.15 53.62 53.31 53.05 52.98 53.61 52.33 50.76 48.84 47.85 47.46 47.17 47.05 47.03 47.03 47.36 47.57 49.12 49.63 50.78 50.80 51.18 51.34 51.35 52.96 53.89 54.63 53.53 50.56 50.65
42.35 44.43 44.89 45.38 47.62 48.48 49.06 49.08 49.38 50.01 50.87 51.56 51.78 51.89 50.63 50.47 49.38 48.41 47.68 46.87 46.00 46.46 45.46 45.94 45.59 45.33 45.32 45.52 45.44 45.96 47.56 47.78 48.99 48.92 49.27 49.63 49.67 49.74 51.42 51.87 51.78 50.36 47.22
40.81 43.26 43.99 44.57 46.91 47.80 48.36 48.45 49.12 49.34 49.81 49.95 50.04 49.38 48.54 47.81 47.12 46.36 45.68 44.97 44.53 44.77 44.57 44.05 43.86 43.83 43.59 43.42 43.01 43.99 46.03 46.03 46.51 46.90 47.47 47.19 47.04 47.30 48.79 49.02 49.25 48.99 47.13
40.45 41.33 43.29 44.80 46.82 47.51 47.92 47.81 48.30 48.70 48.44 49.00 48.41 48.04 47.00 47.11 46.12 45.38 44.64 44.24 44.03 43.41 43.22 42.83 42.58 42.32 41.94 41.61 41.71 42.57 43.01 43.87 44.74 44.83 45.17 45.52 44.93 44.54 46.56 46.56 46.94 46.21 46.42
41.36 41.57 41.95 44.75 45.86 46.54 46.54 46.88 47.48 48.19 48.56 47.85 46.67 45.63 46.22 45.18 44.53 44.08 43.75 43.34 42.56 42.75 42.34 42.41 41.37 41.25 41.51 40.50 39.99 40.35 40.70 41.63 42.03 43.03 42.65 43.02 43.45 42.94 43.41 43.35 42.63 42.46 42.67
41.42 41.96 42.78 43.88 44.49 44.94 45.54 46.03 46.31 46.73 47.39 46.36 45.05 43.91 42.64 43.02 43.34 43.06 42.62 42.70 42.25 41.37 41.41 41.25 40.41 39.91 39.85 39.48 39.18 38.80 38.54 38.66 38.70 40.17 42.50 42.55 42.45 41.33 41.34 41.82 41.43 41.20 41.66
42.37 41.93 42.05 43.06 43.95 44.64 45.14 45.26 45.12 45.18 44.44 44.97 44.52 43.12 42.90 42.73 42.94 41.42 42.32 41.48 40.89 40.68 40.09 39.60 39.39 38.81 38.23 38.74 38.65 38.71 38.24 38.03 38.31 39.05 40.07 40.09 40.22 40.16 39.76 38.76 38.31 39.92 40.34
41.78 42.50 42.50 42.73 43.19 43.71 44.03 44.38 44.13 43.63 43.28 42.89 42.53 42.16 42.39 42.73 42.44 41.82 40.38 40.22 40.23 39.75 39.42 38.77 38.59 38.32 38.71 39.79 40.02 40.86 40.40 39.13 38.14 38.15 38.19 38.93 40.06 40.56 39.74 36.87 33.15 35.55 37.77
40.96 42.92 43.13 42.98 42.98 42.74 43.59 43.75 43.20 42.70 42.81 41.99 41.65 41.80 41.52 40.89 40.41 39.76 39.09 38.62 37.97 37.21 37.88 38.43 37.85 37.27 39.10 41.15 41.95 40.79 38.98 38.14 36.91 35.09 34.39 35.27 35.59 38.38 39.41 38.60 37.67 35.43 32.70
40.80 41.41 41.75 43.75 43.85 43.59 44.32 43.24 42.86 42.27 41.76 41.60 41.20 41.32 40.98 40.09 39.36 38.75 37.87 36.90 36.08 36.04 35.88 36.46 36.82 36.09 38.84 41.86 42.46 41.62 37.99 36.03 34.30 32.60 30.36 30.36 32.84 32.54 31.53 36.56 37.31 37.41 37.24
40.67 41.09 41.25 41.80 44.13 44.90 44.08 43.73 42.58 42.53 41.91 41.14 41.13 41.13 40.59 39.50 38.45 37.50 36.76 35.70 35.00 35.01 35.17 35.70 36.33 37.84 38.18 40.64 41.04 39.21 33.68 33.04 32.06 27.34 27.71 27.24 27.58 28.97 30.30 28.99 28.27 27.92 29.20
40.40 40.39 40.54 40.65 41.30 43.74 45.23 43.78 42.30 42.10 41.40 40.91 40.69 40.80 40.44 38.83 37.65 36.48 35.57 34.88 34.80 33.73 33.94 36.52 37.34 36.57 36.29 39.54 39.57 34.65 31.47 30.25 28.83 29.75 29.97 30.24 29.33 33.94 33.83 28.54 27.70 27.24 28.61
39.89 39.69 40.26 41.30 41.87 42.69 43.92 43.50 42.33 41.38 41.25 40.98 40.70 40.73 39.99 38.94 37.35 36.08 35.41 35.49 36.61 32.57 33.73 33.54 35.65 36.65 33.93 38.17 37.92 32.27 27.73 26.44 27.80 27.66 29.15 35.47 32.44 35.23 34.74 27.19 26.00 25.30 26.13
39.80 40.60 40.16 39.66 40.10 41.39 43.25 43.08 41.80 41.28 42.51 41.64 40.74 40.23 39.81 38.50 37.42 35.64 34.97 34.82 34.83 34.21 34.16 33.89 34.17 33.91 33.13 32.84 37.22 35.80 28.08 27.24 26.86 27.40 27.51 30.09 35.82 35.34 34.46 30.95 26.17 26.76 28.05
39.53 40.40 39.13 39.09 39.81 40.65 42.96 41.93 41.12 41.70 42.28 40.84 40.69 39.64 38.58 39.00 37.24 35.47 34.02 34.90 35.30 34.29 33.76 33.28 32.66 32.55 32.45 35.20 36.84 37.16 34.60 31.92 26.85 26.19 26.69 28.13 34.73 34.63 34.85 32.40 31.76 33.88 31.48
39.06 39.99 39.08 39.26 39.40 40.45 41.73 40.72 41.09 42.02 41.52 40.93 39.56 38.66 38.30 37.90 36.73 34.92 33.52 34.67 34.51 33.73 33.07 32.46 31.65 30.92 31.16 28.72 36.86 37.61 37.10 35.76 27.97 27.93 29.43 31.52 34.17 34.12 32.72 33.59 32.83 33.08 27.32
38.61 39.05 38.22 37.81 37.97 39.50 41.07 42.00 41.36 41.40 40.95 39.90 38.69 38.16 37.63 36.77 36.26 35.96 35.45 34.73 33.69 33.21 33.01 32.12 31.22 30.79 29.79 27.65 28.35 31.42 32.28 35.64 33.18 31.59 29.40 31.73 32.38 31.85 29.22 28.98 29.16 27.14 26.78
38.97 39.11 38.62 39.35 38.65 38.26 39.60 40.19 40.03 40.08 39.10 38.46 37.80 37.09 36.97 37.03 35.68 35.63 35.43 34.89 35.24 35.11 33.69 33.17 32.51 30.52 29.38 28.03 30.91 30.83 30.73 30.67 32.71 29.13 27.18 27.56 26.49 25.58 25.29 24.76 24.69 24.33 25.26
40.35 39.14 38.68 39.01 39.36 39.50 39.66 40.16 40.22 39.56 38.72 37.60 37.74 37.40 36.81 37.14 36.24 35.38 34.76 38.24 37.68 38.03 38.41 37.78 34.30 31.93 35.01 35.13 35.57 35.70 35.84 36.68 36.76 30.81 25.99 25.06 25.61 25.37 24.96 24.37 24.16 23.70 25.04

GFSMW_sfc_wetblb_093.txt.gz
Wetbulb
53.74 54.85 60.06 62.12 63.07 63.43 64.01 64.54 65.38 66.40 66.79 66.02 65.37 64.90 65.20 65.81 65.32 65.89 66.04 65.69 64.17 64.03 63.47 63.26 63.12 63.42 62.90 64.02 64.04 63.65 63.05 62.94 63.28 62.54 59.32 58.82 58.68 58.30 57.89 56.99 57.27 59.15 58.91
49.29 49.98 51.40 58.77 61.28 63.53 64.20 64.23 65.57 65.54 66.19 65.94 66.12 65.77 65.33 64.48 65.38 66.09 65.97 65.67 65.17 65.49 64.99 64.88 64.60 65.38 64.83 64.85 64.72 64.55 63.59 63.06 63.02 59.97 58.69 53.53 54.85 55.10 55.47 55.26 55.33 55.06 55.46
48.09 49.39 47.72 52.03 55.61 60.05 62.31 64.15 64.22 65.27 65.19 65.89 65.12 63.48 63.63 63.48 62.80 63.38 63.61 64.17 64.91 64.40 64.23 64.11 64.35 64.03 64.18 63.87 63.52 63.36 62.69 61.14 59.56 59.09 57.47 53.83 50.04 51.88 55.05 55.08 54.53 54.47 53.26
47.35 48.32 48.83 47.72 49.11 52.72 60.37 62.85 63.94 64.06 64.73 63.85 63.49 62.84 61.97 61.23 61.96 61.70 60.84 60.93 61.54 61.01 60.62 60.33 59.97 59.11 59.12 58.08 58.16 58.18 57.73 57.30 55.91 55.53 56.68 55.99 56.29 52.83 51.22 53.54 53.72 54.18 53.04
46.23 47.84 48.64 49.31 49.61 49.36 51.22 59.73 61.00 62.05 63.07 63.45 64.04 63.13 61.55 61.65 60.43 60.15 59.59 57.32 57.10 56.97 56.61 56.02 55.73 55.89 56.87 55.59 56.06 55.09 54.13 54.49 53.95 53.89 53.75 53.11 53.15 54.53 53.07 48.74 49.91 50.95 49.68
45.75 46.58 48.14 48.99 48.43 47.39 49.51 54.53 58.51 59.79 59.65 61.33 61.85 61.51 61.17 59.12 58.47 58.31 58.10 56.50 55.44 53.88 53.79 54.02 53.59 53.31 51.63 51.16 51.07 50.94 51.43 52.06 52.34 52.80 53.18 53.07 51.31 49.99 49.57 49.60 52.70 51.95 48.71
44.39 44.94 45.23 45.94 47.04 47.52 49.46 51.64 54.59 56.53 55.88 55.82 58.70 59.27 59.23 57.90 58.32 57.75 56.35 54.57 53.95 53.38 52.65 52.80 51.06 49.39 49.34 49.50 49.53 49.60 50.03 50.22 50.58 51.28 51.47 52.08 51.68 53.74 52.64 53.18 51.85 50.87 47.59
41.82 42.99 44.37 45.11 45.28 46.72 48.54 50.40 51.37 52.09 54.21 53.43 54.13 54.71 55.76 56.22 56.07 55.84 55.13 54.62 54.14 51.58 48.71 47.97 47.70 47.55 47.18 47.17 47.27 47.24 47.84 49.37 49.79 50.18 50.22 50.18 50.06 50.48 51.11 51.66 52.81 50.14 49.39
40.83 41.99 44.26 43.69 44.98 45.70 47.66 48.93 49.72 50.26 50.98 51.40 51.58 52.12 53.57 53.14 53.00 52.49 52.64 51.28 49.34 47.81 46.08 45.78 45.24 44.91 44.74 44.74 44.70 45.00 45.70 47.34 47.50 48.08 48.26 48.31 48.56 48.30 48.82 50.48 51.90 51.26 48.01
40.44 41.17 42.92 43.55 44.28 45.71 47.06 47.61 48.43 48.87 49.29 49.72 49.18 49.26 49.17 50.71 49.81 48.66 46.70 46.25 45.52 45.38 44.47 44.58 43.83 43.35 43.23 43.03 42.95 43.30 44.31 45.24 45.67 46.46 45.41 46.04 46.19 46.66 46.08 47.03 48.81 49.29 48.91
39.95 40.29 41.52 43.87 44.87 46.20 47.11 47.38 47.70 48.20 48.09 47.85 46.90 46.34 46.23 46.39 46.96 47.52 46.88 45.74 44.64 44.07 44.01 43.55 43.31 43.14 42.18 42.39 41.75 42.03 42.55 42.91 43.66 44.12 43.95 44.59 46.02 43.55 43.87 44.70 47.00 46.62 46.57
41.04 40.65 41.11 42.74 44.02 44.73 45.55 46.46 46.92 47.43 47.08 46.63 46.19 45.05 44.71 45.29 45.27 44.12 45.36 45.55 44.56 44.12 43.72 43.23 42.35 41.45 41.24 40.93 40.30 40.06 40.75 40.77 41.00 42.41 42.02 42.25 43.94 42.45 41.56 43.44 43.05 43.05 43.23
41.33 41.29 41.75 42.68 43.00 43.50 44.54 45.28 45.90 46.41 45.78 45.10 44.53 43.88 43.87 43.35 42.18 41.84 41.90 42.99 42.21 41.83 41.91 41.72 40.73 39.95 39.53 39.00 38.46 38.53 38.23 38.55 38.49 39.29 40.94 42.94 42.67 41.65 41.50 41.83 41.44 41.54 42.08
40.94 41.04 41.01 41.84 43.07 43.35 44.28 44.68 44.87 45.33 44.64 44.16 43.54 43.43 43.44 43.29 41.64 41.88 42.58 41.42 41.96 41.01 40.64 39.92 39.56 38.75 38.19 38.44 38.32 38.20 37.52 37.15 37.39 38.61 40.33 40.66 40.84 40.57 40.04 39.41 39.00 40.30 40.59
39.64 40.65 41.31 41.25 41.91 42.81 43.26 44.02 44.30 43.99 43.39 42.93 42.48 42.15 42.68 43.17 43.00 42.24 41.44 41.17 40.90 40.22 38.72 37.96 37.85 37.80 38.08 38.75 37.93 39.51 39.64 39.65 38.63 38.50 38.63 39.42 40.38 40.84 40.24 38.16 36.34 37.51 38.71
39.95 40.05 41.41 41.93 42.15 42.11 43.28 43.68 43.43 43.11 42.74 42.18 41.82 41.55 41.26 40.62 39.99 39.39 38.68 38.20 37.43 37.53 37.72 37.27 37.22 36.88 38.76 40.85 42.14 41.48 39.71 38.90 37.69 35.83 35.28 35.67 36.29 39.01 39.71 38.73 37.74 35.91 35.96
40.04 40.19 40.09 40.13 40.61 42.35 43.74 43.29 43.02 42.40 41.64 41.57 41.25 41.03 40.42 39.60 38.85 38.25 37.42 36.67 35.75 35.49 35.44 35.75 35.99 35.60 36.38 41.66 42.35 42.54 38.63 36.92 35.57 34.04 32.77 32.39 33.25 32.93 31.50 36.94 37.25 37.32 37.35
39.93 40.42 40.12 40.18 40.70 41.39 43.21 43.81 42.73 42.20 41.52 40.79 40.59 40.41 39.90 38.92 38.01 37.10 36.38 35.27 34.54 34.57 34.57 34.91 35.41 35.33 37.23 41.09 41.72 41.20 34.02 33.42 32.94 32.11 30.67 27.49 26.94 28.82 29.76 28.72 27.43 27.56 28.71
39.71 39.83 40.01 40.02 40.27 40.86 42.30 42.75 41.69 42.10 41.58 41.14 40.68 40.44 39.98 38.37 37.36 36.22 35.20 33.99 33.94 33.40 33.59 34.16 34.35 34.24 36.33 40.26 41.09 36.67 33.51 32.62 31.66 30.77 29.22 27.67 26.86 31.97 34.83 28.59 27.12 27.86 28.73
39.85 39.44 39.35 39.50 39.69 41.33 41.81 42.07 41.49 41.24 41.30 41.39 41.01 40.77 40.19 39.05 37.64 36.49 35.08 34.42 33.97 33.06 34.37 33.64 34.34 36.87 35.73 38.71 40.13 35.92 30.28 28.81 28.77 27.44 28.11 35.32 30.76 35.27 34.72 27.12 26.81 25.54 26.67
39.85 39.68 39.71 38.78 39.11 39.48 40.10 41.16 40.92 41.04 43.02 41.58 40.89 40.45 39.96 39.08 38.37 35.87 34.45 34.05 32.63 35.04 34.67 34.79 35.51 34.96 35.52 34.16 38.97 37.19 27.67 27.08 26.81 26.87 26.88 28.65 36.45 36.36 35.14 32.04 26.42 26.93 28.22
39.53 39.76 39.01 38.78 39.14 39.38 39.33 40.16 40.05 41.66 41.00 41.83 40.77 39.61 38.87 39.21 37.76 35.93 33.69 33.52 33.65 35.20 34.67 34.21 33.56 33.26 33.32 36.44 37.08 37.90 35.12 31.66 26.48 25.87 25.84 27.21 35.45 36.09 35.52 33.03 31.34 33.28 31.12
39.36 39.37 38.69 38.30 38.83 39.17 39.72 39.38 38.99 40.17 40.81 41.41 40.60 40.00 39.42 38.86 37.42 35.72 33.75 34.41 35.10 34.96 34.19 33.45 32.89 32.17 32.14 32.04 36.98 37.53 38.12 36.82 27.96 26.23 28.36 31.29 33.41 35.21 33.51 34.87 33.43 34.02 27.43
40.17 38.92 38.55 37.71 37.32 38.21 39.61 40.10 39.64 40.40 40.60 40.80 40.04 39.41 38.85 37.73 37.09 36.13 35.15 33.86 33.36 34.16 33.96 32.92 32.19 32.08 31.06 30.58 29.55 30.34 32.49 37.02 33.23 31.69 28.53 31.05 31.98 33.50 30.36 30.42 30.36 27.55 27.69
42.39 38.90 38.58 38.32 38.41 38.66 38.13 38.40 40.66 41.18 40.95 40.58 39.89 39.05 38.65 37.93 36.56 36.60 36.16 35.74 36.21 36.27 34.40 33.74 33.16 31.74 30.81 31.50 32.68 30.70 30.16 29.57 30.88 28.54 26.32 27.36 27.19 26.38 25.87 25.28 25.22 25.62 26.77
42.78 39.98 39.90 38.93 39.37 39.21 40.16 39.94 40.28 40.51 39.66 38.62 38.31 37.95 37.65 36.74 36.36 35.85 35.35 38.68 38.33 38.80 38.79 38.07 35.23 33.33 36.15 36.74 36.79 36.33 36.10 36.67 37.07 30.68 25.59 25.30 26.46 26.32 25.40 24.68 24.38 23.95 25.63

GFSMW_sfc_wetblb_096.txt.gz
Wetbulb
54.51 59.05 61.43 63.34 63.79 64.20 62.75 64.67 64.29 65.46 66.46 65.64 65.43 65.40 64.78 65.71 65.82 65.44 64.83 64.13 63.45 62.99 61.03 60.86 60.63 61.60 61.93 62.04 62.27 63.10 62.78 63.08 62.65 61.36 58.01 57.83 57.72 56.73 55.27 55.46 55.74 57.18 57.82
49.19 50.20 55.07 60.30 62.61 63.12 64.17 64.65 64.85 64.64 65.71 65.76 65.60 64.95 65.01 64.80 64.98 65.46 65.40 65.08 64.16 64.09 63.18 62.63 62.37 62.88 63.79 63.91 63.73 63.48 63.03 63.04 62.91 59.01 58.11 52.06 53.74 54.09 54.74 54.03 54.49 53.62 54.15
47.19 48.02 49.46 56.43 58.97 61.25 63.58 64.17 64.52 64.69 65.03 65.20 64.86 63.45 63.38 63.15 63.20 63.66 64.09 64.45 64.66 64.51 64.01 63.98 64.48 63.58 63.02 62.67 62.83 63.30 62.13 58.95 57.99 57.80 57.39 53.45 49.35 50.74 53.59 53.21 53.31 52.95 52.03
46.71 47.78 48.31 48.45 53.76 57.03 60.55 62.66 63.35 64.37 65.03 64.95 64.65 63.51 62.91 62.26 63.17 63.13 62.59 61.59 61.98 61.73 62.30 62.89 63.47 62.65 61.06 60.75 60.03 59.86 59.17 57.96 55.93 55.71 56.10 54.65 54.46 53.42 51.14 52.24 51.36 51.06 51.20
46.72 48.09 48.49 49.22 49.85 49.55 52.61 59.48 61.44 61.92 62.62 63.41 64.19 63.49 62.60 63.19 60.99 60.93 60.36 59.74 59.62 59.51 58.98 59.31 58.58 58.40 58.25 58.57 58.29 56.24 55.45 54.87 53.91 53.76 53.33 52.40 51.94 52.54 50.99 47.81 48.69 48.78 47.89
45.53 46.97 48.31 48.22 48.84 48.19 48.75 51.25 58.11 60.21 60.73 61.45 62.68 62.32 61.61 59.99 59.45 59.19 58.27 57.44 56.49 56.32 56.28 55.15 54.38 53.95 53.49 52.87 51.99 51.71 52.01 52.04 51.64 51.79 51.81 51.47 50.61 48.85 48.51 47.54 47.72 48.18 46.78
44.46 45.26 45.76 46.44 47.43 47.77 47.77 49.49 53.41 56.88 58.38 58.00 60.82 61.35 59.88 59.21 58.73 59.08 57.51 55.35 54.83 54.49 53.10 52.63 51.04 50.05 49.74 49.60 49.90 49.69 49.78 50.26 50.67 50.99 50.62 50.85 50.86 52.75 53.10 50.21 48.78 49.10 46.78
41.37 43.15 44.53 44.73 45.46 46.77 46.91 48.40 51.26 53.81 55.17 53.86 55.25 55.93 56.66 56.77 56.77 56.80 56.48 55.37 54.27 52.61 51.93 49.67 48.81 48.08 47.80 47.48 46.83 47.68 48.42 49.72 49.46 49.10 48.96 49.38 49.23 49.61 50.10 50.55 49.67 48.71 48.28
39.97 40.67 42.36 44.28 43.29 44.03 45.78 47.28 49.69 51.41 53.26 53.25 53.28 52.93 53.07 53.47 53.66 54.65 55.17 54.87 53.30 51.49 49.35 48.72 47.48 46.50 45.92 45.44 45.36 45.31 44.84 46.26 46.35 46.89 47.43 47.57 48.06 47.77 48.17 48.80 51.21 49.29 46.42
38.95 39.79 40.30 42.73 43.39 44.69 45.67 47.13 48.99 49.80 49.87 50.59 50.31 50.74 51.02 51.22 50.91 50.85 50.24 50.53 49.24 47.78 46.30 45.61 45.21 44.33 43.93 43.67 43.02 43.10 43.73 45.14 45.43 45.79 45.10 45.29 45.63 45.77 46.64 46.33 46.73 49.46 48.76
38.93 39.46 39.78 41.95 43.84 44.60 45.26 46.06 47.27 48.06 48.28 48.32 47.42 47.19 47.19 47.46 47.49 47.70 47.09 46.77 46.11 45.63 45.54 44.83 44.19 43.39 42.81 42.35 42.53 42.86 42.02 42.72 43.35 43.02 43.12 43.89 44.05 43.80 45.32 44.68 44.78 44.96 46.39
40.26 40.20 40.80 41.84 42.99 43.43 44.35 45.26 46.20 47.01 47.21 46.98 46.09 45.33 45.04 44.58 44.06 43.35 43.37 43.69 43.06 43.44 43.82 43.26 42.97 42.34 41.93 41.56 41.19 40.99 40.38 40.19 40.54 41.37 41.95 42.48 43.91 43.45 43.05 42.61 40.69 42.20 43.47
39.97 40.35 40.33 40.54 41.29 42.28 43.67 44.59 45.33 46.04 46.04 45.60 44.71 43.70 43.16 42.68 42.17 42.08 42.31 42.35 41.57 41.23 41.23 41.12 40.63 40.68 40.43 39.74 39.45 39.54 38.95 38.58 38.06 38.72 40.26 41.37 43.01 42.06 41.75 41.96 41.66 41.74 42.30
39.62 39.46 40.12 40.38 40.75 41.71 42.54 43.54 43.88 44.76 44.56 44.34 43.57 42.72 41.91 41.84 41.72 42.33 42.36 41.53 40.69 40.25 39.79 40.26 39.73 39.87 38.92 38.61 38.47 38.76 37.55 37.23 37.55 38.12 39.12 40.81 41.25 41.02 40.52 39.97 39.58 40.58 40.82
40.12 39.59 39.21 40.11 40.76 41.45 42.31 42.69 43.13 43.55 43.22 42.97 42.46 42.05 41.94 41.88 41.17 40.98 40.62 41.06 41.16 39.65 39.39 39.34 38.50 37.89 38.03 38.69 37.55 38.64 38.38 38.26 38.43 38.63 38.94 39.73 40.62 41.26 40.71 38.97 37.64 38.07 39.13
39.50 39.52 39.59 39.60 40.56 41.01 41.69 42.69 43.12 43.05 42.67 42.18 41.88 41.66 41.18 40.59 40.11 39.66 39.43 40.05 38.67 37.77 38.65 37.29 36.99 36.79 38.62 41.16 42.07 40.76 38.65 39.68 38.42 36.53 35.90 36.27 36.92 39.27 40.04 39.17 38.46 37.66 37.21
39.61 39.98 39.80 39.56 39.61 40.21 41.17 41.71 42.82 42.59 42.00 41.58 41.45 41.01 40.40 39.53 38.74 38.00 37.30 36.54 35.81 35.65 35.45 35.63 35.86 35.33 35.79 41.28 42.50 42.81 39.31 37.78 36.55 35.14 34.10 33.33 34.77 33.13 31.90 36.39 36.31 36.21 37.78
39.93 40.57 40.62 40.65 41.10 41.16 40.88 41.41 42.04 41.63 41.54 40.78 40.80 40.37 39.76 38.71 37.60 36.79 36.24 35.13 34.34 34.53 34.26 34.48 34.77 34.71 36.01 41.19 41.93 42.85 34.96 34.14 33.93 33.48 32.52 31.56 29.19 29.67 29.86 27.84 26.84 27.21 28.73
39.62 39.87 40.52 40.83 40.31 40.51 41.34 40.81 41.10 40.73 40.74 40.99 40.95 40.58 40.08 38.41 37.33 36.33 35.15 33.73 33.83 33.27 33.29 33.64 33.69 33.39 33.83 40.72 41.90 37.31 34.48 33.55 32.53 31.55 30.67 28.21 26.19 30.71 35.17 27.89 26.15 25.90 27.41
40.04 39.91 40.17 39.77 39.42 41.01 40.29 40.25 40.64 39.49 40.18 41.90 41.80 41.04 40.25 39.20 37.97 36.90 35.41 33.90 33.22 33.15 34.47 34.07 32.50 35.72 33.30 39.33 41.00 36.88 32.97 32.09 31.49 30.56 28.76 34.60 29.59 33.98 35.60 26.46 24.79 24.42 25.41
39.62 39.82 39.10 38.65 39.67 39.79 39.03 38.81 39.78 39.59 42.36 41.87 40.50 40.42 40.10 39.14 38.39 36.83 34.39 33.81 31.96 33.32 34.06 34.59 33.68 34.34 34.72 33.82 40.01 39.45 31.41 29.78 28.40 27.69 26.58 27.89 36.45 35.79 35.90 31.84 24.92 26.07 27.43
39.12 40.22 38.42 38.86 39.73 39.37 38.67 38.90 38.56 41.47 41.17 40.69 40.27 39.73 39.01 39.28 37.59 35.94 33.57 33.15 33.07 32.54 32.75 35.11 34.73 34.66 34.56 37.67 38.00 39.55 34.94 31.46 26.78 26.33 26.08 26.61 34.46 36.52 36.05 32.89 31.25 32.46 31.38
40.52 40.32 39.27 39.02 39.10 38.98 38.82 38.35 39.89 39.63 39.57 40.03 40.65 39.79 38.54 38.21 36.92 35.27 33.57 33.19 32.64 33.01 32.53 34.34 33.54 33.12 33.01 32.55 38.12 38.43 38.88 37.01 27.88 26.69 28.41 31.29 33.25 36.00 34.87 35.69 34.61 34.41 26.28
39.54 41.05 39.23 37.35 38.16 38.50 38.62 38.77 39.31 39.23 39.24 39.55 40.56 39.99 39.33 38.30 37.86 37.27 36.28 34.91 34.48 33.20 33.41 33.82 33.13 33.02 32.29 31.90 32.02 33.69 34.39 37.44 34.85 32.90 29.19 31.22 31.60 32.96 31.14 31.12 31.65 27.96 27.51
41.00 41.79 41.55 41.28 38.85 38.78 38.07 38.29 39.26 39.02 38.06 37.53 39.27 39.23 39.01 38.06 36.93 36.94 36.54 36.26 35.63 35.92 34.68 34.52 33.89 32.56 31.71 32.44 33.91 32.50 30.51 29.92 31.80 28.32 26.17 26.47 26.81 26.81 26.44 25.61 25.71 25.31 26.80
41.38 40.98 41.50 41.97 40.13 40.11 39.01 39.33 40.30 40.99 40.52 40.21 39.66 39.35 39.21 38.00 37.61 36.68 36.18 39.16 38.56 39.56 39.39 38.25 35.70 33.92 36.59 37.30 37.61 37.25 36.06 36.10 36.43 29.17 26.05 25.00 25.59 25.47 25.34 25.55 25.49 24.76 26.34

GFSMW_sfc_wetblb_099.txt.gz
Wetbulb
59.73 59.60 61.14 63.08 62.71 62.63 61.93 62.63 63.00 63.12 64.98 66.06 65.54 65.45 64.53 66.00 66.65 66.11 66.16 66.21 66.07 65.29 64.62 64.39 64.37 63.64 63.49 63.94 63.57 63.54 63.10 63.46 64.25 64.74 63.65 63.26 62.61 61.25 61.09 60.78 61.56 61.27 61.27
53.50 59.09 61.26 62.02 62.56 61.79 61.51 61.83 62.38 63.24 64.00 65.62 66.18 66.19 65.42 66.19 66.56 66.82 67.02 66.72 65.57 64.35 64.47 64.05 63.51 63.23 63.66 64.37 64.40 64.59 64.27 65.33 65.15 62.38 60.97 57.81 59.20 59.68 59.23 59.35 58.76 58.43 59.86
49.91 51.27 57.29 60.65 61.73 61.17 61.15 61.70 63.08 63.50 64.58 66.10 65.80 64.67 65.04 64.90 65.15 65.62 65.83 65.84 65.65 65.60 64.90 63.96 64.18 64.24 64.95 65.02 64.84 64.77 64.39 63.14 62.71 62.59 61.24 56.60 54.56 57.04 58.80 57.49 57.62 57.15 57.17
49.76 50.09 51.38 53.21 58.36 60.80 63.14 62.72 63.83 63.93 64.72 64.82 64.93 64.24 62.80 62.06 63.48 64.64 64.31 63.45 64.07 62.94 63.38 63.94 64.41 64.27 63.08 62.31 61.50 61.73 61.78 61.84 60.33 60.53 60.13 60.32 58.76 55.81 54.20 57.00 55.76 55.53 54.87
49.52 50.60 50.89 51.81 53.53 54.53 59.23 61.76 62.65 63.28 64.69 64.08 64.86 64.22 62.98 63.52 63.80 63.95 61.63 60.18 59.57 59.53 59.48 60.13 60.08 58.90 58.98 58.14 58.65 58.03 58.47 58.49 59.05 59.40 58.51 58.04 57.69 58.85 56.75 52.78 54.42 53.79 53.26
48.47 49.01 50.21 50.95 51.25 52.06 52.04 55.02 60.71 61.93 62.69 63.81 64.08 63.48 62.89 62.96 61.77 61.43 60.80 58.50 58.22 57.46 56.99 56.31 55.05 55.08 54.27 53.87 54.14 53.60 54.83 55.05 55.38 56.19 56.54 55.84 55.08 54.51 54.76 54.06 54.25 53.79 52.46
46.89 47.73 48.43 49.56 50.40 50.78 50.34 51.20 53.89 56.90 60.87 62.45 62.77 63.13 62.60 61.88 61.38 60.78 58.99 56.95 55.77 54.77 54.63 53.71 52.69 52.06 51.49 51.55 51.01 51.43 52.13 53.00 53.78 54.07 54.25 55.32 55.68 56.12 54.66 53.41 52.56 53.37 51.57
45.10 46.13 46.48 46.63 47.70 48.94 49.46 49.61 51.84 53.81 58.18 59.09 60.39 61.63 61.78 60.76 60.36 60.46 58.86 58.00 56.84 55.41 54.42 53.11 52.88 50.87 50.21 49.65 49.45 49.42 50.50 51.94 52.71 52.60 53.04 53.95 54.19 54.32 54.40 53.11 52.21 50.05 51.26
43.07 43.72 45.05 45.91 46.60 46.85 47.17 48.55 49.95 52.56 56.12 56.14 56.73 57.19 57.83 58.58 58.86 58.45 58.24 57.05 55.46 54.26 53.62 52.38 49.73 49.37 49.49 48.87 48.50 48.39 48.65 49.67 50.03 50.51 51.80 51.94 52.35 52.73 52.90 52.89 51.48 48.85 46.18
41.56 42.57 43.09 45.15 46.50 47.12 48.08 48.85 49.96 51.83 53.98 55.02 54.78 54.51 54.96 55.53 55.98 56.74 55.53 55.02 54.07 52.92 51.61 50.30 48.67 47.62 47.18 47.03 47.03 46.39 46.67 47.78 48.48 48.81 49.22 49.21 49.92 50.30 50.42 50.72 50.43 50.53 49.66
41.61 42.32 43.18 44.16 45.84 47.29 47.96 48.20 49.36 50.70 51.13 51.61 51.54 51.90 52.27 52.72 52.72 53.74 53.03 52.18 51.05 50.13 49.46 48.07 46.41 45.14 44.47 44.79 44.71 45.03 45.30 45.42 45.43 46.07 46.86 47.19 47.87 48.25 48.67 48.54 47.26 47.73 47.93
42.59 42.97 43.02 43.84 44.73 45.93 47.39 47.93 48.52 49.53 50.07 50.18 49.71 49.51 49.49 49.65 49.25 48.44 47.21 47.61 46.38 46.64 46.50 46.20 45.26 44.80 44.30 44.12 43.45 42.80 42.91 43.13 43.38 43.57 44.83 44.83 45.05 45.54 45.99 45.69 44.80 45.03 45.94
42.19 42.35 43.22 43.33 43.70 44.96 46.15 47.07 47.78 48.43 48.79 48.45 47.91 47.03 46.82 47.01 46.65 45.98 45.86 46.10 45.55 45.06 44.78 44.68 44.18 43.40 43.00 42.54 41.75 41.95 42.14 42.23 42.52 42.84 43.92 44.48 45.00 44.62 44.54 44.34 44.22 44.50 44.18
41.52 41.13 41.31 41.97 43.10 44.02 45.16 46.13 46.84 47.25 47.52 47.23 46.74 46.24 45.89 46.15 45.76 45.49 45.16 44.67 44.69 43.84 43.40 43.20 42.63 42.12 41.75 41.51 41.47 41.25 41.39 41.38 41.57 41.83 42.77 43.09 43.55 43.42 42.85 42.04 41.82 42.07 42.27
40.91 40.99 41.28 41.59 42.40 43.20 43.98 44.97 45.94 46.50 46.42 45.99 45.66 45.57 45.27 45.01 44.62 44.25 43.74 43.27 42.98 42.60 42.44 41.58 41.17 41.09 41.22 40.92 41.42 41.69 41.45 41.25 41.05 40.97 40.89 41.41 41.58 41.66 41.87 41.13 40.57 39.69 40.23
39.99 40.69 41.15 41.60 41.90 42.06 42.38 43.33 44.54 45.29 45.62 45.43 45.45 44.97 44.07 43.47 43.01 42.62 42.28 42.36 41.86 41.42 41.30 40.89 40.62 40.50 40.58 42.89 42.90 41.72 41.44 41.65 40.67 39.13 38.45 38.66 38.47 40.36 40.51 39.90 39.32 38.86 38.56
39.78 40.42 40.84 41.15 41.72 42.22 42.40 42.21 42.75 43.96 44.31 44.66 44.86 44.38 43.74 42.94 42.29 41.84 41.26 40.93 40.57 40.25 39.91 39.75 39.92 39.69 40.54 42.79 43.28 43.22 41.35 40.64 39.33 38.22 36.87 35.51 36.71 35.99 36.79 37.57 35.91 36.07 38.01
40.08 40.91 41.67 41.96 42.53 42.57 42.19 42.14 42.21 42.61 43.06 43.61 43.87 43.76 43.00 42.23 41.26 40.61 40.36 39.42 39.15 39.25 38.90 38.85 39.16 39.18 39.18 42.43 43.04 43.01 37.10 37.17 36.74 36.58 35.85 34.72 33.07 33.61 34.09 32.66 31.67 32.61 33.83
40.33 41.06 41.84 41.69 41.94 41.87 42.42 41.52 41.47 42.04 42.22 42.46 43.02 43.28 42.71 41.32 40.36 39.70 39.23 37.95 38.08 37.56 37.57 37.94 37.68 38.20 38.60 41.61 42.40 39.42 37.87 36.26 34.57 33.84 32.66 31.70 30.48 32.44 35.43 31.63 30.30 30.87 32.84
40.92 40.86 41.89 41.37 41.11 42.45 41.63 40.84 41.29 41.56 41.23 42.38 43.24 43.42 42.52 41.64 40.35 40.20 38.58 37.50 38.08 36.11 36.43 36.13 37.02 37.73 37.71 40.62 42.02 39.19 36.73 35.41 33.73 32.30 31.80 34.91 31.75 33.63 36.88 31.56 30.29 28.99 30.60
39.83 41.16 41.29 41.08 41.64 42.09 41.08 40.01 40.81 40.59 42.85 42.93 43.00 42.43 42.16 41.63 41.31 39.42 37.73 37.13 35.45 35.88 36.43 36.61 36.15 37.37 37.54 37.76 41.28 41.22 35.50 34.93 33.71 32.90 31.79 32.02 36.71 36.01 36.90 32.71 30.31 29.93 31.10
37.52 39.21 39.24 40.67 41.99 42.17 40.33 39.99 40.01 42.35 42.04 42.34 41.75 41.41 41.45 40.93 39.31 38.41 36.86 36.74 35.65 35.36 35.68 36.12 36.22 37.11 37.35 38.49 40.28 41.50 37.77 35.82 33.17 32.28 31.93 31.64 35.03 37.19 36.90 35.25 31.84 32.80 32.16
37.56 38.87 38.68 38.74 40.78 41.76 40.55 39.54 40.83 41.38 41.11 41.26 41.09 40.95 40.17 39.90 39.06 37.81 36.71 35.97 36.16 35.98 35.13 36.30 35.80 35.37 35.54 36.05 39.11 40.25 40.42 35.38 29.93 30.82 31.15 32.24 34.26 36.89 36.69 35.96 34.80 34.45 29.95
37.44 38.97 39.23 39.61 40.70 41.48 41.38 40.24 40.71 40.53 40.05 40.12 40.66 40.70 39.91 39.12 38.54 38.52 37.59 37.11 36.23 35.97 35.61 35.25 35.43 35.53 34.89 34.42 34.49 37.32 38.33 38.90 36.02 33.28 32.83 33.18 33.08 33.50 33.52 33.60 34.73 31.05 30.19
38.20 39.20 39.61 40.00 40.35 41.74 41.80 40.52 39.61 39.82 39.17 39.33 39.80 39.79 40.34 39.04 37.81 38.30 37.84 37.70 37.78 37.82 36.17 36.09 35.97 34.59 33.76 34.34 35.71 34.86 34.04 33.85 34.65 31.77 29.52 29.84 29.50 29.64 30.46 29.71 29.70 29.57 30.44
37.20 38.21 39.42 38.54 39.12 40.41 41.74 40.51 40.11 40.60 40.06 38.94 38.84 39.44 39.98 39.10 38.58 37.02 36.62 39.61 38.85 39.95 39.61 39.04 37.08 35.75 37.45 38.00 38.30 37.87 37.30 37.15 37.05 29.81 28.22 27.76 28.53 28.55 29.20 28.58 27.91 27.79 29.02

GFSMW_sfc_wetblb_102.txt.gz
Wetbulb
59.61 61.36 58.67 62.70 62.95 63.25 62.67 62.19 62.57 63.81 65.46 66.64 66.58 66.61 66.33 66.61 66.74 66.96 67.67 67.73 67.95 68.00 68.76 68.68 68.50 68.11 66.33 65.41 65.57 65.67 65.31 65.38 66.08 65.29 64.54 65.06 65.20 64.21 64.14 64.20 64.93 63.93 64.26
57.62 57.39 57.04 58.74 61.24 61.51 61.95 62.04 62.73 62.92 63.63 65.63 66.58 66.90 66.91 67.50 68.28 68.30 68.04 67.77 68.02 67.39 67.82 67.68 67.44 67.64 66.62 65.78 65.95 65.85 65.66 66.09 66.57 63.28 63.31 59.16 60.76 62.26 62.57 63.57 62.83 62.34 63.43
55.86 55.41 56.02 58.63 61.00 60.72 61.40 61.83 62.18 63.01 63.18 64.19 66.11 66.83 67.76 67.63 67.51 67.22 67.95 68.45 67.83 67.67 67.03 66.36 66.04 66.21 66.48 65.61 66.53 66.78 66.17 64.15 65.71 65.35 62.33 58.60 56.36 59.41 61.77 61.44 61.90 61.56 61.95
51.99 54.06 57.80 59.16 59.88 61.05 62.75 62.38 62.34 63.02 62.74 64.06 65.02 63.67 62.60 63.57 64.97 66.22 66.68 65.87 66.62 66.16 64.52 64.63 64.61 64.23 64.75 65.16 65.38 63.55 64.32 63.97 62.22 63.23 62.55 63.69 62.42 56.87 55.06 59.73 60.30 60.22 59.50
51.76 52.09 53.39 56.31 59.96 62.24 62.51 62.78 62.62 62.92 63.53 63.73 64.11 62.84 62.42 63.81 64.75 64.42 64.34 63.01 63.93 63.90 63.47 64.14 63.55 60.60 58.91 57.81 58.09 58.21 58.42 58.44 59.79 60.06 60.95 60.75 60.50 60.28 57.34 53.85 56.20 58.47 58.45
51.00 52.04 52.64 53.30 54.33 57.26 60.73 62.70 62.97 62.78 64.05 64.03 64.03 63.65 63.41 63.29 63.23 63.47 63.41 61.27 60.65 60.41 60.05 60.50 59.74 58.06 56.79 55.57 54.55 54.71 55.11 55.56 55.94 56.62 56.79 56.15 55.41 55.24 55.73 54.57 54.91 55.16 56.88
50.86 51.24 51.65 52.47 53.60 53.85 54.24 55.57 60.29 62.62 63.78 64.11 64.57 64.39 64.48 63.81 63.21 63.52 63.59 60.46 58.12 57.35 57.06 57.11 57.23 56.98 56.31 54.45 54.13 53.23 53.97 54.42 55.08 55.50 55.81 55.96 56.28 56.71 56.21 55.11 54.12 53.45 55.47
49.01 48.81 49.85 50.89 51.20 51.47 52.90 53.69 53.98 55.58 59.26 62.46 63.63 63.91 64.85 63.74 64.38 63.98 62.46 60.40 58.80 57.08 56.78 57.01 57.46 55.50 54.08 52.98 52.80 53.65 53.85 53.82 54.25 54.16 54.38 55.01 55.93 56.81 56.09 54.32 52.57 50.44 52.62
47.35 47.55 49.01 49.78 50.44 50.88 50.68 52.00 53.26 54.54 56.94 59.69 62.19 63.61 62.78 61.82 62.09 62.70 62.14 61.08 59.43 57.73 56.43 56.35 55.41 54.36 53.19 53.46 53.85 53.95 52.66 53.34 53.28 53.54 54.14 54.30 55.03 55.35 55.65 54.78 53.53 50.99 47.76
47.29 47.78 48.21 48.79 50.37 51.44 51.93 51.87 52.20 53.40 55.77 58.70 60.11 60.52 61.08 62.05 62.35 60.96 60.14 58.97 58.63 56.61 54.82 54.18 54.35 53.31 53.17 52.15 51.20 50.79 50.47 50.79 51.05 51.32 51.44 51.92 52.61 53.07 53.35 53.52 52.84 51.53 50.20
47.65 48.25 49.00 49.34 50.04 52.10 52.62 52.26 52.70 53.35 54.89 57.34 58.00 58.11 58.51 58.69 59.76 59.30 58.69 58.06 56.78 55.32 53.90 53.68 53.24 51.32 49.86 49.09 48.93 48.88 48.41 48.45 48.86 49.27 49.82 49.92 50.39 50.50 50.68 50.55 50.38 50.03 49.90
47.71 48.20 48.95 49.63 50.09 50.57 51.88 52.40 52.72 53.31 54.63 55.19 54.67 55.02 55.92 56.56 56.86 56.92 55.90 54.98 54.20 54.52 54.99 52.89 51.24 49.56 48.61 48.44 48.02 47.20 46.66 46.65 46.26 46.56 46.97 47.72 47.84 48.55 48.77 48.56 48.44 48.38 48.26
47.74 48.10 48.19 47.89 48.73 49.51 50.32 51.52 52.48 52.81 53.07 53.26 53.57 53.21 53.29 54.08 54.93 54.86 53.12 52.44 51.82 52.83 52.08 50.62 49.27 48.44 48.29 48.19 48.14 47.67 47.06 47.11 47.56 47.72 47.86 48.19 48.36 48.08 48.08 47.34 47.25 47.54 46.52
46.47 46.81 47.55 48.02 48.46 48.62 48.98 50.04 51.07 52.03 52.04 51.86 51.91 52.23 52.49 52.85 52.95 52.39 51.75 51.92 51.97 50.53 49.33 49.43 48.65 47.86 47.13 46.65 46.22 46.43 46.06 45.97 45.91 46.26 47.16 47.39 47.57 47.41 46.49 45.99 45.73 44.80 44.63
45.19 45.82 46.47 47.50 48.08 48.26 48.60 48.92 49.39 50.14 51.02 51.12 51.12 51.27 51.67 51.66 51.20 50.73 50.66 50.53 49.74 49.00 48.78 47.94 47.20 46.71 45.96 45.21 45.36 45.52 45.65 45.53 45.02 45.18 45.17 45.40 44.06 42.29 43.98 44.47 44.76 43.62 42.39
44.46 45.36 46.14 46.89 47.37 47.90 48.08 48.33 48.68 48.55 48.82 49.65 50.52 51.32 50.16 49.70 49.49 49.50 48.99 48.48 48.11 47.64 46.99 46.76 45.87 45.14 44.18 43.51 44.20 45.54 45.21 44.82 44.54 43.46 43.15 43.05 41.51 42.07 41.52 40.88 40.21 41.02 40.82
43.73 44.60 45.56 46.39 47.09 47.45 47.80 47.53 48.20 48.57 48.07 48.36 49.25 50.21 49.90 48.92 48.62 48.39 47.71 46.91 46.44 46.54 45.74 45.57 45.19 44.89 44.44 43.94 43.98 43.70 44.77 44.20 43.79 42.76 41.39 39.69 39.65 39.36 41.04 39.68 38.75 37.90 38.66
42.02 43.29 44.57 45.35 46.40 47.22 47.62 48.04 47.93 47.71 47.33 47.22 47.77 48.75 49.29 48.58 48.09 47.00 46.66 46.67 46.21 45.22 45.25 44.72 44.73 44.68 44.29 44.15 44.41 43.74 41.91 41.63 42.41 41.59 40.57 38.95 37.31 36.86 36.88 37.37 35.70 35.93 37.01
41.34 41.93 43.23 43.90 44.92 45.45 46.49 46.57 46.44 47.10 46.89 46.44 47.12 47.77 48.40 48.24 47.73 45.79 45.52 45.74 44.98 44.85 44.51 44.25 43.91 43.74 43.19 43.59 43.86 43.28 41.30 40.98 40.31 39.49 37.57 36.68 34.85 36.07 36.58 35.31 33.67 34.45 35.56
40.31 40.26 41.18 42.44 43.41 44.14 45.15 44.80 44.75 45.32 45.73 46.46 46.63 47.25 47.89 47.95 47.73 46.49 45.62 45.14 44.61 42.77 42.67 42.25 42.90 43.06 43.34 42.81 42.93 42.63 41.94 40.34 38.94 36.38 34.65 35.19 33.63 35.18 37.31 35.25 34.41 32.65 34.21
39.58 40.73 41.00 40.74 41.69 42.82 43.41 42.85 43.67 44.03 46.15 46.79 46.63 46.17 46.54 46.44 47.64 47.07 46.24 44.02 42.84 41.45 40.72 41.26 42.05 42.04 43.22 42.85 42.85 41.81 40.64 40.08 38.67 36.81 33.56 34.02 36.46 35.60 37.39 35.60 34.16 33.49 34.66
38.51 39.69 39.45 40.38 42.17 43.19 42.73 42.15 42.77 45.09 45.80 46.25 45.56 45.55 45.65 45.48 45.07 45.74 44.07 42.27 40.41 38.33 37.96 38.54 39.31 41.35 41.95 42.21 42.03 42.68 40.32 39.80 38.13 37.34 38.34 37.65 36.46 37.32 37.44 36.27 33.56 33.41 33.88
37.35 37.85 37.90 39.20 40.83 41.94 42.44 41.67 43.86 44.79 44.94 45.08 44.62 45.29 45.36 44.83 44.64 43.39 41.91 40.60 39.79 38.90 37.89 37.78 37.82 39.22 40.50 41.15 41.20 42.30 41.29 39.55 37.18 37.26 36.87 35.46 35.85 37.81 37.42 36.95 34.56 34.33 32.88
36.69 38.19 37.68 37.70 38.20 40.24 41.04 40.77 41.93 44.31 44.27 43.37 43.76 45.01 44.10 43.51 43.04 42.82 41.83 41.18 39.33 38.68 38.11 38.50 39.00 39.37 38.16 38.97 40.37 40.62 41.04 38.42 34.33 33.59 34.26 34.40 35.02 36.61 37.22 36.56 35.65 33.90 33.07
34.79 35.60 35.90 37.28 37.34 38.27 38.83 39.55 40.88 42.29 42.57 42.63 43.15 43.65 43.05 42.41 41.18 41.63 41.31 41.62 41.01 41.23 39.50 39.69 39.32 37.97 37.23 38.48 39.47 39.55 38.72 37.55 35.97 34.94 33.97 32.92 32.31 31.82 33.14 33.73 34.54 33.39 32.80
34.09 34.65 36.30 36.15 35.93 37.10 37.07 39.62 41.54 42.59 41.22 41.79 42.19 42.14 41.49 41.81 40.50 39.58 39.40 41.41 41.72 41.63 40.99 40.11 38.83 37.79 39.47 39.50 39.08 38.57 38.91 39.10 38.87 33.00 32.31 31.62 31.04 30.61 30.93 31.14 31.06 31.40 32.00

GFSMW_sfc_wetblb_105.txt.gz
Wetbulb
56.37 60.12 58.97 61.38 62.20 61.78 62.81 62.78 62.66 63.01 64.63 65.87 66.26 65.85 65.37 66.57 66.69 67.02 66.98 66.86 67.17 68.26 68.51 68.42 68.38 68.87 66.84 66.03 65.41 65.08 64.52 64.84 66.37 64.45 63.59 63.32 65.17 64.54 64.16 63.93 63.45 63.50 63.81
56.88 57.79 57.24 57.45 57.80 60.26 61.83 62.01 62.33 62.37 63.81 65.58 65.70 66.98 67.10 67.44 67.49 67.73 67.46 67.54 67.61 67.75 68.04 68.35 68.52 67.65 67.38 66.68 65.69 65.13 64.73 65.64 66.23 63.33 62.50 58.87 60.68 62.21 61.81 62.52 62.14 62.06 62.86
55.97 55.73 55.19 56.41 57.80 59.29 60.95 61.47 62.08 62.62 63.17 63.94 64.33 65.63 66.90 67.27 66.86 67.33 67.67 67.72 68.11 68.23 68.38 68.07 67.86 66.74 65.54 66.04 65.63 66.21 65.42 63.90 65.74 65.49 61.89 58.06 56.45 59.01 61.53 61.39 61.28 61.05 61.35
55.93 55.80 55.61 56.44 58.92 58.66 61.54 61.69 61.47 61.73 62.53 63.60 63.64 63.78 63.14 62.92 65.69 66.78 67.33 67.33 67.84 67.32 67.52 66.86 65.64 64.29 64.30 64.10 61.27 62.23 63.68 64.93 62.21 63.85 62.74 63.03 61.03 57.48 54.39 59.78 60.14 60.04 59.55
54.93 55.70 56.56 57.73 58.66 59.51 60.38 61.24 61.35 61.78 62.03 62.52 62.90 63.46 62.60 63.67 64.69 64.82 65.04 65.00 65.61 65.77 65.14 65.37 63.86 63.28 61.53 60.15 59.52 58.98 58.37 59.22 59.93 60.20 59.33 57.96 58.01 59.00 56.62 52.84 55.68 58.45 58.99
52.67 54.60 55.98 57.32 58.67 60.35 60.40 61.49 61.57 61.70 61.77 62.07 61.96 62.74 62.12 62.23 62.38 63.16 63.32 63.18 63.14 63.01 63.65 64.06 63.49 61.85 60.34 58.83 58.05 57.96 57.98 56.90 56.78 56.84 57.51 55.67 54.15 54.62 55.09 53.72 54.13 54.85 57.16
50.81 51.39 52.07 52.65 54.00 56.83 59.56 61.12 61.68 61.19 61.70 61.92 61.99 62.43 62.30 61.61 62.07 61.51 61.35 61.48 60.80 59.37 59.44 60.23 59.95 59.83 59.98 59.23 58.38 57.79 57.24 55.98 54.98 55.02 56.04 56.51 56.08 57.13 56.10 54.08 53.80 53.34 55.82
50.30 49.77 51.05 52.94 53.69 54.34 54.21 55.80 58.25 61.17 62.10 62.87 62.20 62.47 63.39 62.47 62.89 62.88 62.79 62.85 62.03 59.89 58.65 58.33 58.69 58.38 58.05 57.45 56.55 56.41 56.01 55.53 55.81 55.66 55.44 55.75 55.97 56.32 56.00 54.97 53.28 51.48 51.68
48.28 49.29 50.36 51.57 51.78 52.17 52.45 53.70 54.12 54.93 57.58 61.08 62.93 63.77 63.69 63.67 63.97 64.01 63.84 62.34 60.73 59.13 58.42 58.62 57.16 55.37 55.16 54.91 54.00 54.46 54.10 54.29 54.78 54.93 55.15 54.69 54.89 55.27 55.90 54.60 54.26 51.72 48.18
47.63 48.40 48.81 50.41 52.20 52.89 53.27 53.46 52.98 53.86 55.51 57.44 59.88 61.28 63.12 63.13 62.75 62.66 61.77 61.40 60.13 58.23 57.13 56.12 55.05 53.74 53.93 53.86 54.43 54.72 54.26 53.76 53.17 53.22 52.94 53.00 53.06 53.13 53.48 53.91 53.40 51.97 50.52
47.94 48.51 48.89 50.17 51.19 52.66 53.72 53.63 53.73 53.94 54.83 56.99 58.83 59.86 60.73 61.33 62.37 61.40 60.33 60.06 59.32 57.50 56.18 55.10 53.79 53.49 54.27 53.98 52.73 52.12 51.16 50.99 50.68 50.87 51.03 51.32 51.93 51.36 51.79 51.57 50.68 50.84 50.35
47.99 48.42 48.65 49.06 49.53 50.12 51.13 52.48 53.50 53.93 54.86 55.95 56.62 57.63 58.63 58.66 58.88 59.68 58.94 59.14 57.68 56.20 55.14 54.31 53.93 53.85 53.29 52.29 51.26 49.61 49.02 49.30 48.74 48.54 48.77 49.29 49.20 49.50 50.01 49.79 49.36 48.92 49.33
47.72 48.47 48.82 48.78 48.71 49.12 49.62 50.63 51.85 52.64 53.61 53.65 54.08 54.70 54.75 55.78 56.79 57.55 57.02 56.46 55.65 54.67 54.03 53.05 52.73 52.55 50.79 48.89 49.07 48.74 47.77 47.74 47.66 47.72 47.46 48.11 48.26 47.68 47.99 48.17 47.68 47.62 47.12
46.74 47.14 47.83 48.46 48.95 49.21 49.37 49.40 49.71 51.03 52.16 52.68 52.57 52.63 53.29 53.80 54.71 55.62 55.05 53.72 53.03 53.14 52.82 52.43 52.09 49.97 48.78 48.58 48.06 47.89 47.29 47.00 47.31 47.64 48.19 48.58 48.42 48.32 48.32 47.23 46.81 46.12 45.24
45.30 46.02 46.51 47.32 48.36 48.62 49.09 49.39 49.75 49.98 50.03 50.45 51.52 52.08 52.72 52.95 52.98 53.01 53.10 53.45 51.83 51.41 51.17 50.92 49.84 48.18 47.49 46.98 46.83 47.21 46.83 46.56 45.69 46.25 46.80 47.15 45.47 43.65 45.43 45.65 45.19 44.38 43.56
44.59 45.49 46.21 46.98 47.38 47.89 48.16 48.63 49.15 49.42 50.02 49.20 49.44 51.48 52.30 51.98 51.27 51.08 51.28 51.54 51.11 50.07 49.35 48.61 47.75 46.63 45.93 46.24 46.88 46.80 46.20 46.10 45.67 44.39 44.39 43.12 41.95 42.51 42.95 42.13 41.35 42.28 42.19
42.20 42.84 43.71 44.92 45.80 46.58 47.57 47.29 48.31 49.34 48.89 48.89 49.31 49.65 50.76 50.89 50.72 50.43 49.88 49.18 48.60 48.66 47.73 47.44 46.95 46.13 45.68 45.50 46.11 46.12 46.27 45.23 44.78 43.95 43.02 42.12 41.72 41.80 41.22 40.94 40.76 39.72 39.96
39.79 40.61 41.38 42.11 43.11 44.11 44.79 45.95 47.16 47.62 47.89 48.13 48.56 49.22 49.37 49.65 50.37 49.90 49.11 48.84 48.42 47.45 46.87 46.70 46.26 45.98 45.34 45.08 45.19 44.93 43.15 42.79 43.28 42.66 42.23 40.58 39.47 39.89 40.06 38.75 36.00 36.12 37.18
40.16 40.71 41.78 42.01 42.48 42.90 44.16 44.16 44.04 45.03 45.85 46.22 47.49 48.52 49.11 48.63 49.34 49.12 48.25 48.16 47.49 46.73 46.34 46.22 45.22 45.08 44.54 44.76 45.04 43.50 41.45 41.17 40.99 41.62 41.34 40.16 38.54 39.18 39.21 36.36 33.57 34.17 35.26
40.94 40.77 41.55 42.10 42.35 42.91 43.76 43.04 42.58 43.03 43.60 44.94 46.19 47.81 48.60 48.27 48.09 49.06 48.50 47.75 47.22 45.56 45.36 44.25 44.74 44.92 43.94 44.44 44.95 43.77 41.82 40.72 40.01 39.48 38.09 39.15 37.32 38.57 38.63 35.42 33.66 31.62 32.97
40.01 40.28 40.03 39.24 40.18 41.18 41.45 40.50 41.83 42.23 44.15 45.39 46.10 46.33 47.49 47.45 47.78 48.25 49.15 47.24 45.64 45.11 43.74 43.10 43.65 43.74 44.51 43.09 44.41 44.11 42.05 40.71 38.56 36.24 35.30 35.99 37.36 37.32 38.33 36.85 33.96 32.75 34.70
39.24 39.99 39.03 38.87 40.09 40.80 40.51 39.65 39.55 42.06 43.62 43.63 44.28 45.17 46.40 46.79 46.54 46.96 47.81 46.98 44.67 43.36 42.41 41.45 41.75 42.48 43.00 43.80 43.95 43.70 43.13 42.56 38.46 36.76 36.95 36.03 38.54 36.75 37.25 37.32 35.57 34.95 35.26
38.56 38.42 37.08 37.00 37.68 38.37 38.74 38.72 39.41 40.54 41.02 41.68 41.30 43.72 44.05 45.68 46.51 45.68 45.47 44.72 43.67 42.33 40.74 40.11 39.74 39.96 41.55 41.99 43.34 43.88 42.50 41.45 38.51 38.54 38.97 39.24 38.33 37.51 37.44 37.83 35.29 34.80 31.08
36.31 36.03 35.27 35.04 35.44 38.07 37.91 37.17 38.55 39.14 39.22 38.96 39.86 41.25 42.52 44.05 45.28 45.27 44.62 43.52 42.00 41.05 39.70 38.94 38.55 39.37 39.59 39.80 40.86 41.19 42.14 41.10 39.06 36.77 35.69 35.68 36.26 37.73 36.73 35.99 33.76 31.45 31.11
35.56 35.32 34.75 34.14 33.97 35.12 34.84 37.39 37.74 36.99 36.87 39.28 40.21 41.19 42.56 42.99 43.85 43.93 43.46 42.78 43.56 42.34 40.87 40.00 40.09 38.98 37.66 38.97 40.78 40.79 40.13 38.23 35.49 33.11 32.54 31.82 31.85 32.81 33.50 33.58 33.02 31.61 31.29
34.93 33.98 33.78 33.41 33.14 34.13 34.05 34.61 35.08 35.35 35.25 37.29 40.36 41.27 42.02 42.65 42.88 42.01 41.63 43.44 43.43 43.36 42.95 42.77 42.17 40.85 41.15 41.46 41.57 41.36 41.48 39.36 37.15 32.03 30.33 30.28 30.36 30.36 31.64 31.73 31.37 31.56 31.80

GFSMW_sfc_wetblb_108.txt.gz
Wetbulb
53.22 56.72 59.60 59.47 60.91 61.59 61.85 62.49 62.39 62.37 62.41 62.42 63.34 63.14 62.18 62.26 62.37 63.75 65.43 67.03 66.81 66.86 66.15 65.70 65.65 65.73 64.46 63.39 62.89 62.11 61.10 60.07 61.50 60.78 61.26 61.50 61.41 62.09 59.02 59.14 58.74 59.75 60.45
52.15 56.37 56.84 57.74 57.61 59.38 61.48 61.78 61.76 61.34 61.92 62.73 64.49 64.96 64.44 64.60 64.55 64.89 64.69 64.98 65.29 66.34 66.27 65.46 65.97 65.82 65.12 64.55 63.74 61.79 60.91 61.21 62.12 59.46 58.66 55.53 57.40 57.54 57.81 58.02 58.46 57.79 59.02
53.25 54.92 55.23 56.11 57.42 57.54 59.83 61.57 61.84 61.59 62.11 62.22 63.30 62.82 64.09 64.22 64.35 64.59 64.37 64.98 65.04 65.58 65.96 65.77 65.59 64.56 63.98 63.08 62.85 63.27 63.10 60.45 61.53 61.86 58.59 54.05 51.52 54.31 57.11 57.11 57.07 56.76 57.15
54.74 53.99 54.73 55.26 57.46 57.58 58.81 61.36 61.64 61.42 61.97 62.16 61.26 60.34 60.44 59.56 61.51 62.59 63.66 64.24 64.87 64.96 65.27 64.36 64.15 63.71 63.55 62.25 60.93 61.98 61.67 62.35 60.91 60.93 61.46 59.37 58.53 53.88 51.65 56.63 57.13 56.85 56.11
54.42 54.25 54.96 56.21 57.79 58.45 58.95 60.81 61.00 60.94 61.26 61.49 61.52 60.65 60.00 60.59 61.74 62.26 62.38 62.91 63.76 64.05 63.88 63.46 63.31 62.29 61.71 60.66 60.01 60.06 60.09 60.29 59.64 59.68 58.13 55.71 55.63 56.33 55.20 52.48 53.37 55.25 55.28
54.91 55.71 56.19 56.55 57.11 57.98 58.50 58.37 58.78 59.98 61.05 60.48 60.78 60.50 59.87 59.86 60.13 60.62 61.26 61.53 61.75 62.30 62.77 63.13 62.69 61.85 60.49 59.73 59.62 58.98 59.17 59.17 58.63 58.30 57.84 55.54 52.99 52.62 52.48 51.77 51.94 52.64 53.77
52.11 53.67 54.41 55.01 56.32 57.13 57.64 58.79 59.13 59.22 60.42 59.87 59.99 60.37 60.70 61.13 60.22 60.10 60.68 60.29 60.42 60.45 61.35 62.19 62.55 61.81 60.66 58.98 58.70 58.35 58.20 58.43 58.00 56.72 55.39 54.72 54.10 54.69 54.43 52.64 51.65 50.93 52.88
50.46 50.57 50.63 50.75 50.91 53.91 56.90 58.13 59.20 59.58 59.98 59.92 59.77 60.67 60.50 60.45 60.65 60.74 61.12 60.57 60.06 60.38 59.85 61.04 61.18 60.44 59.67 58.47 58.10 58.25 58.44 56.06 55.11 54.27 53.95 54.14 54.49 54.98 54.43 53.30 51.41 49.00 49.60
47.21 47.27 47.85 48.70 48.92 49.17 49.78 51.73 53.60 54.73 57.74 59.97 59.69 60.06 60.20 60.21 60.79 61.28 61.96 62.01 62.02 61.48 58.84 59.37 58.95 58.52 57.62 56.99 56.68 56.04 54.20 54.21 53.75 53.11 52.70 52.49 52.91 53.85 54.08 53.74 52.80 49.97 46.16
45.22 45.76 46.49 48.09 49.67 50.20 50.53 50.79 50.47 50.14 51.71 53.51 57.22 59.42 60.67 61.45 61.10 60.71 60.33 60.57 59.81 59.34 58.78 58.63 58.83 57.68 56.32 55.21 54.27 53.56 52.90 51.64 51.53 51.69 51.58 51.55 52.40 52.63 52.36 51.97 52.15 51.30 49.55
44.41 45.44 46.13 47.15 47.71 48.75 50.20 50.54 50.93 51.59 51.94 53.54 54.98 55.86 57.21 58.63 59.95 60.61 60.27 59.98 58.79 58.03 57.29 56.79 55.78 54.64 53.54 53.25 53.37 52.85 52.01 51.35 49.55 49.61 49.97 50.01 50.59 49.73 50.04 50.00 49.79 49.31 48.17
44.55 44.87 44.88 45.29 45.53 46.00 47.00 48.41 49.99 50.50 50.99 51.97 52.37 52.78 53.51 55.18 55.42 57.30 58.58 58.40 57.75 56.97 56.57 55.72 54.38 53.83 53.55 53.21 51.87 49.24 48.39 48.06 47.54 47.11 47.68 47.82 48.68 47.87 47.98 47.38 46.80 46.30 46.47
44.45 44.39 44.60 44.26 44.03 44.58 45.16 45.65 47.07 48.28 49.92 50.37 50.29 50.54 51.12 51.54 52.44 54.35 55.20 56.22 56.13 54.94 54.91 54.63 53.84 53.79 52.99 51.43 50.02 47.75 46.62 46.42 46.39 46.15 46.03 46.50 46.61 46.18 46.09 45.68 44.82 45.00 46.25
43.32 43.26 42.98 43.22 43.90 44.47 44.80 45.16 45.49 45.97 46.88 47.95 48.70 48.97 49.42 50.10 50.95 52.60 53.30 52.92 53.65 53.69 53.45 53.41 53.23 52.09 50.16 48.84 48.12 45.77 45.10 45.00 45.07 45.53 45.71 45.87 46.20 45.56 45.31 44.66 43.79 44.31 44.60
41.61 41.43 41.27 41.76 42.80 43.21 43.64 44.50 45.04 45.47 46.11 45.72 45.66 47.38 49.24 49.46 49.30 49.95 51.20 51.48 50.57 51.92 51.99 51.57 50.56 49.30 48.59 48.46 47.19 46.15 44.79 44.35 44.12 44.88 45.53 45.61 44.11 45.18 46.57 44.70 44.14 43.52 42.59
39.21 39.52 39.77 39.49 39.55 39.64 41.59 43.11 43.60 44.04 45.08 44.37 44.83 46.13 47.18 48.78 48.17 48.04 48.33 49.33 48.96 49.01 49.64 49.39 48.49 47.15 47.79 48.91 48.69 46.08 44.28 44.26 43.70 42.71 42.72 41.47 42.38 43.46 44.76 44.20 43.93 43.95 41.74
37.21 37.39 37.29 37.50 37.33 38.18 39.43 39.13 40.20 41.75 42.23 43.12 44.46 45.23 45.75 45.86 47.68 47.54 47.04 46.76 46.91 46.48 46.98 47.17 47.06 46.39 45.98 48.49 48.48 46.99 44.40 43.50 42.55 41.98 40.84 40.26 41.14 41.14 39.56 42.28 42.04 41.25 41.82
35.87 36.42 36.58 37.47 38.38 39.59 40.07 40.77 41.20 41.02 40.87 40.93 42.11 43.93 44.87 45.04 45.35 46.53 46.08 45.62 45.19 45.09 44.72 44.90 44.97 45.07 44.67 47.18 47.53 46.77 41.77 41.72 41.54 40.49 40.02 38.22 37.22 38.31 38.05 37.05 34.20 33.96 35.13
36.99 37.22 37.67 38.46 38.87 38.92 39.80 39.89 40.06 40.29 40.41 40.77 41.44 42.33 42.89 43.54 43.99 43.77 44.61 44.32 44.00 43.29 42.94 43.79 43.76 43.50 43.20 45.36 45.89 43.94 41.17 40.82 40.09 40.33 39.85 37.84 36.51 40.54 41.66 35.34 31.54 31.20 32.35
36.98 36.35 36.43 37.15 36.75 37.02 37.83 37.35 37.77 38.22 38.43 40.32 41.58 42.59 42.93 42.82 42.70 43.45 43.39 44.17 43.86 43.54 42.09 41.83 42.35 44.16 42.28 44.99 45.43 42.94 41.49 40.04 39.59 39.18 37.91 41.18 37.52 41.20 41.45 34.38 32.39 28.70 29.64
35.82 36.42 35.40 34.95 35.32 36.44 37.52 37.45 38.52 38.33 40.47 41.52 41.69 41.69 41.33 40.85 42.16 42.75 43.76 44.01 43.62 43.48 42.18 42.59 41.66 42.19 42.61 43.40 45.46 44.13 40.92 39.92 38.50 36.94 34.92 35.83 40.55 40.61 40.79 37.86 31.55 29.61 31.75
36.00 36.11 34.02 33.93 34.80 35.33 35.90 35.93 36.30 38.48 38.80 39.36 39.42 39.53 40.01 40.46 41.17 41.92 42.99 42.36 45.29 43.06 41.40 41.48 41.56 42.12 42.02 43.95 45.24 44.67 43.03 42.65 37.97 35.90 35.28 35.24 39.82 39.45 40.14 37.86 36.49 37.58 36.00
34.59 34.93 33.22 33.46 34.36 34.90 36.12 34.02 35.74 36.51 37.26 37.01 36.69 37.70 40.06 40.67 41.00 41.37 41.88 42.65 44.53 44.46 42.91 41.76 41.08 40.83 41.72 41.88 44.73 45.28 44.63 43.63 38.28 36.92 36.71 37.30 39.21 38.44 38.19 38.44 36.99 36.95 29.22
33.01 33.28 32.86 32.37 33.15 34.73 34.45 34.44 34.78 35.09 35.26 33.82 34.92 36.59 39.46 39.89 40.67 41.79 42.79 42.99 43.41 43.06 42.79 41.26 40.46 40.42 40.25 40.95 42.42 43.18 43.41 42.45 38.67 39.43 38.42 37.70 38.41 37.15 34.79 36.22 33.38 28.72 27.40
32.62 32.63 32.25 33.26 33.02 33.54 33.40 34.18 34.23 33.86 32.24 31.81 32.51 34.52 38.23 40.45 40.86 41.89 42.40 43.12 44.31 44.02 42.57 41.34 41.33 39.81 38.78 40.05 42.21 42.48 41.14 39.25 36.75 34.38 33.29 32.68 32.61 32.46 31.27 30.80 28.65 28.06 28.52
32.06 31.06 31.86 32.95 32.69 32.83 33.17 33.73 33.77 33.42 31.41 30.85 32.88 33.85 35.06 37.81 38.86 41.35 42.00 44.09 43.96 44.30 43.88 43.55 42.31 41.72 42.62 42.55 42.74 42.73 42.55 41.34 38.52 32.27 30.43 30.25 31.03 31.78 31.18 30.87 29.39 28.13 30.09

GFSMW_sfc_wetblb_111.txt.gz
Wetbulb
49.51 53.31 56.72 57.66 58.99 60.17 61.27 61.68 61.75 60.70 61.96 63.59 63.04 62.98 62.42 63.57 64.63 65.13 65.09 65.82 65.65 65.16 64.57 64.53 64.36 63.90 62.95 62.52 61.73 61.28 60.17 59.81 60.12 60.07 59.61 60.97 60.87 59.69 59.77 58.48 58.51 59.36 59.62
49.22 54.04 57.05 54.96 56.05 59.11 61.16 61.49 61.60 59.98 60.33 62.07 63.11 63.56 62.73 62.33 63.20 64.34 65.90 66.34 66.35 65.74 65.24 64.95 64.77 64.56 63.81 62.31 61.91 61.05 60.30 60.52 60.65 59.28 59.62 56.63 57.16 58.30 57.70 57.09 57.94 57.37 58.73
47.98 53.61 55.38 55.54 55.24 56.90 58.93 61.30 61.48 59.85 60.40 61.33 62.87 62.95 63.44 63.56 63.05 62.44 62.28 63.41 65.68 66.23 65.89 65.21 65.16 64.44 64.36 62.70 62.94 63.16 62.12 59.90 61.13 61.17 59.19 54.96 52.13 54.32 56.25 56.11 56.27 56.17 56.67
51.58 54.31 54.35 53.95 55.66 56.92 58.13 60.44 61.64 60.86 61.44 61.78 60.98 60.17 60.09 59.54 60.35 61.63 63.40 63.48 63.31 63.35 63.80 63.87 64.00 63.22 62.72 62.12 61.79 62.10 61.77 61.28 59.96 60.26 61.17 60.12 58.44 52.99 52.79 56.42 56.49 56.62 56.37
51.83 53.41 53.99 56.08 57.51 58.06 58.12 58.83 61.43 61.13 61.19 60.98 60.72 59.66 58.99 59.85 60.65 60.68 60.89 61.09 62.79 63.43 63.38 63.17 62.93 62.45 62.13 61.52 60.77 60.14 60.07 60.32 59.98 59.52 57.42 56.80 57.02 56.65 54.57 52.06 53.33 55.31 55.40
53.63 54.27 55.40 56.30 56.77 57.29 57.66 59.51 60.41 60.39 60.65 60.66 60.61 59.82 59.01 59.36 59.32 59.59 59.62 60.85 60.75 61.59 62.47 62.56 62.23 61.93 61.26 60.19 59.76 59.59 59.67 59.76 59.18 58.87 57.60 55.71 54.76 52.80 52.67 50.46 50.34 53.06 54.12
53.68 53.64 54.07 55.14 55.92 55.92 56.90 57.89 58.41 59.36 59.96 59.70 59.83 60.05 59.76 59.88 59.25 59.35 59.49 59.74 59.95 60.22 60.48 61.28 61.64 61.62 61.54 60.42 59.40 59.05 58.98 58.86 58.77 58.61 57.81 56.29 55.57 55.76 54.07 53.19 51.78 50.77 52.73
49.48 49.13 50.94 52.29 52.37 55.29 56.75 57.43 58.18 58.13 59.27 59.21 59.02 59.82 60.12 60.38 60.34 60.02 59.68 60.07 60.26 60.56 60.61 61.25 61.59 62.23 61.44 60.01 59.43 59.49 59.42 59.27 58.71 57.16 55.99 55.23 54.99 55.17 54.91 53.48 51.75 49.37 50.14
45.77 46.86 48.15 48.55 48.62 48.44 50.97 54.64 55.65 56.24 57.62 59.28 59.33 59.03 59.57 59.28 59.43 60.15 60.44 60.30 60.84 60.87 60.62 60.98 61.10 61.49 61.01 60.41 59.74 59.59 58.78 57.99 56.70 56.28 55.04 53.94 54.00 54.09 54.21 53.89 52.69 50.14 46.52
45.29 46.27 47.03 47.92 49.23 49.39 49.41 49.96 49.64 50.12 51.03 53.37 58.01 59.28 59.35 59.87 60.04 60.11 60.22 60.37 60.77 61.33 61.07 60.04 60.21 60.12 59.88 59.31 58.42 57.79 56.70 55.83 54.29 54.54 54.06 51.77 51.53 52.44 52.79 52.60 52.11 51.26 49.11
43.83 44.59 45.39 46.16 46.58 46.82 48.42 49.27 50.09 50.74 51.44 52.66 53.79 54.54 55.64 57.02 59.11 59.53 59.66 59.67 59.95 59.58 59.92 59.55 58.99 58.69 58.11 57.19 56.21 55.24 53.96 53.97 52.98 52.35 51.85 51.15 51.86 51.35 51.39 51.69 51.13 50.49 49.65
43.43 43.72 43.23 43.28 43.19 43.64 45.03 46.16 47.44 48.64 49.40 50.01 50.24 50.69 52.17 53.12 54.43 55.10 58.01 59.28 58.68 57.63 57.35 57.13 56.50 56.07 55.29 54.49 54.33 53.54 53.08 52.60 51.04 50.73 50.04 49.40 49.53 49.10 49.31 48.12 47.38 47.17 46.88
42.22 41.74 42.05 41.75 42.19 42.71 43.88 44.32 44.55 44.88 46.54 47.68 48.42 48.97 49.12 49.65 50.41 51.97 54.27 55.33 56.06 56.24 56.07 55.56 54.74 54.35 54.08 53.29 53.37 52.23 50.88 50.28 49.63 48.30 48.24 47.89 47.90 47.08 46.68 46.38 46.00 45.30 46.04
39.94 40.08 39.74 39.45 40.07 40.80 41.98 42.71 43.39 43.98 44.60 44.91 44.65 45.18 46.91 48.48 48.97 49.74 51.99 53.01 53.23 53.41 54.09 54.66 54.43 53.94 53.87 52.90 51.69 50.26 49.52 49.39 48.02 47.03 47.25 47.17 47.33 46.59 45.88 45.27 44.40 44.41 43.46
37.31 37.39 36.96 36.36 36.54 37.01 38.15 39.16 40.43 41.63 42.69 42.89 43.58 44.07 44.88 46.11 47.87 48.32 48.96 50.96 51.05 51.20 52.06 52.76 53.15 53.22 51.42 50.00 49.30 48.50 48.65 47.57 46.12 44.97 45.50 45.57 45.94 46.42 46.82 44.93 42.99 42.32 41.67
35.19 35.57 35.82 35.70 35.47 34.89 36.86 38.14 38.37 39.43 40.66 40.29 41.08 42.95 43.97 44.44 44.91 46.24 46.96 47.34 48.56 48.55 48.85 51.56 51.81 49.74 49.67 48.91 48.98 48.27 47.07 45.94 44.90 43.94 43.55 43.03 44.36 46.03 48.09 47.27 46.26 44.22 41.64
33.78 34.13 34.04 34.56 35.45 36.14 37.35 36.63 37.70 38.77 38.83 39.10 40.15 41.06 41.82 42.47 43.50 44.30 45.26 45.57 45.37 46.02 46.12 47.99 49.35 49.19 48.92 48.45 49.08 48.28 46.30 44.78 43.92 43.57 42.03 41.30 41.84 42.65 41.97 45.01 44.88 45.02 45.75
34.15 34.40 34.46 35.12 35.75 36.76 37.05 37.29 37.91 37.98 38.40 38.38 39.29 40.47 40.96 41.01 41.82 42.57 42.78 43.90 44.13 44.60 44.81 46.06 46.31 47.02 46.80 47.65 48.72 47.93 45.19 44.57 43.51 43.04 42.06 41.27 40.11 39.39 39.37 38.46 35.88 36.32 37.91
35.05 35.21 35.13 35.71 35.16 36.15 36.92 36.99 36.80 37.36 37.60 37.61 38.32 39.48 39.83 40.00 40.80 40.66 41.13 41.62 42.69 43.69 43.57 43.44 44.34 44.18 45.24 46.21 47.44 46.93 43.47 42.32 42.02 42.50 42.02 40.67 39.50 41.90 41.98 36.72 33.82 32.78 33.19
35.63 35.51 35.42 35.32 34.64 34.94 36.19 35.21 35.00 36.02 36.13 37.65 38.69 38.30 38.55 38.26 37.91 38.53 38.96 40.37 41.69 42.44 44.51 43.61 43.37 44.17 43.77 45.04 46.74 46.61 43.31 41.54 40.36 40.69 40.19 42.21 39.77 43.16 42.51 35.60 33.05 29.97 30.33
35.21 35.37 34.60 33.55 33.85 34.38 34.53 33.93 35.14 35.97 38.03 37.86 37.13 37.54 38.15 37.82 37.72 38.55 40.05 39.61 39.52 41.37 42.45 43.68 44.54 42.51 43.69 42.73 46.29 46.21 42.53 41.84 40.42 39.37 38.47 39.72 42.25 43.20 42.93 38.30 32.64 31.39 31.72
34.22 34.83 32.69 32.29 33.15 33.88 35.61 34.68 33.85 35.73 36.68 36.45 37.06 36.91 36.27 36.35 37.17 38.12 39.42 40.03 39.44 40.32 41.33 42.20 43.19 43.51 43.66 44.37 45.52 45.92 44.55 44.05 40.64 39.28 39.40 39.95 42.43 42.36 42.74 38.83 37.49 37.38 35.75
33.24 33.94 32.08 31.71 32.33 33.92 34.86 32.55 33.27 34.54 34.63 33.98 33.70 33.61 34.48 34.75 36.01 37.57 38.86 39.45 39.65 40.00 40.67 42.01 42.62 43.01 42.94 42.51 45.10 45.96 45.31 44.41 40.53 39.78 39.39 40.12 41.78 41.43 41.59 39.77 38.39 38.18 31.77
31.34 31.82 30.88 30.05 29.85 31.65 33.70 33.57 34.04 34.03 32.91 31.81 31.53 31.89 32.54 33.83 35.48 36.91 39.46 40.20 39.85 39.97 40.96 41.74 42.20 42.54 41.62 41.70 42.63 44.29 43.97 43.89 41.36 39.63 38.28 38.97 39.84 39.53 38.45 37.82 36.48 31.69 31.05
30.99 31.05 29.91 30.18 30.00 30.98 30.58 31.39 32.08 33.44 31.93 31.03 30.62 30.71 31.83 32.35 33.41 34.78 36.53 37.69 40.49 42.18 41.00 41.88 42.60 41.55 40.55 40.98 42.84 43.56 43.08 42.09 40.20 37.50 36.25 35.84 35.76 33.88 33.28 33.85 29.90 28.89 30.10
30.80 29.87 29.67 29.63 29.92 30.71 30.45 31.27 31.73 32.77 31.09 29.74 29.64 29.80 30.19 31.75 32.58 32.76 33.50 37.44 39.54 41.38 43.56 43.86 43.56 43.26 43.95 43.70 43.46 43.82 43.91 43.57 41.68 37.13 34.67 34.02 34.46 32.54 32.02 31.96 28.97 28.52 30.00

GFSMW_sfc_wetblb_114.txt.gz
Wetbulb
44.06 49.69 55.29 55.94 57.80 57.69 58.64 59.62 60.44 61.49 62.01 61.93 61.23 61.38 61.84 61.30 62.91 62.78 63.19 63.05 63.67 62.60 62.46 62.26 61.99 62.25 61.57 61.36 60.62 59.89 59.41 59.04 59.18 58.71 58.25 59.41 59.43 60.36 59.80 59.65 58.26 59.32 59.72
45.90 50.85 53.55 54.27 54.90 57.17 58.56 59.53 60.52 60.85 60.71 61.29 63.41 63.22 62.20 62.21 62.56 62.76 63.13 63.64 63.27 62.99 62.67 63.08 63.09 62.99 62.16 61.39 60.99 60.69 59.57 59.66 59.57 58.03 58.38 55.68 57.15 57.21 57.42 57.22 58.44 57.85 58.81
45.16 50.92 52.99 52.99 56.14 56.08 59.10 59.76 61.68 59.86 60.12 61.21 63.45 63.20 62.74 62.62 62.18 62.41 62.79 64.04 64.50 64.22 63.68 63.89 64.09 63.78 63.47 61.98 61.63 61.15 60.53 58.95 59.45 60.28 58.85 54.35 53.09 54.41 55.78 55.92 57.22 56.54 56.64
46.71 51.20 52.54 54.04 54.75 54.24 56.09 58.00 59.40 59.38 60.02 60.78 60.87 61.49 60.72 59.87 60.80 61.87 62.69 62.90 64.35 64.35 64.31 64.08 64.01 63.79 63.10 61.69 61.78 61.75 61.03 60.91 58.52 59.01 60.62 58.82 57.73 52.57 52.55 56.07 56.22 56.70 56.47
49.10 50.75 53.29 54.55 54.79 55.74 55.93 59.03 60.15 59.28 59.55 60.69 60.65 60.03 59.24 59.91 60.65 60.73 60.57 60.89 61.29 62.16 62.78 62.56 62.58 62.14 61.86 61.92 61.00 60.65 60.42 60.68 59.74 59.13 58.10 58.00 57.61 56.48 53.98 51.71 54.44 55.32 55.92
49.40 51.70 54.28 55.70 55.17 55.64 57.01 58.09 59.36 59.10 59.93 60.47 60.15 59.72 59.01 58.74 58.78 58.71 59.16 59.92 60.33 60.66 61.13 62.08 61.97 61.38 61.09 60.71 60.50 60.32 60.10 59.76 59.74 59.41 57.46 56.27 55.76 54.48 54.19 51.22 50.86 52.81 52.76
50.38 53.33 53.56 54.20 55.21 55.89 56.39 58.18 58.78 59.20 59.68 59.94 59.77 59.29 59.06 58.75 58.56 58.84 58.61 58.48 58.64 58.93 59.84 60.77 60.30 60.81 61.29 60.82 60.37 59.97 59.57 59.38 58.92 58.86 58.92 57.41 56.35 55.40 55.56 53.91 52.21 50.35 52.20
48.75 48.95 49.28 49.48 50.57 53.87 55.60 56.96 57.47 58.55 59.27 59.40 59.24 59.95 59.89 59.42 59.25 59.33 58.99 58.71 58.61 59.16 59.73 60.70 61.28 60.86 60.68 60.41 60.08 59.79 59.96 59.99 59.47 58.69 58.23 57.76 57.43 56.28 55.14 54.32 53.12 50.13 50.97
46.89 47.73 48.77 49.18 49.01 48.84 49.87 52.94 54.82 56.64 57.68 58.59 59.13 59.21 59.39 59.40 59.18 59.61 59.60 59.51 59.78 59.83 59.96 60.20 60.28 60.77 61.08 60.85 60.33 60.20 59.76 59.70 59.59 59.25 58.31 57.45 57.39 56.00 55.16 54.89 53.98 52.21 47.94
45.01 45.45 46.01 46.58 47.81 48.64 49.58 50.21 50.43 50.75 52.16 53.87 55.63 58.81 58.85 59.18 59.32 59.32 59.38 59.80 60.11 60.31 60.05 60.01 60.18 60.27 60.35 60.75 60.77 60.25 60.19 59.57 59.49 59.07 57.16 56.51 55.42 55.59 54.47 53.57 51.83 50.52 48.84
43.07 43.51 43.51 43.92 44.04 44.97 45.79 46.61 48.10 48.83 49.17 49.95 50.58 51.89 54.00 56.56 58.27 58.95 59.73 59.90 60.12 60.15 60.05 59.92 60.04 60.12 60.19 60.50 60.08 59.64 59.16 57.70 57.81 56.53 55.97 55.33 53.39 52.89 52.71 51.69 51.36 50.27 48.56
41.33 41.52 41.68 41.97 42.05 42.17 42.97 43.42 44.09 44.66 45.74 47.07 47.99 48.64 49.44 50.15 50.79 52.19 53.85 56.68 57.66 57.68 58.68 59.00 59.18 59.55 59.27 59.12 58.33 57.73 56.93 55.36 55.58 54.04 53.90 53.48 52.57 51.89 52.56 51.14 50.20 48.93 48.59
38.31 38.45 38.21 37.88 38.32 38.80 39.41 40.07 41.23 41.87 42.92 44.04 44.51 44.94 45.58 46.82 47.88 48.88 50.21 53.12 54.97 55.47 55.50 56.59 56.62 56.85 56.81 56.24 55.92 55.95 54.98 54.16 54.27 53.88 52.65 52.62 51.91 50.31 49.38 47.41 47.30 45.93 46.38
35.88 35.73 35.50 35.21 35.99 37.26 37.78 38.27 39.23 40.61 41.35 41.69 41.79 41.95 42.81 43.80 45.07 46.77 47.82 49.37 51.78 52.28 53.01 54.61 54.66 54.98 54.86 54.46 53.95 53.91 53.58 52.89 52.35 51.51 51.70 51.14 50.52 48.79 47.01 46.60 45.26 44.69 44.01
34.19 34.06 33.75 33.70 34.33 34.59 35.67 37.01 38.04 38.93 39.50 39.69 40.00 40.23 41.30 42.28 43.02 43.69 44.88 46.38 47.86 49.65 50.58 51.14 53.37 54.25 53.94 53.74 53.10 52.33 51.22 51.12 50.11 49.72 48.91 48.70 47.81 47.24 47.70 46.06 43.66 43.46 42.18
32.42 33.02 33.72 33.35 33.61 33.40 35.09 36.42 37.01 37.91 38.72 38.18 38.34 39.63 40.16 40.73 41.03 41.64 42.29 43.21 44.15 45.25 46.80 47.55 49.98 51.92 52.41 51.41 50.61 51.43 50.31 49.85 49.19 47.30 46.33 46.46 46.44 46.81 48.57 48.01 46.95 45.82 43.41
33.04 33.33 32.98 33.90 34.31 34.86 35.93 35.13 35.63 36.85 37.02 37.40 38.28 39.11 39.90 39.92 39.88 40.39 40.58 40.81 41.46 42.85 43.53 45.00 46.72 48.32 50.16 50.10 50.19 49.72 49.88 48.33 47.60 46.40 44.60 43.29 43.89 45.61 45.87 47.86 47.31 46.62 46.96
32.97 33.41 33.39 33.59 34.11 34.32 34.31 34.72 35.40 35.27 35.74 36.07 36.83 38.21 38.50 37.80 38.38 38.89 39.24 39.69 40.17 40.29 41.05 42.21 44.04 45.60 47.83 48.82 49.01 48.94 48.24 45.54 45.49 45.71 45.30 44.02 42.80 42.53 43.45 43.82 42.46 41.51 42.40
33.15 33.22 33.02 33.38 33.03 33.30 33.65 33.75 33.74 33.92 34.59 35.10 35.93 36.04 36.25 36.31 36.85 36.62 36.82 37.44 37.80 38.43 38.95 40.32 41.34 42.41 44.24 47.03 47.47 47.85 46.94 44.67 44.16 45.36 44.93 43.95 42.88 43.75 44.80 40.75 37.98 37.28 35.81
33.45 33.21 33.83 33.73 33.50 33.48 34.07 33.69 33.59 34.04 33.77 34.25 34.84 35.45 35.86 36.00 35.36 35.64 35.66 37.29 38.76 39.13 39.04 38.99 40.40 42.74 42.97 45.61 46.72 46.92 46.53 43.93 43.25 43.53 43.61 44.49 42.41 44.06 44.59 39.53 37.96 35.48 33.37
33.89 34.61 32.58 31.55 31.75 33.12 33.37 32.83 33.01 32.47 34.24 34.78 34.79 34.90 35.14 35.11 34.83 34.90 35.26 35.46 36.64 38.75 39.62 39.65 39.81 40.64 42.69 43.27 45.98 46.88 45.78 43.36 42.21 41.61 41.30 42.51 44.11 43.95 44.24 41.77 36.94 36.91 32.96
33.93 34.08 32.25 31.74 32.43 33.01 33.32 32.41 31.88 34.03 34.23 34.68 34.45 34.08 34.37 34.21 33.92 33.45 33.79 34.54 36.09 37.29 38.23 38.90 39.41 41.13 42.49 44.11 45.26 45.93 46.74 45.61 42.52 41.52 42.25 42.43 44.26 44.40 44.02 41.66 39.25 39.21 36.03
32.01 32.96 31.66 31.06 31.49 31.82 32.33 32.69 33.42 34.47 33.74 33.25 32.93 32.91 33.15 32.75 32.95 33.01 33.12 32.63 33.73 35.18 37.55 38.85 39.14 40.37 42.58 42.15 45.04 45.88 46.48 46.23 43.24 42.76 42.86 42.86 43.36 43.42 43.47 41.04 39.81 39.07 31.80
30.77 30.80 30.31 29.38 29.03 30.32 31.18 30.90 31.62 32.30 31.85 31.61 31.37 31.64 31.31 31.69 32.42 32.81 32.93 32.39 32.33 32.85 34.30 35.83 38.33 39.89 41.42 42.69 42.03 42.89 44.74 45.78 44.01 42.65 41.51 41.77 42.88 42.38 41.68 39.81 38.51 33.07 31.61
30.01 30.13 29.34 28.72 29.23 29.66 29.46 29.97 30.61 30.15 30.37 30.73 30.62 30.40 30.68 30.54 30.44 31.40 32.36 32.70 33.71 34.48 34.12 35.34 36.41 37.48 40.07 42.31 43.37 42.45 43.18 43.87 43.11 39.47 38.31 39.01 38.22 37.32 36.76 36.38 33.96 31.81 31.71
29.88 29.20 29.05 28.77 29.04 29.19 29.30 29.88 30.16 29.45 30.56 29.13 29.12 29.31 30.01 30.04 30.39 30.29 30.84 35.07 35.82 37.11 37.56 38.08 38.07 38.64 41.99 43.60 43.70 43.29 43.79 44.37 43.90 37.53 35.81 36.05 36.25 35.56 35.36 34.86 30.94 30.90 31.85

GFSMW_sfc_wetblb_117.txt.gz
Wetbulb
41.18 43.28 45.88 50.14 55.95 56.48 56.60 56.68 57.97 59.49 60.09 60.49 60.69 60.58 60.35 61.06 61.22 62.58 64.73 64.75 64.34 64.53 64.41 63.51 63.01 62.33 61.51 61.18 60.32 59.31 58.36 58.72 58.44 57.57 57.17 58.50 59.25 59.30 59.60 58.67 59.57 59.43 60.08
40.45 42.93 47.60 54.00 54.30 54.98 55.73 56.74 58.29 59.27 60.48 60.99 61.26 61.82 61.89 62.42 61.67 62.81 64.64 64.62 64.08 64.20 63.91 63.09 62.15 61.58 61.37 60.90 60.32 59.92 58.54 58.98 58.94 57.47 56.99 54.93 56.62 56.50 57.38 57.25 58.21 58.48 59.46
41.03 43.27 50.97 52.94 53.28 53.63 54.76 58.67 59.63 59.67 59.71 60.06 61.22 61.07 62.33 62.06 61.21 62.20 62.90 62.76 63.96 63.65 63.51 63.04 62.45 61.72 61.67 60.79 60.74 60.60 59.62 58.26 58.70 59.26 57.84 53.16 52.98 54.30 55.04 55.09 56.77 56.98 56.98
42.49 45.42 50.44 51.42 52.50 53.39 54.43 55.86 59.04 59.79 59.10 58.72 60.34 58.63 61.23 59.30 60.94 61.45 62.06 62.53 63.28 62.95 62.71 62.72 62.63 62.42 62.36 61.62 61.14 60.59 59.94 59.77 58.13 58.98 59.58 57.91 55.36 52.68 51.74 54.73 54.58 56.00 55.99
42.49 46.09 50.40 52.25 53.23 53.93 54.35 55.08 57.90 58.62 57.75 57.91 60.00 58.81 60.28 60.82 61.16 61.05 61.36 61.73 62.62 63.23 63.00 62.71 62.60 62.47 62.67 62.21 60.97 60.30 59.97 59.80 58.86 58.40 58.57 58.46 57.81 55.74 52.33 50.10 52.46 54.02 55.21
44.48 48.69 50.89 52.46 54.53 56.00 56.67 57.17 56.68 58.56 57.68 58.75 59.36 58.67 58.93 58.95 58.91 59.26 59.25 59.42 59.81 60.26 61.00 61.23 60.99 61.68 61.78 60.71 60.12 60.18 59.99 59.63 59.59 59.56 58.52 57.44 56.76 56.46 54.69 50.20 50.31 52.91 53.42
48.77 49.21 49.62 50.55 51.48 52.58 52.93 54.16 57.55 57.93 57.95 59.77 59.19 58.79 58.74 58.98 58.71 58.68 58.56 58.44 58.35 58.32 59.45 60.62 60.52 60.20 60.31 60.16 60.25 59.94 59.46 59.44 59.24 59.20 59.02 58.96 58.33 56.42 55.77 53.12 50.76 51.31 52.15
48.87 48.91 49.40 49.61 49.75 50.15 50.45 50.90 57.91 58.43 59.08 59.25 59.30 59.36 59.26 58.87 58.87 58.70 58.52 58.28 58.25 58.64 59.04 59.15 59.63 60.18 60.36 60.34 59.87 59.64 59.92 59.89 59.66 59.33 59.42 59.52 58.97 56.83 55.67 54.33 52.33 49.65 50.95
46.03 46.18 46.06 46.54 47.14 48.26 48.81 50.15 51.31 52.32 54.42 55.52 57.02 58.85 59.51 59.12 58.55 59.00 58.95 58.69 58.90 59.21 58.99 59.38 59.18 59.20 59.60 60.01 60.21 60.02 59.65 59.75 59.79 59.80 59.60 59.15 59.21 58.44 57.52 56.84 56.21 54.61 49.02
42.90 42.82 42.88 43.05 43.48 43.89 44.46 45.29 46.29 47.09 48.72 50.72 52.40 55.92 58.96 59.30 59.14 58.94 58.85 58.97 59.28 59.38 59.48 59.35 59.48 59.30 59.51 59.79 60.01 60.13 60.17 59.72 59.73 59.74 59.44 59.15 59.18 58.17 57.09 56.46 56.25 55.84 52.48
40.34 40.38 39.99 40.08 40.09 40.46 41.31 41.84 42.53 42.93 43.95 45.32 46.76 48.11 49.36 51.27 54.11 56.23 57.10 58.68 59.53 59.66 59.49 59.55 59.37 59.09 59.16 59.54 59.52 59.63 59.65 59.15 59.05 59.35 59.05 58.71 58.84 57.77 57.49 55.87 54.80 53.07 51.18
37.49 37.40 37.12 37.45 37.82 38.19 38.91 39.52 40.45 40.90 41.57 42.81 43.35 43.80 44.78 45.98 46.99 48.25 49.57 51.73 53.79 56.98 58.93 59.58 59.53 59.50 59.30 59.34 59.24 59.06 59.28 58.80 58.29 58.27 57.81 57.21 56.43 55.53 55.84 54.73 53.44 53.13 50.85
34.97 34.20 34.66 35.43 35.70 36.53 37.48 38.22 39.04 39.47 40.43 41.01 41.07 41.22 41.69 42.32 42.84 44.11 45.67 47.00 48.68 51.02 53.83 55.67 56.49 57.20 57.71 57.79 58.36 58.85 58.59 58.06 57.88 57.59 56.98 56.19 55.86 53.89 53.38 53.10 52.39 51.43 48.80
33.48 34.07 33.79 33.39 33.38 35.57 36.27 36.85 37.57 38.38 38.72 39.35 39.30 39.23 39.76 40.51 41.37 42.24 42.83 43.62 44.90 46.22 47.94 50.21 52.72 54.35 55.09 55.73 55.69 55.35 55.34 55.65 55.59 55.46 55.35 54.95 54.19 53.98 52.08 51.22 50.54 49.02 47.85
33.02 32.67 32.74 32.62 32.92 33.40 34.60 35.50 36.32 37.23 37.82 37.64 37.72 38.11 39.21 39.91 40.21 40.15 40.51 41.41 42.20 43.06 44.20 45.61 47.49 49.84 51.91 52.77 53.69 53.71 53.58 53.46 53.26 52.96 52.95 53.02 52.23 50.86 51.61 50.08 47.90 47.45 46.33
32.26 32.97 33.36 32.82 32.60 31.98 33.57 34.61 34.92 35.55 36.42 36.11 36.50 38.08 38.73 38.58 38.01 38.21 38.49 39.10 39.76 40.40 41.18 41.97 43.23 44.66 47.31 49.61 50.77 51.73 52.73 51.74 51.29 50.79 50.10 50.38 48.64 49.29 50.36 50.02 48.71 48.06 45.37
31.51 31.69 32.18 32.46 32.63 33.08 33.82 33.27 33.97 35.04 34.95 35.32 36.39 37.25 37.52 36.58 36.59 37.36 37.38 37.26 37.33 38.03 38.25 39.03 40.21 41.02 42.77 46.87 49.02 49.96 50.40 50.73 49.92 49.50 48.71 47.65 47.43 48.05 48.74 49.22 48.75 47.73 48.03
31.52 31.80 31.90 32.12 32.72 33.40 33.19 33.38 33.60 33.46 34.13 34.52 34.87 35.17 34.95 35.01 36.21 36.22 36.39 36.73 37.02 36.39 36.62 37.34 38.17 38.92 40.66 44.36 46.11 47.78 47.72 48.33 48.57 48.06 47.56 47.04 46.08 46.84 46.82 46.66 44.51 43.85 45.14
32.10 32.36 32.19 32.26 31.86 31.80 31.96 31.95 31.76 31.95 32.44 32.33 32.88 33.60 33.93 33.89 34.70 34.55 34.37 34.94 35.15 35.93 36.47 37.14 37.73 37.81 38.60 42.40 44.15 44.90 45.38 46.79 46.15 46.05 45.93 46.01 45.24 45.86 47.25 44.45 42.04 40.35 39.70
32.54 32.13 32.30 32.31 30.76 30.44 30.94 30.87 30.56 30.77 31.35 32.18 32.38 33.31 33.53 32.93 33.15 33.39 33.10 33.94 34.20 34.37 35.28 36.10 38.02 39.61 39.18 41.70 43.00 43.84 43.69 43.85 45.17 44.79 44.72 45.72 44.87 45.41 46.64 43.55 41.68 39.41 38.24
31.74 31.83 30.28 29.56 30.07 30.71 31.14 30.93 30.72 30.73 32.56 33.07 32.84 32.68 32.81 32.19 32.14 33.06 33.11 32.99 33.01 33.35 33.79 34.65 36.98 39.10 40.69 40.25 42.86 43.70 42.95 43.52 44.63 43.62 42.88 43.76 45.71 45.46 45.96 44.20 41.62 41.12 36.90
31.25 32.07 30.66 30.04 30.56 31.17 31.43 30.86 30.71 32.36 33.29 32.91 32.33 32.09 32.18 32.33 32.44 31.76 32.13 32.49 32.38 31.94 31.84 32.43 34.37 37.98 40.58 42.19 42.96 43.99 44.68 45.00 44.25 43.01 43.43 43.17 44.76 44.71 45.29 43.28 42.92 41.80 39.29
30.77 31.43 29.96 29.84 30.46 30.78 30.92 29.91 31.23 31.79 31.91 31.87 30.57 31.84 32.29 31.96 31.99 31.55 30.89 30.32 30.76 30.55 30.98 31.05 31.74 33.53 36.64 39.00 43.30 44.72 45.00 45.46 44.60 44.65 43.85 43.50 43.58 43.77 44.33 43.39 42.40 41.15 34.07
29.64 29.59 29.18 28.63 28.39 29.36 29.93 29.53 29.96 31.86 30.08 28.64 30.68 30.76 30.19 30.38 30.03 30.40 30.87 30.49 30.40 30.51 30.92 30.91 31.02 32.85 34.48 35.78 37.65 42.14 42.30 44.68 44.49 44.71 43.37 43.16 42.94 43.93 43.45 41.29 40.76 35.17 33.66
29.08 29.11 28.64 28.31 28.28 28.73 28.56 29.00 29.36 29.90 27.90 28.74 29.34 29.43 29.71 29.26 29.50 30.50 30.73 30.93 31.85 32.43 31.75 32.69 33.42 33.03 33.17 35.13 37.49 38.73 40.14 42.50 43.22 43.30 39.20 38.97 39.40 39.43 38.80 36.96 36.67 33.27 32.78
28.63 28.70 28.59 28.46 28.11 28.21 28.25 28.86 29.23 28.54 27.43 28.17 28.93 29.16 29.74 29.74 29.53 29.45 29.41 33.19 33.74 34.76 35.17 36.42 35.62 35.66 37.54 38.70 39.26 39.91 40.56 42.47 44.34 38.52 37.25 36.89 38.09 37.79 37.12 35.39 33.68 32.68 33.14